<?xml version="1.0" encoding="UTF-8" standalone="no" ?>
<gpx xmlns="http://www.topografix.com/GPX/1/1" xmlns:xsi="http://www.w3.org/2001/XMLSchema-instance" xsi:schemaLocation="http://www.topografix.com/GPX/1/1 http://www.topografix.com/GPX/1/1/gpx.xsd" version="1.1" creator="VisuGPX - https://www.visugpx.com">
  <metadata>
    <name>Lole impro en Donezan</name>
    <desc><![CDATA[Lole impro en Donezan]]></desc>
  </metadata>
  <wpt lat="42.65147" lon="2.09425">
    <ele>1523.2</ele>
    <name><![CDATA[Start]]></name>
    <desc><![CDATA[2011-08-23 06:53:43]]></desc>
  </wpt>
  <wpt lat="42.65172" lon="2.09412">
    <ele>1524.4</ele>
    <name><![CDATA[Lap 1]]></name>
    <desc><![CDATA[64.85km, 411:44, 9.5kph]]></desc>
  </wpt>
  <trk>
    <name><![CDATA[2011-08-23-06-53-43]]></name>
    <desc><![CDATA[411:44 - 64.9km]]></desc>
    <trkseg>
      <trkpt lat="42.65147" lon="2.09425">
        <ele>1586.529</ele>
        <time>2011-08-23T06:53:44Z</time>
      </trkpt>
      <trkpt lat="42.65134" lon="2.09419">
        <ele>1586.65</ele>
        <time>2011-08-23T06:53:48Z</time>
      </trkpt>
      <trkpt lat="42.65106" lon="2.09422">
        <ele>1585.784</ele>
        <time>2011-08-23T06:53:53Z</time>
      </trkpt>
      <trkpt lat="42.6507" lon="2.09432">
        <ele>1582.912</ele>
        <time>2011-08-23T06:53:58Z</time>
      </trkpt>
      <trkpt lat="42.65053" lon="2.09457">
        <ele>1581.396</ele>
        <time>2011-08-23T06:54:01Z</time>
      </trkpt>
      <trkpt lat="42.65049" lon="2.09467">
        <ele>1581.032</ele>
        <time>2011-08-23T06:54:02Z</time>
      </trkpt>
      <trkpt lat="42.65021" lon="2.0954">
        <ele>1579.87</ele>
        <time>2011-08-23T06:54:10Z</time>
      </trkpt>
      <trkpt lat="42.65" lon="2.09601">
        <ele>1577.074</ele>
        <time>2011-08-23T06:54:16Z</time>
      </trkpt>
      <trkpt lat="42.64996" lon="2.09612">
        <ele>1576.589</ele>
        <time>2011-08-23T06:54:17Z</time>
      </trkpt>
      <trkpt lat="42.64981" lon="2.09637">
        <ele>1575.253</ele>
        <time>2011-08-23T06:54:20Z</time>
      </trkpt>
      <trkpt lat="42.64933" lon="2.09686">
        <ele>1573.698</ele>
        <time>2011-08-23T06:54:28Z</time>
      </trkpt>
      <trkpt lat="42.64877" lon="2.09737">
        <ele>1572.099</ele>
        <time>2011-08-23T06:54:38Z</time>
      </trkpt>
      <trkpt lat="42.64828" lon="2.09783">
        <ele>1569.93</ele>
        <time>2011-08-23T06:54:46Z</time>
      </trkpt>
      <trkpt lat="42.64772" lon="2.09834">
        <ele>1567.137</ele>
        <time>2011-08-23T06:54:54Z</time>
      </trkpt>
      <trkpt lat="42.64708" lon="2.0989">
        <ele>1563.819</ele>
        <time>2011-08-23T06:55:03Z</time>
      </trkpt>
      <trkpt lat="42.64637" lon="2.09951">
        <ele>1559.428</ele>
        <time>2011-08-23T06:55:12Z</time>
      </trkpt>
      <trkpt lat="42.64606" lon="2.09981">
        <ele>1557.714</ele>
        <time>2011-08-23T06:55:16Z</time>
      </trkpt>
      <trkpt lat="42.64589" lon="2.10018">
        <ele>1557.033</ele>
        <time>2011-08-23T06:55:20Z</time>
      </trkpt>
      <trkpt lat="42.64565" lon="2.10087">
        <ele>1555.248</ele>
        <time>2011-08-23T06:55:27Z</time>
      </trkpt>
      <trkpt lat="42.64539" lon="2.10167">
        <ele>1553.122</ele>
        <time>2011-08-23T06:55:35Z</time>
      </trkpt>
      <trkpt lat="42.64524" lon="2.10231">
        <ele>1551.558</ele>
        <time>2011-08-23T06:55:42Z</time>
      </trkpt>
      <trkpt lat="42.64507" lon="2.10325">
        <ele>1550.617</ele>
        <time>2011-08-23T06:55:53Z</time>
      </trkpt>
      <trkpt lat="42.64504" lon="2.10377">
        <ele>1549.466</ele>
        <time>2011-08-23T06:55:59Z</time>
      </trkpt>
      <trkpt lat="42.6451" lon="2.10424">
        <ele>1548.12</ele>
        <time>2011-08-23T06:56:04Z</time>
      </trkpt>
      <trkpt lat="42.64513" lon="2.10453">
        <ele>1546.9</ele>
        <time>2011-08-23T06:56:07Z</time>
      </trkpt>
      <trkpt lat="42.6452" lon="2.1053">
        <ele>1545.648</ele>
        <time>2011-08-23T06:56:15Z</time>
      </trkpt>
      <trkpt lat="42.6453" lon="2.10596">
        <ele>1544.484</ele>
        <time>2011-08-23T06:56:22Z</time>
      </trkpt>
      <trkpt lat="42.64546" lon="2.10637">
        <ele>1542.841</ele>
        <time>2011-08-23T06:56:27Z</time>
      </trkpt>
      <trkpt lat="42.64581" lon="2.10698">
        <ele>1541.332</ele>
        <time>2011-08-23T06:56:35Z</time>
      </trkpt>
      <trkpt lat="42.64635" lon="2.10779">
        <ele>1538.846</ele>
        <time>2011-08-23T06:56:46Z</time>
      </trkpt>
      <trkpt lat="42.64653" lon="2.10812">
        <ele>1537.843</ele>
        <time>2011-08-23T06:56:50Z</time>
      </trkpt>
      <trkpt lat="42.64663" lon="2.10854">
        <ele>1536.186</ele>
        <time>2011-08-23T06:56:54Z</time>
      </trkpt>
      <trkpt lat="42.64663" lon="2.10878">
        <ele>1534.676</ele>
        <time>2011-08-23T06:56:56Z</time>
      </trkpt>
      <trkpt lat="42.64654" lon="2.10947">
        <ele>1532.861</ele>
        <time>2011-08-23T06:57:02Z</time>
      </trkpt>
      <trkpt lat="42.64644" lon="2.10991">
        <ele>1532.924</ele>
        <time>2011-08-23T06:57:07Z</time>
      </trkpt>
      <trkpt lat="42.64626" lon="2.11072">
        <ele>1532.904</ele>
        <time>2011-08-23T06:57:17Z</time>
      </trkpt>
      <trkpt lat="42.64608" lon="2.11163">
        <ele>1530.642</ele>
        <time>2011-08-23T06:57:27Z</time>
      </trkpt>
      <trkpt lat="42.64603" lon="2.11212">
        <ele>1529.809</ele>
        <time>2011-08-23T06:57:32Z</time>
      </trkpt>
      <trkpt lat="42.64611" lon="2.11261">
        <ele>1528.464</ele>
        <time>2011-08-23T06:57:37Z</time>
      </trkpt>
      <trkpt lat="42.64635" lon="2.11352">
        <ele>1525.458</ele>
        <time>2011-08-23T06:57:46Z</time>
      </trkpt>
      <trkpt lat="42.64641" lon="2.11421">
        <ele>1522.716</ele>
        <time>2011-08-23T06:57:52Z</time>
      </trkpt>
      <trkpt lat="42.64643" lon="2.11444">
        <ele>1522.334</ele>
        <time>2011-08-23T06:57:54Z</time>
      </trkpt>
      <trkpt lat="42.64639" lon="2.11483">
        <ele>1521.088</ele>
        <time>2011-08-23T06:57:58Z</time>
      </trkpt>
      <trkpt lat="42.64643" lon="2.11516">
        <ele>1520.168</ele>
        <time>2011-08-23T06:58:03Z</time>
      </trkpt>
      <trkpt lat="42.64683" lon="2.11555">
        <ele>1518.879</ele>
        <time>2011-08-23T06:58:11Z</time>
      </trkpt>
      <trkpt lat="42.64726" lon="2.11601">
        <ele>1517.632</ele>
        <time>2011-08-23T06:58:19Z</time>
      </trkpt>
      <trkpt lat="42.6478" lon="2.11656">
        <ele>1515.144</ele>
        <time>2011-08-23T06:58:28Z</time>
      </trkpt>
      <trkpt lat="42.64786" lon="2.11662">
        <ele>1514.749</ele>
        <time>2011-08-23T06:58:29Z</time>
      </trkpt>
      <trkpt lat="42.64809" lon="2.11666">
        <ele>1513.165</ele>
        <time>2011-08-23T06:58:33Z</time>
      </trkpt>
      <trkpt lat="42.64813" lon="2.11663">
        <ele>1513.022</ele>
        <time>2011-08-23T06:58:34Z</time>
      </trkpt>
      <trkpt lat="42.64833" lon="2.11647">
        <ele>1514.061</ele>
        <time>2011-08-23T06:58:40Z</time>
      </trkpt>
      <trkpt lat="42.64849" lon="2.11647">
        <ele>1514.927</ele>
        <time>2011-08-23T06:58:46Z</time>
      </trkpt>
      <trkpt lat="42.64866" lon="2.1165">
        <ele>1516.37</ele>
        <time>2011-08-23T06:58:53Z</time>
      </trkpt>
      <trkpt lat="42.64883" lon="2.11654">
        <ele>1517.826</ele>
        <time>2011-08-23T06:59:01Z</time>
      </trkpt>
      <trkpt lat="42.64902" lon="2.1166">
        <ele>1519.54</ele>
        <time>2011-08-23T06:59:11Z</time>
      </trkpt>
      <trkpt lat="42.64919" lon="2.11667">
        <ele>1521.561</ele>
        <time>2011-08-23T06:59:20Z</time>
      </trkpt>
      <trkpt lat="42.64926" lon="2.11671">
        <ele>1521.41</ele>
        <time>2011-08-23T06:59:26Z</time>
      </trkpt>
      <trkpt lat="42.64931" lon="2.11672">
        <ele>1522.304</ele>
        <time>2011-08-23T06:59:49Z</time>
      </trkpt>
      <trkpt lat="42.64944" lon="2.11678">
        <ele>1522.377</ele>
        <time>2011-08-23T06:59:57Z</time>
      </trkpt>
      <trkpt lat="42.6496" lon="2.1168">
        <ele>1523.01</ele>
        <time>2011-08-23T07:00:05Z</time>
      </trkpt>
      <trkpt lat="42.64974" lon="2.11677">
        <ele>1523.733</ele>
        <time>2011-08-23T07:00:14Z</time>
      </trkpt>
      <trkpt lat="42.64986" lon="2.11668">
        <ele>1524.294</ele>
        <time>2011-08-23T07:00:23Z</time>
      </trkpt>
      <trkpt lat="42.64992" lon="2.11654">
        <ele>1524.698</ele>
        <time>2011-08-23T07:00:31Z</time>
      </trkpt>
      <trkpt lat="42.64997" lon="2.11639">
        <ele>1525.38</ele>
        <time>2011-08-23T07:00:39Z</time>
      </trkpt>
      <trkpt lat="42.65003" lon="2.11628">
        <ele>1526.374</ele>
        <time>2011-08-23T07:00:46Z</time>
      </trkpt>
      <trkpt lat="42.65009" lon="2.11615">
        <ele>1526.773</ele>
        <time>2011-08-23T07:00:53Z</time>
      </trkpt>
      <trkpt lat="42.65014" lon="2.11609">
        <ele>1527.128</ele>
        <time>2011-08-23T07:00:57Z</time>
      </trkpt>
      <trkpt lat="42.6502" lon="2.116">
        <ele>1527.538</ele>
        <time>2011-08-23T07:01:03Z</time>
      </trkpt>
      <trkpt lat="42.65026" lon="2.11593">
        <ele>1528.069</ele>
        <time>2011-08-23T07:01:09Z</time>
      </trkpt>
      <trkpt lat="42.65038" lon="2.11582">
        <ele>1529.123</ele>
        <time>2011-08-23T07:01:18Z</time>
      </trkpt>
      <trkpt lat="42.6505" lon="2.11572">
        <ele>1530.37</ele>
        <time>2011-08-23T07:01:26Z</time>
      </trkpt>
      <trkpt lat="42.65062" lon="2.11563">
        <ele>1531.863</ele>
        <time>2011-08-23T07:01:35Z</time>
      </trkpt>
      <trkpt lat="42.65076" lon="2.11556">
        <ele>1533.133</ele>
        <time>2011-08-23T07:01:44Z</time>
      </trkpt>
      <trkpt lat="42.65087" lon="2.11549">
        <ele>1534.382</ele>
        <time>2011-08-23T07:01:52Z</time>
      </trkpt>
      <trkpt lat="42.65099" lon="2.1154">
        <ele>1535.328</ele>
        <time>2011-08-23T07:02:01Z</time>
      </trkpt>
      <trkpt lat="42.65111" lon="2.1153">
        <ele>1536.201</ele>
        <time>2011-08-23T07:02:11Z</time>
      </trkpt>
      <trkpt lat="42.6512" lon="2.11524">
        <ele>1536.637</ele>
        <time>2011-08-23T07:02:18Z</time>
      </trkpt>
      <trkpt lat="42.6513" lon="2.11517">
        <ele>1537.603</ele>
        <time>2011-08-23T07:02:26Z</time>
      </trkpt>
      <trkpt lat="42.65143" lon="2.11507">
        <ele>1538.762</ele>
        <time>2011-08-23T07:02:35Z</time>
      </trkpt>
      <trkpt lat="42.65153" lon="2.11498">
        <ele>1539.159</ele>
        <time>2011-08-23T07:02:42Z</time>
      </trkpt>
      <trkpt lat="42.65168" lon="2.11484">
        <ele>1540.72</ele>
        <time>2011-08-23T07:02:53Z</time>
      </trkpt>
      <trkpt lat="42.6518" lon="2.11476">
        <ele>1541.446</ele>
        <time>2011-08-23T07:03:01Z</time>
      </trkpt>
      <trkpt lat="42.65195" lon="2.11468">
        <ele>1542.891</ele>
        <time>2011-08-23T07:03:10Z</time>
      </trkpt>
      <trkpt lat="42.65208" lon="2.1146">
        <ele>1543.497</ele>
        <time>2011-08-23T07:03:18Z</time>
      </trkpt>
      <trkpt lat="42.65221" lon="2.11453">
        <ele>1544.3</ele>
        <time>2011-08-23T07:03:26Z</time>
      </trkpt>
      <trkpt lat="42.65232" lon="2.11447">
        <ele>1545.425</ele>
        <time>2011-08-23T07:03:33Z</time>
      </trkpt>
      <trkpt lat="42.65249" lon="2.11438">
        <ele>1547.198</ele>
        <time>2011-08-23T07:03:43Z</time>
      </trkpt>
      <trkpt lat="42.65264" lon="2.11436">
        <ele>1548.492</ele>
        <time>2011-08-23T07:03:52Z</time>
      </trkpt>
      <trkpt lat="42.65281" lon="2.11439">
        <ele>1550.205</ele>
        <time>2011-08-23T07:04:02Z</time>
      </trkpt>
      <trkpt lat="42.65295" lon="2.11441">
        <ele>1551.604</ele>
        <time>2011-08-23T07:04:10Z</time>
      </trkpt>
      <trkpt lat="42.65309" lon="2.11441">
        <ele>1553.404</ele>
        <time>2011-08-23T07:04:19Z</time>
      </trkpt>
      <trkpt lat="42.65321" lon="2.11439">
        <ele>1555.042</ele>
        <time>2011-08-23T07:04:27Z</time>
      </trkpt>
      <trkpt lat="42.65336" lon="2.11433">
        <ele>1556.707</ele>
        <time>2011-08-23T07:04:37Z</time>
      </trkpt>
      <trkpt lat="42.65346" lon="2.11426">
        <ele>1557.683</ele>
        <time>2011-08-23T07:04:44Z</time>
      </trkpt>
      <trkpt lat="42.65363" lon="2.11419">
        <ele>1560.316</ele>
        <time>2011-08-23T07:04:53Z</time>
      </trkpt>
      <trkpt lat="42.65384" lon="2.11413">
        <ele>1563.371</ele>
        <time>2011-08-23T07:05:04Z</time>
      </trkpt>
      <trkpt lat="42.65395" lon="2.11409">
        <ele>1564.635</ele>
        <time>2011-08-23T07:05:11Z</time>
      </trkpt>
      <trkpt lat="42.65409" lon="2.11404">
        <ele>1566.469</ele>
        <time>2011-08-23T07:05:19Z</time>
      </trkpt>
      <trkpt lat="42.6542" lon="2.11398">
        <ele>1567.871</ele>
        <time>2011-08-23T07:05:26Z</time>
      </trkpt>
      <trkpt lat="42.65433" lon="2.11394">
        <ele>1569.254</ele>
        <time>2011-08-23T07:05:34Z</time>
      </trkpt>
      <trkpt lat="42.65446" lon="2.11389">
        <ele>1570.843</ele>
        <time>2011-08-23T07:05:42Z</time>
      </trkpt>
      <trkpt lat="42.65455" lon="2.11387">
        <ele>1571.796</ele>
        <time>2011-08-23T07:05:47Z</time>
      </trkpt>
      <trkpt lat="42.65471" lon="2.11381">
        <ele>1573.269</ele>
        <time>2011-08-23T07:05:56Z</time>
      </trkpt>
      <trkpt lat="42.65487" lon="2.11377">
        <ele>1575.088</ele>
        <time>2011-08-23T07:06:06Z</time>
      </trkpt>
      <trkpt lat="42.65499" lon="2.11376">
        <ele>1576.105</ele>
        <time>2011-08-23T07:06:13Z</time>
      </trkpt>
      <trkpt lat="42.65515" lon="2.11373">
        <ele>1578.36</ele>
        <time>2011-08-23T07:06:22Z</time>
      </trkpt>
      <trkpt lat="42.65526" lon="2.11373">
        <ele>1579.054</ele>
        <time>2011-08-23T07:06:28Z</time>
      </trkpt>
      <trkpt lat="42.65541" lon="2.11373">
        <ele>1580.922</ele>
        <time>2011-08-23T07:06:36Z</time>
      </trkpt>
      <trkpt lat="42.65558" lon="2.11372">
        <ele>1582.634</ele>
        <time>2011-08-23T07:06:45Z</time>
      </trkpt>
      <trkpt lat="42.65573" lon="2.1137">
        <ele>1583.418</ele>
        <time>2011-08-23T07:06:53Z</time>
      </trkpt>
      <trkpt lat="42.65588" lon="2.11367">
        <ele>1585.13</ele>
        <time>2011-08-23T07:07:01Z</time>
      </trkpt>
      <trkpt lat="42.65601" lon="2.11363">
        <ele>1586.524</ele>
        <time>2011-08-23T07:07:09Z</time>
      </trkpt>
      <trkpt lat="42.65618" lon="2.11361">
        <ele>1588.056</ele>
        <time>2011-08-23T07:07:18Z</time>
      </trkpt>
      <trkpt lat="42.65623" lon="2.11361">
        <ele>1588.518</ele>
        <time>2011-08-23T07:07:24Z</time>
      </trkpt>
      <trkpt lat="42.65623" lon="2.11361">
        <ele>1588.658</ele>
        <time>2011-08-23T07:07:32Z</time>
      </trkpt>
      <trkpt lat="42.6564" lon="2.11364">
        <ele>1588.956</ele>
        <time>2011-08-23T07:07:40Z</time>
      </trkpt>
      <trkpt lat="42.65672" lon="2.11368">
        <ele>1588.838</ele>
        <time>2011-08-23T07:07:51Z</time>
      </trkpt>
      <trkpt lat="42.6569" lon="2.11369">
        <ele>1588.537</ele>
        <time>2011-08-23T07:07:58Z</time>
      </trkpt>
      <trkpt lat="42.65701" lon="2.11368">
        <ele>1588.382</ele>
        <time>2011-08-23T07:08:03Z</time>
      </trkpt>
      <trkpt lat="42.65716" lon="2.11369">
        <ele>1588.775</ele>
        <time>2011-08-23T07:08:09Z</time>
      </trkpt>
      <trkpt lat="42.65744" lon="2.11371">
        <ele>1589.646</ele>
        <time>2011-08-23T07:08:20Z</time>
      </trkpt>
      <trkpt lat="42.65764" lon="2.11371">
        <ele>1590.323</ele>
        <time>2011-08-23T07:08:28Z</time>
      </trkpt>
      <trkpt lat="42.65784" lon="2.1137">
        <ele>1591.212</ele>
        <time>2011-08-23T07:08:36Z</time>
      </trkpt>
      <trkpt lat="42.65807" lon="2.11367">
        <ele>1591.789</ele>
        <time>2011-08-23T07:08:45Z</time>
      </trkpt>
      <trkpt lat="42.65832" lon="2.11359">
        <ele>1591.89</ele>
        <time>2011-08-23T07:08:53Z</time>
      </trkpt>
      <trkpt lat="42.65858" lon="2.1135">
        <ele>1591.33</ele>
        <time>2011-08-23T07:09:01Z</time>
      </trkpt>
      <trkpt lat="42.65878" lon="2.11345">
        <ele>1591.656</ele>
        <time>2011-08-23T07:09:08Z</time>
      </trkpt>
      <trkpt lat="42.65902" lon="2.11336">
        <ele>1593.177</ele>
        <time>2011-08-23T07:09:17Z</time>
      </trkpt>
      <trkpt lat="42.65919" lon="2.11325">
        <ele>1593.503</ele>
        <time>2011-08-23T07:09:25Z</time>
      </trkpt>
      <trkpt lat="42.65932" lon="2.11306">
        <ele>1595.157</ele>
        <time>2011-08-23T07:09:33Z</time>
      </trkpt>
      <trkpt lat="42.65944" lon="2.11283">
        <ele>1597.425</ele>
        <time>2011-08-23T07:09:43Z</time>
      </trkpt>
      <trkpt lat="42.65957" lon="2.11259">
        <ele>1599.288</ele>
        <time>2011-08-23T07:09:53Z</time>
      </trkpt>
      <trkpt lat="42.65967" lon="2.11233">
        <ele>1601.133</ele>
        <time>2011-08-23T07:10:03Z</time>
      </trkpt>
      <trkpt lat="42.65975" lon="2.11215">
        <ele>1602.2</ele>
        <time>2011-08-23T07:10:10Z</time>
      </trkpt>
      <trkpt lat="42.65984" lon="2.11193">
        <ele>1602.898</ele>
        <time>2011-08-23T07:10:18Z</time>
      </trkpt>
      <trkpt lat="42.65996" lon="2.11192">
        <ele>1602.978</ele>
        <time>2011-08-23T07:10:23Z</time>
      </trkpt>
      <trkpt lat="42.6601" lon="2.11205">
        <ele>1603.802</ele>
        <time>2011-08-23T07:10:30Z</time>
      </trkpt>
      <trkpt lat="42.66021" lon="2.11231">
        <ele>1604.611</ele>
        <time>2011-08-23T07:10:39Z</time>
      </trkpt>
      <trkpt lat="42.66029" lon="2.11249">
        <ele>1605.377</ele>
        <time>2011-08-23T07:10:46Z</time>
      </trkpt>
      <trkpt lat="42.66034" lon="2.11268">
        <ele>1606.047</ele>
        <time>2011-08-23T07:10:53Z</time>
      </trkpt>
      <trkpt lat="42.66037" lon="2.11286">
        <ele>1606.908</ele>
        <time>2011-08-23T07:11:00Z</time>
      </trkpt>
      <trkpt lat="42.66035" lon="2.11299">
        <ele>1607.12</ele>
        <time>2011-08-23T07:11:05Z</time>
      </trkpt>
      <trkpt lat="42.6603" lon="2.11315">
        <ele>1608.439</ele>
        <time>2011-08-23T07:11:13Z</time>
      </trkpt>
      <trkpt lat="42.66031" lon="2.11324">
        <ele>1608.976</ele>
        <time>2011-08-23T07:11:16Z</time>
      </trkpt>
      <trkpt lat="42.66033" lon="2.11342">
        <ele>1609.781</ele>
        <time>2011-08-23T07:11:23Z</time>
      </trkpt>
      <trkpt lat="42.66036" lon="2.11358">
        <ele>1610.648</ele>
        <time>2011-08-23T07:11:29Z</time>
      </trkpt>
      <trkpt lat="42.66041" lon="2.11377">
        <ele>1612.215</ele>
        <time>2011-08-23T07:11:36Z</time>
      </trkpt>
      <trkpt lat="42.66046" lon="2.11396">
        <ele>1613.168</ele>
        <time>2011-08-23T07:11:44Z</time>
      </trkpt>
      <trkpt lat="42.66048" lon="2.11398">
        <ele>1613.221</ele>
        <time>2011-08-23T07:11:49Z</time>
      </trkpt>
      <trkpt lat="42.66059" lon="2.11396">
        <ele>1613.757</ele>
        <time>2011-08-23T07:12:12Z</time>
      </trkpt>
      <trkpt lat="42.66064" lon="2.11392">
        <ele>1614.335</ele>
        <time>2011-08-23T07:12:19Z</time>
      </trkpt>
      <trkpt lat="42.66066" lon="2.1139">
        <ele>1615.002</ele>
        <time>2011-08-23T07:12:21Z</time>
      </trkpt>
      <trkpt lat="42.66068" lon="2.11377">
        <ele>1616.088</ele>
        <time>2011-08-23T07:12:27Z</time>
      </trkpt>
      <trkpt lat="42.66075" lon="2.11367">
        <ele>1616.972</ele>
        <time>2011-08-23T07:12:33Z</time>
      </trkpt>
      <trkpt lat="42.66083" lon="2.11355">
        <ele>1617.297</ele>
        <time>2011-08-23T07:12:39Z</time>
      </trkpt>
      <trkpt lat="42.66091" lon="2.11345">
        <ele>1618.491</ele>
        <time>2011-08-23T07:12:45Z</time>
      </trkpt>
      <trkpt lat="42.66099" lon="2.11332">
        <ele>1620.044</ele>
        <time>2011-08-23T07:12:52Z</time>
      </trkpt>
      <trkpt lat="42.6611" lon="2.11324">
        <ele>1621.652</ele>
        <time>2011-08-23T07:12:59Z</time>
      </trkpt>
      <trkpt lat="42.66123" lon="2.11323">
        <ele>1622.722</ele>
        <time>2011-08-23T07:13:06Z</time>
      </trkpt>
      <trkpt lat="42.66132" lon="2.1132">
        <ele>1623.89</ele>
        <time>2011-08-23T07:13:13Z</time>
      </trkpt>
      <trkpt lat="42.6615" lon="2.1132">
        <ele>1626.075</ele>
        <time>2011-08-23T07:13:24Z</time>
      </trkpt>
      <trkpt lat="42.66158" lon="2.11319">
        <ele>1627.456</ele>
        <time>2011-08-23T07:13:31Z</time>
      </trkpt>
      <trkpt lat="42.66166" lon="2.1132">
        <ele>1628.903</ele>
        <time>2011-08-23T07:13:37Z</time>
      </trkpt>
      <trkpt lat="42.66173" lon="2.1132">
        <ele>1629.768</ele>
        <time>2011-08-23T07:13:43Z</time>
      </trkpt>
      <trkpt lat="42.66174" lon="2.11321">
        <ele>1629.975</ele>
        <time>2011-08-23T07:13:44Z</time>
      </trkpt>
      <trkpt lat="42.66186" lon="2.11331">
        <ele>1631.771</ele>
        <time>2011-08-23T07:13:51Z</time>
      </trkpt>
      <trkpt lat="42.66197" lon="2.1134">
        <ele>1632.583</ele>
        <time>2011-08-23T07:13:57Z</time>
      </trkpt>
      <trkpt lat="42.66204" lon="2.11348">
        <ele>1634.015</ele>
        <time>2011-08-23T07:14:04Z</time>
      </trkpt>
      <trkpt lat="42.66207" lon="2.11349">
        <ele>1634.433</ele>
        <time>2011-08-23T07:14:07Z</time>
      </trkpt>
      <trkpt lat="42.66212" lon="2.11354">
        <ele>1635.065</ele>
        <time>2011-08-23T07:14:11Z</time>
      </trkpt>
      <trkpt lat="42.66216" lon="2.11356">
        <ele>1635.349</ele>
        <time>2011-08-23T07:14:13Z</time>
      </trkpt>
      <trkpt lat="42.66219" lon="2.11359">
        <ele>1635.71</ele>
        <time>2011-08-23T07:14:15Z</time>
      </trkpt>
      <trkpt lat="42.66233" lon="2.11371">
        <ele>1637.117</ele>
        <time>2011-08-23T07:14:24Z</time>
      </trkpt>
      <trkpt lat="42.66244" lon="2.11381">
        <ele>1638.441</ele>
        <time>2011-08-23T07:14:30Z</time>
      </trkpt>
      <trkpt lat="42.66254" lon="2.11396">
        <ele>1640.298</ele>
        <time>2011-08-23T07:14:38Z</time>
      </trkpt>
      <trkpt lat="42.66262" lon="2.11419">
        <ele>1641.45</ele>
        <time>2011-08-23T07:14:48Z</time>
      </trkpt>
      <trkpt lat="42.66267" lon="2.11434">
        <ele>1640.546</ele>
        <time>2011-08-23T07:14:52Z</time>
      </trkpt>
      <trkpt lat="42.66276" lon="2.11441">
        <ele>1639.029</ele>
        <time>2011-08-23T07:14:58Z</time>
      </trkpt>
      <trkpt lat="42.66287" lon="2.11452">
        <ele>1638.646</ele>
        <time>2011-08-23T07:15:03Z</time>
      </trkpt>
      <trkpt lat="42.66307" lon="2.11461">
        <ele>1638.215</ele>
        <time>2011-08-23T07:15:10Z</time>
      </trkpt>
      <trkpt lat="42.66323" lon="2.11472">
        <ele>1637.676</ele>
        <time>2011-08-23T07:15:16Z</time>
      </trkpt>
      <trkpt lat="42.66339" lon="2.11486">
        <ele>1638.231</ele>
        <time>2011-08-23T07:15:23Z</time>
      </trkpt>
      <trkpt lat="42.66349" lon="2.11491">
        <ele>1638.471</ele>
        <time>2011-08-23T07:15:28Z</time>
      </trkpt>
      <trkpt lat="42.66362" lon="2.11496">
        <ele>1638.593</ele>
        <time>2011-08-23T07:15:34Z</time>
      </trkpt>
      <trkpt lat="42.66377" lon="2.11504">
        <ele>1639.942</ele>
        <time>2011-08-23T07:15:40Z</time>
      </trkpt>
      <trkpt lat="42.66394" lon="2.11517">
        <ele>1639.911</ele>
        <time>2011-08-23T07:15:46Z</time>
      </trkpt>
      <trkpt lat="42.66398" lon="2.11517">
        <ele>1639.917</ele>
        <time>2011-08-23T07:15:47Z</time>
      </trkpt>
      <trkpt lat="42.66412" lon="2.11519">
        <ele>1638.941</ele>
        <time>2011-08-23T07:15:50Z</time>
      </trkpt>
      <trkpt lat="42.66426" lon="2.11543">
        <ele>1637.19</ele>
        <time>2011-08-23T07:15:54Z</time>
      </trkpt>
      <trkpt lat="42.66445" lon="2.11581">
        <ele>1635.148</ele>
        <time>2011-08-23T07:16:00Z</time>
      </trkpt>
      <trkpt lat="42.66453" lon="2.1159">
        <ele>1634.977</ele>
        <time>2011-08-23T07:16:02Z</time>
      </trkpt>
      <trkpt lat="42.66476" lon="2.11604">
        <ele>1634.695</ele>
        <time>2011-08-23T07:16:09Z</time>
      </trkpt>
      <trkpt lat="42.66491" lon="2.11607">
        <ele>1635.649</ele>
        <time>2011-08-23T07:16:15Z</time>
      </trkpt>
      <trkpt lat="42.66499" lon="2.11612">
        <ele>1636.228</ele>
        <time>2011-08-23T07:16:19Z</time>
      </trkpt>
      <trkpt lat="42.66514" lon="2.11619">
        <ele>1636.346</ele>
        <time>2011-08-23T07:16:24Z</time>
      </trkpt>
      <trkpt lat="42.66526" lon="2.11621">
        <ele>1636.254</ele>
        <time>2011-08-23T07:16:28Z</time>
      </trkpt>
      <trkpt lat="42.66544" lon="2.11627">
        <ele>1635.759</ele>
        <time>2011-08-23T07:16:33Z</time>
      </trkpt>
      <trkpt lat="42.66554" lon="2.11635">
        <ele>1636.312</ele>
        <time>2011-08-23T07:16:38Z</time>
      </trkpt>
      <trkpt lat="42.66573" lon="2.11638">
        <ele>1636.717</ele>
        <time>2011-08-23T07:16:45Z</time>
      </trkpt>
      <trkpt lat="42.66587" lon="2.11638">
        <ele>1637.325</ele>
        <time>2011-08-23T07:16:51Z</time>
      </trkpt>
      <trkpt lat="42.66596" lon="2.11639">
        <ele>1638.299</ele>
        <time>2011-08-23T07:16:56Z</time>
      </trkpt>
      <trkpt lat="42.66603" lon="2.11638">
        <ele>1639.589</ele>
        <time>2011-08-23T07:17:03Z</time>
      </trkpt>
      <trkpt lat="42.6661" lon="2.11633">
        <ele>1640.792</ele>
        <time>2011-08-23T07:17:09Z</time>
      </trkpt>
      <trkpt lat="42.66616" lon="2.11629">
        <ele>1642.039</ele>
        <time>2011-08-23T07:17:15Z</time>
      </trkpt>
      <trkpt lat="42.66624" lon="2.1163">
        <ele>1643.261</ele>
        <time>2011-08-23T07:17:21Z</time>
      </trkpt>
      <trkpt lat="42.6663" lon="2.1163">
        <ele>1644.161</ele>
        <time>2011-08-23T07:17:26Z</time>
      </trkpt>
      <trkpt lat="42.66637" lon="2.11629">
        <ele>1645.448</ele>
        <time>2011-08-23T07:17:31Z</time>
      </trkpt>
      <trkpt lat="42.66644" lon="2.11626">
        <ele>1646.481</ele>
        <time>2011-08-23T07:17:35Z</time>
      </trkpt>
      <trkpt lat="42.66647" lon="2.11626">
        <ele>1647.005</ele>
        <time>2011-08-23T07:17:37Z</time>
      </trkpt>
      <trkpt lat="42.66659" lon="2.11628">
        <ele>1648.527</ele>
        <time>2011-08-23T07:17:46Z</time>
      </trkpt>
      <trkpt lat="42.66669" lon="2.11633">
        <ele>1650.362</ele>
        <time>2011-08-23T07:17:54Z</time>
      </trkpt>
      <trkpt lat="42.66677" lon="2.11637">
        <ele>1651.613</ele>
        <time>2011-08-23T07:18:00Z</time>
      </trkpt>
      <trkpt lat="42.66684" lon="2.11642">
        <ele>1652.98</ele>
        <time>2011-08-23T07:18:07Z</time>
      </trkpt>
      <trkpt lat="42.66693" lon="2.11655">
        <ele>1655.002</ele>
        <time>2011-08-23T07:18:17Z</time>
      </trkpt>
      <trkpt lat="42.66701" lon="2.11666">
        <ele>1656.49</ele>
        <time>2011-08-23T07:18:26Z</time>
      </trkpt>
      <trkpt lat="42.66705" lon="2.11675">
        <ele>1657.719</ele>
        <time>2011-08-23T07:18:32Z</time>
      </trkpt>
      <trkpt lat="42.66708" lon="2.11676">
        <ele>1658.435</ele>
        <time>2011-08-23T07:18:36Z</time>
      </trkpt>
      <trkpt lat="42.66712" lon="2.11675">
        <ele>1659.308</ele>
        <time>2011-08-23T07:18:40Z</time>
      </trkpt>
      <trkpt lat="42.66718" lon="2.11668">
        <ele>1660.838</ele>
        <time>2011-08-23T07:18:47Z</time>
      </trkpt>
      <trkpt lat="42.66722" lon="2.11659">
        <ele>1662.145</ele>
        <time>2011-08-23T07:18:53Z</time>
      </trkpt>
      <trkpt lat="42.6673" lon="2.11647">
        <ele>1663.328</ele>
        <time>2011-08-23T07:19:01Z</time>
      </trkpt>
      <trkpt lat="42.6674" lon="2.11639">
        <ele>1664.439</ele>
        <time>2011-08-23T07:19:11Z</time>
      </trkpt>
      <trkpt lat="42.66743" lon="2.11638">
        <ele>1664.911</ele>
        <time>2011-08-23T07:19:17Z</time>
      </trkpt>
      <trkpt lat="42.66748" lon="2.11639">
        <ele>1665.404</ele>
        <time>2011-08-23T07:19:25Z</time>
      </trkpt>
      <trkpt lat="42.66755" lon="2.11638">
        <ele>1665.914</ele>
        <time>2011-08-23T07:19:31Z</time>
      </trkpt>
      <trkpt lat="42.6676" lon="2.11635">
        <ele>1666.686</ele>
        <time>2011-08-23T07:19:36Z</time>
      </trkpt>
      <trkpt lat="42.66768" lon="2.11627">
        <ele>1667.675</ele>
        <time>2011-08-23T07:19:43Z</time>
      </trkpt>
      <trkpt lat="42.66779" lon="2.11627">
        <ele>1668.826</ele>
        <time>2011-08-23T07:19:50Z</time>
      </trkpt>
      <trkpt lat="42.66788" lon="2.11634">
        <ele>1669.461</ele>
        <time>2011-08-23T07:19:56Z</time>
      </trkpt>
      <trkpt lat="42.66791" lon="2.11639">
        <ele>1670.071</ele>
        <time>2011-08-23T07:19:59Z</time>
      </trkpt>
      <trkpt lat="42.668" lon="2.11642">
        <ele>1670.814</ele>
        <time>2011-08-23T07:20:05Z</time>
      </trkpt>
      <trkpt lat="42.66808" lon="2.11653">
        <ele>1671.745</ele>
        <time>2011-08-23T07:20:12Z</time>
      </trkpt>
      <trkpt lat="42.66815" lon="2.11667">
        <ele>1672.113</ele>
        <time>2011-08-23T07:20:19Z</time>
      </trkpt>
      <trkpt lat="42.66825" lon="2.11684">
        <ele>1672.217</ele>
        <time>2011-08-23T07:20:27Z</time>
      </trkpt>
      <trkpt lat="42.66829" lon="2.11687">
        <ele>1672.455</ele>
        <time>2011-08-23T07:20:32Z</time>
      </trkpt>
      <trkpt lat="42.66833" lon="2.11687">
        <ele>1672.474</ele>
        <time>2011-08-23T07:21:26Z</time>
      </trkpt>
      <trkpt lat="42.66835" lon="2.11695">
        <ele>1672.407</ele>
        <time>2011-08-23T07:21:31Z</time>
      </trkpt>
      <trkpt lat="42.66844" lon="2.11714">
        <ele>1671.737</ele>
        <time>2011-08-23T07:21:38Z</time>
      </trkpt>
      <trkpt lat="42.66854" lon="2.11733">
        <ele>1670.795</ele>
        <time>2011-08-23T07:21:43Z</time>
      </trkpt>
      <trkpt lat="42.66862" lon="2.11748">
        <ele>1669.732</ele>
        <time>2011-08-23T07:21:48Z</time>
      </trkpt>
      <trkpt lat="42.66868" lon="2.11763">
        <ele>1669.344</ele>
        <time>2011-08-23T07:21:53Z</time>
      </trkpt>
      <trkpt lat="42.66882" lon="2.11785">
        <ele>1668.457</ele>
        <time>2011-08-23T07:21:59Z</time>
      </trkpt>
      <trkpt lat="42.66898" lon="2.11808">
        <ele>1667.393</ele>
        <time>2011-08-23T07:22:05Z</time>
      </trkpt>
      <trkpt lat="42.66908" lon="2.11823">
        <ele>1665.805</ele>
        <time>2011-08-23T07:22:10Z</time>
      </trkpt>
      <trkpt lat="42.66908" lon="2.11826">
        <ele>1665.615</ele>
        <time>2011-08-23T07:22:11Z</time>
      </trkpt>
      <trkpt lat="42.66922" lon="2.11837">
        <ele>1664.614</ele>
        <time>2011-08-23T07:22:17Z</time>
      </trkpt>
      <trkpt lat="42.66927" lon="2.11844">
        <ele>1663.585</ele>
        <time>2011-08-23T07:22:21Z</time>
      </trkpt>
      <trkpt lat="42.66931" lon="2.11859">
        <ele>1663.176</ele>
        <time>2011-08-23T07:22:28Z</time>
      </trkpt>
      <trkpt lat="42.66934" lon="2.11861">
        <ele>1663.084</ele>
        <time>2011-08-23T07:22:33Z</time>
      </trkpt>
      <trkpt lat="42.66934" lon="2.1186">
        <ele>1662.964</ele>
        <time>2011-08-23T07:22:39Z</time>
      </trkpt>
      <trkpt lat="42.66934" lon="2.11858">
        <ele>1663.153</ele>
        <time>2011-08-23T07:22:44Z</time>
      </trkpt>
      <trkpt lat="42.66939" lon="2.11854">
        <ele>1662.71</ele>
        <time>2011-08-23T07:22:52Z</time>
      </trkpt>
      <trkpt lat="42.66946" lon="2.1185">
        <ele>1662.651</ele>
        <time>2011-08-23T07:22:58Z</time>
      </trkpt>
      <trkpt lat="42.66963" lon="2.1185">
        <ele>1662.187</ele>
        <time>2011-08-23T07:23:03Z</time>
      </trkpt>
      <trkpt lat="42.66976" lon="2.1185">
        <ele>1661.317</ele>
        <time>2011-08-23T07:23:06Z</time>
      </trkpt>
      <trkpt lat="42.66996" lon="2.11854">
        <ele>1659.049</ele>
        <time>2011-08-23T07:23:11Z</time>
      </trkpt>
      <trkpt lat="42.67" lon="2.11858">
        <ele>1659.052</ele>
        <time>2011-08-23T07:23:12Z</time>
      </trkpt>
      <trkpt lat="42.67021" lon="2.11879">
        <ele>1656.305</ele>
        <time>2011-08-23T07:23:19Z</time>
      </trkpt>
      <trkpt lat="42.6703" lon="2.11886">
        <ele>1654.719</ele>
        <time>2011-08-23T07:23:24Z</time>
      </trkpt>
      <trkpt lat="42.67036" lon="2.119">
        <ele>1653.899</ele>
        <time>2011-08-23T07:23:29Z</time>
      </trkpt>
      <trkpt lat="42.67042" lon="2.11916">
        <ele>1653.632</ele>
        <time>2011-08-23T07:23:33Z</time>
      </trkpt>
      <trkpt lat="42.67054" lon="2.11925">
        <ele>1653.365</ele>
        <time>2011-08-23T07:23:39Z</time>
      </trkpt>
      <trkpt lat="42.67061" lon="2.11928">
        <ele>1652.396</ele>
        <time>2011-08-23T07:23:45Z</time>
      </trkpt>
      <trkpt lat="42.67063" lon="2.11929">
        <ele>1652.934</ele>
        <time>2011-08-23T07:23:51Z</time>
      </trkpt>
      <trkpt lat="42.67064" lon="2.11929">
        <ele>1653.005</ele>
        <time>2011-08-23T07:24:13Z</time>
      </trkpt>
      <trkpt lat="42.67067" lon="2.11933">
        <ele>1652.556</ele>
        <time>2011-08-23T07:24:21Z</time>
      </trkpt>
      <trkpt lat="42.67068" lon="2.11932">
        <ele>1652.952</ele>
        <time>2011-08-23T07:24:27Z</time>
      </trkpt>
      <trkpt lat="42.6707" lon="2.11927">
        <ele>1652.925</ele>
        <time>2011-08-23T07:24:31Z</time>
      </trkpt>
      <trkpt lat="42.67067" lon="2.11924">
        <ele>1652.658</ele>
        <time>2011-08-23T07:24:35Z</time>
      </trkpt>
      <trkpt lat="42.67065" lon="2.11924">
        <ele>1652.5</ele>
        <time>2011-08-23T07:24:37Z</time>
      </trkpt>
      <trkpt lat="42.67063" lon="2.11928">
        <ele>1652.587</ele>
        <time>2011-08-23T07:24:41Z</time>
      </trkpt>
      <trkpt lat="42.67064" lon="2.1193">
        <ele>1652.62</ele>
        <time>2011-08-23T07:24:42Z</time>
      </trkpt>
      <trkpt lat="42.67067" lon="2.11933">
        <ele>1653.049</ele>
        <time>2011-08-23T07:24:47Z</time>
      </trkpt>
      <trkpt lat="42.67068" lon="2.11933">
        <ele>1653.2</ele>
        <time>2011-08-23T07:25:05Z</time>
      </trkpt>
      <trkpt lat="42.67074" lon="2.11933">
        <ele>1653.011</ele>
        <time>2011-08-23T07:25:11Z</time>
      </trkpt>
      <trkpt lat="42.67074" lon="2.11933">
        <ele>1653.231</ele>
        <time>2011-08-23T07:25:26Z</time>
      </trkpt>
      <trkpt lat="42.67077" lon="2.1193">
        <ele>1653.102</ele>
        <time>2011-08-23T07:25:30Z</time>
      </trkpt>
      <trkpt lat="42.67083" lon="2.11925">
        <ele>1652.631</ele>
        <time>2011-08-23T07:25:37Z</time>
      </trkpt>
      <trkpt lat="42.67086" lon="2.11929">
        <ele>1652.516</ele>
        <time>2011-08-23T07:25:41Z</time>
      </trkpt>
      <trkpt lat="42.67082" lon="2.11931">
        <ele>1652.713</ele>
        <time>2011-08-23T07:25:43Z</time>
      </trkpt>
      <trkpt lat="42.67073" lon="2.11932">
        <ele>1653.294</ele>
        <time>2011-08-23T07:25:48Z</time>
      </trkpt>
      <trkpt lat="42.67072" lon="2.11932">
        <ele>1653.327</ele>
        <time>2011-08-23T07:26:01Z</time>
      </trkpt>
      <trkpt lat="42.67077" lon="2.11929">
        <ele>1653.01</ele>
        <time>2011-08-23T07:26:05Z</time>
      </trkpt>
      <trkpt lat="42.67101" lon="2.11931">
        <ele>1652.665</ele>
        <time>2011-08-23T07:26:12Z</time>
      </trkpt>
      <trkpt lat="42.67132" lon="2.11933">
        <ele>1652.088</ele>
        <time>2011-08-23T07:26:20Z</time>
      </trkpt>
      <trkpt lat="42.67144" lon="2.11933">
        <ele>1651.798</ele>
        <time>2011-08-23T07:26:23Z</time>
      </trkpt>
      <trkpt lat="42.67171" lon="2.11932">
        <ele>1651.247</ele>
        <time>2011-08-23T07:26:30Z</time>
      </trkpt>
      <trkpt lat="42.67195" lon="2.11934">
        <ele>1650.84</ele>
        <time>2011-08-23T07:26:37Z</time>
      </trkpt>
      <trkpt lat="42.67219" lon="2.11934">
        <ele>1650.965</ele>
        <time>2011-08-23T07:26:44Z</time>
      </trkpt>
      <trkpt lat="42.6724" lon="2.11933">
        <ele>1650.979</ele>
        <time>2011-08-23T07:26:50Z</time>
      </trkpt>
      <trkpt lat="42.67252" lon="2.11932">
        <ele>1651.031</ele>
        <time>2011-08-23T07:26:54Z</time>
      </trkpt>
      <trkpt lat="42.67276" lon="2.11931">
        <ele>1650.288</ele>
        <time>2011-08-23T07:27:00Z</time>
      </trkpt>
      <trkpt lat="42.67282" lon="2.1193">
        <ele>1650.167</ele>
        <time>2011-08-23T07:27:02Z</time>
      </trkpt>
      <trkpt lat="42.67296" lon="2.11933">
        <ele>1649.2</ele>
        <time>2011-08-23T07:27:09Z</time>
      </trkpt>
      <trkpt lat="42.67309" lon="2.11932">
        <ele>1648.667</ele>
        <time>2011-08-23T07:27:14Z</time>
      </trkpt>
      <trkpt lat="42.67329" lon="2.11934">
        <ele>1648.402</ele>
        <time>2011-08-23T07:27:19Z</time>
      </trkpt>
      <trkpt lat="42.67333" lon="2.11936">
        <ele>1648.088</ele>
        <time>2011-08-23T07:27:20Z</time>
      </trkpt>
      <trkpt lat="42.6736" lon="2.11937">
        <ele>1646.807</ele>
        <time>2011-08-23T07:27:26Z</time>
      </trkpt>
      <trkpt lat="42.67384" lon="2.11936">
        <ele>1645.466</ele>
        <time>2011-08-23T07:27:31Z</time>
      </trkpt>
      <trkpt lat="42.67408" lon="2.11931">
        <ele>1644.718</ele>
        <time>2011-08-23T07:27:36Z</time>
      </trkpt>
      <trkpt lat="42.67433" lon="2.11926">
        <ele>1642.85</ele>
        <time>2011-08-23T07:27:42Z</time>
      </trkpt>
      <trkpt lat="42.67437" lon="2.11923">
        <ele>1642.133</ele>
        <time>2011-08-23T07:27:46Z</time>
      </trkpt>
      <trkpt lat="42.67439" lon="2.11922">
        <ele>1642.181</ele>
        <time>2011-08-23T07:27:49Z</time>
      </trkpt>
      <trkpt lat="42.67438" lon="2.11912">
        <ele>1641.878</ele>
        <time>2011-08-23T07:27:54Z</time>
      </trkpt>
      <trkpt lat="42.67439" lon="2.11908">
        <ele>1641.726</ele>
        <time>2011-08-23T07:27:55Z</time>
      </trkpt>
      <trkpt lat="42.67449" lon="2.11882">
        <ele>1639.053</ele>
        <time>2011-08-23T07:28:02Z</time>
      </trkpt>
      <trkpt lat="42.67455" lon="2.11866">
        <ele>1637.293</ele>
        <time>2011-08-23T07:28:07Z</time>
      </trkpt>
      <trkpt lat="42.67457" lon="2.11837">
        <ele>1635.798</ele>
        <time>2011-08-23T07:28:15Z</time>
      </trkpt>
      <trkpt lat="42.67457" lon="2.11829">
        <ele>1635.608</ele>
        <time>2011-08-23T07:28:17Z</time>
      </trkpt>
      <trkpt lat="42.67443" lon="2.1182">
        <ele>1633.586</ele>
        <time>2011-08-23T07:28:21Z</time>
      </trkpt>
      <trkpt lat="42.67436" lon="2.11818">
        <ele>1631.7</ele>
        <time>2011-08-23T07:28:24Z</time>
      </trkpt>
      <trkpt lat="42.67433" lon="2.11817">
        <ele>1631.096</ele>
        <time>2011-08-23T07:28:31Z</time>
      </trkpt>
      <trkpt lat="42.67432" lon="2.11817">
        <ele>1631.072</ele>
        <time>2011-08-23T07:28:34Z</time>
      </trkpt>
      <trkpt lat="42.67427" lon="2.11804">
        <ele>1630.293</ele>
        <time>2011-08-23T07:28:39Z</time>
      </trkpt>
      <trkpt lat="42.67428" lon="2.1179">
        <ele>1629.442</ele>
        <time>2011-08-23T07:28:41Z</time>
      </trkpt>
      <trkpt lat="42.67445" lon="2.11762">
        <ele>1626.549</ele>
        <time>2011-08-23T07:28:46Z</time>
      </trkpt>
      <trkpt lat="42.67455" lon="2.11754">
        <ele>1624.219</ele>
        <time>2011-08-23T07:28:50Z</time>
      </trkpt>
      <trkpt lat="42.67454" lon="2.11751">
        <ele>1623.73</ele>
        <time>2011-08-23T07:28:56Z</time>
      </trkpt>
      <trkpt lat="42.67448" lon="2.11756">
        <ele>1623.591</ele>
        <time>2011-08-23T07:29:02Z</time>
      </trkpt>
      <trkpt lat="42.67435" lon="2.11761">
        <ele>1624.708</ele>
        <time>2011-08-23T07:29:09Z</time>
      </trkpt>
      <trkpt lat="42.67434" lon="2.11762">
        <ele>1624.749</ele>
        <time>2011-08-23T07:29:10Z</time>
      </trkpt>
      <trkpt lat="42.67425" lon="2.11758">
        <ele>1625.324</ele>
        <time>2011-08-23T07:29:16Z</time>
      </trkpt>
      <trkpt lat="42.67427" lon="2.11747">
        <ele>1624.838</ele>
        <time>2011-08-23T07:29:20Z</time>
      </trkpt>
      <trkpt lat="42.67431" lon="2.11745">
        <ele>1623.435</ele>
        <time>2011-08-23T07:29:24Z</time>
      </trkpt>
      <trkpt lat="42.67432" lon="2.11746">
        <ele>1623.346</ele>
        <time>2011-08-23T07:29:25Z</time>
      </trkpt>
      <trkpt lat="42.67435" lon="2.11747">
        <ele>1623.646</ele>
        <time>2011-08-23T07:29:31Z</time>
      </trkpt>
      <trkpt lat="42.67436" lon="2.11748">
        <ele>1623.68</ele>
        <time>2011-08-23T07:29:33Z</time>
      </trkpt>
      <trkpt lat="42.67444" lon="2.11744">
        <ele>1623.247</ele>
        <time>2011-08-23T07:29:39Z</time>
      </trkpt>
      <trkpt lat="42.6746" lon="2.11731">
        <ele>1620.745</ele>
        <time>2011-08-23T07:29:44Z</time>
      </trkpt>
      <trkpt lat="42.67477" lon="2.11723">
        <ele>1619.377</ele>
        <time>2011-08-23T07:29:49Z</time>
      </trkpt>
      <trkpt lat="42.67492" lon="2.11711">
        <ele>1617.949</ele>
        <time>2011-08-23T07:29:54Z</time>
      </trkpt>
      <trkpt lat="42.67503" lon="2.11703">
        <ele>1616.774</ele>
        <time>2011-08-23T07:29:58Z</time>
      </trkpt>
      <trkpt lat="42.67516" lon="2.11694">
        <ele>1614.95</ele>
        <time>2011-08-23T07:30:03Z</time>
      </trkpt>
      <trkpt lat="42.67518" lon="2.11693">
        <ele>1614.451</ele>
        <time>2011-08-23T07:30:04Z</time>
      </trkpt>
      <trkpt lat="42.67531" lon="2.11682">
        <ele>1612.807</ele>
        <time>2011-08-23T07:30:10Z</time>
      </trkpt>
      <trkpt lat="42.67547" lon="2.11675">
        <ele>1611.187</ele>
        <time>2011-08-23T07:30:16Z</time>
      </trkpt>
      <trkpt lat="42.67549" lon="2.11674">
        <ele>1610.955</ele>
        <time>2011-08-23T07:30:17Z</time>
      </trkpt>
      <trkpt lat="42.67559" lon="2.11661">
        <ele>1609.716</ele>
        <time>2011-08-23T07:30:22Z</time>
      </trkpt>
      <trkpt lat="42.67561" lon="2.1166">
        <ele>1609.717</ele>
        <time>2011-08-23T07:30:23Z</time>
      </trkpt>
      <trkpt lat="42.67573" lon="2.11652">
        <ele>1607.451</ele>
        <time>2011-08-23T07:30:29Z</time>
      </trkpt>
      <trkpt lat="42.67586" lon="2.11638">
        <ele>1606.247</ele>
        <time>2011-08-23T07:30:34Z</time>
      </trkpt>
      <trkpt lat="42.67594" lon="2.11624">
        <ele>1604.455</ele>
        <time>2011-08-23T07:30:40Z</time>
      </trkpt>
      <trkpt lat="42.676" lon="2.11619">
        <ele>1603.913</ele>
        <time>2011-08-23T07:30:47Z</time>
      </trkpt>
      <trkpt lat="42.67605" lon="2.11614">
        <ele>1603.03</ele>
        <time>2011-08-23T07:30:52Z</time>
      </trkpt>
      <trkpt lat="42.67608" lon="2.11614">
        <ele>1602.713</ele>
        <time>2011-08-23T07:30:54Z</time>
      </trkpt>
      <trkpt lat="42.67618" lon="2.11609">
        <ele>1601.032</ele>
        <time>2011-08-23T07:30:59Z</time>
      </trkpt>
      <trkpt lat="42.6763" lon="2.11609">
        <ele>1598.803</ele>
        <time>2011-08-23T07:31:04Z</time>
      </trkpt>
      <trkpt lat="42.67633" lon="2.11609">
        <ele>1598.396</ele>
        <time>2011-08-23T07:31:05Z</time>
      </trkpt>
      <trkpt lat="42.67636" lon="2.11609">
        <ele>1597.685</ele>
        <time>2011-08-23T07:31:07Z</time>
      </trkpt>
      <trkpt lat="42.67644" lon="2.11608">
        <ele>1595.827</ele>
        <time>2011-08-23T07:31:13Z</time>
      </trkpt>
      <trkpt lat="42.67654" lon="2.11611">
        <ele>1595.124</ele>
        <time>2011-08-23T07:31:18Z</time>
      </trkpt>
      <trkpt lat="42.67664" lon="2.11612">
        <ele>1592.634</ele>
        <time>2011-08-23T07:31:22Z</time>
      </trkpt>
      <trkpt lat="42.67671" lon="2.11613">
        <ele>1590.051</ele>
        <time>2011-08-23T07:31:26Z</time>
      </trkpt>
      <trkpt lat="42.67679" lon="2.11612">
        <ele>1588.244</ele>
        <time>2011-08-23T07:31:29Z</time>
      </trkpt>
      <trkpt lat="42.67692" lon="2.11608">
        <ele>1584.772</ele>
        <time>2011-08-23T07:31:35Z</time>
      </trkpt>
      <trkpt lat="42.67698" lon="2.11604">
        <ele>1583.245</ele>
        <time>2011-08-23T07:31:40Z</time>
      </trkpt>
      <trkpt lat="42.67703" lon="2.116">
        <ele>1582.388</ele>
        <time>2011-08-23T07:31:48Z</time>
      </trkpt>
      <trkpt lat="42.6772" lon="2.11609">
        <ele>1580.526</ele>
        <time>2011-08-23T07:31:54Z</time>
      </trkpt>
      <trkpt lat="42.67724" lon="2.11615">
        <ele>1579.538</ele>
        <time>2011-08-23T07:31:56Z</time>
      </trkpt>
      <trkpt lat="42.67731" lon="2.11618">
        <ele>1577.679</ele>
        <time>2011-08-23T07:32:00Z</time>
      </trkpt>
      <trkpt lat="42.67739" lon="2.1162">
        <ele>1576.288</ele>
        <time>2011-08-23T07:32:03Z</time>
      </trkpt>
      <trkpt lat="42.67747" lon="2.11618">
        <ele>1574.917</ele>
        <time>2011-08-23T07:32:11Z</time>
      </trkpt>
      <trkpt lat="42.67749" lon="2.11615">
        <ele>1574.942</ele>
        <time>2011-08-23T07:32:17Z</time>
      </trkpt>
      <trkpt lat="42.6776" lon="2.11613">
        <ele>1573.755</ele>
        <time>2011-08-23T07:32:22Z</time>
      </trkpt>
      <trkpt lat="42.67772" lon="2.11615">
        <ele>1572.192</ele>
        <time>2011-08-23T07:32:28Z</time>
      </trkpt>
      <trkpt lat="42.67773" lon="2.11615">
        <ele>1571.834</ele>
        <time>2011-08-23T07:32:32Z</time>
      </trkpt>
      <trkpt lat="42.67769" lon="2.11616">
        <ele>1572.143</ele>
        <time>2011-08-23T07:32:37Z</time>
      </trkpt>
      <trkpt lat="42.67761" lon="2.11614">
        <ele>1573.516</ele>
        <time>2011-08-23T07:32:46Z</time>
      </trkpt>
      <trkpt lat="42.67757" lon="2.1162">
        <ele>1574.626</ele>
        <time>2011-08-23T07:32:51Z</time>
      </trkpt>
      <trkpt lat="42.67749" lon="2.11627">
        <ele>1575.13</ele>
        <time>2011-08-23T07:32:58Z</time>
      </trkpt>
      <trkpt lat="42.67743" lon="2.11632">
        <ele>1575.919</ele>
        <time>2011-08-23T07:33:06Z</time>
      </trkpt>
      <trkpt lat="42.67742" lon="2.11635">
        <ele>1577.204</ele>
        <time>2011-08-23T07:33:11Z</time>
      </trkpt>
      <trkpt lat="42.67743" lon="2.11634">
        <ele>1577.126</ele>
        <time>2011-08-23T07:33:15Z</time>
      </trkpt>
      <trkpt lat="42.6774" lon="2.11641">
        <ele>1577.074</ele>
        <time>2011-08-23T07:33:20Z</time>
      </trkpt>
      <trkpt lat="42.67734" lon="2.11645">
        <ele>1577.941</ele>
        <time>2011-08-23T07:33:24Z</time>
      </trkpt>
      <trkpt lat="42.67728" lon="2.1165">
        <ele>1579.651</ele>
        <time>2011-08-23T07:33:30Z</time>
      </trkpt>
      <trkpt lat="42.6772" lon="2.1165">
        <ele>1581.586</ele>
        <time>2011-08-23T07:33:39Z</time>
      </trkpt>
      <trkpt lat="42.67711" lon="2.11653">
        <ele>1583.156</ele>
        <time>2011-08-23T07:33:47Z</time>
      </trkpt>
      <trkpt lat="42.67707" lon="2.11657">
        <ele>1584.26</ele>
        <time>2011-08-23T07:33:52Z</time>
      </trkpt>
      <trkpt lat="42.67703" lon="2.11665">
        <ele>1585.49</ele>
        <time>2011-08-23T07:34:00Z</time>
      </trkpt>
      <trkpt lat="42.67701" lon="2.11674">
        <ele>1586.303</ele>
        <time>2011-08-23T07:34:07Z</time>
      </trkpt>
      <trkpt lat="42.67698" lon="2.11677">
        <ele>1586.612</ele>
        <time>2011-08-23T07:34:11Z</time>
      </trkpt>
      <trkpt lat="42.67693" lon="2.11683">
        <ele>1587.367</ele>
        <time>2011-08-23T07:34:18Z</time>
      </trkpt>
      <trkpt lat="42.67689" lon="2.11688">
        <ele>1587.894</ele>
        <time>2011-08-23T07:34:32Z</time>
      </trkpt>
      <trkpt lat="42.67687" lon="2.11689">
        <ele>1588.149</ele>
        <time>2011-08-23T07:34:35Z</time>
      </trkpt>
      <trkpt lat="42.67683" lon="2.11691">
        <ele>1588.684</ele>
        <time>2011-08-23T07:34:40Z</time>
      </trkpt>
      <trkpt lat="42.67681" lon="2.11697">
        <ele>1589.673</ele>
        <time>2011-08-23T07:34:47Z</time>
      </trkpt>
      <trkpt lat="42.67678" lon="2.11701">
        <ele>1590.737</ele>
        <time>2011-08-23T07:34:54Z</time>
      </trkpt>
      <trkpt lat="42.67677" lon="2.11704">
        <ele>1591.622</ele>
        <time>2011-08-23T07:34:58Z</time>
      </trkpt>
      <trkpt lat="42.67676" lon="2.11704">
        <ele>1591.821</ele>
        <time>2011-08-23T07:34:59Z</time>
      </trkpt>
      <trkpt lat="42.67672" lon="2.11707">
        <ele>1593.173</ele>
        <time>2011-08-23T07:35:05Z</time>
      </trkpt>
      <trkpt lat="42.67671" lon="2.11707">
        <ele>1593.269</ele>
        <time>2011-08-23T07:35:06Z</time>
      </trkpt>
      <trkpt lat="42.67673" lon="2.11711">
        <ele>1593.705</ele>
        <time>2011-08-23T07:35:09Z</time>
      </trkpt>
      <trkpt lat="42.67671" lon="2.11717">
        <ele>1594.706</ele>
        <time>2011-08-23T07:35:14Z</time>
      </trkpt>
      <trkpt lat="42.67671" lon="2.11724">
        <ele>1595.617</ele>
        <time>2011-08-23T07:35:21Z</time>
      </trkpt>
      <trkpt lat="42.67672" lon="2.1173">
        <ele>1595.914</ele>
        <time>2011-08-23T07:35:24Z</time>
      </trkpt>
      <trkpt lat="42.67671" lon="2.1174">
        <ele>1596.811</ele>
        <time>2011-08-23T07:35:31Z</time>
      </trkpt>
      <trkpt lat="42.6767" lon="2.11746">
        <ele>1597.534</ele>
        <time>2011-08-23T07:35:37Z</time>
      </trkpt>
      <trkpt lat="42.67677" lon="2.11756">
        <ele>1597.94</ele>
        <time>2011-08-23T07:35:43Z</time>
      </trkpt>
      <trkpt lat="42.67678" lon="2.11762">
        <ele>1597.859</ele>
        <time>2011-08-23T07:35:48Z</time>
      </trkpt>
      <trkpt lat="42.6768" lon="2.11765">
        <ele>1597.731</ele>
        <time>2011-08-23T07:35:52Z</time>
      </trkpt>
      <trkpt lat="42.67682" lon="2.11773">
        <ele>1598.111</ele>
        <time>2011-08-23T07:35:57Z</time>
      </trkpt>
      <trkpt lat="42.67682" lon="2.11782">
        <ele>1599.478</ele>
        <time>2011-08-23T07:36:03Z</time>
      </trkpt>
      <trkpt lat="42.67681" lon="2.11789">
        <ele>1599.97</ele>
        <time>2011-08-23T07:36:08Z</time>
      </trkpt>
      <trkpt lat="42.6768" lon="2.11791">
        <ele>1600.259</ele>
        <time>2011-08-23T07:36:10Z</time>
      </trkpt>
      <trkpt lat="42.67679" lon="2.11798">
        <ele>1601.573</ele>
        <time>2011-08-23T07:36:16Z</time>
      </trkpt>
      <trkpt lat="42.67677" lon="2.11804">
        <ele>1602.567</ele>
        <time>2011-08-23T07:36:21Z</time>
      </trkpt>
      <trkpt lat="42.67681" lon="2.11814">
        <ele>1603.103</ele>
        <time>2011-08-23T07:36:28Z</time>
      </trkpt>
      <trkpt lat="42.6768" lon="2.1182">
        <ele>1603.42</ele>
        <time>2011-08-23T07:36:34Z</time>
      </trkpt>
      <trkpt lat="42.67682" lon="2.11824">
        <ele>1602.51</ele>
        <time>2011-08-23T07:36:40Z</time>
      </trkpt>
      <trkpt lat="42.67683" lon="2.11826">
        <ele>1602.281</ele>
        <time>2011-08-23T07:36:44Z</time>
      </trkpt>
      <trkpt lat="42.67684" lon="2.11832">
        <ele>1602.367</ele>
        <time>2011-08-23T07:36:49Z</time>
      </trkpt>
      <trkpt lat="42.67687" lon="2.11841">
        <ele>1604.173</ele>
        <time>2011-08-23T07:36:57Z</time>
      </trkpt>
      <trkpt lat="42.67689" lon="2.11847">
        <ele>1604.853</ele>
        <time>2011-08-23T07:37:01Z</time>
      </trkpt>
      <trkpt lat="42.67696" lon="2.11857">
        <ele>1606.057</ele>
        <time>2011-08-23T07:37:08Z</time>
      </trkpt>
      <trkpt lat="42.67701" lon="2.11863">
        <ele>1607.249</ele>
        <time>2011-08-23T07:37:13Z</time>
      </trkpt>
      <trkpt lat="42.67701" lon="2.11864">
        <ele>1607.348</ele>
        <time>2011-08-23T07:37:14Z</time>
      </trkpt>
      <trkpt lat="42.67712" lon="2.11874">
        <ele>1607.25</ele>
        <time>2011-08-23T07:37:20Z</time>
      </trkpt>
      <trkpt lat="42.67727" lon="2.1188">
        <ele>1607.006</ele>
        <time>2011-08-23T07:37:24Z</time>
      </trkpt>
      <trkpt lat="42.67737" lon="2.11886">
        <ele>1606.662</ele>
        <time>2011-08-23T07:37:26Z</time>
      </trkpt>
      <trkpt lat="42.67774" lon="2.11913">
        <ele>1604.59</ele>
        <time>2011-08-23T07:37:33Z</time>
      </trkpt>
      <trkpt lat="42.67797" lon="2.11927">
        <ele>1603.671</ele>
        <time>2011-08-23T07:37:37Z</time>
      </trkpt>
      <trkpt lat="42.67804" lon="2.1193">
        <ele>1603.343</ele>
        <time>2011-08-23T07:37:38Z</time>
      </trkpt>
      <trkpt lat="42.67855" lon="2.11966">
        <ele>1600.516</ele>
        <time>2011-08-23T07:37:46Z</time>
      </trkpt>
      <trkpt lat="42.67882" lon="2.11978">
        <ele>1598.743</ele>
        <time>2011-08-23T07:37:50Z</time>
      </trkpt>
      <trkpt lat="42.67915" lon="2.12009">
        <ele>1596.963</ele>
        <time>2011-08-23T07:37:55Z</time>
      </trkpt>
      <trkpt lat="42.67931" lon="2.12039">
        <ele>1595.842</ele>
        <time>2011-08-23T07:37:59Z</time>
      </trkpt>
      <trkpt lat="42.67958" lon="2.12094">
        <ele>1593.634</ele>
        <time>2011-08-23T07:38:06Z</time>
      </trkpt>
      <trkpt lat="42.6796" lon="2.12102">
        <ele>1593.357</ele>
        <time>2011-08-23T07:38:07Z</time>
      </trkpt>
      <trkpt lat="42.67966" lon="2.1212">
        <ele>1592.552</ele>
        <time>2011-08-23T07:38:09Z</time>
      </trkpt>
      <trkpt lat="42.67972" lon="2.12157">
        <ele>1591.15</ele>
        <time>2011-08-23T07:38:13Z</time>
      </trkpt>
      <trkpt lat="42.67983" lon="2.1222">
        <ele>1588.921</ele>
        <time>2011-08-23T07:38:20Z</time>
      </trkpt>
      <trkpt lat="42.67994" lon="2.12267">
        <ele>1587.953</ele>
        <time>2011-08-23T07:38:25Z</time>
      </trkpt>
      <trkpt lat="42.67999" lon="2.12286">
        <ele>1587.611</ele>
        <time>2011-08-23T07:38:27Z</time>
      </trkpt>
      <trkpt lat="42.6802" lon="2.12313">
        <ele>1586.426</ele>
        <time>2011-08-23T07:38:31Z</time>
      </trkpt>
      <trkpt lat="42.68032" lon="2.12324">
        <ele>1585.834</ele>
        <time>2011-08-23T07:38:33Z</time>
      </trkpt>
      <trkpt lat="42.6805" lon="2.12351">
        <ele>1584.273</ele>
        <time>2011-08-23T07:38:37Z</time>
      </trkpt>
      <trkpt lat="42.68062" lon="2.12356">
        <ele>1582.901</ele>
        <time>2011-08-23T07:38:40Z</time>
      </trkpt>
      <trkpt lat="42.68088" lon="2.12357">
        <ele>1580.62</ele>
        <time>2011-08-23T07:38:45Z</time>
      </trkpt>
      <trkpt lat="42.68099" lon="2.12363">
        <ele>1578.863</ele>
        <time>2011-08-23T07:38:49Z</time>
      </trkpt>
      <trkpt lat="42.68113" lon="2.12373">
        <ele>1578.221</ele>
        <time>2011-08-23T07:38:54Z</time>
      </trkpt>
      <trkpt lat="42.68133" lon="2.1239">
        <ele>1577.396</ele>
        <time>2011-08-23T07:38:59Z</time>
      </trkpt>
      <trkpt lat="42.68145" lon="2.12403">
        <ele>1576.483</ele>
        <time>2011-08-23T07:39:02Z</time>
      </trkpt>
      <trkpt lat="42.68153" lon="2.12421">
        <ele>1575.547</ele>
        <time>2011-08-23T07:39:05Z</time>
      </trkpt>
      <trkpt lat="42.68154" lon="2.12452">
        <ele>1574.172</ele>
        <time>2011-08-23T07:39:09Z</time>
      </trkpt>
      <trkpt lat="42.6814" lon="2.12519">
        <ele>1571.196</ele>
        <time>2011-08-23T07:39:16Z</time>
      </trkpt>
      <trkpt lat="42.68129" lon="2.12544">
        <ele>1569.65</ele>
        <time>2011-08-23T07:39:19Z</time>
      </trkpt>
      <trkpt lat="42.68111" lon="2.12601">
        <ele>1567.444</ele>
        <time>2011-08-23T07:39:25Z</time>
      </trkpt>
      <trkpt lat="42.68118" lon="2.1264">
        <ele>1565.918</ele>
        <time>2011-08-23T07:39:29Z</time>
      </trkpt>
      <trkpt lat="42.6813" lon="2.12655">
        <ele>1564.368</ele>
        <time>2011-08-23T07:39:32Z</time>
      </trkpt>
      <trkpt lat="42.68137" lon="2.12644">
        <ele>1563.406</ele>
        <time>2011-08-23T07:39:34Z</time>
      </trkpt>
      <trkpt lat="42.6814" lon="2.12618">
        <ele>1561.938</ele>
        <time>2011-08-23T07:39:38Z</time>
      </trkpt>
      <trkpt lat="42.6814" lon="2.12611">
        <ele>1561.619</ele>
        <time>2011-08-23T07:39:39Z</time>
      </trkpt>
      <trkpt lat="42.68151" lon="2.1256">
        <ele>1559.76</ele>
        <time>2011-08-23T07:39:45Z</time>
      </trkpt>
      <trkpt lat="42.68156" lon="2.12551">
        <ele>1558.666</ele>
        <time>2011-08-23T07:39:47Z</time>
      </trkpt>
      <trkpt lat="42.68168" lon="2.12536">
        <ele>1556.532</ele>
        <time>2011-08-23T07:39:51Z</time>
      </trkpt>
      <trkpt lat="42.68191" lon="2.12517">
        <ele>1555.29</ele>
        <time>2011-08-23T07:39:56Z</time>
      </trkpt>
      <trkpt lat="42.68211" lon="2.12499">
        <ele>1554.021</ele>
        <time>2011-08-23T07:40:00Z</time>
      </trkpt>
      <trkpt lat="42.68229" lon="2.12489">
        <ele>1553.053</ele>
        <time>2011-08-23T07:40:03Z</time>
      </trkpt>
      <trkpt lat="42.68228" lon="2.12491">
        <ele>1552.24</ele>
        <time>2011-08-23T07:40:06Z</time>
      </trkpt>
      <trkpt lat="42.68225" lon="2.12495">
        <ele>1551.571</ele>
        <time>2011-08-23T07:40:08Z</time>
      </trkpt>
      <trkpt lat="42.68219" lon="2.12501">
        <ele>1551.517</ele>
        <time>2011-08-23T07:40:13Z</time>
      </trkpt>
      <trkpt lat="42.68212" lon="2.12492">
        <ele>1552.83</ele>
        <time>2011-08-23T07:40:18Z</time>
      </trkpt>
      <trkpt lat="42.68212" lon="2.12485">
        <ele>1553.281</ele>
        <time>2011-08-23T07:40:20Z</time>
      </trkpt>
      <trkpt lat="42.68219" lon="2.12471">
        <ele>1554.232</ele>
        <time>2011-08-23T07:40:25Z</time>
      </trkpt>
      <trkpt lat="42.68231" lon="2.12452">
        <ele>1554.513</ele>
        <time>2011-08-23T07:40:31Z</time>
      </trkpt>
      <trkpt lat="42.68238" lon="2.12438">
        <ele>1554.574</ele>
        <time>2011-08-23T07:40:36Z</time>
      </trkpt>
      <trkpt lat="42.68247" lon="2.12428">
        <ele>1554.131</ele>
        <time>2011-08-23T07:40:39Z</time>
      </trkpt>
      <trkpt lat="42.68259" lon="2.12409">
        <ele>1553.227</ele>
        <time>2011-08-23T07:40:42Z</time>
      </trkpt>
      <trkpt lat="42.68274" lon="2.12383">
        <ele>1549.92</ele>
        <time>2011-08-23T07:40:48Z</time>
      </trkpt>
      <trkpt lat="42.68278" lon="2.12365">
        <ele>1549.474</ele>
        <time>2011-08-23T07:40:52Z</time>
      </trkpt>
      <trkpt lat="42.68276" lon="2.12353">
        <ele>1549.758</ele>
        <time>2011-08-23T07:40:55Z</time>
      </trkpt>
      <trkpt lat="42.68273" lon="2.12339">
        <ele>1550</ele>
        <time>2011-08-23T07:40:59Z</time>
      </trkpt>
      <trkpt lat="42.68279" lon="2.12311">
        <ele>1549.096</ele>
        <time>2011-08-23T07:41:04Z</time>
      </trkpt>
      <trkpt lat="42.68285" lon="2.12283">
        <ele>1545.956</ele>
        <time>2011-08-23T07:41:09Z</time>
      </trkpt>
      <trkpt lat="42.68286" lon="2.12269">
        <ele>1544.78</ele>
        <time>2011-08-23T07:41:11Z</time>
      </trkpt>
      <trkpt lat="42.68287" lon="2.12249">
        <ele>1543.822</ele>
        <time>2011-08-23T07:41:14Z</time>
      </trkpt>
      <trkpt lat="42.68288" lon="2.12206">
        <ele>1542.191</ele>
        <time>2011-08-23T07:41:19Z</time>
      </trkpt>
      <trkpt lat="42.68287" lon="2.12188">
        <ele>1540.715</ele>
        <time>2011-08-23T07:41:21Z</time>
      </trkpt>
      <trkpt lat="42.68275" lon="2.1216">
        <ele>1538.913</ele>
        <time>2011-08-23T07:41:25Z</time>
      </trkpt>
      <trkpt lat="42.68278" lon="2.1216">
        <ele>1538.233</ele>
        <time>2011-08-23T07:41:29Z</time>
      </trkpt>
      <trkpt lat="42.6828" lon="2.12161">
        <ele>1538.714</ele>
        <time>2011-08-23T07:43:11Z</time>
      </trkpt>
      <trkpt lat="42.68284" lon="2.12161">
        <ele>1538.362</ele>
        <time>2011-08-23T07:43:14Z</time>
      </trkpt>
      <trkpt lat="42.68286" lon="2.12157">
        <ele>1537.742</ele>
        <time>2011-08-23T07:43:18Z</time>
      </trkpt>
      <trkpt lat="42.68293" lon="2.12144">
        <ele>1537.081</ele>
        <time>2011-08-23T07:43:25Z</time>
      </trkpt>
      <trkpt lat="42.6831" lon="2.1214">
        <ele>1536.401</ele>
        <time>2011-08-23T07:43:29Z</time>
      </trkpt>
      <trkpt lat="42.68315" lon="2.12141">
        <ele>1536.031</ele>
        <time>2011-08-23T07:43:30Z</time>
      </trkpt>
      <trkpt lat="42.68333" lon="2.1214">
        <ele>1535.24</ele>
        <time>2011-08-23T07:43:34Z</time>
      </trkpt>
      <trkpt lat="42.6835" lon="2.12146">
        <ele>1535.201</ele>
        <time>2011-08-23T07:43:38Z</time>
      </trkpt>
      <trkpt lat="42.6837" lon="2.12165">
        <ele>1534.882</ele>
        <time>2011-08-23T07:43:43Z</time>
      </trkpt>
      <trkpt lat="42.6839" lon="2.12178">
        <ele>1534.789</ele>
        <time>2011-08-23T07:43:48Z</time>
      </trkpt>
      <trkpt lat="42.68417" lon="2.12189">
        <ele>1534.166</ele>
        <time>2011-08-23T07:43:55Z</time>
      </trkpt>
      <trkpt lat="42.68421" lon="2.12188">
        <ele>1533.031</ele>
        <time>2011-08-23T07:44:01Z</time>
      </trkpt>
      <trkpt lat="42.68424" lon="2.12186">
        <ele>1532.903</ele>
        <time>2011-08-23T07:44:06Z</time>
      </trkpt>
      <trkpt lat="42.68425" lon="2.12183">
        <ele>1533.032</ele>
        <time>2011-08-23T07:44:14Z</time>
      </trkpt>
      <trkpt lat="42.68426" lon="2.12183">
        <ele>1533.191</ele>
        <time>2011-08-23T07:44:28Z</time>
      </trkpt>
      <trkpt lat="42.6844" lon="2.12182">
        <ele>1532.376</ele>
        <time>2011-08-23T07:44:33Z</time>
      </trkpt>
      <trkpt lat="42.68463" lon="2.1218">
        <ele>1531.724</ele>
        <time>2011-08-23T07:44:38Z</time>
      </trkpt>
      <trkpt lat="42.68476" lon="2.12178">
        <ele>1530.86</ele>
        <time>2011-08-23T07:44:40Z</time>
      </trkpt>
      <trkpt lat="42.68507" lon="2.12156">
        <ele>1528.517</ele>
        <time>2011-08-23T07:44:45Z</time>
      </trkpt>
      <trkpt lat="42.68534" lon="2.12109">
        <ele>1524.858</ele>
        <time>2011-08-23T07:44:51Z</time>
      </trkpt>
      <trkpt lat="42.68553" lon="2.12067">
        <ele>1522.794</ele>
        <time>2011-08-23T07:44:56Z</time>
      </trkpt>
      <trkpt lat="42.68559" lon="2.12031">
        <ele>1520.025</ele>
        <time>2011-08-23T07:45:01Z</time>
      </trkpt>
      <trkpt lat="42.68558" lon="2.11983">
        <ele>1515.975</ele>
        <time>2011-08-23T07:45:07Z</time>
      </trkpt>
      <trkpt lat="42.68557" lon="2.11972">
        <ele>1515.082</ele>
        <time>2011-08-23T07:45:08Z</time>
      </trkpt>
      <trkpt lat="42.68553" lon="2.1195">
        <ele>1514.389</ele>
        <time>2011-08-23T07:45:10Z</time>
      </trkpt>
      <trkpt lat="42.68547" lon="2.11932">
        <ele>1513.008</ele>
        <time>2011-08-23T07:45:12Z</time>
      </trkpt>
      <trkpt lat="42.68543" lon="2.11899">
        <ele>1511.022</ele>
        <time>2011-08-23T07:45:16Z</time>
      </trkpt>
      <trkpt lat="42.68548" lon="2.11884">
        <ele>1510.282</ele>
        <time>2011-08-23T07:45:18Z</time>
      </trkpt>
      <trkpt lat="42.68555" lon="2.11855">
        <ele>1508.06</ele>
        <time>2011-08-23T07:45:22Z</time>
      </trkpt>
      <trkpt lat="42.68559" lon="2.11831">
        <ele>1505.305</ele>
        <time>2011-08-23T07:45:27Z</time>
      </trkpt>
      <trkpt lat="42.68567" lon="2.11832">
        <ele>1504.128</ele>
        <time>2011-08-23T07:45:29Z</time>
      </trkpt>
      <trkpt lat="42.68571" lon="2.11835">
        <ele>1503.549</ele>
        <time>2011-08-23T07:45:30Z</time>
      </trkpt>
      <trkpt lat="42.68579" lon="2.11845">
        <ele>1502.5</ele>
        <time>2011-08-23T07:45:32Z</time>
      </trkpt>
      <trkpt lat="42.686" lon="2.1186">
        <ele>1500.47</ele>
        <time>2011-08-23T07:45:37Z</time>
      </trkpt>
      <trkpt lat="42.68604" lon="2.11863">
        <ele>1499.833</ele>
        <time>2011-08-23T07:45:38Z</time>
      </trkpt>
      <trkpt lat="42.68624" lon="2.11888">
        <ele>1496.865</ele>
        <time>2011-08-23T07:45:43Z</time>
      </trkpt>
      <trkpt lat="42.68647" lon="2.11937">
        <ele>1493.195</ele>
        <time>2011-08-23T07:45:49Z</time>
      </trkpt>
      <trkpt lat="42.68654" lon="2.11954">
        <ele>1492.437</ele>
        <time>2011-08-23T07:45:51Z</time>
      </trkpt>
      <trkpt lat="42.68661" lon="2.11977">
        <ele>1491.846</ele>
        <time>2011-08-23T07:45:54Z</time>
      </trkpt>
      <trkpt lat="42.68665" lon="2.12027">
        <ele>1489.667</ele>
        <time>2011-08-23T07:46:00Z</time>
      </trkpt>
      <trkpt lat="42.68669" lon="2.12068">
        <ele>1488.765</ele>
        <time>2011-08-23T07:46:05Z</time>
      </trkpt>
      <trkpt lat="42.6867" lon="2.12076">
        <ele>1488.543</ele>
        <time>2011-08-23T07:46:06Z</time>
      </trkpt>
      <trkpt lat="42.68671" lon="2.12111">
        <ele>1487.337</ele>
        <time>2011-08-23T07:46:11Z</time>
      </trkpt>
      <trkpt lat="42.68676" lon="2.12133">
        <ele>1486.722</ele>
        <time>2011-08-23T07:46:14Z</time>
      </trkpt>
      <trkpt lat="42.68679" lon="2.12173">
        <ele>1485.37</ele>
        <time>2011-08-23T07:46:19Z</time>
      </trkpt>
      <trkpt lat="42.6868" lon="2.12203">
        <ele>1484.649</ele>
        <time>2011-08-23T07:46:24Z</time>
      </trkpt>
      <trkpt lat="42.68684" lon="2.12231">
        <ele>1483.964</ele>
        <time>2011-08-23T07:46:29Z</time>
      </trkpt>
      <trkpt lat="42.68691" lon="2.1226">
        <ele>1482.579</ele>
        <time>2011-08-23T07:46:34Z</time>
      </trkpt>
      <trkpt lat="42.68696" lon="2.12285">
        <ele>1481.52</ele>
        <time>2011-08-23T07:46:38Z</time>
      </trkpt>
      <trkpt lat="42.68709" lon="2.1231">
        <ele>1481.07</ele>
        <time>2011-08-23T07:46:42Z</time>
      </trkpt>
      <trkpt lat="42.68736" lon="2.12357">
        <ele>1480.484</ele>
        <time>2011-08-23T07:46:49Z</time>
      </trkpt>
      <trkpt lat="42.68743" lon="2.12379">
        <ele>1479.916</ele>
        <time>2011-08-23T07:46:52Z</time>
      </trkpt>
      <trkpt lat="42.68751" lon="2.12417">
        <ele>1478.168</ele>
        <time>2011-08-23T07:46:57Z</time>
      </trkpt>
      <trkpt lat="42.68755" lon="2.12435">
        <ele>1476.609</ele>
        <time>2011-08-23T07:46:59Z</time>
      </trkpt>
      <trkpt lat="42.68756" lon="2.12476">
        <ele>1473.823</ele>
        <time>2011-08-23T07:47:04Z</time>
      </trkpt>
      <trkpt lat="42.68755" lon="2.1249">
        <ele>1473.178</ele>
        <time>2011-08-23T07:47:06Z</time>
      </trkpt>
      <trkpt lat="42.68751" lon="2.12502">
        <ele>1472.453</ele>
        <time>2011-08-23T07:47:08Z</time>
      </trkpt>
      <trkpt lat="42.68731" lon="2.12526">
        <ele>1469.906</ele>
        <time>2011-08-23T07:47:13Z</time>
      </trkpt>
      <trkpt lat="42.68723" lon="2.12542">
        <ele>1468.891</ele>
        <time>2011-08-23T07:47:16Z</time>
      </trkpt>
      <trkpt lat="42.68716" lon="2.12559">
        <ele>1467.529</ele>
        <time>2011-08-23T07:47:20Z</time>
      </trkpt>
      <trkpt lat="42.68714" lon="2.12561">
        <ele>1466.061</ele>
        <time>2011-08-23T07:47:26Z</time>
      </trkpt>
      <trkpt lat="42.6871" lon="2.12571">
        <ele>1466.073</ele>
        <time>2011-08-23T07:47:33Z</time>
      </trkpt>
      <trkpt lat="42.68696" lon="2.126">
        <ele>1465.086</ele>
        <time>2011-08-23T07:47:38Z</time>
      </trkpt>
      <trkpt lat="42.68672" lon="2.12643">
        <ele>1463.434</ele>
        <time>2011-08-23T07:47:44Z</time>
      </trkpt>
      <trkpt lat="42.68645" lon="2.1268">
        <ele>1460.855</ele>
        <time>2011-08-23T07:47:49Z</time>
      </trkpt>
      <trkpt lat="42.68629" lon="2.12725">
        <ele>1457.661</ele>
        <time>2011-08-23T07:47:54Z</time>
      </trkpt>
      <trkpt lat="42.68624" lon="2.12756">
        <ele>1453.087</ele>
        <time>2011-08-23T07:47:59Z</time>
      </trkpt>
      <trkpt lat="42.68625" lon="2.12752">
        <ele>1451.599</ele>
        <time>2011-08-23T07:48:02Z</time>
      </trkpt>
      <trkpt lat="42.68625" lon="2.12754">
        <ele>1451.582</ele>
        <time>2011-08-23T07:48:03Z</time>
      </trkpt>
      <trkpt lat="42.68625" lon="2.1277">
        <ele>1451.399</ele>
        <time>2011-08-23T07:48:07Z</time>
      </trkpt>
      <trkpt lat="42.68616" lon="2.12815">
        <ele>1449.209</ele>
        <time>2011-08-23T07:48:13Z</time>
      </trkpt>
      <trkpt lat="42.6861" lon="2.12841">
        <ele>1445.96</ele>
        <time>2011-08-23T07:48:17Z</time>
      </trkpt>
      <trkpt lat="42.68601" lon="2.12862">
        <ele>1442.938</ele>
        <time>2011-08-23T07:48:21Z</time>
      </trkpt>
      <trkpt lat="42.68594" lon="2.12878">
        <ele>1440.406</ele>
        <time>2011-08-23T07:48:24Z</time>
      </trkpt>
      <trkpt lat="42.68575" lon="2.12907">
        <ele>1436.6</ele>
        <time>2011-08-23T07:48:30Z</time>
      </trkpt>
      <trkpt lat="42.6856" lon="2.12943">
        <ele>1432.823</ele>
        <time>2011-08-23T07:48:36Z</time>
      </trkpt>
      <trkpt lat="42.68559" lon="2.12947">
        <ele>1432.18</ele>
        <time>2011-08-23T07:48:37Z</time>
      </trkpt>
      <trkpt lat="42.68566" lon="2.1295">
        <ele>1429.805</ele>
        <time>2011-08-23T07:48:41Z</time>
      </trkpt>
      <trkpt lat="42.68577" lon="2.12937">
        <ele>1428.481</ele>
        <time>2011-08-23T07:48:45Z</time>
      </trkpt>
      <trkpt lat="42.68582" lon="2.12929">
        <ele>1428.264</ele>
        <time>2011-08-23T07:48:47Z</time>
      </trkpt>
      <trkpt lat="42.68612" lon="2.12904">
        <ele>1427.947</ele>
        <time>2011-08-23T07:48:54Z</time>
      </trkpt>
      <trkpt lat="42.68632" lon="2.12887">
        <ele>1428.113</ele>
        <time>2011-08-23T07:49:00Z</time>
      </trkpt>
      <trkpt lat="42.68647" lon="2.12872">
        <ele>1427.546</ele>
        <time>2011-08-23T07:49:04Z</time>
      </trkpt>
      <trkpt lat="42.68666" lon="2.12857">
        <ele>1426.062</ele>
        <time>2011-08-23T07:49:08Z</time>
      </trkpt>
      <trkpt lat="42.68679" lon="2.12851">
        <ele>1425.03</ele>
        <time>2011-08-23T07:49:10Z</time>
      </trkpt>
      <trkpt lat="42.68705" lon="2.12829">
        <ele>1422.456</ele>
        <time>2011-08-23T07:49:15Z</time>
      </trkpt>
      <trkpt lat="42.68711" lon="2.12819">
        <ele>1421.086</ele>
        <time>2011-08-23T07:49:17Z</time>
      </trkpt>
      <trkpt lat="42.68734" lon="2.12815">
        <ele>1417.995</ele>
        <time>2011-08-23T07:49:22Z</time>
      </trkpt>
      <trkpt lat="42.68743" lon="2.12816">
        <ele>1418.063</ele>
        <time>2011-08-23T07:49:27Z</time>
      </trkpt>
      <trkpt lat="42.68764" lon="2.12807">
        <ele>1418.741</ele>
        <time>2011-08-23T07:49:34Z</time>
      </trkpt>
      <trkpt lat="42.68783" lon="2.1279">
        <ele>1419.07</ele>
        <time>2011-08-23T07:49:41Z</time>
      </trkpt>
      <trkpt lat="42.68796" lon="2.12773">
        <ele>1419.549</ele>
        <time>2011-08-23T07:49:47Z</time>
      </trkpt>
      <trkpt lat="42.68803" lon="2.12755">
        <ele>1419.897</ele>
        <time>2011-08-23T07:49:52Z</time>
      </trkpt>
      <trkpt lat="42.6881" lon="2.1274">
        <ele>1419.778</ele>
        <time>2011-08-23T07:49:56Z</time>
      </trkpt>
      <trkpt lat="42.68813" lon="2.12731">
        <ele>1419.671</ele>
        <time>2011-08-23T07:49:59Z</time>
      </trkpt>
      <trkpt lat="42.68822" lon="2.12713">
        <ele>1419.583</ele>
        <time>2011-08-23T07:50:05Z</time>
      </trkpt>
      <trkpt lat="42.68824" lon="2.1271">
        <ele>1419.593</ele>
        <time>2011-08-23T07:50:06Z</time>
      </trkpt>
      <trkpt lat="42.68834" lon="2.12686">
        <ele>1419.109</ele>
        <time>2011-08-23T07:50:12Z</time>
      </trkpt>
      <trkpt lat="42.68838" lon="2.12665">
        <ele>1418.917</ele>
        <time>2011-08-23T07:50:17Z</time>
      </trkpt>
      <trkpt lat="42.68841" lon="2.12649">
        <ele>1418.705</ele>
        <time>2011-08-23T07:50:22Z</time>
      </trkpt>
      <trkpt lat="42.68844" lon="2.12633">
        <ele>1418.954</ele>
        <time>2011-08-23T07:50:27Z</time>
      </trkpt>
      <trkpt lat="42.68851" lon="2.12617">
        <ele>1419.036</ele>
        <time>2011-08-23T07:50:31Z</time>
      </trkpt>
      <trkpt lat="42.68856" lon="2.12599">
        <ele>1419.051</ele>
        <time>2011-08-23T07:50:36Z</time>
      </trkpt>
      <trkpt lat="42.68862" lon="2.12583">
        <ele>1419.261</ele>
        <time>2011-08-23T07:50:41Z</time>
      </trkpt>
      <trkpt lat="42.68874" lon="2.12573">
        <ele>1419.214</ele>
        <time>2011-08-23T07:50:45Z</time>
      </trkpt>
      <trkpt lat="42.68889" lon="2.12559">
        <ele>1418.299</ele>
        <time>2011-08-23T07:50:50Z</time>
      </trkpt>
      <trkpt lat="42.68897" lon="2.12547">
        <ele>1417.853</ele>
        <time>2011-08-23T07:50:53Z</time>
      </trkpt>
      <trkpt lat="42.68915" lon="2.125">
        <ele>1416.323</ele>
        <time>2011-08-23T07:51:01Z</time>
      </trkpt>
      <trkpt lat="42.68914" lon="2.12488">
        <ele>1416.196</ele>
        <time>2011-08-23T07:51:03Z</time>
      </trkpt>
      <trkpt lat="42.6892" lon="2.12455">
        <ele>1414.087</ele>
        <time>2011-08-23T07:51:08Z</time>
      </trkpt>
      <trkpt lat="42.6892" lon="2.12446">
        <ele>1413.404</ele>
        <time>2011-08-23T07:51:09Z</time>
      </trkpt>
      <trkpt lat="42.68927" lon="2.12393">
        <ele>1410.698</ele>
        <time>2011-08-23T07:51:13Z</time>
      </trkpt>
      <trkpt lat="42.6893" lon="2.12371">
        <ele>1409.979</ele>
        <time>2011-08-23T07:51:15Z</time>
      </trkpt>
      <trkpt lat="42.68927" lon="2.12343">
        <ele>1410.783</ele>
        <time>2011-08-23T07:51:20Z</time>
      </trkpt>
      <trkpt lat="42.6893" lon="2.12316">
        <ele>1411.284</ele>
        <time>2011-08-23T07:51:28Z</time>
      </trkpt>
      <trkpt lat="42.68934" lon="2.12306">
        <ele>1412.42</ele>
        <time>2011-08-23T07:51:32Z</time>
      </trkpt>
      <trkpt lat="42.68942" lon="2.12311">
        <ele>1413.531</ele>
        <time>2011-08-23T07:51:37Z</time>
      </trkpt>
      <trkpt lat="42.68942" lon="2.12323">
        <ele>1414.089</ele>
        <time>2011-08-23T07:51:41Z</time>
      </trkpt>
      <trkpt lat="42.6894" lon="2.12335">
        <ele>1415.312</ele>
        <time>2011-08-23T07:51:46Z</time>
      </trkpt>
      <trkpt lat="42.68941" lon="2.12345">
        <ele>1416.191</ele>
        <time>2011-08-23T07:51:51Z</time>
      </trkpt>
      <trkpt lat="42.68941" lon="2.12362">
        <ele>1417.729</ele>
        <time>2011-08-23T07:51:57Z</time>
      </trkpt>
      <trkpt lat="42.68943" lon="2.12375">
        <ele>1419.107</ele>
        <time>2011-08-23T07:52:02Z</time>
      </trkpt>
      <trkpt lat="42.68946" lon="2.12378">
        <ele>1419.632</ele>
        <time>2011-08-23T07:52:04Z</time>
      </trkpt>
      <trkpt lat="42.68955" lon="2.12378">
        <ele>1421.204</ele>
        <time>2011-08-23T07:52:10Z</time>
      </trkpt>
      <trkpt lat="42.68956" lon="2.12376">
        <ele>1421.474</ele>
        <time>2011-08-23T07:52:11Z</time>
      </trkpt>
      <trkpt lat="42.68964" lon="2.1236">
        <ele>1423.098</ele>
        <time>2011-08-23T07:52:19Z</time>
      </trkpt>
      <trkpt lat="42.68974" lon="2.12345">
        <ele>1423.822</ele>
        <time>2011-08-23T07:52:26Z</time>
      </trkpt>
      <trkpt lat="42.68975" lon="2.12343">
        <ele>1423.919</ele>
        <time>2011-08-23T07:52:27Z</time>
      </trkpt>
      <trkpt lat="42.68979" lon="2.12326">
        <ele>1425.307</ele>
        <time>2011-08-23T07:52:34Z</time>
      </trkpt>
      <trkpt lat="42.68979" lon="2.12321">
        <ele>1425.587</ele>
        <time>2011-08-23T07:52:36Z</time>
      </trkpt>
      <trkpt lat="42.68983" lon="2.12311">
        <ele>1426.92</ele>
        <time>2011-08-23T07:52:41Z</time>
      </trkpt>
      <trkpt lat="42.68992" lon="2.12293">
        <ele>1428.444</ele>
        <time>2011-08-23T07:52:50Z</time>
      </trkpt>
      <trkpt lat="42.69002" lon="2.12284">
        <ele>1429.937</ele>
        <time>2011-08-23T07:52:57Z</time>
      </trkpt>
      <trkpt lat="42.69012" lon="2.12279">
        <ele>1430.98</ele>
        <time>2011-08-23T07:53:04Z</time>
      </trkpt>
      <trkpt lat="42.69025" lon="2.12277">
        <ele>1431.503</ele>
        <time>2011-08-23T07:53:11Z</time>
      </trkpt>
      <trkpt lat="42.69038" lon="2.12273">
        <ele>1433.057</ele>
        <time>2011-08-23T07:53:18Z</time>
      </trkpt>
      <trkpt lat="42.69051" lon="2.12268">
        <ele>1434.813</ele>
        <time>2011-08-23T07:53:26Z</time>
      </trkpt>
      <trkpt lat="42.69066" lon="2.1226">
        <ele>1436.374</ele>
        <time>2011-08-23T07:53:35Z</time>
      </trkpt>
      <trkpt lat="42.69076" lon="2.12257">
        <ele>1437.555</ele>
        <time>2011-08-23T07:53:42Z</time>
      </trkpt>
      <trkpt lat="42.69086" lon="2.12254">
        <ele>1438.788</ele>
        <time>2011-08-23T07:53:48Z</time>
      </trkpt>
      <trkpt lat="42.69096" lon="2.12252">
        <ele>1440.436</ele>
        <time>2011-08-23T07:53:54Z</time>
      </trkpt>
      <trkpt lat="42.69106" lon="2.12247">
        <ele>1441.387</ele>
        <time>2011-08-23T07:54:00Z</time>
      </trkpt>
      <trkpt lat="42.69116" lon="2.12239">
        <ele>1442.816</ele>
        <time>2011-08-23T07:54:07Z</time>
      </trkpt>
      <trkpt lat="42.6913" lon="2.12227">
        <ele>1444.575</ele>
        <time>2011-08-23T07:54:15Z</time>
      </trkpt>
      <trkpt lat="42.69142" lon="2.12217">
        <ele>1445.262</ele>
        <time>2011-08-23T07:54:22Z</time>
      </trkpt>
      <trkpt lat="42.69158" lon="2.12205">
        <ele>1446.071</ele>
        <time>2011-08-23T07:54:30Z</time>
      </trkpt>
      <trkpt lat="42.69171" lon="2.12195">
        <ele>1446.656</ele>
        <time>2011-08-23T07:54:36Z</time>
      </trkpt>
      <trkpt lat="42.6919" lon="2.12182">
        <ele>1447.178</ele>
        <time>2011-08-23T07:54:43Z</time>
      </trkpt>
      <trkpt lat="42.69201" lon="2.12171">
        <ele>1447.554</ele>
        <time>2011-08-23T07:54:48Z</time>
      </trkpt>
      <trkpt lat="42.69223" lon="2.12152">
        <ele>1448.028</ele>
        <time>2011-08-23T07:54:57Z</time>
      </trkpt>
      <trkpt lat="42.69236" lon="2.12135">
        <ele>1448.31</ele>
        <time>2011-08-23T07:55:05Z</time>
      </trkpt>
      <trkpt lat="42.69248" lon="2.12121">
        <ele>1448.204</ele>
        <time>2011-08-23T07:55:14Z</time>
      </trkpt>
      <trkpt lat="42.69263" lon="2.1211">
        <ele>1447.905</ele>
        <time>2011-08-23T07:55:22Z</time>
      </trkpt>
      <trkpt lat="42.69263" lon="2.1211">
        <ele>1447.616</ele>
        <time>2011-08-23T07:55:26Z</time>
      </trkpt>
      <trkpt lat="42.6926" lon="2.12114">
        <ele>1447.498</ele>
        <time>2011-08-23T07:55:38Z</time>
      </trkpt>
      <trkpt lat="42.6926" lon="2.12114">
        <ele>1447.464</ele>
        <time>2011-08-23T07:55:40Z</time>
      </trkpt>
      <trkpt lat="42.69251" lon="2.12115">
        <ele>1447.703</ele>
        <time>2011-08-23T07:55:45Z</time>
      </trkpt>
      <trkpt lat="42.69249" lon="2.12102">
        <ele>1448.308</ele>
        <time>2011-08-23T07:55:49Z</time>
      </trkpt>
      <trkpt lat="42.69251" lon="2.12089">
        <ele>1448.452</ele>
        <time>2011-08-23T07:55:53Z</time>
      </trkpt>
      <trkpt lat="42.69256" lon="2.12063">
        <ele>1448.467</ele>
        <time>2011-08-23T07:56:01Z</time>
      </trkpt>
      <trkpt lat="42.69264" lon="2.12048">
        <ele>1448.479</ele>
        <time>2011-08-23T07:56:07Z</time>
      </trkpt>
      <trkpt lat="42.69266" lon="2.12028">
        <ele>1448.846</ele>
        <time>2011-08-23T07:56:13Z</time>
      </trkpt>
      <trkpt lat="42.69269" lon="2.12005">
        <ele>1449.893</ele>
        <time>2011-08-23T07:56:20Z</time>
      </trkpt>
      <trkpt lat="42.6927" lon="2.11995">
        <ele>1450.525</ele>
        <time>2011-08-23T07:56:25Z</time>
      </trkpt>
      <trkpt lat="42.69275" lon="2.11998">
        <ele>1450.74</ele>
        <time>2011-08-23T07:56:34Z</time>
      </trkpt>
      <trkpt lat="42.69275" lon="2.11996">
        <ele>1450.727</ele>
        <time>2011-08-23T07:56:37Z</time>
      </trkpt>
      <trkpt lat="42.69265" lon="2.11979">
        <ele>1451.656</ele>
        <time>2011-08-23T07:56:44Z</time>
      </trkpt>
      <trkpt lat="42.6926" lon="2.11968">
        <ele>1452.555</ele>
        <time>2011-08-23T07:56:48Z</time>
      </trkpt>
      <trkpt lat="42.69258" lon="2.11948">
        <ele>1453.666</ele>
        <time>2011-08-23T07:56:56Z</time>
      </trkpt>
      <trkpt lat="42.69262" lon="2.11939">
        <ele>1453.573</ele>
        <time>2011-08-23T07:56:59Z</time>
      </trkpt>
      <trkpt lat="42.69269" lon="2.11934">
        <ele>1453.115</ele>
        <time>2011-08-23T07:57:01Z</time>
      </trkpt>
      <trkpt lat="42.69285" lon="2.11923">
        <ele>1451.477</ele>
        <time>2011-08-23T07:57:06Z</time>
      </trkpt>
      <trkpt lat="42.69294" lon="2.11919">
        <ele>1451.002</ele>
        <time>2011-08-23T07:57:08Z</time>
      </trkpt>
      <trkpt lat="42.69326" lon="2.11908">
        <ele>1447.612</ele>
        <time>2011-08-23T07:57:14Z</time>
      </trkpt>
      <trkpt lat="42.69341" lon="2.11903">
        <ele>1444.93</ele>
        <time>2011-08-23T07:57:18Z</time>
      </trkpt>
      <trkpt lat="42.69352" lon="2.11897">
        <ele>1443.579</ele>
        <time>2011-08-23T07:57:22Z</time>
      </trkpt>
      <trkpt lat="42.69351" lon="2.11895">
        <ele>1442.572</ele>
        <time>2011-08-23T07:57:28Z</time>
      </trkpt>
      <trkpt lat="42.69355" lon="2.11893">
        <ele>1442.702</ele>
        <time>2011-08-23T07:57:32Z</time>
      </trkpt>
      <trkpt lat="42.69364" lon="2.11881">
        <ele>1441.768</ele>
        <time>2011-08-23T07:57:36Z</time>
      </trkpt>
      <trkpt lat="42.69366" lon="2.1187">
        <ele>1441.823</ele>
        <time>2011-08-23T07:57:39Z</time>
      </trkpt>
      <trkpt lat="42.69371" lon="2.11844">
        <ele>1442.379</ele>
        <time>2011-08-23T07:57:46Z</time>
      </trkpt>
      <trkpt lat="42.69376" lon="2.11813">
        <ele>1442.283</ele>
        <time>2011-08-23T07:57:53Z</time>
      </trkpt>
      <trkpt lat="42.69377" lon="2.1179">
        <ele>1442.287</ele>
        <time>2011-08-23T07:57:58Z</time>
      </trkpt>
      <trkpt lat="42.69377" lon="2.11773">
        <ele>1441.88</ele>
        <time>2011-08-23T07:58:02Z</time>
      </trkpt>
      <trkpt lat="42.69376" lon="2.11756">
        <ele>1441.391</ele>
        <time>2011-08-23T07:58:06Z</time>
      </trkpt>
      <trkpt lat="42.69371" lon="2.11735">
        <ele>1441.419</ele>
        <time>2011-08-23T07:58:10Z</time>
      </trkpt>
      <trkpt lat="42.69372" lon="2.11722">
        <ele>1440.741</ele>
        <time>2011-08-23T07:58:14Z</time>
      </trkpt>
      <trkpt lat="42.6938" lon="2.1171">
        <ele>1440.832</ele>
        <time>2011-08-23T07:58:20Z</time>
      </trkpt>
      <trkpt lat="42.6939" lon="2.11692">
        <ele>1442.005</ele>
        <time>2011-08-23T07:58:27Z</time>
      </trkpt>
      <trkpt lat="42.69397" lon="2.11679">
        <ele>1443.829</ele>
        <time>2011-08-23T07:58:33Z</time>
      </trkpt>
      <trkpt lat="42.69404" lon="2.11666">
        <ele>1444.903</ele>
        <time>2011-08-23T07:58:39Z</time>
      </trkpt>
      <trkpt lat="42.69412" lon="2.11656">
        <ele>1446.763</ele>
        <time>2011-08-23T07:58:45Z</time>
      </trkpt>
      <trkpt lat="42.69419" lon="2.11644">
        <ele>1449.254</ele>
        <time>2011-08-23T07:58:52Z</time>
      </trkpt>
      <trkpt lat="42.69422" lon="2.11634">
        <ele>1451.052</ele>
        <time>2011-08-23T07:58:57Z</time>
      </trkpt>
      <trkpt lat="42.69423" lon="2.11624">
        <ele>1453.496</ele>
        <time>2011-08-23T07:59:04Z</time>
      </trkpt>
      <trkpt lat="42.69424" lon="2.11622">
        <ele>1453.954</ele>
        <time>2011-08-23T07:59:08Z</time>
      </trkpt>
      <trkpt lat="42.69429" lon="2.11613">
        <ele>1455.312</ele>
        <time>2011-08-23T07:59:19Z</time>
      </trkpt>
      <trkpt lat="42.69433" lon="2.11609">
        <ele>1456.997</ele>
        <time>2011-08-23T07:59:27Z</time>
      </trkpt>
      <trkpt lat="42.6944" lon="2.11602">
        <ele>1459.739</ele>
        <time>2011-08-23T07:59:38Z</time>
      </trkpt>
      <trkpt lat="42.69442" lon="2.11596">
        <ele>1461.493</ele>
        <time>2011-08-23T07:59:45Z</time>
      </trkpt>
      <trkpt lat="42.69448" lon="2.1159">
        <ele>1463.322</ele>
        <time>2011-08-23T07:59:54Z</time>
      </trkpt>
      <trkpt lat="42.69453" lon="2.11586">
        <ele>1465.74</ele>
        <time>2011-08-23T08:00:04Z</time>
      </trkpt>
      <trkpt lat="42.69458" lon="2.11581">
        <ele>1468.044</ele>
        <time>2011-08-23T08:00:14Z</time>
      </trkpt>
      <trkpt lat="42.69464" lon="2.11572">
        <ele>1470.287</ele>
        <time>2011-08-23T08:00:25Z</time>
      </trkpt>
      <trkpt lat="42.69464" lon="2.11571">
        <ele>1470.537</ele>
        <time>2011-08-23T08:00:26Z</time>
      </trkpt>
      <trkpt lat="42.69467" lon="2.11555">
        <ele>1471.166</ele>
        <time>2011-08-23T08:00:33Z</time>
      </trkpt>
      <trkpt lat="42.69476" lon="2.11537">
        <ele>1471.681</ele>
        <time>2011-08-23T08:00:41Z</time>
      </trkpt>
      <trkpt lat="42.69484" lon="2.1152">
        <ele>1471.713</ele>
        <time>2011-08-23T08:00:48Z</time>
      </trkpt>
      <trkpt lat="42.6949" lon="2.11501">
        <ele>1471.383</ele>
        <time>2011-08-23T08:00:55Z</time>
      </trkpt>
      <trkpt lat="42.69496" lon="2.11482">
        <ele>1470.551</ele>
        <time>2011-08-23T08:01:00Z</time>
      </trkpt>
      <trkpt lat="42.69503" lon="2.11459">
        <ele>1469.075</ele>
        <time>2011-08-23T08:01:04Z</time>
      </trkpt>
      <trkpt lat="42.69501" lon="2.11439">
        <ele>1467.203</ele>
        <time>2011-08-23T08:01:08Z</time>
      </trkpt>
      <trkpt lat="42.69491" lon="2.11425">
        <ele>1466.022</ele>
        <time>2011-08-23T08:01:13Z</time>
      </trkpt>
      <trkpt lat="42.69474" lon="2.11405">
        <ele>1465.065</ele>
        <time>2011-08-23T08:01:19Z</time>
      </trkpt>
      <trkpt lat="42.69473" lon="2.11378">
        <ele>1464.265</ele>
        <time>2011-08-23T08:01:23Z</time>
      </trkpt>
      <trkpt lat="42.69475" lon="2.11333">
        <ele>1459.142</ele>
        <time>2011-08-23T08:01:29Z</time>
      </trkpt>
      <trkpt lat="42.69481" lon="2.11311">
        <ele>1457.027</ele>
        <time>2011-08-23T08:01:33Z</time>
      </trkpt>
      <trkpt lat="42.69486" lon="2.11303">
        <ele>1455.559</ele>
        <time>2011-08-23T08:01:35Z</time>
      </trkpt>
      <trkpt lat="42.69492" lon="2.11291">
        <ele>1453.158</ele>
        <time>2011-08-23T08:01:38Z</time>
      </trkpt>
      <trkpt lat="42.6949" lon="2.11272">
        <ele>1450.603</ele>
        <time>2011-08-23T08:01:42Z</time>
      </trkpt>
      <trkpt lat="42.69489" lon="2.11268">
        <ele>1450.291</ele>
        <time>2011-08-23T08:01:43Z</time>
      </trkpt>
      <trkpt lat="42.69488" lon="2.11245">
        <ele>1448.902</ele>
        <time>2011-08-23T08:01:48Z</time>
      </trkpt>
      <trkpt lat="42.69492" lon="2.11222">
        <ele>1448.499</ele>
        <time>2011-08-23T08:01:54Z</time>
      </trkpt>
      <trkpt lat="42.69495" lon="2.11199">
        <ele>1448.07</ele>
        <time>2011-08-23T08:01:59Z</time>
      </trkpt>
      <trkpt lat="42.69497" lon="2.11159">
        <ele>1447.094</ele>
        <time>2011-08-23T08:02:07Z</time>
      </trkpt>
      <trkpt lat="42.69501" lon="2.11129">
        <ele>1446.162</ele>
        <time>2011-08-23T08:02:13Z</time>
      </trkpt>
      <trkpt lat="42.69503" lon="2.11118">
        <ele>1446.053</ele>
        <time>2011-08-23T08:02:15Z</time>
      </trkpt>
      <trkpt lat="42.695" lon="2.11087">
        <ele>1443.96</ele>
        <time>2011-08-23T08:02:20Z</time>
      </trkpt>
      <trkpt lat="42.69498" lon="2.11075">
        <ele>1442.862</ele>
        <time>2011-08-23T08:02:22Z</time>
      </trkpt>
      <trkpt lat="42.69499" lon="2.11054">
        <ele>1441.573</ele>
        <time>2011-08-23T08:02:25Z</time>
      </trkpt>
      <trkpt lat="42.69501" lon="2.11033">
        <ele>1438.853</ele>
        <time>2011-08-23T08:02:28Z</time>
      </trkpt>
      <trkpt lat="42.69502" lon="2.10986">
        <ele>1434.441</ele>
        <time>2011-08-23T08:02:34Z</time>
      </trkpt>
      <trkpt lat="42.69503" lon="2.10978">
        <ele>1433.709</ele>
        <time>2011-08-23T08:02:35Z</time>
      </trkpt>
      <trkpt lat="42.69508" lon="2.10925">
        <ele>1428.815</ele>
        <time>2011-08-23T08:02:41Z</time>
      </trkpt>
      <trkpt lat="42.69513" lon="2.10874">
        <ele>1424.005</ele>
        <time>2011-08-23T08:02:47Z</time>
      </trkpt>
      <trkpt lat="42.69512" lon="2.10859">
        <ele>1423.224</ele>
        <time>2011-08-23T08:02:49Z</time>
      </trkpt>
      <trkpt lat="42.6951" lon="2.10852">
        <ele>1422.604</ele>
        <time>2011-08-23T08:02:50Z</time>
      </trkpt>
      <trkpt lat="42.69507" lon="2.10815">
        <ele>1418.855</ele>
        <time>2011-08-23T08:02:56Z</time>
      </trkpt>
      <trkpt lat="42.69507" lon="2.10808">
        <ele>1416.693</ele>
        <time>2011-08-23T08:03:00Z</time>
      </trkpt>
      <trkpt lat="42.69504" lon="2.10806">
        <ele>1414.908</ele>
        <time>2011-08-23T08:04:40Z</time>
      </trkpt>
      <trkpt lat="42.695" lon="2.10798">
        <ele>1414.06</ele>
        <time>2011-08-23T08:04:46Z</time>
      </trkpt>
      <trkpt lat="42.695" lon="2.10798">
        <ele>1413.794</ele>
        <time>2011-08-23T08:04:50Z</time>
      </trkpt>
      <trkpt lat="42.69494" lon="2.10783">
        <ele>1413.562</ele>
        <time>2011-08-23T08:04:55Z</time>
      </trkpt>
      <trkpt lat="42.69485" lon="2.10764">
        <ele>1412.752</ele>
        <time>2011-08-23T08:05:00Z</time>
      </trkpt>
      <trkpt lat="42.69479" lon="2.10748">
        <ele>1410.549</ele>
        <time>2011-08-23T08:05:04Z</time>
      </trkpt>
      <trkpt lat="42.69487" lon="2.10735">
        <ele>1409.976</ele>
        <time>2011-08-23T08:05:09Z</time>
      </trkpt>
      <trkpt lat="42.69501" lon="2.10724">
        <ele>1408.26</ele>
        <time>2011-08-23T08:05:14Z</time>
      </trkpt>
      <trkpt lat="42.69516" lon="2.10713">
        <ele>1406.732</ele>
        <time>2011-08-23T08:05:17Z</time>
      </trkpt>
      <trkpt lat="42.69547" lon="2.10697">
        <ele>1404.007</ele>
        <time>2011-08-23T08:05:22Z</time>
      </trkpt>
      <trkpt lat="42.69553" lon="2.10695">
        <ele>1403.175</ele>
        <time>2011-08-23T08:05:23Z</time>
      </trkpt>
      <trkpt lat="42.69576" lon="2.10679">
        <ele>1400.299</ele>
        <time>2011-08-23T08:05:27Z</time>
      </trkpt>
      <trkpt lat="42.69589" lon="2.10664">
        <ele>1398.697</ele>
        <time>2011-08-23T08:05:30Z</time>
      </trkpt>
      <trkpt lat="42.69603" lon="2.10637">
        <ele>1396.746</ele>
        <time>2011-08-23T08:05:34Z</time>
      </trkpt>
      <trkpt lat="42.69619" lon="2.10604">
        <ele>1393.762</ele>
        <time>2011-08-23T08:05:40Z</time>
      </trkpt>
      <trkpt lat="42.69639" lon="2.10565">
        <ele>1390.052</ele>
        <time>2011-08-23T08:05:46Z</time>
      </trkpt>
      <trkpt lat="42.69642" lon="2.1056">
        <ele>1390.048</ele>
        <time>2011-08-23T08:05:47Z</time>
      </trkpt>
      <trkpt lat="42.6965" lon="2.10551">
        <ele>1388.921</ele>
        <time>2011-08-23T08:05:49Z</time>
      </trkpt>
      <trkpt lat="42.69675" lon="2.10525">
        <ele>1385.455</ele>
        <time>2011-08-23T08:05:55Z</time>
      </trkpt>
      <trkpt lat="42.69678" lon="2.1052">
        <ele>1384.975</ele>
        <time>2011-08-23T08:05:56Z</time>
      </trkpt>
      <trkpt lat="42.69687" lon="2.10496">
        <ele>1383.578</ele>
        <time>2011-08-23T08:06:00Z</time>
      </trkpt>
      <trkpt lat="42.69693" lon="2.10468">
        <ele>1383.408</ele>
        <time>2011-08-23T08:06:06Z</time>
      </trkpt>
      <trkpt lat="42.69697" lon="2.10453">
        <ele>1383.912</ele>
        <time>2011-08-23T08:06:10Z</time>
      </trkpt>
      <trkpt lat="42.69697" lon="2.10432">
        <ele>1384.417</ele>
        <time>2011-08-23T08:06:15Z</time>
      </trkpt>
      <trkpt lat="42.69689" lon="2.10414">
        <ele>1384.429</ele>
        <time>2011-08-23T08:06:20Z</time>
      </trkpt>
      <trkpt lat="42.69682" lon="2.10407">
        <ele>1384.159</ele>
        <time>2011-08-23T08:06:22Z</time>
      </trkpt>
      <trkpt lat="42.69653" lon="2.10387">
        <ele>1382.37</ele>
        <time>2011-08-23T08:06:28Z</time>
      </trkpt>
      <trkpt lat="42.69634" lon="2.10358">
        <ele>1380.693</ele>
        <time>2011-08-23T08:06:33Z</time>
      </trkpt>
      <trkpt lat="42.69616" lon="2.1033">
        <ele>1378.893</ele>
        <time>2011-08-23T08:06:37Z</time>
      </trkpt>
      <trkpt lat="42.6961" lon="2.10324">
        <ele>1378.082</ele>
        <time>2011-08-23T08:06:38Z</time>
      </trkpt>
      <trkpt lat="42.696" lon="2.10313">
        <ele>1376.744</ele>
        <time>2011-08-23T08:06:40Z</time>
      </trkpt>
      <trkpt lat="42.69579" lon="2.10282">
        <ele>1374.296</ele>
        <time>2011-08-23T08:06:45Z</time>
      </trkpt>
      <trkpt lat="42.69576" lon="2.10274">
        <ele>1371.907</ele>
        <time>2011-08-23T08:06:48Z</time>
      </trkpt>
      <trkpt lat="42.69576" lon="2.10266">
        <ele>1370.67</ele>
        <time>2011-08-23T08:06:51Z</time>
      </trkpt>
      <trkpt lat="42.69577" lon="2.10245">
        <ele>1369.724</ele>
        <time>2011-08-23T08:06:54Z</time>
      </trkpt>
      <trkpt lat="42.6958" lon="2.10229">
        <ele>1368.403</ele>
        <time>2011-08-23T08:06:56Z</time>
      </trkpt>
      <trkpt lat="42.69587" lon="2.10197">
        <ele>1364.588</ele>
        <time>2011-08-23T08:07:01Z</time>
      </trkpt>
      <trkpt lat="42.69586" lon="2.10187">
        <ele>1363.67</ele>
        <time>2011-08-23T08:07:03Z</time>
      </trkpt>
      <trkpt lat="42.69586" lon="2.10179">
        <ele>1361.904</ele>
        <time>2011-08-23T08:07:05Z</time>
      </trkpt>
      <trkpt lat="42.69588" lon="2.10169">
        <ele>1360.483</ele>
        <time>2011-08-23T08:07:07Z</time>
      </trkpt>
      <trkpt lat="42.69595" lon="2.1016">
        <ele>1359.214</ele>
        <time>2011-08-23T08:07:09Z</time>
      </trkpt>
      <trkpt lat="42.69616" lon="2.10125">
        <ele>1356.184</ele>
        <time>2011-08-23T08:07:13Z</time>
      </trkpt>
      <trkpt lat="42.69653" lon="2.10076">
        <ele>1351.049</ele>
        <time>2011-08-23T08:07:18Z</time>
      </trkpt>
      <trkpt lat="42.69691" lon="2.10049">
        <ele>1343.269</ele>
        <time>2011-08-23T08:07:24Z</time>
      </trkpt>
      <trkpt lat="42.69706" lon="2.1003">
        <ele>1338.903</ele>
        <time>2011-08-23T08:07:28Z</time>
      </trkpt>
      <trkpt lat="42.69706" lon="2.10005">
        <ele>1335.809</ele>
        <time>2011-08-23T08:07:31Z</time>
      </trkpt>
      <trkpt lat="42.69706" lon="2.09975">
        <ele>1333.663</ele>
        <time>2011-08-23T08:07:34Z</time>
      </trkpt>
      <trkpt lat="42.69714" lon="2.09929">
        <ele>1329.293</ele>
        <time>2011-08-23T08:07:39Z</time>
      </trkpt>
      <trkpt lat="42.69726" lon="2.09913">
        <ele>1326.273</ele>
        <time>2011-08-23T08:07:42Z</time>
      </trkpt>
      <trkpt lat="42.6973" lon="2.09912">
        <ele>1325.319</ele>
        <time>2011-08-23T08:07:43Z</time>
      </trkpt>
      <trkpt lat="42.6976" lon="2.09882">
        <ele>1321.407</ele>
        <time>2011-08-23T08:07:49Z</time>
      </trkpt>
      <trkpt lat="42.69779" lon="2.09859">
        <ele>1319.526</ele>
        <time>2011-08-23T08:07:52Z</time>
      </trkpt>
      <trkpt lat="42.69804" lon="2.09838">
        <ele>1316.932</ele>
        <time>2011-08-23T08:07:57Z</time>
      </trkpt>
      <trkpt lat="42.69815" lon="2.09831">
        <ele>1316.06</ele>
        <time>2011-08-23T08:07:59Z</time>
      </trkpt>
      <trkpt lat="42.69833" lon="2.09825">
        <ele>1312.342</ele>
        <time>2011-08-23T08:08:03Z</time>
      </trkpt>
      <trkpt lat="42.69836" lon="2.09821">
        <ele>1310.208</ele>
        <time>2011-08-23T08:08:06Z</time>
      </trkpt>
      <trkpt lat="42.69846" lon="2.09803">
        <ele>1309.658</ele>
        <time>2011-08-23T08:08:10Z</time>
      </trkpt>
      <trkpt lat="42.69862" lon="2.09765">
        <ele>1308.438</ele>
        <time>2011-08-23T08:08:15Z</time>
      </trkpt>
      <trkpt lat="42.6987" lon="2.09744">
        <ele>1307.967</ele>
        <time>2011-08-23T08:08:18Z</time>
      </trkpt>
      <trkpt lat="42.69878" lon="2.09721">
        <ele>1307.256</ele>
        <time>2011-08-23T08:08:22Z</time>
      </trkpt>
      <trkpt lat="42.69885" lon="2.09704">
        <ele>1306.586</ele>
        <time>2011-08-23T08:08:26Z</time>
      </trkpt>
      <trkpt lat="42.69903" lon="2.09707">
        <ele>1304.261</ele>
        <time>2011-08-23T08:08:30Z</time>
      </trkpt>
      <trkpt lat="42.69904" lon="2.09711">
        <ele>1302.213</ele>
        <time>2011-08-23T08:08:35Z</time>
      </trkpt>
      <trkpt lat="42.69904" lon="2.09711">
        <ele>1302.297</ele>
        <time>2011-08-23T08:08:37Z</time>
      </trkpt>
      <trkpt lat="42.69915" lon="2.09711">
        <ele>1302.138</ele>
        <time>2011-08-23T08:08:41Z</time>
      </trkpt>
      <trkpt lat="42.69941" lon="2.09712">
        <ele>1301.182</ele>
        <time>2011-08-23T08:08:45Z</time>
      </trkpt>
      <trkpt lat="42.6995" lon="2.09714">
        <ele>1300.631</ele>
        <time>2011-08-23T08:08:46Z</time>
      </trkpt>
      <trkpt lat="42.69998" lon="2.0974">
        <ele>1296.606</ele>
        <time>2011-08-23T08:08:51Z</time>
      </trkpt>
      <trkpt lat="42.70035" lon="2.09771">
        <ele>1290.527</ele>
        <time>2011-08-23T08:08:56Z</time>
      </trkpt>
      <trkpt lat="42.70062" lon="2.09789">
        <ele>1285.622</ele>
        <time>2011-08-23T08:09:01Z</time>
      </trkpt>
      <trkpt lat="42.7007" lon="2.09793">
        <ele>1284.991</ele>
        <time>2011-08-23T08:09:02Z</time>
      </trkpt>
      <trkpt lat="42.70095" lon="2.09791">
        <ele>1281.651</ele>
        <time>2011-08-23T08:09:06Z</time>
      </trkpt>
      <trkpt lat="42.70102" lon="2.09773">
        <ele>1279.744</ele>
        <time>2011-08-23T08:09:09Z</time>
      </trkpt>
      <trkpt lat="42.70104" lon="2.09768">
        <ele>1277.949</ele>
        <time>2011-08-23T08:09:12Z</time>
      </trkpt>
      <trkpt lat="42.70104" lon="2.09767">
        <ele>1277.47</ele>
        <time>2011-08-23T08:09:23Z</time>
      </trkpt>
      <trkpt lat="42.70104" lon="2.09767">
        <ele>1277.47</ele>
        <time>2011-08-23T08:09:24Z</time>
      </trkpt>
      <trkpt lat="42.70115" lon="2.09771">
        <ele>1277.032</ele>
        <time>2011-08-23T08:09:30Z</time>
      </trkpt>
      <trkpt lat="42.70126" lon="2.09776">
        <ele>1276.462</ele>
        <time>2011-08-23T08:09:35Z</time>
      </trkpt>
      <trkpt lat="42.70127" lon="2.09776">
        <ele>1275.633</ele>
        <time>2011-08-23T08:09:40Z</time>
      </trkpt>
      <trkpt lat="42.70128" lon="2.09778">
        <ele>1275.32</ele>
        <time>2011-08-23T08:10:50Z</time>
      </trkpt>
      <trkpt lat="42.70129" lon="2.09786">
        <ele>1274.886</ele>
        <time>2011-08-23T08:10:54Z</time>
      </trkpt>
      <trkpt lat="42.70142" lon="2.09803">
        <ele>1273.415</ele>
        <time>2011-08-23T08:11:00Z</time>
      </trkpt>
      <trkpt lat="42.70146" lon="2.09813">
        <ele>1272.901</ele>
        <time>2011-08-23T08:11:02Z</time>
      </trkpt>
      <trkpt lat="42.70164" lon="2.09827">
        <ele>1271.632</ele>
        <time>2011-08-23T08:11:07Z</time>
      </trkpt>
      <trkpt lat="42.70173" lon="2.09829">
        <ele>1271.594</ele>
        <time>2011-08-23T08:11:09Z</time>
      </trkpt>
      <trkpt lat="42.70205" lon="2.09821">
        <ele>1270.178</ele>
        <time>2011-08-23T08:11:16Z</time>
      </trkpt>
      <trkpt lat="42.70234" lon="2.09811">
        <ele>1269.696</ele>
        <time>2011-08-23T08:11:22Z</time>
      </trkpt>
      <trkpt lat="42.7027" lon="2.09802">
        <ele>1269.453</ele>
        <time>2011-08-23T08:11:29Z</time>
      </trkpt>
      <trkpt lat="42.70275" lon="2.09801">
        <ele>1269.538</ele>
        <time>2011-08-23T08:11:30Z</time>
      </trkpt>
      <trkpt lat="42.70289" lon="2.09791">
        <ele>1270.178</ele>
        <time>2011-08-23T08:11:34Z</time>
      </trkpt>
      <trkpt lat="42.70291" lon="2.09776">
        <ele>1270.965</ele>
        <time>2011-08-23T08:11:38Z</time>
      </trkpt>
      <trkpt lat="42.70289" lon="2.09739">
        <ele>1270.767</ele>
        <time>2011-08-23T08:11:44Z</time>
      </trkpt>
      <trkpt lat="42.70291" lon="2.09729">
        <ele>1271.008</ele>
        <time>2011-08-23T08:11:46Z</time>
      </trkpt>
      <trkpt lat="42.70299" lon="2.09699">
        <ele>1271.568</ele>
        <time>2011-08-23T08:11:54Z</time>
      </trkpt>
      <trkpt lat="42.70298" lon="2.0968">
        <ele>1272.472</ele>
        <time>2011-08-23T08:11:59Z</time>
      </trkpt>
      <trkpt lat="42.70302" lon="2.09655">
        <ele>1273.698</ele>
        <time>2011-08-23T08:12:06Z</time>
      </trkpt>
      <trkpt lat="42.70308" lon="2.09639">
        <ele>1274.668</ele>
        <time>2011-08-23T08:12:12Z</time>
      </trkpt>
      <trkpt lat="42.70305" lon="2.09639">
        <ele>1275.075</ele>
        <time>2011-08-23T08:12:17Z</time>
      </trkpt>
      <trkpt lat="42.70301" lon="2.0966">
        <ele>1274.601</ele>
        <time>2011-08-23T08:12:22Z</time>
      </trkpt>
      <trkpt lat="42.70299" lon="2.09704">
        <ele>1272.839</ele>
        <time>2011-08-23T08:12:28Z</time>
      </trkpt>
      <trkpt lat="42.70296" lon="2.09721">
        <ele>1271.753</ele>
        <time>2011-08-23T08:12:30Z</time>
      </trkpt>
      <trkpt lat="42.70288" lon="2.09765">
        <ele>1270.2</ele>
        <time>2011-08-23T08:12:35Z</time>
      </trkpt>
      <trkpt lat="42.7029" lon="2.09792">
        <ele>1270.211</ele>
        <time>2011-08-23T08:12:39Z</time>
      </trkpt>
      <trkpt lat="42.7029" lon="2.09803">
        <ele>1270.055</ele>
        <time>2011-08-23T08:12:42Z</time>
      </trkpt>
      <trkpt lat="42.70301" lon="2.09809">
        <ele>1268.849</ele>
        <time>2011-08-23T08:12:46Z</time>
      </trkpt>
      <trkpt lat="42.70308" lon="2.09819">
        <ele>1268.616</ele>
        <time>2011-08-23T08:12:49Z</time>
      </trkpt>
      <trkpt lat="42.70318" lon="2.09832">
        <ele>1267.971</ele>
        <time>2011-08-23T08:12:54Z</time>
      </trkpt>
      <trkpt lat="42.70324" lon="2.09837">
        <ele>1267.051</ele>
        <time>2011-08-23T08:12:58Z</time>
      </trkpt>
      <trkpt lat="42.70327" lon="2.09834">
        <ele>1266.024</ele>
        <time>2011-08-23T08:13:02Z</time>
      </trkpt>
      <trkpt lat="42.70325" lon="2.09833">
        <ele>1265.84</ele>
        <time>2011-08-23T08:13:03Z</time>
      </trkpt>
      <trkpt lat="42.70314" lon="2.09826">
        <ele>1267.329</ele>
        <time>2011-08-23T08:13:09Z</time>
      </trkpt>
      <trkpt lat="42.70304" lon="2.09811">
        <ele>1268.452</ele>
        <time>2011-08-23T08:13:14Z</time>
      </trkpt>
      <trkpt lat="42.70291" lon="2.09802">
        <ele>1268.812</ele>
        <time>2011-08-23T08:13:19Z</time>
      </trkpt>
      <trkpt lat="42.70276" lon="2.09804">
        <ele>1268.858</ele>
        <time>2011-08-23T08:13:24Z</time>
      </trkpt>
      <trkpt lat="42.7025" lon="2.09809">
        <ele>1268.573</ele>
        <time>2011-08-23T08:13:30Z</time>
      </trkpt>
      <trkpt lat="42.70222" lon="2.09816">
        <ele>1268.621</ele>
        <time>2011-08-23T08:13:36Z</time>
      </trkpt>
      <trkpt lat="42.70196" lon="2.09826">
        <ele>1268.849</ele>
        <time>2011-08-23T08:13:42Z</time>
      </trkpt>
      <trkpt lat="42.70167" lon="2.09831">
        <ele>1269.757</ele>
        <time>2011-08-23T08:13:49Z</time>
      </trkpt>
      <trkpt lat="42.7015" lon="2.09823">
        <ele>1270.493</ele>
        <time>2011-08-23T08:13:54Z</time>
      </trkpt>
      <trkpt lat="42.70138" lon="2.09803">
        <ele>1271.257</ele>
        <time>2011-08-23T08:13:59Z</time>
      </trkpt>
      <trkpt lat="42.7013" lon="2.09786">
        <ele>1272.635</ele>
        <time>2011-08-23T08:14:04Z</time>
      </trkpt>
      <trkpt lat="42.70117" lon="2.09767">
        <ele>1274.8</ele>
        <time>2011-08-23T08:14:11Z</time>
      </trkpt>
      <trkpt lat="42.70107" lon="2.09752">
        <ele>1275.223</ele>
        <time>2011-08-23T08:14:15Z</time>
      </trkpt>
      <trkpt lat="42.7009" lon="2.09715">
        <ele>1272.99</ele>
        <time>2011-08-23T08:14:20Z</time>
      </trkpt>
      <trkpt lat="42.70085" lon="2.09695">
        <ele>1270.749</ele>
        <time>2011-08-23T08:14:23Z</time>
      </trkpt>
      <trkpt lat="42.70091" lon="2.0968">
        <ele>1269.578</ele>
        <time>2011-08-23T08:14:25Z</time>
      </trkpt>
      <trkpt lat="42.70107" lon="2.09658">
        <ele>1267.6</ele>
        <time>2011-08-23T08:14:28Z</time>
      </trkpt>
      <trkpt lat="42.70136" lon="2.09612">
        <ele>1264.345</ele>
        <time>2011-08-23T08:14:33Z</time>
      </trkpt>
      <trkpt lat="42.7015" lon="2.09596">
        <ele>1262.666</ele>
        <time>2011-08-23T08:14:35Z</time>
      </trkpt>
      <trkpt lat="42.7017" lon="2.09558">
        <ele>1261.101</ele>
        <time>2011-08-23T08:14:39Z</time>
      </trkpt>
      <trkpt lat="42.7018" lon="2.09529">
        <ele>1260.361</ele>
        <time>2011-08-23T08:14:42Z</time>
      </trkpt>
      <trkpt lat="42.70205" lon="2.09487">
        <ele>1259.26</ele>
        <time>2011-08-23T08:14:48Z</time>
      </trkpt>
      <trkpt lat="42.70238" lon="2.09438">
        <ele>1257.617</ele>
        <time>2011-08-23T08:14:56Z</time>
      </trkpt>
      <trkpt lat="42.70256" lon="2.09403">
        <ele>1256.377</ele>
        <time>2011-08-23T08:15:01Z</time>
      </trkpt>
      <trkpt lat="42.70283" lon="2.09373">
        <ele>1253.141</ele>
        <time>2011-08-23T08:15:06Z</time>
      </trkpt>
      <trkpt lat="42.70288" lon="2.09368">
        <ele>1251.953</ele>
        <time>2011-08-23T08:15:07Z</time>
      </trkpt>
      <trkpt lat="42.70314" lon="2.09364">
        <ele>1248.361</ele>
        <time>2011-08-23T08:15:11Z</time>
      </trkpt>
      <trkpt lat="42.70335" lon="2.09366">
        <ele>1244.317</ele>
        <time>2011-08-23T08:15:15Z</time>
      </trkpt>
      <trkpt lat="42.70338" lon="2.09366">
        <ele>1242.981</ele>
        <time>2011-08-23T08:15:16Z</time>
      </trkpt>
      <trkpt lat="42.70341" lon="2.0936">
        <ele>1239.266</ele>
        <time>2011-08-23T08:15:20Z</time>
      </trkpt>
      <trkpt lat="42.70346" lon="2.09353">
        <ele>1235.868</ele>
        <time>2011-08-23T08:15:25Z</time>
      </trkpt>
      <trkpt lat="42.70347" lon="2.09348">
        <ele>1233.751</ele>
        <time>2011-08-23T08:15:31Z</time>
      </trkpt>
      <trkpt lat="42.70349" lon="2.09346">
        <ele>1232.314</ele>
        <time>2011-08-23T08:15:36Z</time>
      </trkpt>
      <trkpt lat="42.7035" lon="2.09342">
        <ele>1231.554</ele>
        <time>2011-08-23T08:15:48Z</time>
      </trkpt>
      <trkpt lat="42.70358" lon="2.09336">
        <ele>1229.127</ele>
        <time>2011-08-23T08:15:54Z</time>
      </trkpt>
      <trkpt lat="42.70361" lon="2.09335">
        <ele>1227.434</ele>
        <time>2011-08-23T08:15:56Z</time>
      </trkpt>
      <trkpt lat="42.7037" lon="2.09334">
        <ele>1223.605</ele>
        <time>2011-08-23T08:16:00Z</time>
      </trkpt>
      <trkpt lat="42.70378" lon="2.09331">
        <ele>1219.698</ele>
        <time>2011-08-23T08:16:05Z</time>
      </trkpt>
      <trkpt lat="42.70386" lon="2.09315">
        <ele>1216.768</ele>
        <time>2011-08-23T08:16:09Z</time>
      </trkpt>
      <trkpt lat="42.70396" lon="2.09307">
        <ele>1214.363</ele>
        <time>2011-08-23T08:16:12Z</time>
      </trkpt>
      <trkpt lat="42.7041" lon="2.09299">
        <ele>1211.703</ele>
        <time>2011-08-23T08:16:17Z</time>
      </trkpt>
      <trkpt lat="42.70434" lon="2.09299">
        <ele>1210.733</ele>
        <time>2011-08-23T08:16:22Z</time>
      </trkpt>
      <trkpt lat="42.70458" lon="2.09298">
        <ele>1210.116</ele>
        <time>2011-08-23T08:16:27Z</time>
      </trkpt>
      <trkpt lat="42.70468" lon="2.09297">
        <ele>1209.911</ele>
        <time>2011-08-23T08:16:29Z</time>
      </trkpt>
      <trkpt lat="42.70492" lon="2.09302">
        <ele>1208.671</ele>
        <time>2011-08-23T08:16:33Z</time>
      </trkpt>
      <trkpt lat="42.70508" lon="2.09296">
        <ele>1208.122</ele>
        <time>2011-08-23T08:16:36Z</time>
      </trkpt>
      <trkpt lat="42.7053" lon="2.09287">
        <ele>1209.658</ele>
        <time>2011-08-23T08:16:42Z</time>
      </trkpt>
      <trkpt lat="42.70548" lon="2.0929">
        <ele>1210.753</ele>
        <time>2011-08-23T08:16:48Z</time>
      </trkpt>
      <trkpt lat="42.70571" lon="2.09294">
        <ele>1211.666</ele>
        <time>2011-08-23T08:16:55Z</time>
      </trkpt>
      <trkpt lat="42.70591" lon="2.0929">
        <ele>1212.565</ele>
        <time>2011-08-23T08:17:01Z</time>
      </trkpt>
      <trkpt lat="42.70606" lon="2.09298">
        <ele>1213.43</ele>
        <time>2011-08-23T08:17:06Z</time>
      </trkpt>
      <trkpt lat="42.70629" lon="2.0931">
        <ele>1214.323</ele>
        <time>2011-08-23T08:17:13Z</time>
      </trkpt>
      <trkpt lat="42.70653" lon="2.0932">
        <ele>1214.201</ele>
        <time>2011-08-23T08:17:20Z</time>
      </trkpt>
      <trkpt lat="42.70665" lon="2.09327">
        <ele>1215.708</ele>
        <time>2011-08-23T08:17:25Z</time>
      </trkpt>
      <trkpt lat="42.70675" lon="2.09347">
        <ele>1216.569</ele>
        <time>2011-08-23T08:17:30Z</time>
      </trkpt>
      <trkpt lat="42.70687" lon="2.09363">
        <ele>1216.879</ele>
        <time>2011-08-23T08:17:35Z</time>
      </trkpt>
      <trkpt lat="42.70706" lon="2.09376">
        <ele>1217.286</ele>
        <time>2011-08-23T08:17:42Z</time>
      </trkpt>
      <trkpt lat="42.70723" lon="2.09377">
        <ele>1218.328</ele>
        <time>2011-08-23T08:17:48Z</time>
      </trkpt>
      <trkpt lat="42.70748" lon="2.09381">
        <ele>1220.417</ele>
        <time>2011-08-23T08:17:57Z</time>
      </trkpt>
      <trkpt lat="42.70772" lon="2.09379">
        <ele>1220.666</ele>
        <time>2011-08-23T08:18:05Z</time>
      </trkpt>
      <trkpt lat="42.70797" lon="2.09376">
        <ele>1220.462</ele>
        <time>2011-08-23T08:18:12Z</time>
      </trkpt>
      <trkpt lat="42.70822" lon="2.09385">
        <ele>1219.083</ele>
        <time>2011-08-23T08:18:17Z</time>
      </trkpt>
      <trkpt lat="42.70841" lon="2.09397">
        <ele>1218.083</ele>
        <time>2011-08-23T08:18:21Z</time>
      </trkpt>
      <trkpt lat="42.70871" lon="2.09405">
        <ele>1217.445</ele>
        <time>2011-08-23T08:18:27Z</time>
      </trkpt>
      <trkpt lat="42.70877" lon="2.09406">
        <ele>1217.01</ele>
        <time>2011-08-23T08:18:28Z</time>
      </trkpt>
      <trkpt lat="42.70917" lon="2.09413">
        <ele>1215.632</ele>
        <time>2011-08-23T08:18:36Z</time>
      </trkpt>
      <trkpt lat="42.70934" lon="2.0942">
        <ele>1216.164</ele>
        <time>2011-08-23T08:18:41Z</time>
      </trkpt>
      <trkpt lat="42.70947" lon="2.09422">
        <ele>1215.608</ele>
        <time>2011-08-23T08:18:44Z</time>
      </trkpt>
      <trkpt lat="42.70972" lon="2.09413">
        <ele>1214.652</ele>
        <time>2011-08-23T08:18:50Z</time>
      </trkpt>
      <trkpt lat="42.70991" lon="2.09409">
        <ele>1214.882</ele>
        <time>2011-08-23T08:18:55Z</time>
      </trkpt>
      <trkpt lat="42.71009" lon="2.09408">
        <ele>1216.317</ele>
        <time>2011-08-23T08:19:01Z</time>
      </trkpt>
      <trkpt lat="42.71027" lon="2.09406">
        <ele>1216.997</ele>
        <time>2011-08-23T08:19:07Z</time>
      </trkpt>
      <trkpt lat="42.71038" lon="2.09394">
        <ele>1217.602</ele>
        <time>2011-08-23T08:19:12Z</time>
      </trkpt>
      <trkpt lat="42.71048" lon="2.09376">
        <ele>1218.22</ele>
        <time>2011-08-23T08:19:18Z</time>
      </trkpt>
      <trkpt lat="42.71055" lon="2.09361">
        <ele>1218.967</ele>
        <time>2011-08-23T08:19:23Z</time>
      </trkpt>
      <trkpt lat="42.7107" lon="2.09336">
        <ele>1220.008</ele>
        <time>2011-08-23T08:19:31Z</time>
      </trkpt>
      <trkpt lat="42.71084" lon="2.09314">
        <ele>1221.597</ele>
        <time>2011-08-23T08:19:39Z</time>
      </trkpt>
      <trkpt lat="42.71097" lon="2.09293">
        <ele>1223.207</ele>
        <time>2011-08-23T08:19:48Z</time>
      </trkpt>
      <trkpt lat="42.71101" lon="2.09287">
        <ele>1223.762</ele>
        <time>2011-08-23T08:19:51Z</time>
      </trkpt>
      <trkpt lat="42.71109" lon="2.09289">
        <ele>1224.975</ele>
        <time>2011-08-23T08:19:56Z</time>
      </trkpt>
      <trkpt lat="42.71109" lon="2.09292">
        <ele>1225.373</ele>
        <time>2011-08-23T08:19:57Z</time>
      </trkpt>
      <trkpt lat="42.71119" lon="2.09306">
        <ele>1227.1</ele>
        <time>2011-08-23T08:20:04Z</time>
      </trkpt>
      <trkpt lat="42.71135" lon="2.09315">
        <ele>1228.24</ele>
        <time>2011-08-23T08:20:12Z</time>
      </trkpt>
      <trkpt lat="42.71144" lon="2.09318">
        <ele>1229.301</ele>
        <time>2011-08-23T08:20:17Z</time>
      </trkpt>
      <trkpt lat="42.71158" lon="2.09324">
        <ele>1230.574</ele>
        <time>2011-08-23T08:20:24Z</time>
      </trkpt>
      <trkpt lat="42.71174" lon="2.09332">
        <ele>1232.103</ele>
        <time>2011-08-23T08:20:32Z</time>
      </trkpt>
      <trkpt lat="42.71193" lon="2.09341">
        <ele>1233.406</ele>
        <time>2011-08-23T08:20:41Z</time>
      </trkpt>
      <trkpt lat="42.71213" lon="2.09351">
        <ele>1235.17</ele>
        <time>2011-08-23T08:20:52Z</time>
      </trkpt>
      <trkpt lat="42.71231" lon="2.0936">
        <ele>1237.159</ele>
        <time>2011-08-23T08:21:02Z</time>
      </trkpt>
      <trkpt lat="42.71244" lon="2.09368">
        <ele>1238.482</ele>
        <time>2011-08-23T08:21:09Z</time>
      </trkpt>
      <trkpt lat="42.71247" lon="2.09372">
        <ele>1239.005</ele>
        <time>2011-08-23T08:21:11Z</time>
      </trkpt>
      <trkpt lat="42.71243" lon="2.09389">
        <ele>1239.357</ele>
        <time>2011-08-23T08:21:16Z</time>
      </trkpt>
      <trkpt lat="42.71235" lon="2.09412">
        <ele>1239.706</ele>
        <time>2011-08-23T08:21:23Z</time>
      </trkpt>
      <trkpt lat="42.71236" lon="2.09433">
        <ele>1240.535</ele>
        <time>2011-08-23T08:21:29Z</time>
      </trkpt>
      <trkpt lat="42.71247" lon="2.09447">
        <ele>1241.439</ele>
        <time>2011-08-23T08:21:35Z</time>
      </trkpt>
      <trkpt lat="42.71262" lon="2.09462">
        <ele>1243.347</ele>
        <time>2011-08-23T08:21:43Z</time>
      </trkpt>
      <trkpt lat="42.71275" lon="2.09475">
        <ele>1244.821</ele>
        <time>2011-08-23T08:21:50Z</time>
      </trkpt>
      <trkpt lat="42.71287" lon="2.09487">
        <ele>1246.257</ele>
        <time>2011-08-23T08:21:57Z</time>
      </trkpt>
      <trkpt lat="42.71298" lon="2.09495">
        <ele>1247.412</ele>
        <time>2011-08-23T08:22:04Z</time>
      </trkpt>
      <trkpt lat="42.71308" lon="2.09504">
        <ele>1248.678</ele>
        <time>2011-08-23T08:22:10Z</time>
      </trkpt>
      <trkpt lat="42.71319" lon="2.09513">
        <ele>1249.792</ele>
        <time>2011-08-23T08:22:17Z</time>
      </trkpt>
      <trkpt lat="42.71332" lon="2.09528">
        <ele>1251.655</ele>
        <time>2011-08-23T08:22:26Z</time>
      </trkpt>
      <trkpt lat="42.71336" lon="2.09545">
        <ele>1252.93</ele>
        <time>2011-08-23T08:22:33Z</time>
      </trkpt>
      <trkpt lat="42.71334" lon="2.09566">
        <ele>1253.642</ele>
        <time>2011-08-23T08:22:40Z</time>
      </trkpt>
      <trkpt lat="42.71332" lon="2.09574">
        <ele>1254.347</ele>
        <time>2011-08-23T08:22:43Z</time>
      </trkpt>
      <trkpt lat="42.71321" lon="2.0959">
        <ele>1256.028</ele>
        <time>2011-08-23T08:22:51Z</time>
      </trkpt>
      <trkpt lat="42.71308" lon="2.09598">
        <ele>1257.068</ele>
        <time>2011-08-23T08:22:58Z</time>
      </trkpt>
      <trkpt lat="42.71295" lon="2.09605">
        <ele>1258.098</ele>
        <time>2011-08-23T08:23:05Z</time>
      </trkpt>
      <trkpt lat="42.71294" lon="2.09612">
        <ele>1258.462</ele>
        <time>2011-08-23T08:23:09Z</time>
      </trkpt>
      <trkpt lat="42.71305" lon="2.09607">
        <ele>1259.365</ele>
        <time>2011-08-23T08:23:14Z</time>
      </trkpt>
      <trkpt lat="42.71308" lon="2.09606">
        <ele>1259.44</ele>
        <time>2011-08-23T08:23:15Z</time>
      </trkpt>
      <trkpt lat="42.71333" lon="2.09596">
        <ele>1259.453</ele>
        <time>2011-08-23T08:23:24Z</time>
      </trkpt>
      <trkpt lat="42.71355" lon="2.09578">
        <ele>1260.407</ele>
        <time>2011-08-23T08:23:34Z</time>
      </trkpt>
      <trkpt lat="42.71373" lon="2.09562">
        <ele>1262.338</ele>
        <time>2011-08-23T08:23:43Z</time>
      </trkpt>
      <trkpt lat="42.71382" lon="2.09545">
        <ele>1263.664</ele>
        <time>2011-08-23T08:23:50Z</time>
      </trkpt>
      <trkpt lat="42.71394" lon="2.09524">
        <ele>1264.809</ele>
        <time>2011-08-23T08:23:58Z</time>
      </trkpt>
      <trkpt lat="42.71403" lon="2.09514">
        <ele>1265.256</ele>
        <time>2011-08-23T08:24:04Z</time>
      </trkpt>
      <trkpt lat="42.71416" lon="2.09517">
        <ele>1265.242</ele>
        <time>2011-08-23T08:24:09Z</time>
      </trkpt>
      <trkpt lat="42.71432" lon="2.09543">
        <ele>1264.059</ele>
        <time>2011-08-23T08:24:14Z</time>
      </trkpt>
      <trkpt lat="42.71438" lon="2.09559">
        <ele>1262.882</ele>
        <time>2011-08-23T08:24:16Z</time>
      </trkpt>
      <trkpt lat="42.71461" lon="2.0959">
        <ele>1261.348</ele>
        <time>2011-08-23T08:24:21Z</time>
      </trkpt>
      <trkpt lat="42.71476" lon="2.0961">
        <ele>1260.996</ele>
        <time>2011-08-23T08:24:25Z</time>
      </trkpt>
      <trkpt lat="42.71499" lon="2.09655">
        <ele>1259.954</ele>
        <time>2011-08-23T08:24:32Z</time>
      </trkpt>
      <trkpt lat="42.71503" lon="2.09683">
        <ele>1258.789</ele>
        <time>2011-08-23T08:24:36Z</time>
      </trkpt>
      <trkpt lat="42.71501" lon="2.0969">
        <ele>1258.564</ele>
        <time>2011-08-23T08:24:37Z</time>
      </trkpt>
      <trkpt lat="42.71496" lon="2.09732">
        <ele>1256.159</ele>
        <time>2011-08-23T08:24:42Z</time>
      </trkpt>
      <trkpt lat="42.71512" lon="2.09737">
        <ele>1255.29</ele>
        <time>2011-08-23T08:24:46Z</time>
      </trkpt>
      <trkpt lat="42.71533" lon="2.09744">
        <ele>1254.904</ele>
        <time>2011-08-23T08:24:50Z</time>
      </trkpt>
      <trkpt lat="42.71542" lon="2.09754">
        <ele>1254.687</ele>
        <time>2011-08-23T08:24:52Z</time>
      </trkpt>
      <trkpt lat="42.71551" lon="2.09765">
        <ele>1254.171</ele>
        <time>2011-08-23T08:24:54Z</time>
      </trkpt>
      <trkpt lat="42.71575" lon="2.09784">
        <ele>1253.397</ele>
        <time>2011-08-23T08:25:00Z</time>
      </trkpt>
      <trkpt lat="42.71595" lon="2.09805">
        <ele>1253.85</ele>
        <time>2011-08-23T08:25:07Z</time>
      </trkpt>
      <trkpt lat="42.71609" lon="2.09835">
        <ele>1254.667</ele>
        <time>2011-08-23T08:25:14Z</time>
      </trkpt>
      <trkpt lat="42.71627" lon="2.09873">
        <ele>1254.788</ele>
        <time>2011-08-23T08:25:22Z</time>
      </trkpt>
      <trkpt lat="42.71651" lon="2.09907">
        <ele>1254.064</ele>
        <time>2011-08-23T08:25:29Z</time>
      </trkpt>
      <trkpt lat="42.71654" lon="2.09911">
        <ele>1254.018</ele>
        <time>2011-08-23T08:25:30Z</time>
      </trkpt>
      <trkpt lat="42.71674" lon="2.09921">
        <ele>1253.627</ele>
        <time>2011-08-23T08:25:35Z</time>
      </trkpt>
      <trkpt lat="42.71679" lon="2.0992">
        <ele>1253.516</ele>
        <time>2011-08-23T08:25:36Z</time>
      </trkpt>
      <trkpt lat="42.71709" lon="2.09928">
        <ele>1252.643</ele>
        <time>2011-08-23T08:25:42Z</time>
      </trkpt>
      <trkpt lat="42.71724" lon="2.0995">
        <ele>1251.736</ele>
        <time>2011-08-23T08:25:46Z</time>
      </trkpt>
      <trkpt lat="42.71727" lon="2.09956">
        <ele>1251.751</ele>
        <time>2011-08-23T08:25:47Z</time>
      </trkpt>
      <trkpt lat="42.71737" lon="2.10001">
        <ele>1251.918</ele>
        <time>2011-08-23T08:25:55Z</time>
      </trkpt>
      <trkpt lat="42.71733" lon="2.10023">
        <ele>1252.975</ele>
        <time>2011-08-23T08:26:00Z</time>
      </trkpt>
      <trkpt lat="42.71737" lon="2.10039">
        <ele>1253.637</ele>
        <time>2011-08-23T08:26:04Z</time>
      </trkpt>
      <trkpt lat="42.71754" lon="2.1006">
        <ele>1253.693</ele>
        <time>2011-08-23T08:26:10Z</time>
      </trkpt>
      <trkpt lat="42.71769" lon="2.10075">
        <ele>1253.353</ele>
        <time>2011-08-23T08:26:14Z</time>
      </trkpt>
      <trkpt lat="42.71779" lon="2.10097">
        <ele>1253.144</ele>
        <time>2011-08-23T08:26:19Z</time>
      </trkpt>
      <trkpt lat="42.7178" lon="2.10102">
        <ele>1253.214</ele>
        <time>2011-08-23T08:26:20Z</time>
      </trkpt>
      <trkpt lat="42.71783" lon="2.10127">
        <ele>1253.82</ele>
        <time>2011-08-23T08:26:26Z</time>
      </trkpt>
      <trkpt lat="42.71788" lon="2.10131">
        <ele>1254.348</ele>
        <time>2011-08-23T08:26:31Z</time>
      </trkpt>
      <trkpt lat="42.71788" lon="2.10141">
        <ele>1254.931</ele>
        <time>2011-08-23T08:26:36Z</time>
      </trkpt>
      <trkpt lat="42.71784" lon="2.1014">
        <ele>1255.168</ele>
        <time>2011-08-23T08:26:40Z</time>
      </trkpt>
      <trkpt lat="42.71789" lon="2.10123">
        <ele>1254.967</ele>
        <time>2011-08-23T08:26:44Z</time>
      </trkpt>
      <trkpt lat="42.71803" lon="2.10086">
        <ele>1255.185</ele>
        <time>2011-08-23T08:26:53Z</time>
      </trkpt>
      <trkpt lat="42.71805" lon="2.10077">
        <ele>1255.868</ele>
        <time>2011-08-23T08:26:57Z</time>
      </trkpt>
      <trkpt lat="42.71814" lon="2.10076">
        <ele>1256.266</ele>
        <time>2011-08-23T08:27:02Z</time>
      </trkpt>
      <trkpt lat="42.7182" lon="2.10073">
        <ele>1257.281</ele>
        <time>2011-08-23T08:27:05Z</time>
      </trkpt>
      <trkpt lat="42.71832" lon="2.10062">
        <ele>1259.63</ele>
        <time>2011-08-23T08:27:12Z</time>
      </trkpt>
      <trkpt lat="42.7185" lon="2.10047">
        <ele>1260.761</ele>
        <time>2011-08-23T08:27:19Z</time>
      </trkpt>
      <trkpt lat="42.71861" lon="2.10019">
        <ele>1261.832</ele>
        <time>2011-08-23T08:27:27Z</time>
      </trkpt>
      <trkpt lat="42.71867" lon="2.09985">
        <ele>1262.834</ele>
        <time>2011-08-23T08:27:36Z</time>
      </trkpt>
      <trkpt lat="42.71872" lon="2.09964">
        <ele>1262.429</ele>
        <time>2011-08-23T08:27:41Z</time>
      </trkpt>
      <trkpt lat="42.71881" lon="2.09942">
        <ele>1263.239</ele>
        <time>2011-08-23T08:27:47Z</time>
      </trkpt>
      <trkpt lat="42.71891" lon="2.09911">
        <ele>1263.236</ele>
        <time>2011-08-23T08:27:54Z</time>
      </trkpt>
      <trkpt lat="42.71901" lon="2.09896">
        <ele>1263.786</ele>
        <time>2011-08-23T08:27:59Z</time>
      </trkpt>
      <trkpt lat="42.71911" lon="2.09874">
        <ele>1265.583</ele>
        <time>2011-08-23T08:28:06Z</time>
      </trkpt>
      <trkpt lat="42.71918" lon="2.09843">
        <ele>1266.344</ele>
        <time>2011-08-23T08:28:13Z</time>
      </trkpt>
      <trkpt lat="42.71928" lon="2.09794">
        <ele>1266.126</ele>
        <time>2011-08-23T08:28:22Z</time>
      </trkpt>
      <trkpt lat="42.71941" lon="2.0976">
        <ele>1266.99</ele>
        <time>2011-08-23T08:28:29Z</time>
      </trkpt>
      <trkpt lat="42.71953" lon="2.09732">
        <ele>1268.43</ele>
        <time>2011-08-23T08:28:37Z</time>
      </trkpt>
      <trkpt lat="42.71961" lon="2.09704">
        <ele>1269.405</ele>
        <time>2011-08-23T08:28:45Z</time>
      </trkpt>
      <trkpt lat="42.71965" lon="2.09674">
        <ele>1270.643</ele>
        <time>2011-08-23T08:28:54Z</time>
      </trkpt>
      <trkpt lat="42.71977" lon="2.09658">
        <ele>1271.294</ele>
        <time>2011-08-23T08:29:00Z</time>
      </trkpt>
      <trkpt lat="42.72001" lon="2.09636">
        <ele>1271.907</ele>
        <time>2011-08-23T08:29:08Z</time>
      </trkpt>
      <trkpt lat="42.72022" lon="2.0961">
        <ele>1272.747</ele>
        <time>2011-08-23T08:29:16Z</time>
      </trkpt>
      <trkpt lat="42.72048" lon="2.09582">
        <ele>1273.795</ele>
        <time>2011-08-23T08:29:25Z</time>
      </trkpt>
      <trkpt lat="42.7207" lon="2.09563">
        <ele>1274.447</ele>
        <time>2011-08-23T08:29:32Z</time>
      </trkpt>
      <trkpt lat="42.72097" lon="2.09552">
        <ele>1274.107</ele>
        <time>2011-08-23T08:29:39Z</time>
      </trkpt>
      <trkpt lat="42.72113" lon="2.09539">
        <ele>1273.833</ele>
        <time>2011-08-23T08:29:43Z</time>
      </trkpt>
      <trkpt lat="42.72138" lon="2.09497">
        <ele>1271.872</ele>
        <time>2011-08-23T08:29:50Z</time>
      </trkpt>
      <trkpt lat="42.7216" lon="2.09468">
        <ele>1270.646</ele>
        <time>2011-08-23T08:29:55Z</time>
      </trkpt>
      <trkpt lat="42.72177" lon="2.09462">
        <ele>1269.907</ele>
        <time>2011-08-23T08:29:58Z</time>
      </trkpt>
      <trkpt lat="42.72198" lon="2.09449">
        <ele>1269.327</ele>
        <time>2011-08-23T08:30:02Z</time>
      </trkpt>
      <trkpt lat="42.72227" lon="2.09427">
        <ele>1268.407</ele>
        <time>2011-08-23T08:30:08Z</time>
      </trkpt>
      <trkpt lat="42.72248" lon="2.09404">
        <ele>1266.294</ele>
        <time>2011-08-23T08:30:14Z</time>
      </trkpt>
      <trkpt lat="42.72256" lon="2.09396">
        <ele>1266.035</ele>
        <time>2011-08-23T08:30:16Z</time>
      </trkpt>
      <trkpt lat="42.72264" lon="2.09376">
        <ele>1264.623</ele>
        <time>2011-08-23T08:30:21Z</time>
      </trkpt>
      <trkpt lat="42.72254" lon="2.09369">
        <ele>1263.05</ele>
        <time>2011-08-23T08:30:24Z</time>
      </trkpt>
      <trkpt lat="42.72249" lon="2.09369">
        <ele>1262.86</ele>
        <time>2011-08-23T08:30:25Z</time>
      </trkpt>
      <trkpt lat="42.72244" lon="2.09353">
        <ele>1260.702</ele>
        <time>2011-08-23T08:30:30Z</time>
      </trkpt>
      <trkpt lat="42.72252" lon="2.09345">
        <ele>1259.593</ele>
        <time>2011-08-23T08:30:32Z</time>
      </trkpt>
      <trkpt lat="42.72274" lon="2.09319">
        <ele>1255.865</ele>
        <time>2011-08-23T08:30:37Z</time>
      </trkpt>
      <trkpt lat="42.72289" lon="2.09318">
        <ele>1254.344</ele>
        <time>2011-08-23T08:30:40Z</time>
      </trkpt>
      <trkpt lat="42.72304" lon="2.0932">
        <ele>1253.192</ele>
        <time>2011-08-23T08:30:43Z</time>
      </trkpt>
      <trkpt lat="42.72332" lon="2.0933">
        <ele>1253.552</ele>
        <time>2011-08-23T08:30:50Z</time>
      </trkpt>
      <trkpt lat="42.7235" lon="2.09341">
        <ele>1254.271</ele>
        <time>2011-08-23T08:30:55Z</time>
      </trkpt>
      <trkpt lat="42.72376" lon="2.09364">
        <ele>1254.447</ele>
        <time>2011-08-23T08:31:02Z</time>
      </trkpt>
      <trkpt lat="42.72409" lon="2.09394">
        <ele>1254.797</ele>
        <time>2011-08-23T08:31:11Z</time>
      </trkpt>
      <trkpt lat="42.72433" lon="2.09421">
        <ele>1255.374</ele>
        <time>2011-08-23T08:31:18Z</time>
      </trkpt>
      <trkpt lat="42.72459" lon="2.09457">
        <ele>1254.939</ele>
        <time>2011-08-23T08:31:26Z</time>
      </trkpt>
      <trkpt lat="42.72471" lon="2.09475">
        <ele>1255.435</ele>
        <time>2011-08-23T08:31:30Z</time>
      </trkpt>
      <trkpt lat="42.72505" lon="2.09505">
        <ele>1255.877</ele>
        <time>2011-08-23T08:31:39Z</time>
      </trkpt>
      <trkpt lat="42.72523" lon="2.09524">
        <ele>1256.821</ele>
        <time>2011-08-23T08:31:45Z</time>
      </trkpt>
      <trkpt lat="42.72526" lon="2.09546">
        <ele>1256.549</ele>
        <time>2011-08-23T08:31:49Z</time>
      </trkpt>
      <trkpt lat="42.72514" lon="2.09584">
        <ele>1255.589</ele>
        <time>2011-08-23T08:31:55Z</time>
      </trkpt>
      <trkpt lat="42.72516" lon="2.09599">
        <ele>1254.161</ele>
        <time>2011-08-23T08:31:59Z</time>
      </trkpt>
      <trkpt lat="42.7252" lon="2.09599">
        <ele>1253.636</ele>
        <time>2011-08-23T08:32:00Z</time>
      </trkpt>
      <trkpt lat="42.72544" lon="2.09596">
        <ele>1251.535</ele>
        <time>2011-08-23T08:32:04Z</time>
      </trkpt>
      <trkpt lat="42.72569" lon="2.09585">
        <ele>1249.801</ele>
        <time>2011-08-23T08:32:08Z</time>
      </trkpt>
      <trkpt lat="42.72579" lon="2.09578">
        <ele>1248.348</ele>
        <time>2011-08-23T08:32:10Z</time>
      </trkpt>
      <trkpt lat="42.72587" lon="2.09588">
        <ele>1245.032</ele>
        <time>2011-08-23T08:32:14Z</time>
      </trkpt>
      <trkpt lat="42.72584" lon="2.09598">
        <ele>1243.781</ele>
        <time>2011-08-23T08:32:16Z</time>
      </trkpt>
      <trkpt lat="42.72561" lon="2.09634">
        <ele>1240.876</ele>
        <time>2011-08-23T08:32:22Z</time>
      </trkpt>
      <trkpt lat="42.72542" lon="2.09649">
        <ele>1238.02</ele>
        <time>2011-08-23T08:32:26Z</time>
      </trkpt>
      <trkpt lat="42.72515" lon="2.09667">
        <ele>1235.03</ele>
        <time>2011-08-23T08:32:30Z</time>
      </trkpt>
      <trkpt lat="42.72494" lon="2.09691">
        <ele>1232.207</ele>
        <time>2011-08-23T08:32:34Z</time>
      </trkpt>
      <trkpt lat="42.72487" lon="2.09722">
        <ele>1229.877</ele>
        <time>2011-08-23T08:32:38Z</time>
      </trkpt>
      <trkpt lat="42.72483" lon="2.09759">
        <ele>1226.918</ele>
        <time>2011-08-23T08:32:42Z</time>
      </trkpt>
      <trkpt lat="42.72476" lon="2.09813">
        <ele>1223.036</ele>
        <time>2011-08-23T08:32:47Z</time>
      </trkpt>
      <trkpt lat="42.72485" lon="2.09836">
        <ele>1219.315</ele>
        <time>2011-08-23T08:32:51Z</time>
      </trkpt>
      <trkpt lat="42.72503" lon="2.09848">
        <ele>1216.611</ele>
        <time>2011-08-23T08:32:54Z</time>
      </trkpt>
      <trkpt lat="42.7251" lon="2.0986">
        <ele>1215.21</ele>
        <time>2011-08-23T08:32:56Z</time>
      </trkpt>
      <trkpt lat="42.72512" lon="2.09882">
        <ele>1213.038</ele>
        <time>2011-08-23T08:32:59Z</time>
      </trkpt>
      <trkpt lat="42.72522" lon="2.0989">
        <ele>1210.58</ele>
        <time>2011-08-23T08:33:02Z</time>
      </trkpt>
      <trkpt lat="42.72533" lon="2.09874">
        <ele>1208.548</ele>
        <time>2011-08-23T08:33:05Z</time>
      </trkpt>
      <trkpt lat="42.72537" lon="2.09841">
        <ele>1206.698</ele>
        <time>2011-08-23T08:33:09Z</time>
      </trkpt>
      <trkpt lat="42.72533" lon="2.09823">
        <ele>1205.919</ele>
        <time>2011-08-23T08:33:11Z</time>
      </trkpt>
      <trkpt lat="42.72523" lon="2.09788">
        <ele>1204.638</ele>
        <time>2011-08-23T08:33:15Z</time>
      </trkpt>
      <trkpt lat="42.72533" lon="2.09762">
        <ele>1203.924</ele>
        <time>2011-08-23T08:33:19Z</time>
      </trkpt>
      <trkpt lat="42.72564" lon="2.09751">
        <ele>1201.872</ele>
        <time>2011-08-23T08:33:24Z</time>
      </trkpt>
      <trkpt lat="42.72579" lon="2.09748">
        <ele>1200.694</ele>
        <time>2011-08-23T08:33:26Z</time>
      </trkpt>
      <trkpt lat="42.72616" lon="2.0974">
        <ele>1196.872</ele>
        <time>2011-08-23T08:33:30Z</time>
      </trkpt>
      <trkpt lat="42.72654" lon="2.09719">
        <ele>1192.745</ele>
        <time>2011-08-23T08:33:35Z</time>
      </trkpt>
      <trkpt lat="42.7266" lon="2.0971">
        <ele>1192.244</ele>
        <time>2011-08-23T08:33:36Z</time>
      </trkpt>
      <trkpt lat="42.72691" lon="2.09667">
        <ele>1190.644</ele>
        <time>2011-08-23T08:33:42Z</time>
      </trkpt>
      <trkpt lat="42.72696" lon="2.09661">
        <ele>1190.388</ele>
        <time>2011-08-23T08:33:43Z</time>
      </trkpt>
      <trkpt lat="42.72733" lon="2.09619">
        <ele>1187.628</ele>
        <time>2011-08-23T08:33:49Z</time>
      </trkpt>
      <trkpt lat="42.72762" lon="2.09602">
        <ele>1185.76</ele>
        <time>2011-08-23T08:33:53Z</time>
      </trkpt>
      <trkpt lat="42.72786" lon="2.09599">
        <ele>1183.648</ele>
        <time>2011-08-23T08:33:57Z</time>
      </trkpt>
      <trkpt lat="42.72791" lon="2.09599">
        <ele>1183.247</ele>
        <time>2011-08-23T08:34:00Z</time>
      </trkpt>
      <trkpt lat="42.7279" lon="2.096">
        <ele>1182.837</ele>
        <time>2011-08-23T08:34:06Z</time>
      </trkpt>
      <trkpt lat="42.72788" lon="2.09601">
        <ele>1182.951</ele>
        <time>2011-08-23T08:34:14Z</time>
      </trkpt>
      <trkpt lat="42.72788" lon="2.09601">
        <ele>1182.512</ele>
        <time>2011-08-23T08:34:47Z</time>
      </trkpt>
      <trkpt lat="42.72797" lon="2.09601">
        <ele>1182.058</ele>
        <time>2011-08-23T08:34:51Z</time>
      </trkpt>
      <trkpt lat="42.72819" lon="2.09587">
        <ele>1180.784</ele>
        <time>2011-08-23T08:34:56Z</time>
      </trkpt>
      <trkpt lat="42.72831" lon="2.09571">
        <ele>1178.84</ele>
        <time>2011-08-23T08:35:00Z</time>
      </trkpt>
      <trkpt lat="42.72831" lon="2.09585">
        <ele>1177.025</ele>
        <time>2011-08-23T08:35:03Z</time>
      </trkpt>
      <trkpt lat="42.72819" lon="2.09626">
        <ele>1174.153</ele>
        <time>2011-08-23T08:35:09Z</time>
      </trkpt>
      <trkpt lat="42.72815" lon="2.09641">
        <ele>1172.664</ele>
        <time>2011-08-23T08:35:11Z</time>
      </trkpt>
      <trkpt lat="42.72804" lon="2.09662">
        <ele>1169.474</ele>
        <time>2011-08-23T08:35:15Z</time>
      </trkpt>
      <trkpt lat="42.7281" lon="2.09668">
        <ele>1167.089</ele>
        <time>2011-08-23T08:35:19Z</time>
      </trkpt>
      <trkpt lat="42.72814" lon="2.09666">
        <ele>1166.581</ele>
        <time>2011-08-23T08:35:20Z</time>
      </trkpt>
      <trkpt lat="42.72838" lon="2.09642">
        <ele>1164.369</ele>
        <time>2011-08-23T08:35:26Z</time>
      </trkpt>
      <trkpt lat="42.72857" lon="2.09614">
        <ele>1162.979</ele>
        <time>2011-08-23T08:35:31Z</time>
      </trkpt>
      <trkpt lat="42.72864" lon="2.09601">
        <ele>1162.055</ele>
        <time>2011-08-23T08:35:33Z</time>
      </trkpt>
      <trkpt lat="42.72877" lon="2.09574">
        <ele>1160.469</ele>
        <time>2011-08-23T08:35:37Z</time>
      </trkpt>
      <trkpt lat="42.72885" lon="2.09546">
        <ele>1159.923</ele>
        <time>2011-08-23T08:35:42Z</time>
      </trkpt>
      <trkpt lat="42.72892" lon="2.09513">
        <ele>1158.842</ele>
        <time>2011-08-23T08:35:48Z</time>
      </trkpt>
      <trkpt lat="42.72896" lon="2.09499">
        <ele>1158.127</ele>
        <time>2011-08-23T08:35:50Z</time>
      </trkpt>
      <trkpt lat="42.729" lon="2.09461">
        <ele>1156.496</ele>
        <time>2011-08-23T08:35:55Z</time>
      </trkpt>
      <trkpt lat="42.729" lon="2.09446">
        <ele>1155.97</ele>
        <time>2011-08-23T08:35:57Z</time>
      </trkpt>
      <trkpt lat="42.72903" lon="2.09407">
        <ele>1154.508</ele>
        <time>2011-08-23T08:36:02Z</time>
      </trkpt>
      <trkpt lat="42.72904" lon="2.0938">
        <ele>1151.995</ele>
        <time>2011-08-23T08:36:07Z</time>
      </trkpt>
      <trkpt lat="42.7291" lon="2.0939">
        <ele>1151.005</ele>
        <time>2011-08-23T08:36:10Z</time>
      </trkpt>
      <trkpt lat="42.72915" lon="2.09407">
        <ele>1149.791</ele>
        <time>2011-08-23T08:36:13Z</time>
      </trkpt>
      <trkpt lat="42.72921" lon="2.09421">
        <ele>1148.183</ele>
        <time>2011-08-23T08:36:17Z</time>
      </trkpt>
      <trkpt lat="42.72925" lon="2.09408">
        <ele>1147.053</ele>
        <time>2011-08-23T08:36:20Z</time>
      </trkpt>
      <trkpt lat="42.72927" lon="2.09395">
        <ele>1146.546</ele>
        <time>2011-08-23T08:36:22Z</time>
      </trkpt>
      <trkpt lat="42.72931" lon="2.09381">
        <ele>1145.864</ele>
        <time>2011-08-23T08:36:24Z</time>
      </trkpt>
      <trkpt lat="42.72939" lon="2.09348">
        <ele>1142.733</ele>
        <time>2011-08-23T08:36:30Z</time>
      </trkpt>
      <trkpt lat="42.72945" lon="2.09345">
        <ele>1141.031</ele>
        <time>2011-08-23T08:36:32Z</time>
      </trkpt>
      <trkpt lat="42.72955" lon="2.09343">
        <ele>1139.945</ele>
        <time>2011-08-23T08:36:34Z</time>
      </trkpt>
      <trkpt lat="42.72977" lon="2.09325">
        <ele>1137.907</ele>
        <time>2011-08-23T08:36:38Z</time>
      </trkpt>
      <trkpt lat="42.73004" lon="2.09296">
        <ele>1133.218</ele>
        <time>2011-08-23T08:36:44Z</time>
      </trkpt>
      <trkpt lat="42.73023" lon="2.09265">
        <ele>1131.042</ele>
        <time>2011-08-23T08:36:49Z</time>
      </trkpt>
      <trkpt lat="42.73039" lon="2.09252">
        <ele>1128.894</ele>
        <time>2011-08-23T08:36:53Z</time>
      </trkpt>
      <trkpt lat="42.73047" lon="2.09234">
        <ele>1125.916</ele>
        <time>2011-08-23T08:36:56Z</time>
      </trkpt>
      <trkpt lat="42.73047" lon="2.09203">
        <ele>1122.667</ele>
        <time>2011-08-23T08:37:01Z</time>
      </trkpt>
      <trkpt lat="42.73046" lon="2.09197">
        <ele>1121.847</ele>
        <time>2011-08-23T08:37:02Z</time>
      </trkpt>
      <trkpt lat="42.73043" lon="2.09186">
        <ele>1120.455</ele>
        <time>2011-08-23T08:37:04Z</time>
      </trkpt>
      <trkpt lat="42.73047" lon="2.09179">
        <ele>1117.474</ele>
        <time>2011-08-23T08:37:08Z</time>
      </trkpt>
      <trkpt lat="42.7306" lon="2.09189">
        <ele>1114.87</ele>
        <time>2011-08-23T08:37:11Z</time>
      </trkpt>
      <trkpt lat="42.73093" lon="2.09216">
        <ele>1109.622</ele>
        <time>2011-08-23T08:37:16Z</time>
      </trkpt>
      <trkpt lat="42.73102" lon="2.0922">
        <ele>1108.243</ele>
        <time>2011-08-23T08:37:18Z</time>
      </trkpt>
      <trkpt lat="42.73114" lon="2.09234">
        <ele>1106.465</ele>
        <time>2011-08-23T08:37:22Z</time>
      </trkpt>
      <trkpt lat="42.7312" lon="2.0925">
        <ele>1104.172</ele>
        <time>2011-08-23T08:37:25Z</time>
      </trkpt>
      <trkpt lat="42.73124" lon="2.09241">
        <ele>1101.679</ele>
        <time>2011-08-23T08:37:29Z</time>
      </trkpt>
      <trkpt lat="42.73127" lon="2.09229">
        <ele>1100.494</ele>
        <time>2011-08-23T08:37:31Z</time>
      </trkpt>
      <trkpt lat="42.73129" lon="2.09198">
        <ele>1096.937</ele>
        <time>2011-08-23T08:37:36Z</time>
      </trkpt>
      <trkpt lat="42.73124" lon="2.09172">
        <ele>1093.879</ele>
        <time>2011-08-23T08:37:41Z</time>
      </trkpt>
      <trkpt lat="42.73126" lon="2.09152">
        <ele>1090.882</ele>
        <time>2011-08-23T08:37:45Z</time>
      </trkpt>
      <trkpt lat="42.7312" lon="2.09134">
        <ele>1087.452</ele>
        <time>2011-08-23T08:37:49Z</time>
      </trkpt>
      <trkpt lat="42.73132" lon="2.09129">
        <ele>1085.985</ele>
        <time>2011-08-23T08:37:52Z</time>
      </trkpt>
      <trkpt lat="42.7315" lon="2.09131">
        <ele>1083.745</ele>
        <time>2011-08-23T08:37:55Z</time>
      </trkpt>
      <trkpt lat="42.7316" lon="2.0914">
        <ele>1082.612</ele>
        <time>2011-08-23T08:37:57Z</time>
      </trkpt>
      <trkpt lat="42.73176" lon="2.09159">
        <ele>1080.068</ele>
        <time>2011-08-23T08:38:01Z</time>
      </trkpt>
      <trkpt lat="42.73185" lon="2.09176">
        <ele>1076.859</ele>
        <time>2011-08-23T08:38:05Z</time>
      </trkpt>
      <trkpt lat="42.73186" lon="2.09167">
        <ele>1074.878</ele>
        <time>2011-08-23T08:38:08Z</time>
      </trkpt>
      <trkpt lat="42.73186" lon="2.09141">
        <ele>1073.826</ele>
        <time>2011-08-23T08:38:12Z</time>
      </trkpt>
      <trkpt lat="42.73193" lon="2.09116">
        <ele>1071.292</ele>
        <time>2011-08-23T08:38:16Z</time>
      </trkpt>
      <trkpt lat="42.73198" lon="2.09113">
        <ele>1071.28</ele>
        <time>2011-08-23T08:38:17Z</time>
      </trkpt>
      <trkpt lat="42.73225" lon="2.0909">
        <ele>1065.279</ele>
        <time>2011-08-23T08:38:23Z</time>
      </trkpt>
      <trkpt lat="42.73249" lon="2.09063">
        <ele>1061.363</ele>
        <time>2011-08-23T08:38:28Z</time>
      </trkpt>
      <trkpt lat="42.73272" lon="2.09046">
        <ele>1060.261</ele>
        <time>2011-08-23T08:38:32Z</time>
      </trkpt>
      <trkpt lat="42.73287" lon="2.09043">
        <ele>1059.901</ele>
        <time>2011-08-23T08:38:35Z</time>
      </trkpt>
      <trkpt lat="42.73308" lon="2.09024">
        <ele>1057.738</ele>
        <time>2011-08-23T08:38:39Z</time>
      </trkpt>
      <trkpt lat="42.73321" lon="2.09007">
        <ele>1056.547</ele>
        <time>2011-08-23T08:38:42Z</time>
      </trkpt>
      <trkpt lat="42.73335" lon="2.08982">
        <ele>1054.034</ele>
        <time>2011-08-23T08:38:46Z</time>
      </trkpt>
      <trkpt lat="42.73351" lon="2.08975">
        <ele>1050.387</ele>
        <time>2011-08-23T08:38:50Z</time>
      </trkpt>
      <trkpt lat="42.73373" lon="2.08972">
        <ele>1046.713</ele>
        <time>2011-08-23T08:38:55Z</time>
      </trkpt>
      <trkpt lat="42.73374" lon="2.08958">
        <ele>1044.508</ele>
        <time>2011-08-23T08:38:58Z</time>
      </trkpt>
      <trkpt lat="42.73371" lon="2.08947">
        <ele>1042.001</ele>
        <time>2011-08-23T08:39:02Z</time>
      </trkpt>
      <trkpt lat="42.73368" lon="2.08946">
        <ele>1041.473</ele>
        <time>2011-08-23T08:39:31Z</time>
      </trkpt>
      <trkpt lat="42.73362" lon="2.08936">
        <ele>1041.166</ele>
        <time>2011-08-23T08:39:36Z</time>
      </trkpt>
      <trkpt lat="42.73359" lon="2.08924">
        <ele>1040.845</ele>
        <time>2011-08-23T08:39:38Z</time>
      </trkpt>
      <trkpt lat="42.73352" lon="2.08911">
        <ele>1039.168</ele>
        <time>2011-08-23T08:39:42Z</time>
      </trkpt>
      <trkpt lat="42.73361" lon="2.08909">
        <ele>1037.184</ele>
        <time>2011-08-23T08:39:45Z</time>
      </trkpt>
      <trkpt lat="42.73375" lon="2.08917">
        <ele>1034.316</ele>
        <time>2011-08-23T08:39:49Z</time>
      </trkpt>
      <trkpt lat="42.73393" lon="2.08938">
        <ele>1030.786</ele>
        <time>2011-08-23T08:39:54Z</time>
      </trkpt>
      <trkpt lat="42.73411" lon="2.0896">
        <ele>1028.118</ele>
        <time>2011-08-23T08:39:59Z</time>
      </trkpt>
      <trkpt lat="42.73414" lon="2.08963">
        <ele>1027.47</ele>
        <time>2011-08-23T08:40:00Z</time>
      </trkpt>
      <trkpt lat="42.73416" lon="2.08953">
        <ele>1025.271</ele>
        <time>2011-08-23T08:40:04Z</time>
      </trkpt>
      <trkpt lat="42.73415" lon="2.08948">
        <ele>1024.883</ele>
        <time>2011-08-23T08:40:05Z</time>
      </trkpt>
      <trkpt lat="42.73425" lon="2.08933">
        <ele>1021.892</ele>
        <time>2011-08-23T08:40:10Z</time>
      </trkpt>
      <trkpt lat="42.73445" lon="2.08932">
        <ele>1019.755</ele>
        <time>2011-08-23T08:40:13Z</time>
      </trkpt>
      <trkpt lat="42.73459" lon="2.08913">
        <ele>1018.276</ele>
        <time>2011-08-23T08:40:16Z</time>
      </trkpt>
      <trkpt lat="42.73466" lon="2.08895">
        <ele>1017.49</ele>
        <time>2011-08-23T08:40:19Z</time>
      </trkpt>
      <trkpt lat="42.73481" lon="2.0887">
        <ele>1016.149</ele>
        <time>2011-08-23T08:40:23Z</time>
      </trkpt>
      <trkpt lat="42.7349" lon="2.0886">
        <ele>1014.761</ele>
        <time>2011-08-23T08:40:25Z</time>
      </trkpt>
      <trkpt lat="42.73496" lon="2.08835">
        <ele>1011.046</ele>
        <time>2011-08-23T08:40:29Z</time>
      </trkpt>
      <trkpt lat="42.7349" lon="2.08822">
        <ele>1009.372</ele>
        <time>2011-08-23T08:40:31Z</time>
      </trkpt>
      <trkpt lat="42.73476" lon="2.08814">
        <ele>1006.41</ele>
        <time>2011-08-23T08:40:35Z</time>
      </trkpt>
      <trkpt lat="42.73469" lon="2.08814">
        <ele>1004.594</ele>
        <time>2011-08-23T08:40:38Z</time>
      </trkpt>
      <trkpt lat="42.73473" lon="2.0881">
        <ele>1003.199</ele>
        <time>2011-08-23T08:40:40Z</time>
      </trkpt>
      <trkpt lat="42.73499" lon="2.08794">
        <ele>998.839</ele>
        <time>2011-08-23T08:40:47Z</time>
      </trkpt>
      <trkpt lat="42.73501" lon="2.08793">
        <ele>998.829</ele>
        <time>2011-08-23T08:40:48Z</time>
      </trkpt>
      <trkpt lat="42.73506" lon="2.08793">
        <ele>996.433</ele>
        <time>2011-08-23T08:40:53Z</time>
      </trkpt>
      <trkpt lat="42.73509" lon="2.08785">
        <ele>995.413</ele>
        <time>2011-08-23T08:40:57Z</time>
      </trkpt>
      <trkpt lat="42.73507" lon="2.08785">
        <ele>995.21</ele>
        <time>2011-08-23T08:40:58Z</time>
      </trkpt>
      <trkpt lat="42.735" lon="2.08785">
        <ele>994.814</ele>
        <time>2011-08-23T08:41:00Z</time>
      </trkpt>
      <trkpt lat="42.73487" lon="2.08784">
        <ele>994.416</ele>
        <time>2011-08-23T08:41:03Z</time>
      </trkpt>
      <trkpt lat="42.73451" lon="2.08782">
        <ele>992.867</ele>
        <time>2011-08-23T08:41:09Z</time>
      </trkpt>
      <trkpt lat="42.73406" lon="2.08773">
        <ele>990.804</ele>
        <time>2011-08-23T08:41:16Z</time>
      </trkpt>
      <trkpt lat="42.73383" lon="2.08772">
        <ele>989.849</ele>
        <time>2011-08-23T08:41:20Z</time>
      </trkpt>
      <trkpt lat="42.73368" lon="2.08772">
        <ele>990.281</ele>
        <time>2011-08-23T08:41:25Z</time>
      </trkpt>
      <trkpt lat="42.73355" lon="2.08764">
        <ele>990.451</ele>
        <time>2011-08-23T08:41:29Z</time>
      </trkpt>
      <trkpt lat="42.73346" lon="2.08759">
        <ele>990.42</ele>
        <time>2011-08-23T08:41:31Z</time>
      </trkpt>
      <trkpt lat="42.73328" lon="2.08748">
        <ele>990.484</ele>
        <time>2011-08-23T08:41:36Z</time>
      </trkpt>
      <trkpt lat="42.73327" lon="2.08748">
        <ele>990.332</ele>
        <time>2011-08-23T08:41:37Z</time>
      </trkpt>
      <trkpt lat="42.73316" lon="2.08743">
        <ele>990.615</ele>
        <time>2011-08-23T08:41:44Z</time>
      </trkpt>
      <trkpt lat="42.73308" lon="2.08735">
        <ele>991.074</ele>
        <time>2011-08-23T08:41:49Z</time>
      </trkpt>
      <trkpt lat="42.73297" lon="2.08722">
        <ele>990.858</ele>
        <time>2011-08-23T08:41:54Z</time>
      </trkpt>
      <trkpt lat="42.73285" lon="2.08709">
        <ele>992.423</ele>
        <time>2011-08-23T08:42:00Z</time>
      </trkpt>
      <trkpt lat="42.73274" lon="2.08696">
        <ele>994.715</ele>
        <time>2011-08-23T08:42:07Z</time>
      </trkpt>
      <trkpt lat="42.73265" lon="2.0869">
        <ele>996.188</ele>
        <time>2011-08-23T08:42:12Z</time>
      </trkpt>
      <trkpt lat="42.73253" lon="2.08679">
        <ele>998.156</ele>
        <time>2011-08-23T08:42:19Z</time>
      </trkpt>
      <trkpt lat="42.73238" lon="2.08671">
        <ele>999.944</ele>
        <time>2011-08-23T08:42:26Z</time>
      </trkpt>
      <trkpt lat="42.73223" lon="2.08666">
        <ele>1001.572</ele>
        <time>2011-08-23T08:42:33Z</time>
      </trkpt>
      <trkpt lat="42.73208" lon="2.08664">
        <ele>1002.738</ele>
        <time>2011-08-23T08:42:40Z</time>
      </trkpt>
      <trkpt lat="42.73194" lon="2.08665">
        <ele>1003.315</ele>
        <time>2011-08-23T08:42:46Z</time>
      </trkpt>
      <trkpt lat="42.73177" lon="2.08669">
        <ele>1003.953</ele>
        <time>2011-08-23T08:42:53Z</time>
      </trkpt>
      <trkpt lat="42.73165" lon="2.08669">
        <ele>1004.411</ele>
        <time>2011-08-23T08:42:59Z</time>
      </trkpt>
      <trkpt lat="42.73159" lon="2.08669">
        <ele>1004.531</ele>
        <time>2011-08-23T08:43:02Z</time>
      </trkpt>
      <trkpt lat="42.7315" lon="2.08667">
        <ele>1005.031</ele>
        <time>2011-08-23T08:43:06Z</time>
      </trkpt>
      <trkpt lat="42.73137" lon="2.08666">
        <ele>1005.355</ele>
        <time>2011-08-23T08:43:12Z</time>
      </trkpt>
      <trkpt lat="42.73131" lon="2.08655">
        <ele>1006.296</ele>
        <time>2011-08-23T08:43:17Z</time>
      </trkpt>
      <trkpt lat="42.7313" lon="2.0865">
        <ele>1006.489</ele>
        <time>2011-08-23T08:43:19Z</time>
      </trkpt>
      <trkpt lat="42.73119" lon="2.08621">
        <ele>1006.528</ele>
        <time>2011-08-23T08:43:26Z</time>
      </trkpt>
      <trkpt lat="42.73112" lon="2.08597">
        <ele>1006.541</ele>
        <time>2011-08-23T08:43:31Z</time>
      </trkpt>
      <trkpt lat="42.73104" lon="2.08575">
        <ele>1006.743</ele>
        <time>2011-08-23T08:43:36Z</time>
      </trkpt>
      <trkpt lat="42.73103" lon="2.08548">
        <ele>1006.3</ele>
        <time>2011-08-23T08:43:40Z</time>
      </trkpt>
      <trkpt lat="42.73103" lon="2.08531">
        <ele>1005.564</ele>
        <time>2011-08-23T08:43:43Z</time>
      </trkpt>
      <trkpt lat="42.73102" lon="2.08493">
        <ele>1004.132</ele>
        <time>2011-08-23T08:43:48Z</time>
      </trkpt>
      <trkpt lat="42.73105" lon="2.08463">
        <ele>1001.383</ele>
        <time>2011-08-23T08:43:51Z</time>
      </trkpt>
      <trkpt lat="42.73117" lon="2.08442">
        <ele>998.167</ele>
        <time>2011-08-23T08:43:54Z</time>
      </trkpt>
      <trkpt lat="42.73127" lon="2.08414">
        <ele>995.441</ele>
        <time>2011-08-23T08:43:58Z</time>
      </trkpt>
      <trkpt lat="42.73123" lon="2.08375">
        <ele>993.525</ele>
        <time>2011-08-23T08:44:02Z</time>
      </trkpt>
      <trkpt lat="42.7311" lon="2.0835">
        <ele>993.349</ele>
        <time>2011-08-23T08:44:06Z</time>
      </trkpt>
      <trkpt lat="42.73107" lon="2.08345">
        <ele>993.469</ele>
        <time>2011-08-23T08:44:07Z</time>
      </trkpt>
      <trkpt lat="42.73094" lon="2.08319">
        <ele>993.811</ele>
        <time>2011-08-23T08:44:13Z</time>
      </trkpt>
      <trkpt lat="42.73087" lon="2.08305">
        <ele>993.015</ele>
        <time>2011-08-23T08:44:16Z</time>
      </trkpt>
      <trkpt lat="42.73083" lon="2.0828">
        <ele>991.409</ele>
        <time>2011-08-23T08:44:19Z</time>
      </trkpt>
      <trkpt lat="42.7307" lon="2.08252">
        <ele>989.683</ele>
        <time>2011-08-23T08:44:23Z</time>
      </trkpt>
      <trkpt lat="42.73055" lon="2.08234">
        <ele>990.463</ele>
        <time>2011-08-23T08:44:27Z</time>
      </trkpt>
      <trkpt lat="42.73051" lon="2.08226">
        <ele>991.02</ele>
        <time>2011-08-23T08:44:29Z</time>
      </trkpt>
      <trkpt lat="42.73052" lon="2.08204">
        <ele>991.124</ele>
        <time>2011-08-23T08:44:33Z</time>
      </trkpt>
      <trkpt lat="42.73065" lon="2.08181">
        <ele>990.922</ele>
        <time>2011-08-23T08:44:37Z</time>
      </trkpt>
      <trkpt lat="42.73078" lon="2.08157">
        <ele>991.869</ele>
        <time>2011-08-23T08:44:43Z</time>
      </trkpt>
      <trkpt lat="42.73091" lon="2.0814">
        <ele>993.603</ele>
        <time>2011-08-23T08:44:48Z</time>
      </trkpt>
      <trkpt lat="42.73097" lon="2.08117">
        <ele>992.51</ele>
        <time>2011-08-23T08:44:53Z</time>
      </trkpt>
      <trkpt lat="42.73099" lon="2.08093">
        <ele>991.505</ele>
        <time>2011-08-23T08:44:56Z</time>
      </trkpt>
      <trkpt lat="42.731" lon="2.08084">
        <ele>991.469</ele>
        <time>2011-08-23T08:44:57Z</time>
      </trkpt>
      <trkpt lat="42.731" lon="2.08049">
        <ele>992.043</ele>
        <time>2011-08-23T08:45:03Z</time>
      </trkpt>
      <trkpt lat="42.73101" lon="2.08026">
        <ele>992.665</ele>
        <time>2011-08-23T08:45:08Z</time>
      </trkpt>
      <trkpt lat="42.73097" lon="2.07999">
        <ele>993.413</ele>
        <time>2011-08-23T08:45:13Z</time>
      </trkpt>
      <trkpt lat="42.73093" lon="2.07974">
        <ele>994.552</ele>
        <time>2011-08-23T08:45:18Z</time>
      </trkpt>
      <trkpt lat="42.7309" lon="2.07955">
        <ele>995.508</ele>
        <time>2011-08-23T08:45:23Z</time>
      </trkpt>
      <trkpt lat="42.73092" lon="2.07936">
        <ele>995.531</ele>
        <time>2011-08-23T08:45:27Z</time>
      </trkpt>
      <trkpt lat="42.73092" lon="2.07929">
        <ele>995.323</ele>
        <time>2011-08-23T08:45:28Z</time>
      </trkpt>
      <trkpt lat="42.73093" lon="2.07887">
        <ele>994.756</ele>
        <time>2011-08-23T08:45:34Z</time>
      </trkpt>
      <trkpt lat="42.73088" lon="2.07852">
        <ele>994.855</ele>
        <time>2011-08-23T08:45:40Z</time>
      </trkpt>
      <trkpt lat="42.73085" lon="2.0784">
        <ele>995.556</ele>
        <time>2011-08-23T08:45:45Z</time>
      </trkpt>
      <trkpt lat="42.73083" lon="2.07833">
        <ele>996.203</ele>
        <time>2011-08-23T08:45:48Z</time>
      </trkpt>
      <trkpt lat="42.73074" lon="2.07825">
        <ele>997.209</ele>
        <time>2011-08-23T08:45:54Z</time>
      </trkpt>
      <trkpt lat="42.73068" lon="2.07813">
        <ele>999.463</ele>
        <time>2011-08-23T08:46:01Z</time>
      </trkpt>
      <trkpt lat="42.73066" lon="2.07811">
        <ele>999.611</ele>
        <time>2011-08-23T08:46:02Z</time>
      </trkpt>
      <trkpt lat="42.73058" lon="2.07803">
        <ele>1001.177</ele>
        <time>2011-08-23T08:46:08Z</time>
      </trkpt>
      <trkpt lat="42.73056" lon="2.078">
        <ele>1001.581</ele>
        <time>2011-08-23T08:46:10Z</time>
      </trkpt>
      <trkpt lat="42.73049" lon="2.07792">
        <ele>1003.054</ele>
        <time>2011-08-23T08:46:16Z</time>
      </trkpt>
      <trkpt lat="42.73045" lon="2.07781">
        <ele>1004.257</ele>
        <time>2011-08-23T08:46:22Z</time>
      </trkpt>
      <trkpt lat="42.73041" lon="2.07772">
        <ele>1005.087</ele>
        <time>2011-08-23T08:46:26Z</time>
      </trkpt>
      <trkpt lat="42.73038" lon="2.07763">
        <ele>1006.122</ele>
        <time>2011-08-23T08:46:30Z</time>
      </trkpt>
      <trkpt lat="42.73039" lon="2.07744">
        <ele>1007.01</ele>
        <time>2011-08-23T08:46:37Z</time>
      </trkpt>
      <trkpt lat="42.73038" lon="2.07724">
        <ele>1006.497</ele>
        <time>2011-08-23T08:46:42Z</time>
      </trkpt>
      <trkpt lat="42.73029" lon="2.07717">
        <ele>1006.473</ele>
        <time>2011-08-23T08:46:45Z</time>
      </trkpt>
      <trkpt lat="42.73022" lon="2.07715">
        <ele>1006.497</ele>
        <time>2011-08-23T08:46:47Z</time>
      </trkpt>
      <trkpt lat="42.73004" lon="2.07716">
        <ele>1006.977</ele>
        <time>2011-08-23T08:46:53Z</time>
      </trkpt>
      <trkpt lat="42.72989" lon="2.0772">
        <ele>1008.352</ele>
        <time>2011-08-23T08:46:59Z</time>
      </trkpt>
      <trkpt lat="42.72972" lon="2.07713">
        <ele>1008.51</ele>
        <time>2011-08-23T08:47:05Z</time>
      </trkpt>
      <trkpt lat="42.72959" lon="2.07702">
        <ele>1007.909</ele>
        <time>2011-08-23T08:47:09Z</time>
      </trkpt>
      <trkpt lat="42.72963" lon="2.07686">
        <ele>1008.465</ele>
        <time>2011-08-23T08:47:14Z</time>
      </trkpt>
      <trkpt lat="42.72972" lon="2.07666">
        <ele>1009.633</ele>
        <time>2011-08-23T08:47:21Z</time>
      </trkpt>
      <trkpt lat="42.72978" lon="2.07653">
        <ele>1011.184</ele>
        <time>2011-08-23T08:47:27Z</time>
      </trkpt>
      <trkpt lat="42.72988" lon="2.07636">
        <ele>1012.447</ele>
        <time>2011-08-23T08:47:35Z</time>
      </trkpt>
      <trkpt lat="42.73002" lon="2.0762">
        <ele>1013.948</ele>
        <time>2011-08-23T08:47:43Z</time>
      </trkpt>
      <trkpt lat="42.73022" lon="2.07601">
        <ele>1016.401</ele>
        <time>2011-08-23T08:47:54Z</time>
      </trkpt>
      <trkpt lat="42.73028" lon="2.07585">
        <ele>1017.401</ele>
        <time>2011-08-23T08:48:00Z</time>
      </trkpt>
      <trkpt lat="42.73028" lon="2.07571">
        <ele>1017.219</ele>
        <time>2011-08-23T08:48:03Z</time>
      </trkpt>
      <trkpt lat="42.73023" lon="2.07545">
        <ele>1016.859</ele>
        <time>2011-08-23T08:48:07Z</time>
      </trkpt>
      <trkpt lat="42.7302" lon="2.07517">
        <ele>1016.619</ele>
        <time>2011-08-23T08:48:12Z</time>
      </trkpt>
      <trkpt lat="42.73027" lon="2.07494">
        <ele>1017.134</ele>
        <time>2011-08-23T08:48:19Z</time>
      </trkpt>
      <trkpt lat="42.73031" lon="2.07478">
        <ele>1017.955</ele>
        <time>2011-08-23T08:48:25Z</time>
      </trkpt>
      <trkpt lat="42.73031" lon="2.07477">
        <ele>1018.492</ele>
        <time>2011-08-23T08:48:45Z</time>
      </trkpt>
      <trkpt lat="42.73034" lon="2.07467">
        <ele>1019.062</ele>
        <time>2011-08-23T08:48:50Z</time>
      </trkpt>
      <trkpt lat="42.73037" lon="2.07453">
        <ele>1020.105</ele>
        <time>2011-08-23T08:48:55Z</time>
      </trkpt>
      <trkpt lat="42.73039" lon="2.07438">
        <ele>1021.277</ele>
        <time>2011-08-23T08:49:00Z</time>
      </trkpt>
      <trkpt lat="42.73039" lon="2.07419">
        <ele>1022.565</ele>
        <time>2011-08-23T08:49:06Z</time>
      </trkpt>
      <trkpt lat="42.73038" lon="2.07406">
        <ele>1023.42</ele>
        <time>2011-08-23T08:49:10Z</time>
      </trkpt>
      <trkpt lat="42.73037" lon="2.07386">
        <ele>1024.85</ele>
        <time>2011-08-23T08:49:18Z</time>
      </trkpt>
      <trkpt lat="42.73036" lon="2.07371">
        <ele>1026.404</ele>
        <time>2011-08-23T08:49:24Z</time>
      </trkpt>
      <trkpt lat="42.73035" lon="2.0736">
        <ele>1027.864</ele>
        <time>2011-08-23T08:49:29Z</time>
      </trkpt>
      <trkpt lat="42.73035" lon="2.07343">
        <ele>1029.93</ele>
        <time>2011-08-23T08:49:36Z</time>
      </trkpt>
      <trkpt lat="42.73036" lon="2.07326">
        <ele>1031.452</ele>
        <time>2011-08-23T08:49:43Z</time>
      </trkpt>
      <trkpt lat="42.73036" lon="2.07304">
        <ele>1031.765</ele>
        <time>2011-08-23T08:49:49Z</time>
      </trkpt>
      <trkpt lat="42.73035" lon="2.07282">
        <ele>1032.819</ele>
        <time>2011-08-23T08:49:56Z</time>
      </trkpt>
      <trkpt lat="42.73032" lon="2.0727">
        <ele>1034.05</ele>
        <time>2011-08-23T08:50:01Z</time>
      </trkpt>
      <trkpt lat="42.73029" lon="2.07248">
        <ele>1035.984</ele>
        <time>2011-08-23T08:50:09Z</time>
      </trkpt>
      <trkpt lat="42.73028" lon="2.07232">
        <ele>1037.641</ele>
        <time>2011-08-23T08:50:16Z</time>
      </trkpt>
      <trkpt lat="42.73026" lon="2.07208">
        <ele>1039.506</ele>
        <time>2011-08-23T08:50:26Z</time>
      </trkpt>
      <trkpt lat="42.73026" lon="2.07195">
        <ele>1040.086</ele>
        <time>2011-08-23T08:50:32Z</time>
      </trkpt>
      <trkpt lat="42.73025" lon="2.07181">
        <ele>1041.651</ele>
        <time>2011-08-23T08:50:38Z</time>
      </trkpt>
      <trkpt lat="42.73023" lon="2.07165">
        <ele>1043.544</ele>
        <time>2011-08-23T08:50:45Z</time>
      </trkpt>
      <trkpt lat="42.73019" lon="2.0714">
        <ele>1045.146</ele>
        <time>2011-08-23T08:50:56Z</time>
      </trkpt>
      <trkpt lat="42.73017" lon="2.07123">
        <ele>1046.505</ele>
        <time>2011-08-23T08:51:04Z</time>
      </trkpt>
      <trkpt lat="42.73015" lon="2.07103">
        <ele>1048.198</ele>
        <time>2011-08-23T08:51:13Z</time>
      </trkpt>
      <trkpt lat="42.73013" lon="2.0708">
        <ele>1049.943</ele>
        <time>2011-08-23T08:51:23Z</time>
      </trkpt>
      <trkpt lat="42.73013" lon="2.07056">
        <ele>1051.985</ele>
        <time>2011-08-23T08:51:34Z</time>
      </trkpt>
      <trkpt lat="42.73014" lon="2.07035">
        <ele>1053.53</ele>
        <time>2011-08-23T08:51:44Z</time>
      </trkpt>
      <trkpt lat="42.7301" lon="2.07014">
        <ele>1055.746</ele>
        <time>2011-08-23T08:51:54Z</time>
      </trkpt>
      <trkpt lat="42.73005" lon="2.07001">
        <ele>1057.481</ele>
        <time>2011-08-23T08:52:00Z</time>
      </trkpt>
      <trkpt lat="42.73005" lon="2.06989">
        <ele>1059.719</ele>
        <time>2011-08-23T08:52:06Z</time>
      </trkpt>
      <trkpt lat="42.73007" lon="2.06983">
        <ele>1059.923</ele>
        <time>2011-08-23T08:52:10Z</time>
      </trkpt>
      <trkpt lat="42.73015" lon="2.06967">
        <ele>1060.776</ele>
        <time>2011-08-23T08:52:18Z</time>
      </trkpt>
      <trkpt lat="42.73024" lon="2.0695">
        <ele>1061.52</ele>
        <time>2011-08-23T08:52:27Z</time>
      </trkpt>
      <trkpt lat="42.73028" lon="2.06942">
        <ele>1062.084</ele>
        <time>2011-08-23T08:52:31Z</time>
      </trkpt>
      <trkpt lat="42.73038" lon="2.06946">
        <ele>1063.156</ele>
        <time>2011-08-23T08:52:37Z</time>
      </trkpt>
      <trkpt lat="42.7305" lon="2.06957">
        <ele>1063.423</ele>
        <time>2011-08-23T08:52:45Z</time>
      </trkpt>
      <trkpt lat="42.7306" lon="2.06965">
        <ele>1063.872</ele>
        <time>2011-08-23T08:52:51Z</time>
      </trkpt>
      <trkpt lat="42.73067" lon="2.06981">
        <ele>1065.103</ele>
        <time>2011-08-23T08:52:59Z</time>
      </trkpt>
      <trkpt lat="42.73073" lon="2.06998">
        <ele>1066.259</ele>
        <time>2011-08-23T08:53:07Z</time>
      </trkpt>
      <trkpt lat="42.7308" lon="2.07002">
        <ele>1067.251</ele>
        <time>2011-08-23T08:53:13Z</time>
      </trkpt>
      <trkpt lat="42.7309" lon="2.07009">
        <ele>1068.453</ele>
        <time>2011-08-23T08:53:19Z</time>
      </trkpt>
      <trkpt lat="42.73095" lon="2.07013">
        <ele>1068.911</ele>
        <time>2011-08-23T08:53:22Z</time>
      </trkpt>
      <trkpt lat="42.731" lon="2.07018">
        <ele>1069.138</ele>
        <time>2011-08-23T08:53:26Z</time>
      </trkpt>
      <trkpt lat="42.73116" lon="2.07018">
        <ele>1070.21</ele>
        <time>2011-08-23T08:53:34Z</time>
      </trkpt>
      <trkpt lat="42.73117" lon="2.07017">
        <ele>1070.725</ele>
        <time>2011-08-23T08:53:35Z</time>
      </trkpt>
      <trkpt lat="42.73119" lon="2.07001">
        <ele>1072.794</ele>
        <time>2011-08-23T08:53:41Z</time>
      </trkpt>
      <trkpt lat="42.73116" lon="2.06975">
        <ele>1075.523</ele>
        <time>2011-08-23T08:53:49Z</time>
      </trkpt>
      <trkpt lat="42.7311" lon="2.06961">
        <ele>1075.959</ele>
        <time>2011-08-23T08:53:55Z</time>
      </trkpt>
      <trkpt lat="42.731" lon="2.06955">
        <ele>1076.532</ele>
        <time>2011-08-23T08:54:00Z</time>
      </trkpt>
      <trkpt lat="42.73093" lon="2.06954">
        <ele>1076.111</ele>
        <time>2011-08-23T08:54:02Z</time>
      </trkpt>
      <trkpt lat="42.73081" lon="2.06942">
        <ele>1073.425</ele>
        <time>2011-08-23T08:54:06Z</time>
      </trkpt>
      <trkpt lat="42.73081" lon="2.06931">
        <ele>1073.537</ele>
        <time>2011-08-23T08:54:10Z</time>
      </trkpt>
      <trkpt lat="42.73082" lon="2.06929">
        <ele>1073.814</ele>
        <time>2011-08-23T08:54:15Z</time>
      </trkpt>
      <trkpt lat="42.73082" lon="2.0693">
        <ele>1073.188</ele>
        <time>2011-08-23T08:54:19Z</time>
      </trkpt>
      <trkpt lat="42.73101" lon="2.06944">
        <ele>1071.008</ele>
        <time>2011-08-23T08:54:26Z</time>
      </trkpt>
      <trkpt lat="42.73095" lon="2.06941">
        <ele>1066.46</ele>
        <time>2011-08-23T08:54:29Z</time>
      </trkpt>
      <trkpt lat="42.73093" lon="2.0694">
        <ele>1066.459</ele>
        <time>2011-08-23T08:54:30Z</time>
      </trkpt>
      <trkpt lat="42.73066" lon="2.06922">
        <ele>1071.056</ele>
        <time>2011-08-23T08:54:42Z</time>
      </trkpt>
      <trkpt lat="42.73066" lon="2.06922">
        <ele>1073.913</ele>
        <time>2011-08-23T08:54:44Z</time>
      </trkpt>
      <trkpt lat="42.73078" lon="2.0693">
        <ele>1073.744</ele>
        <time>2011-08-23T08:54:49Z</time>
      </trkpt>
      <trkpt lat="42.73081" lon="2.06931">
        <ele>1073.658</ele>
        <time>2011-08-23T08:54:57Z</time>
      </trkpt>
      <trkpt lat="42.7308" lon="2.06931">
        <ele>1073.076</ele>
        <time>2011-08-23T08:55:05Z</time>
      </trkpt>
      <trkpt lat="42.7308" lon="2.06915">
        <ele>1074.373</ele>
        <time>2011-08-23T08:55:12Z</time>
      </trkpt>
      <trkpt lat="42.7308" lon="2.069">
        <ele>1076.777</ele>
        <time>2011-08-23T08:55:18Z</time>
      </trkpt>
      <trkpt lat="42.7308" lon="2.06898">
        <ele>1077.102</ele>
        <time>2011-08-23T08:55:19Z</time>
      </trkpt>
      <trkpt lat="42.73086" lon="2.06882">
        <ele>1079.888</ele>
        <time>2011-08-23T08:55:27Z</time>
      </trkpt>
      <trkpt lat="42.73082" lon="2.06862">
        <ele>1082.401</ele>
        <time>2011-08-23T08:55:35Z</time>
      </trkpt>
      <trkpt lat="42.7308" lon="2.06841">
        <ele>1084.222</ele>
        <time>2011-08-23T08:55:43Z</time>
      </trkpt>
      <trkpt lat="42.73082" lon="2.06818">
        <ele>1086.919</ele>
        <time>2011-08-23T08:55:53Z</time>
      </trkpt>
      <trkpt lat="42.73082" lon="2.06816">
        <ele>1087.04</ele>
        <time>2011-08-23T08:55:54Z</time>
      </trkpt>
      <trkpt lat="42.73084" lon="2.06795">
        <ele>1088.483</ele>
        <time>2011-08-23T08:56:03Z</time>
      </trkpt>
      <trkpt lat="42.73085" lon="2.06775">
        <ele>1089.733</ele>
        <time>2011-08-23T08:56:12Z</time>
      </trkpt>
      <trkpt lat="42.73087" lon="2.06756">
        <ele>1091.54</ele>
        <time>2011-08-23T08:56:20Z</time>
      </trkpt>
      <trkpt lat="42.73089" lon="2.06728">
        <ele>1094.224</ele>
        <time>2011-08-23T08:56:32Z</time>
      </trkpt>
      <trkpt lat="42.73091" lon="2.06703">
        <ele>1096.872</ele>
        <time>2011-08-23T08:56:42Z</time>
      </trkpt>
      <trkpt lat="42.73091" lon="2.06678">
        <ele>1098.306</ele>
        <time>2011-08-23T08:56:51Z</time>
      </trkpt>
      <trkpt lat="42.73091" lon="2.06656">
        <ele>1099.799</ele>
        <time>2011-08-23T08:57:00Z</time>
      </trkpt>
      <trkpt lat="42.73089" lon="2.06633">
        <ele>1101.89</ele>
        <time>2011-08-23T08:57:10Z</time>
      </trkpt>
      <trkpt lat="42.73088" lon="2.06612">
        <ele>1103.036</ele>
        <time>2011-08-23T08:57:18Z</time>
      </trkpt>
      <trkpt lat="42.73085" lon="2.06575">
        <ele>1106.308</ele>
        <time>2011-08-23T08:57:32Z</time>
      </trkpt>
      <trkpt lat="42.73083" lon="2.06549">
        <ele>1108.499</ele>
        <time>2011-08-23T08:57:42Z</time>
      </trkpt>
      <trkpt lat="42.73081" lon="2.06525">
        <ele>1110.921</ele>
        <time>2011-08-23T08:57:52Z</time>
      </trkpt>
      <trkpt lat="42.73079" lon="2.06501">
        <ele>1113.061</ele>
        <time>2011-08-23T08:58:02Z</time>
      </trkpt>
      <trkpt lat="42.73077" lon="2.06474">
        <ele>1115.333</ele>
        <time>2011-08-23T08:58:13Z</time>
      </trkpt>
      <trkpt lat="42.73072" lon="2.06453">
        <ele>1117.242</ele>
        <time>2011-08-23T08:58:22Z</time>
      </trkpt>
      <trkpt lat="42.73064" lon="2.06429">
        <ele>1119.458</ele>
        <time>2011-08-23T08:58:33Z</time>
      </trkpt>
      <trkpt lat="42.73059" lon="2.06407">
        <ele>1121.484</ele>
        <time>2011-08-23T08:58:43Z</time>
      </trkpt>
      <trkpt lat="42.73059" lon="2.06386">
        <ele>1123.905</ele>
        <time>2011-08-23T08:58:53Z</time>
      </trkpt>
      <trkpt lat="42.7306" lon="2.06363">
        <ele>1126.221</ele>
        <time>2011-08-23T08:59:03Z</time>
      </trkpt>
      <trkpt lat="42.73059" lon="2.06342">
        <ele>1128.837</ele>
        <time>2011-08-23T08:59:12Z</time>
      </trkpt>
      <trkpt lat="42.73057" lon="2.0632">
        <ele>1130.489</ele>
        <time>2011-08-23T08:59:22Z</time>
      </trkpt>
      <trkpt lat="42.73053" lon="2.06298">
        <ele>1132.741</ele>
        <time>2011-08-23T08:59:32Z</time>
      </trkpt>
      <trkpt lat="42.73052" lon="2.06269">
        <ele>1135.514</ele>
        <time>2011-08-23T08:59:45Z</time>
      </trkpt>
      <trkpt lat="42.73054" lon="2.0625">
        <ele>1137.539</ele>
        <time>2011-08-23T08:59:54Z</time>
      </trkpt>
      <trkpt lat="42.73056" lon="2.06226">
        <ele>1140.305</ele>
        <time>2011-08-23T09:00:04Z</time>
      </trkpt>
      <trkpt lat="42.73057" lon="2.06212">
        <ele>1142.317</ele>
        <time>2011-08-23T09:00:12Z</time>
      </trkpt>
      <trkpt lat="42.73056" lon="2.062">
        <ele>1144.245</ele>
        <time>2011-08-23T09:00:19Z</time>
      </trkpt>
      <trkpt lat="42.73058" lon="2.06184">
        <ele>1145.71</ele>
        <time>2011-08-23T09:00:26Z</time>
      </trkpt>
      <trkpt lat="42.73057" lon="2.06174">
        <ele>1147.14</ele>
        <time>2011-08-23T09:00:31Z</time>
      </trkpt>
      <trkpt lat="42.73057" lon="2.06172">
        <ele>1147.221</ele>
        <time>2011-08-23T09:00:32Z</time>
      </trkpt>
      <trkpt lat="42.73054" lon="2.06162">
        <ele>1148.197</ele>
        <time>2011-08-23T09:00:37Z</time>
      </trkpt>
      <trkpt lat="42.73051" lon="2.06153">
        <ele>1149.233</ele>
        <time>2011-08-23T09:00:42Z</time>
      </trkpt>
      <trkpt lat="42.73046" lon="2.0614">
        <ele>1150.527</ele>
        <time>2011-08-23T09:00:49Z</time>
      </trkpt>
      <trkpt lat="42.73042" lon="2.06125">
        <ele>1152.098</ele>
        <time>2011-08-23T09:00:56Z</time>
      </trkpt>
      <trkpt lat="42.73038" lon="2.06104">
        <ele>1153.866</ele>
        <time>2011-08-23T09:01:05Z</time>
      </trkpt>
      <trkpt lat="42.73035" lon="2.0609">
        <ele>1155.793</ele>
        <time>2011-08-23T09:01:13Z</time>
      </trkpt>
      <trkpt lat="42.7303" lon="2.06076">
        <ele>1157.203</ele>
        <time>2011-08-23T09:01:20Z</time>
      </trkpt>
      <trkpt lat="42.73025" lon="2.06061">
        <ele>1159.185</ele>
        <time>2011-08-23T09:01:28Z</time>
      </trkpt>
      <trkpt lat="42.73021" lon="2.06049">
        <ele>1160.578</ele>
        <time>2011-08-23T09:01:34Z</time>
      </trkpt>
      <trkpt lat="42.73015" lon="2.06032">
        <ele>1162.767</ele>
        <time>2011-08-23T09:01:43Z</time>
      </trkpt>
      <trkpt lat="42.73017" lon="2.06019">
        <ele>1164.922</ele>
        <time>2011-08-23T09:01:51Z</time>
      </trkpt>
      <trkpt lat="42.73025" lon="2.06005">
        <ele>1167.025</ele>
        <time>2011-08-23T09:02:00Z</time>
      </trkpt>
      <trkpt lat="42.73031" lon="2.05996">
        <ele>1168.735</ele>
        <time>2011-08-23T09:02:06Z</time>
      </trkpt>
      <trkpt lat="42.7304" lon="2.05983">
        <ele>1170.988</ele>
        <time>2011-08-23T09:02:15Z</time>
      </trkpt>
      <trkpt lat="42.73048" lon="2.05969">
        <ele>1172.331</ele>
        <time>2011-08-23T09:02:23Z</time>
      </trkpt>
      <trkpt lat="42.73054" lon="2.0595">
        <ele>1174.699</ele>
        <time>2011-08-23T09:02:32Z</time>
      </trkpt>
      <trkpt lat="42.73059" lon="2.05928">
        <ele>1177.164</ele>
        <time>2011-08-23T09:02:42Z</time>
      </trkpt>
      <trkpt lat="42.73064" lon="2.05907">
        <ele>1179.252</ele>
        <time>2011-08-23T09:02:52Z</time>
      </trkpt>
      <trkpt lat="42.73066" lon="2.05886">
        <ele>1181.393</ele>
        <time>2011-08-23T09:03:01Z</time>
      </trkpt>
      <trkpt lat="42.73064" lon="2.05866">
        <ele>1182.827</ele>
        <time>2011-08-23T09:03:10Z</time>
      </trkpt>
      <trkpt lat="42.73061" lon="2.05851">
        <ele>1184.489</ele>
        <time>2011-08-23T09:03:18Z</time>
      </trkpt>
      <trkpt lat="42.73058" lon="2.05833">
        <ele>1186.331</ele>
        <time>2011-08-23T09:03:26Z</time>
      </trkpt>
      <trkpt lat="42.73054" lon="2.05813">
        <ele>1188.42</ele>
        <time>2011-08-23T09:03:36Z</time>
      </trkpt>
      <trkpt lat="42.73054" lon="2.05793">
        <ele>1190.584</ele>
        <time>2011-08-23T09:03:46Z</time>
      </trkpt>
      <trkpt lat="42.73055" lon="2.05773">
        <ele>1192.607</ele>
        <time>2011-08-23T09:03:55Z</time>
      </trkpt>
      <trkpt lat="42.73052" lon="2.05754">
        <ele>1194.281</ele>
        <time>2011-08-23T09:04:03Z</time>
      </trkpt>
      <trkpt lat="42.73052" lon="2.05739">
        <ele>1196.081</ele>
        <time>2011-08-23T09:04:10Z</time>
      </trkpt>
      <trkpt lat="42.73049" lon="2.05723">
        <ele>1198.053</ele>
        <time>2011-08-23T09:04:17Z</time>
      </trkpt>
      <trkpt lat="42.73044" lon="2.05711">
        <ele>1198.832</ele>
        <time>2011-08-23T09:04:23Z</time>
      </trkpt>
      <trkpt lat="42.73041" lon="2.05704">
        <ele>1199.052</ele>
        <time>2011-08-23T09:04:27Z</time>
      </trkpt>
      <trkpt lat="42.73034" lon="2.05688">
        <ele>1199.618</ele>
        <time>2011-08-23T09:04:35Z</time>
      </trkpt>
      <trkpt lat="42.73032" lon="2.05687">
        <ele>1199.642</ele>
        <time>2011-08-23T09:04:36Z</time>
      </trkpt>
      <trkpt lat="42.73033" lon="2.05683">
        <ele>1199.554</ele>
        <time>2011-08-23T09:04:39Z</time>
      </trkpt>
      <trkpt lat="42.73035" lon="2.05681">
        <ele>1199.636</ele>
        <time>2011-08-23T09:04:42Z</time>
      </trkpt>
      <trkpt lat="42.73039" lon="2.0568">
        <ele>1200.516</ele>
        <time>2011-08-23T09:04:46Z</time>
      </trkpt>
      <trkpt lat="42.73035" lon="2.05682">
        <ele>1201.009</ele>
        <time>2011-08-23T09:04:51Z</time>
      </trkpt>
      <trkpt lat="42.73027" lon="2.05685">
        <ele>1199.943</ele>
        <time>2011-08-23T09:04:56Z</time>
      </trkpt>
      <trkpt lat="42.73026" lon="2.05685">
        <ele>1199.678</ele>
        <time>2011-08-23T09:06:02Z</time>
      </trkpt>
      <trkpt lat="42.73022" lon="2.05675">
        <ele>1199.514</ele>
        <time>2011-08-23T09:06:07Z</time>
      </trkpt>
      <trkpt lat="42.73013" lon="2.05652">
        <ele>1199.355</ele>
        <time>2011-08-23T09:06:14Z</time>
      </trkpt>
      <trkpt lat="42.73012" lon="2.05635">
        <ele>1199.719</ele>
        <time>2011-08-23T09:06:20Z</time>
      </trkpt>
      <trkpt lat="42.73008" lon="2.05622">
        <ele>1200.326</ele>
        <time>2011-08-23T09:06:26Z</time>
      </trkpt>
      <trkpt lat="42.73" lon="2.05607">
        <ele>1200.395</ele>
        <time>2011-08-23T09:06:32Z</time>
      </trkpt>
      <trkpt lat="42.7299" lon="2.05587">
        <ele>1201.57</ele>
        <time>2011-08-23T09:06:41Z</time>
      </trkpt>
      <trkpt lat="42.72983" lon="2.05568">
        <ele>1203.173</ele>
        <time>2011-08-23T09:06:50Z</time>
      </trkpt>
      <trkpt lat="42.72981" lon="2.05556">
        <ele>1204.496</ele>
        <time>2011-08-23T09:06:56Z</time>
      </trkpt>
      <trkpt lat="42.72981" lon="2.05545">
        <ele>1205.453</ele>
        <time>2011-08-23T09:07:01Z</time>
      </trkpt>
      <trkpt lat="42.72988" lon="2.05542">
        <ele>1205.901</ele>
        <time>2011-08-23T09:07:06Z</time>
      </trkpt>
      <trkpt lat="42.72989" lon="2.0554">
        <ele>1206.244</ele>
        <time>2011-08-23T09:07:09Z</time>
      </trkpt>
      <trkpt lat="42.72988" lon="2.05539">
        <ele>1206.008</ele>
        <time>2011-08-23T09:07:29Z</time>
      </trkpt>
      <trkpt lat="42.72981" lon="2.0553">
        <ele>1206.633</ele>
        <time>2011-08-23T09:07:35Z</time>
      </trkpt>
      <trkpt lat="42.7298" lon="2.05528">
        <ele>1206.826</ele>
        <time>2011-08-23T09:07:36Z</time>
      </trkpt>
      <trkpt lat="42.72969" lon="2.05509">
        <ele>1208.763</ele>
        <time>2011-08-23T09:07:45Z</time>
      </trkpt>
      <trkpt lat="42.7295" lon="2.05492">
        <ele>1210.178</ele>
        <time>2011-08-23T09:07:56Z</time>
      </trkpt>
      <trkpt lat="42.72935" lon="2.05476">
        <ele>1211.367</ele>
        <time>2011-08-23T09:08:05Z</time>
      </trkpt>
      <trkpt lat="42.7293" lon="2.05461">
        <ele>1212.701</ele>
        <time>2011-08-23T09:08:11Z</time>
      </trkpt>
      <trkpt lat="42.72929" lon="2.0544">
        <ele>1214.262</ele>
        <time>2011-08-23T09:08:19Z</time>
      </trkpt>
      <trkpt lat="42.72928" lon="2.05425">
        <ele>1215.414</ele>
        <time>2011-08-23T09:08:25Z</time>
      </trkpt>
      <trkpt lat="42.72928" lon="2.0541">
        <ele>1216.648</ele>
        <time>2011-08-23T09:08:31Z</time>
      </trkpt>
      <trkpt lat="42.72929" lon="2.05403">
        <ele>1216.981</ele>
        <time>2011-08-23T09:08:34Z</time>
      </trkpt>
      <trkpt lat="42.72937" lon="2.05399">
        <ele>1217.916</ele>
        <time>2011-08-23T09:08:39Z</time>
      </trkpt>
      <trkpt lat="42.72942" lon="2.05405">
        <ele>1218.567</ele>
        <time>2011-08-23T09:08:42Z</time>
      </trkpt>
      <trkpt lat="42.72951" lon="2.05426">
        <ele>1220.538</ele>
        <time>2011-08-23T09:08:51Z</time>
      </trkpt>
      <trkpt lat="42.72967" lon="2.05448">
        <ele>1221.376</ele>
        <time>2011-08-23T09:09:02Z</time>
      </trkpt>
      <trkpt lat="42.72982" lon="2.0546">
        <ele>1222.513</ele>
        <time>2011-08-23T09:09:10Z</time>
      </trkpt>
      <trkpt lat="42.73" lon="2.05468">
        <ele>1224.372</ele>
        <time>2011-08-23T09:09:20Z</time>
      </trkpt>
      <trkpt lat="42.73017" lon="2.05477">
        <ele>1226.708</ele>
        <time>2011-08-23T09:09:29Z</time>
      </trkpt>
      <trkpt lat="42.73024" lon="2.05472">
        <ele>1227.514</ele>
        <time>2011-08-23T09:09:35Z</time>
      </trkpt>
      <trkpt lat="42.73022" lon="2.05471">
        <ele>1227.804</ele>
        <time>2011-08-23T09:09:46Z</time>
      </trkpt>
      <trkpt lat="42.73019" lon="2.05475">
        <ele>1228.864</ele>
        <time>2011-08-23T09:10:48Z</time>
      </trkpt>
      <trkpt lat="42.73019" lon="2.05476">
        <ele>1228.746</ele>
        <time>2011-08-23T09:10:50Z</time>
      </trkpt>
      <trkpt lat="42.73024" lon="2.05479">
        <ele>1228.985</ele>
        <time>2011-08-23T09:10:55Z</time>
      </trkpt>
      <trkpt lat="42.73032" lon="2.05472">
        <ele>1229.811</ele>
        <time>2011-08-23T09:11:00Z</time>
      </trkpt>
      <trkpt lat="42.7304" lon="2.05465">
        <ele>1231.305</ele>
        <time>2011-08-23T09:11:06Z</time>
      </trkpt>
      <trkpt lat="42.73049" lon="2.05476">
        <ele>1232.589</ele>
        <time>2011-08-23T09:11:12Z</time>
      </trkpt>
      <trkpt lat="42.73062" lon="2.05492">
        <ele>1234.522</ele>
        <time>2011-08-23T09:11:21Z</time>
      </trkpt>
      <trkpt lat="42.73074" lon="2.05498">
        <ele>1235.885</ele>
        <time>2011-08-23T09:11:28Z</time>
      </trkpt>
      <trkpt lat="42.73086" lon="2.05498">
        <ele>1238.246</ele>
        <time>2011-08-23T09:11:35Z</time>
      </trkpt>
      <trkpt lat="42.73098" lon="2.05505">
        <ele>1240.623</ele>
        <time>2011-08-23T09:11:44Z</time>
      </trkpt>
      <trkpt lat="42.73112" lon="2.05516">
        <ele>1243.607</ele>
        <time>2011-08-23T09:11:54Z</time>
      </trkpt>
      <trkpt lat="42.73118" lon="2.05518">
        <ele>1244.804</ele>
        <time>2011-08-23T09:11:58Z</time>
      </trkpt>
      <trkpt lat="42.73128" lon="2.05528">
        <ele>1246.785</ele>
        <time>2011-08-23T09:12:06Z</time>
      </trkpt>
      <trkpt lat="42.73139" lon="2.05543">
        <ele>1247.691</ele>
        <time>2011-08-23T09:12:15Z</time>
      </trkpt>
      <trkpt lat="42.7315" lon="2.05559">
        <ele>1248.857</ele>
        <time>2011-08-23T09:12:24Z</time>
      </trkpt>
      <trkpt lat="42.73159" lon="2.05577">
        <ele>1250.387</ele>
        <time>2011-08-23T09:12:33Z</time>
      </trkpt>
      <trkpt lat="42.73172" lon="2.05602">
        <ele>1252.595</ele>
        <time>2011-08-23T09:12:45Z</time>
      </trkpt>
      <trkpt lat="42.73182" lon="2.05623">
        <ele>1253.885</ele>
        <time>2011-08-23T09:12:55Z</time>
      </trkpt>
      <trkpt lat="42.73188" lon="2.05638">
        <ele>1255.701</ele>
        <time>2011-08-23T09:13:02Z</time>
      </trkpt>
      <trkpt lat="42.73194" lon="2.05652">
        <ele>1257.584</ele>
        <time>2011-08-23T09:13:09Z</time>
      </trkpt>
      <trkpt lat="42.73201" lon="2.05671">
        <ele>1259.639</ele>
        <time>2011-08-23T09:13:18Z</time>
      </trkpt>
      <trkpt lat="42.73207" lon="2.05687">
        <ele>1261.636</ele>
        <time>2011-08-23T09:13:26Z</time>
      </trkpt>
      <trkpt lat="42.73216" lon="2.05706">
        <ele>1263.496</ele>
        <time>2011-08-23T09:13:35Z</time>
      </trkpt>
      <trkpt lat="42.73224" lon="2.05725">
        <ele>1265.382</ele>
        <time>2011-08-23T09:13:44Z</time>
      </trkpt>
      <trkpt lat="42.7323" lon="2.05744">
        <ele>1265.673</ele>
        <time>2011-08-23T09:13:51Z</time>
      </trkpt>
      <trkpt lat="42.73242" lon="2.05776">
        <ele>1266.597</ele>
        <time>2011-08-23T09:14:02Z</time>
      </trkpt>
      <trkpt lat="42.7325" lon="2.058">
        <ele>1267.291</ele>
        <time>2011-08-23T09:14:10Z</time>
      </trkpt>
      <trkpt lat="42.73254" lon="2.05812">
        <ele>1267.695</ele>
        <time>2011-08-23T09:14:14Z</time>
      </trkpt>
      <trkpt lat="42.73263" lon="2.05832">
        <ele>1268.829</ele>
        <time>2011-08-23T09:14:22Z</time>
      </trkpt>
      <trkpt lat="42.73269" lon="2.0586">
        <ele>1269.246</ele>
        <time>2011-08-23T09:14:31Z</time>
      </trkpt>
      <trkpt lat="42.7327" lon="2.05866">
        <ele>1269.37</ele>
        <time>2011-08-23T09:14:33Z</time>
      </trkpt>
      <trkpt lat="42.73277" lon="2.05872">
        <ele>1269.852</ele>
        <time>2011-08-23T09:14:38Z</time>
      </trkpt>
      <trkpt lat="42.7328" lon="2.05862">
        <ele>1270.321</ele>
        <time>2011-08-23T09:14:42Z</time>
      </trkpt>
      <trkpt lat="42.73281" lon="2.05844">
        <ele>1272.588</ele>
        <time>2011-08-23T09:14:49Z</time>
      </trkpt>
      <trkpt lat="42.73281" lon="2.0582">
        <ele>1275.192</ele>
        <time>2011-08-23T09:14:59Z</time>
      </trkpt>
      <trkpt lat="42.73281" lon="2.05794">
        <ele>1278.264</ele>
        <time>2011-08-23T09:15:10Z</time>
      </trkpt>
      <trkpt lat="42.73279" lon="2.05767">
        <ele>1280.778</ele>
        <time>2011-08-23T09:15:22Z</time>
      </trkpt>
      <trkpt lat="42.73275" lon="2.05741">
        <ele>1282.929</ele>
        <time>2011-08-23T09:15:33Z</time>
      </trkpt>
      <trkpt lat="42.73275" lon="2.05719">
        <ele>1285.419</ele>
        <time>2011-08-23T09:15:43Z</time>
      </trkpt>
      <trkpt lat="42.73279" lon="2.05705">
        <ele>1287.257</ele>
        <time>2011-08-23T09:15:50Z</time>
      </trkpt>
      <trkpt lat="42.7328" lon="2.05699">
        <ele>1287.707</ele>
        <time>2011-08-23T09:15:53Z</time>
      </trkpt>
      <trkpt lat="42.73275" lon="2.0569">
        <ele>1288.724</ele>
        <time>2011-08-23T09:15:58Z</time>
      </trkpt>
      <trkpt lat="42.73266" lon="2.05674">
        <ele>1290.642</ele>
        <time>2011-08-23T09:16:06Z</time>
      </trkpt>
      <trkpt lat="42.73264" lon="2.05667">
        <ele>1291.406</ele>
        <time>2011-08-23T09:16:12Z</time>
      </trkpt>
      <trkpt lat="42.73259" lon="2.05663">
        <ele>1291.993</ele>
        <time>2011-08-23T09:18:14Z</time>
      </trkpt>
      <trkpt lat="42.73255" lon="2.05645">
        <ele>1292.381</ele>
        <time>2011-08-23T09:18:20Z</time>
      </trkpt>
      <trkpt lat="42.73254" lon="2.05617">
        <ele>1293.845</ele>
        <time>2011-08-23T09:18:29Z</time>
      </trkpt>
      <trkpt lat="42.73252" lon="2.05588">
        <ele>1295.347</ele>
        <time>2011-08-23T09:18:39Z</time>
      </trkpt>
      <trkpt lat="42.73252" lon="2.05574">
        <ele>1296.36</ele>
        <time>2011-08-23T09:18:45Z</time>
      </trkpt>
      <trkpt lat="42.73252" lon="2.05573">
        <ele>1297.011</ele>
        <time>2011-08-23T09:18:54Z</time>
      </trkpt>
      <trkpt lat="42.73252" lon="2.05573">
        <ele>1296.878</ele>
        <time>2011-08-23T09:19:07Z</time>
      </trkpt>
      <trkpt lat="42.73255" lon="2.05564">
        <ele>1296.863</ele>
        <time>2011-08-23T09:19:12Z</time>
      </trkpt>
      <trkpt lat="42.73256" lon="2.05541">
        <ele>1299.823</ele>
        <time>2011-08-23T09:19:22Z</time>
      </trkpt>
      <trkpt lat="42.73257" lon="2.05519">
        <ele>1302.57</ele>
        <time>2011-08-23T09:19:32Z</time>
      </trkpt>
      <trkpt lat="42.73257" lon="2.05505">
        <ele>1304.561</ele>
        <time>2011-08-23T09:19:39Z</time>
      </trkpt>
      <trkpt lat="42.73259" lon="2.05485">
        <ele>1306.053</ele>
        <time>2011-08-23T09:19:48Z</time>
      </trkpt>
      <trkpt lat="42.7326" lon="2.05466">
        <ele>1308.155</ele>
        <time>2011-08-23T09:19:57Z</time>
      </trkpt>
      <trkpt lat="42.7326" lon="2.05446">
        <ele>1310.031</ele>
        <time>2011-08-23T09:20:06Z</time>
      </trkpt>
      <trkpt lat="42.73258" lon="2.05424">
        <ele>1311.477</ele>
        <time>2011-08-23T09:20:16Z</time>
      </trkpt>
      <trkpt lat="42.73252" lon="2.05403">
        <ele>1314.017</ele>
        <time>2011-08-23T09:20:26Z</time>
      </trkpt>
      <trkpt lat="42.73246" lon="2.05384">
        <ele>1315.264</ele>
        <time>2011-08-23T09:20:35Z</time>
      </trkpt>
      <trkpt lat="42.73242" lon="2.05373">
        <ele>1316.672</ele>
        <time>2011-08-23T09:20:41Z</time>
      </trkpt>
      <trkpt lat="42.73232" lon="2.05357">
        <ele>1318.718</ele>
        <time>2011-08-23T09:20:49Z</time>
      </trkpt>
      <trkpt lat="42.73222" lon="2.0534">
        <ele>1319.585</ele>
        <time>2011-08-23T09:20:57Z</time>
      </trkpt>
      <trkpt lat="42.73219" lon="2.05319">
        <ele>1320.176</ele>
        <time>2011-08-23T09:21:05Z</time>
      </trkpt>
      <trkpt lat="42.73216" lon="2.05283">
        <ele>1321.66</ele>
        <time>2011-08-23T09:21:17Z</time>
      </trkpt>
      <trkpt lat="42.73209" lon="2.05256">
        <ele>1322.077</ele>
        <time>2011-08-23T09:21:25Z</time>
      </trkpt>
      <trkpt lat="42.73208" lon="2.05238">
        <ele>1322.638</ele>
        <time>2011-08-23T09:21:31Z</time>
      </trkpt>
      <trkpt lat="42.7321" lon="2.05222">
        <ele>1323.694</ele>
        <time>2011-08-23T09:21:37Z</time>
      </trkpt>
      <trkpt lat="42.73213" lon="2.05212">
        <ele>1324.766</ele>
        <time>2011-08-23T09:21:42Z</time>
      </trkpt>
      <trkpt lat="42.7322" lon="2.05204">
        <ele>1325.839</ele>
        <time>2011-08-23T09:21:48Z</time>
      </trkpt>
      <trkpt lat="42.73232" lon="2.05199">
        <ele>1327.342</ele>
        <time>2011-08-23T09:21:55Z</time>
      </trkpt>
      <trkpt lat="42.73238" lon="2.05197">
        <ele>1328.337</ele>
        <time>2011-08-23T09:21:59Z</time>
      </trkpt>
      <trkpt lat="42.73241" lon="2.05188">
        <ele>1329.76</ele>
        <time>2011-08-23T09:22:04Z</time>
      </trkpt>
      <trkpt lat="42.7324" lon="2.05187">
        <ele>1329.894</ele>
        <time>2011-08-23T09:22:05Z</time>
      </trkpt>
      <trkpt lat="42.73236" lon="2.05171">
        <ele>1329.898</ele>
        <time>2011-08-23T09:22:12Z</time>
      </trkpt>
      <trkpt lat="42.73236" lon="2.0515">
        <ele>1330.683</ele>
        <time>2011-08-23T09:22:20Z</time>
      </trkpt>
      <trkpt lat="42.73239" lon="2.05133">
        <ele>1331.063</ele>
        <time>2011-08-23T09:22:26Z</time>
      </trkpt>
      <trkpt lat="42.73245" lon="2.05112">
        <ele>1331.971</ele>
        <time>2011-08-23T09:22:34Z</time>
      </trkpt>
      <trkpt lat="42.7325" lon="2.0509">
        <ele>1333.04</ele>
        <time>2011-08-23T09:22:43Z</time>
      </trkpt>
      <trkpt lat="42.73248" lon="2.05062">
        <ele>1333.808</ele>
        <time>2011-08-23T09:22:53Z</time>
      </trkpt>
      <trkpt lat="42.73239" lon="2.05038">
        <ele>1334.958</ele>
        <time>2011-08-23T09:23:02Z</time>
      </trkpt>
      <trkpt lat="42.73236" lon="2.0502">
        <ele>1335.864</ele>
        <time>2011-08-23T09:23:09Z</time>
      </trkpt>
      <trkpt lat="42.73236" lon="2.05017">
        <ele>1336.262</ele>
        <time>2011-08-23T09:23:13Z</time>
      </trkpt>
      <trkpt lat="42.73238" lon="2.0501">
        <ele>1336.336</ele>
        <time>2011-08-23T09:23:23Z</time>
      </trkpt>
      <trkpt lat="42.73244" lon="2.04997">
        <ele>1337.418</ele>
        <time>2011-08-23T09:23:29Z</time>
      </trkpt>
      <trkpt lat="42.73251" lon="2.04973">
        <ele>1340.469</ele>
        <time>2011-08-23T09:23:41Z</time>
      </trkpt>
      <trkpt lat="42.73256" lon="2.04956">
        <ele>1342.052</ele>
        <time>2011-08-23T09:23:49Z</time>
      </trkpt>
      <trkpt lat="42.7326" lon="2.04942">
        <ele>1343.585</ele>
        <time>2011-08-23T09:23:56Z</time>
      </trkpt>
      <trkpt lat="42.73263" lon="2.04927">
        <ele>1344.642</ele>
        <time>2011-08-23T09:24:03Z</time>
      </trkpt>
      <trkpt lat="42.7327" lon="2.04917">
        <ele>1346.059</ele>
        <time>2011-08-23T09:24:10Z</time>
      </trkpt>
      <trkpt lat="42.73277" lon="2.04907">
        <ele>1347.435</ele>
        <time>2011-08-23T09:24:17Z</time>
      </trkpt>
      <trkpt lat="42.73284" lon="2.04893">
        <ele>1348.84</ele>
        <time>2011-08-23T09:24:25Z</time>
      </trkpt>
      <trkpt lat="42.73285" lon="2.04891">
        <ele>1348.901</ele>
        <time>2011-08-23T09:24:26Z</time>
      </trkpt>
      <trkpt lat="42.73292" lon="2.04878">
        <ele>1350.716</ele>
        <time>2011-08-23T09:24:35Z</time>
      </trkpt>
      <trkpt lat="42.733" lon="2.04863">
        <ele>1352.564</ele>
        <time>2011-08-23T09:24:44Z</time>
      </trkpt>
      <trkpt lat="42.73307" lon="2.04851">
        <ele>1353.944</ele>
        <time>2011-08-23T09:24:52Z</time>
      </trkpt>
      <trkpt lat="42.73315" lon="2.0484">
        <ele>1355.487</ele>
        <time>2011-08-23T09:25:00Z</time>
      </trkpt>
      <trkpt lat="42.7332" lon="2.0483">
        <ele>1356.743</ele>
        <time>2011-08-23T09:25:06Z</time>
      </trkpt>
      <trkpt lat="42.73322" lon="2.04829">
        <ele>1357.089</ele>
        <time>2011-08-23T09:25:07Z</time>
      </trkpt>
      <trkpt lat="42.7333" lon="2.04813">
        <ele>1358.986</ele>
        <time>2011-08-23T09:25:17Z</time>
      </trkpt>
      <trkpt lat="42.73336" lon="2.04801">
        <ele>1360.135</ele>
        <time>2011-08-23T09:25:24Z</time>
      </trkpt>
      <trkpt lat="42.73342" lon="2.04787">
        <ele>1361.793</ele>
        <time>2011-08-23T09:25:32Z</time>
      </trkpt>
      <trkpt lat="42.73347" lon="2.04774">
        <ele>1363.538</ele>
        <time>2011-08-23T09:25:40Z</time>
      </trkpt>
      <trkpt lat="42.73353" lon="2.04763">
        <ele>1364.781</ele>
        <time>2011-08-23T09:25:47Z</time>
      </trkpt>
      <trkpt lat="42.73359" lon="2.0475">
        <ele>1366.925</ele>
        <time>2011-08-23T09:25:55Z</time>
      </trkpt>
      <trkpt lat="42.73369" lon="2.04735">
        <ele>1369.025</ele>
        <time>2011-08-23T09:26:06Z</time>
      </trkpt>
      <trkpt lat="42.73375" lon="2.0473">
        <ele>1370.313</ele>
        <time>2011-08-23T09:26:12Z</time>
      </trkpt>
      <trkpt lat="42.73377" lon="2.04716">
        <ele>1371.917</ele>
        <time>2011-08-23T09:26:20Z</time>
      </trkpt>
      <trkpt lat="42.73377" lon="2.04711">
        <ele>1372.3</ele>
        <time>2011-08-23T09:26:25Z</time>
      </trkpt>
      <trkpt lat="42.73379" lon="2.047">
        <ele>1372.837</ele>
        <time>2011-08-23T09:26:31Z</time>
      </trkpt>
      <trkpt lat="42.73381" lon="2.04692">
        <ele>1374.211</ele>
        <time>2011-08-23T09:26:36Z</time>
      </trkpt>
      <trkpt lat="42.73383" lon="2.04691">
        <ele>1374.419</ele>
        <time>2011-08-23T09:26:40Z</time>
      </trkpt>
      <trkpt lat="42.73382" lon="2.04689">
        <ele>1374.881</ele>
        <time>2011-08-23T09:26:47Z</time>
      </trkpt>
      <trkpt lat="42.73384" lon="2.04684">
        <ele>1376.375</ele>
        <time>2011-08-23T09:26:54Z</time>
      </trkpt>
      <trkpt lat="42.73385" lon="2.0468">
        <ele>1377.018</ele>
        <time>2011-08-23T09:26:59Z</time>
      </trkpt>
      <trkpt lat="42.73412" lon="2.04653">
        <ele>1376.713</ele>
        <time>2011-08-23T09:28:33Z</time>
      </trkpt>
      <trkpt lat="42.73414" lon="2.04651">
        <ele>1376.851</ele>
        <time>2011-08-23T09:28:42Z</time>
      </trkpt>
      <trkpt lat="42.73413" lon="2.04652">
        <ele>1376.842</ele>
        <time>2011-08-23T09:28:44Z</time>
      </trkpt>
      <trkpt lat="42.73403" lon="2.04662">
        <ele>1376.644</ele>
        <time>2011-08-23T09:28:49Z</time>
      </trkpt>
      <trkpt lat="42.73405" lon="2.0466">
        <ele>1376.392</ele>
        <time>2011-08-23T09:28:54Z</time>
      </trkpt>
      <trkpt lat="42.7341" lon="2.04655">
        <ele>1376.195</ele>
        <time>2011-08-23T09:29:01Z</time>
      </trkpt>
      <trkpt lat="42.73388" lon="2.04666">
        <ele>1379.066</ele>
        <time>2011-08-23T09:29:30Z</time>
      </trkpt>
      <trkpt lat="42.73388" lon="2.04665">
        <ele>1379.331</ele>
        <time>2011-08-23T09:29:32Z</time>
      </trkpt>
      <trkpt lat="42.73388" lon="2.04657">
        <ele>1380.756</ele>
        <time>2011-08-23T09:29:42Z</time>
      </trkpt>
      <trkpt lat="42.7339" lon="2.04651">
        <ele>1382.113</ele>
        <time>2011-08-23T09:29:48Z</time>
      </trkpt>
      <trkpt lat="42.7339" lon="2.04647">
        <ele>1383.06</ele>
        <time>2011-08-23T09:29:55Z</time>
      </trkpt>
      <trkpt lat="42.73392" lon="2.04642">
        <ele>1384.576</ele>
        <time>2011-08-23T09:30:00Z</time>
      </trkpt>
      <trkpt lat="42.73393" lon="2.04638">
        <ele>1385.473</ele>
        <time>2011-08-23T09:30:04Z</time>
      </trkpt>
      <trkpt lat="42.73394" lon="2.04632">
        <ele>1386.712</ele>
        <time>2011-08-23T09:30:09Z</time>
      </trkpt>
      <trkpt lat="42.73395" lon="2.04622">
        <ele>1388.205</ele>
        <time>2011-08-23T09:30:17Z</time>
      </trkpt>
      <trkpt lat="42.73394" lon="2.04618">
        <ele>1389.597</ele>
        <time>2011-08-23T09:30:22Z</time>
      </trkpt>
      <trkpt lat="42.73397" lon="2.0461">
        <ele>1391.258</ele>
        <time>2011-08-23T09:30:30Z</time>
      </trkpt>
      <trkpt lat="42.73397" lon="2.04606">
        <ele>1392.028</ele>
        <time>2011-08-23T09:30:35Z</time>
      </trkpt>
      <trkpt lat="42.73399" lon="2.04602">
        <ele>1393.598</ele>
        <time>2011-08-23T09:30:41Z</time>
      </trkpt>
      <trkpt lat="42.73399" lon="2.04594">
        <ele>1395.007</ele>
        <time>2011-08-23T09:30:49Z</time>
      </trkpt>
      <trkpt lat="42.73401" lon="2.04586">
        <ele>1396.133</ele>
        <time>2011-08-23T09:30:55Z</time>
      </trkpt>
      <trkpt lat="42.73404" lon="2.04585">
        <ele>1396.63</ele>
        <time>2011-08-23T09:31:01Z</time>
      </trkpt>
      <trkpt lat="42.73406" lon="2.04588">
        <ele>1396.952</ele>
        <time>2011-08-23T09:31:15Z</time>
      </trkpt>
      <trkpt lat="42.73408" lon="2.04595">
        <ele>1399.162</ele>
        <time>2011-08-23T09:31:24Z</time>
      </trkpt>
      <trkpt lat="42.73408" lon="2.04599">
        <ele>1399.771</ele>
        <time>2011-08-23T09:31:28Z</time>
      </trkpt>
      <trkpt lat="42.73408" lon="2.04608">
        <ele>1401.845</ele>
        <time>2011-08-23T09:31:36Z</time>
      </trkpt>
      <trkpt lat="42.73411" lon="2.04613">
        <ele>1403.252</ele>
        <time>2011-08-23T09:31:41Z</time>
      </trkpt>
      <trkpt lat="42.73415" lon="2.04614">
        <ele>1403.742</ele>
        <time>2011-08-23T09:31:44Z</time>
      </trkpt>
      <trkpt lat="42.73425" lon="2.04613">
        <ele>1405.931</ele>
        <time>2011-08-23T09:31:52Z</time>
      </trkpt>
      <trkpt lat="42.73431" lon="2.04612">
        <ele>1407.5</ele>
        <time>2011-08-23T09:31:58Z</time>
      </trkpt>
      <trkpt lat="42.73436" lon="2.04613">
        <ele>1408.499</ele>
        <time>2011-08-23T09:32:04Z</time>
      </trkpt>
      <trkpt lat="42.73438" lon="2.04612">
        <ele>1409.952</ele>
        <time>2011-08-23T09:32:09Z</time>
      </trkpt>
      <trkpt lat="42.73441" lon="2.04612">
        <ele>1410.966</ele>
        <time>2011-08-23T09:32:15Z</time>
      </trkpt>
      <trkpt lat="42.73443" lon="2.04612">
        <ele>1411.205</ele>
        <time>2011-08-23T09:32:22Z</time>
      </trkpt>
      <trkpt lat="42.73448" lon="2.04614">
        <ele>1412.321</ele>
        <time>2011-08-23T09:32:29Z</time>
      </trkpt>
      <trkpt lat="42.7345" lon="2.04618">
        <ele>1413.891</ele>
        <time>2011-08-23T09:32:36Z</time>
      </trkpt>
      <trkpt lat="42.73451" lon="2.04619">
        <ele>1414.158</ele>
        <time>2011-08-23T09:32:40Z</time>
      </trkpt>
      <trkpt lat="42.73454" lon="2.04621">
        <ele>1414.953</ele>
        <time>2011-08-23T09:32:45Z</time>
      </trkpt>
      <trkpt lat="42.73457" lon="2.04625">
        <ele>1416.627</ele>
        <time>2011-08-23T09:32:52Z</time>
      </trkpt>
      <trkpt lat="42.7346" lon="2.04628">
        <ele>1418.124</ele>
        <time>2011-08-23T09:32:58Z</time>
      </trkpt>
      <trkpt lat="42.73466" lon="2.04632">
        <ele>1419.669</ele>
        <time>2011-08-23T09:33:07Z</time>
      </trkpt>
      <trkpt lat="42.73468" lon="2.04631">
        <ele>1420.111</ele>
        <time>2011-08-23T09:33:09Z</time>
      </trkpt>
      <trkpt lat="42.73469" lon="2.04628">
        <ele>1421.691</ele>
        <time>2011-08-23T09:33:16Z</time>
      </trkpt>
      <trkpt lat="42.73469" lon="2.04626">
        <ele>1422.778</ele>
        <time>2011-08-23T09:33:21Z</time>
      </trkpt>
      <trkpt lat="42.73469" lon="2.04622">
        <ele>1423.897</ele>
        <time>2011-08-23T09:33:27Z</time>
      </trkpt>
      <trkpt lat="42.73471" lon="2.04615">
        <ele>1425.29</ele>
        <time>2011-08-23T09:33:33Z</time>
      </trkpt>
      <trkpt lat="42.73474" lon="2.04608">
        <ele>1427.251</ele>
        <time>2011-08-23T09:33:43Z</time>
      </trkpt>
      <trkpt lat="42.73475" lon="2.04604">
        <ele>1428.252</ele>
        <time>2011-08-23T09:33:48Z</time>
      </trkpt>
      <trkpt lat="42.73476" lon="2.04598">
        <ele>1429.976</ele>
        <time>2011-08-23T09:33:56Z</time>
      </trkpt>
      <trkpt lat="42.73474" lon="2.0459">
        <ele>1431.281</ele>
        <time>2011-08-23T09:34:04Z</time>
      </trkpt>
      <trkpt lat="42.73473" lon="2.04579">
        <ele>1433.394</ele>
        <time>2011-08-23T09:34:13Z</time>
      </trkpt>
      <trkpt lat="42.73469" lon="2.04569">
        <ele>1434.995</ele>
        <time>2011-08-23T09:34:22Z</time>
      </trkpt>
      <trkpt lat="42.73467" lon="2.04561">
        <ele>1436.151</ele>
        <time>2011-08-23T09:34:29Z</time>
      </trkpt>
      <trkpt lat="42.73465" lon="2.04547">
        <ele>1437.839</ele>
        <time>2011-08-23T09:34:40Z</time>
      </trkpt>
      <trkpt lat="42.73462" lon="2.04534">
        <ele>1439.195</ele>
        <time>2011-08-23T09:34:50Z</time>
      </trkpt>
      <trkpt lat="42.73461" lon="2.04522">
        <ele>1440.318</ele>
        <time>2011-08-23T09:34:59Z</time>
      </trkpt>
      <trkpt lat="42.73461" lon="2.04514">
        <ele>1442.005</ele>
        <time>2011-08-23T09:35:08Z</time>
      </trkpt>
      <trkpt lat="42.7346" lon="2.04513">
        <ele>1441.989</ele>
        <time>2011-08-23T09:35:17Z</time>
      </trkpt>
      <trkpt lat="42.73463" lon="2.04502">
        <ele>1443.21</ele>
        <time>2011-08-23T09:35:25Z</time>
      </trkpt>
      <trkpt lat="42.73464" lon="2.04492">
        <ele>1445.026</ele>
        <time>2011-08-23T09:35:32Z</time>
      </trkpt>
      <trkpt lat="42.73465" lon="2.04489">
        <ele>1446.584</ele>
        <time>2011-08-23T09:35:38Z</time>
      </trkpt>
      <trkpt lat="42.73466" lon="2.0448">
        <ele>1448.374</ele>
        <time>2011-08-23T09:35:47Z</time>
      </trkpt>
      <trkpt lat="42.73467" lon="2.04473">
        <ele>1450.115</ele>
        <time>2011-08-23T09:35:55Z</time>
      </trkpt>
      <trkpt lat="42.73469" lon="2.04465">
        <ele>1451.724</ele>
        <time>2011-08-23T09:36:03Z</time>
      </trkpt>
      <trkpt lat="42.73471" lon="2.0446">
        <ele>1452.995</ele>
        <time>2011-08-23T09:36:10Z</time>
      </trkpt>
      <trkpt lat="42.73474" lon="2.04455">
        <ele>1454.883</ele>
        <time>2011-08-23T09:36:17Z</time>
      </trkpt>
      <trkpt lat="42.73477" lon="2.0445">
        <ele>1456.521</ele>
        <time>2011-08-23T09:36:24Z</time>
      </trkpt>
      <trkpt lat="42.73478" lon="2.04441">
        <ele>1458.333</ele>
        <time>2011-08-23T09:36:33Z</time>
      </trkpt>
      <trkpt lat="42.73481" lon="2.04435">
        <ele>1460.067</ele>
        <time>2011-08-23T09:36:41Z</time>
      </trkpt>
      <trkpt lat="42.73484" lon="2.04429">
        <ele>1461.696</ele>
        <time>2011-08-23T09:36:49Z</time>
      </trkpt>
      <trkpt lat="42.73487" lon="2.04424">
        <ele>1463.256</ele>
        <time>2011-08-23T09:36:57Z</time>
      </trkpt>
      <trkpt lat="42.7349" lon="2.04421">
        <ele>1465.641</ele>
        <time>2011-08-23T09:37:06Z</time>
      </trkpt>
      <trkpt lat="42.73491" lon="2.0442">
        <ele>1466.562</ele>
        <time>2011-08-23T09:37:10Z</time>
      </trkpt>
      <trkpt lat="42.73493" lon="2.04414">
        <ele>1467.959</ele>
        <time>2011-08-23T09:37:16Z</time>
      </trkpt>
      <trkpt lat="42.73492" lon="2.04412">
        <ele>1469.571</ele>
        <time>2011-08-23T09:37:24Z</time>
      </trkpt>
      <trkpt lat="42.73492" lon="2.04407">
        <ele>1471.416</ele>
        <time>2011-08-23T09:37:31Z</time>
      </trkpt>
      <trkpt lat="42.73488" lon="2.04404">
        <ele>1472.645</ele>
        <time>2011-08-23T09:37:37Z</time>
      </trkpt>
      <trkpt lat="42.73487" lon="2.04402">
        <ele>1472.994</ele>
        <time>2011-08-23T09:37:39Z</time>
      </trkpt>
      <trkpt lat="42.73485" lon="2.044">
        <ele>1473.247</ele>
        <time>2011-08-23T09:37:42Z</time>
      </trkpt>
      <trkpt lat="42.73484" lon="2.04393">
        <ele>1473.678</ele>
        <time>2011-08-23T09:37:48Z</time>
      </trkpt>
      <trkpt lat="42.73485" lon="2.0439">
        <ele>1473.972</ele>
        <time>2011-08-23T09:37:55Z</time>
      </trkpt>
      <trkpt lat="42.73485" lon="2.04392">
        <ele>1474.039</ele>
        <time>2011-08-23T09:38:24Z</time>
      </trkpt>
      <trkpt lat="42.73483" lon="2.04385">
        <ele>1474.363</ele>
        <time>2011-08-23T09:38:29Z</time>
      </trkpt>
      <trkpt lat="42.73481" lon="2.04376">
        <ele>1475.132</ele>
        <time>2011-08-23T09:38:36Z</time>
      </trkpt>
      <trkpt lat="42.73477" lon="2.04372">
        <ele>1475.596</ele>
        <time>2011-08-23T09:38:42Z</time>
      </trkpt>
      <trkpt lat="42.73472" lon="2.04374">
        <ele>1476.288</ele>
        <time>2011-08-23T09:38:49Z</time>
      </trkpt>
      <trkpt lat="42.73472" lon="2.04367">
        <ele>1478.293</ele>
        <time>2011-08-23T09:39:12Z</time>
      </trkpt>
      <trkpt lat="42.73474" lon="2.04362">
        <ele>1480.096</ele>
        <time>2011-08-23T09:39:18Z</time>
      </trkpt>
      <trkpt lat="42.73475" lon="2.04355">
        <ele>1482.227</ele>
        <time>2011-08-23T09:39:27Z</time>
      </trkpt>
      <trkpt lat="42.73476" lon="2.04351">
        <ele>1483.695</ele>
        <time>2011-08-23T09:39:32Z</time>
      </trkpt>
      <trkpt lat="42.73476" lon="2.04346">
        <ele>1485.279</ele>
        <time>2011-08-23T09:39:38Z</time>
      </trkpt>
      <trkpt lat="42.73476" lon="2.04341">
        <ele>1487.012</ele>
        <time>2011-08-23T09:39:45Z</time>
      </trkpt>
      <trkpt lat="42.73476" lon="2.04335">
        <ele>1488.273</ele>
        <time>2011-08-23T09:39:52Z</time>
      </trkpt>
      <trkpt lat="42.73476" lon="2.04329">
        <ele>1490.423</ele>
        <time>2011-08-23T09:40:00Z</time>
      </trkpt>
      <trkpt lat="42.73477" lon="2.04326">
        <ele>1491.473</ele>
        <time>2011-08-23T09:40:05Z</time>
      </trkpt>
      <trkpt lat="42.73481" lon="2.04318">
        <ele>1493.253</ele>
        <time>2011-08-23T09:40:15Z</time>
      </trkpt>
      <trkpt lat="42.73483" lon="2.04313">
        <ele>1495.114</ele>
        <time>2011-08-23T09:40:23Z</time>
      </trkpt>
      <trkpt lat="42.73484" lon="2.04308">
        <ele>1496.331</ele>
        <time>2011-08-23T09:40:31Z</time>
      </trkpt>
      <trkpt lat="42.73486" lon="2.04304">
        <ele>1497.753</ele>
        <time>2011-08-23T09:40:37Z</time>
      </trkpt>
      <trkpt lat="42.7349" lon="2.04298">
        <ele>1498.643</ele>
        <time>2011-08-23T09:40:45Z</time>
      </trkpt>
      <trkpt lat="42.73491" lon="2.04295">
        <ele>1499.701</ele>
        <time>2011-08-23T09:40:50Z</time>
      </trkpt>
      <trkpt lat="42.73491" lon="2.0429">
        <ele>1501.726</ele>
        <time>2011-08-23T09:40:57Z</time>
      </trkpt>
      <trkpt lat="42.73493" lon="2.04286">
        <ele>1503.515</ele>
        <time>2011-08-23T09:41:04Z</time>
      </trkpt>
      <trkpt lat="42.73494" lon="2.04281">
        <ele>1505.29</ele>
        <time>2011-08-23T09:41:12Z</time>
      </trkpt>
      <trkpt lat="42.73496" lon="2.04279">
        <ele>1506.432</ele>
        <time>2011-08-23T09:41:18Z</time>
      </trkpt>
      <trkpt lat="42.73499" lon="2.04275">
        <ele>1506.999</ele>
        <time>2011-08-23T09:41:24Z</time>
      </trkpt>
      <trkpt lat="42.73502" lon="2.04271">
        <ele>1508.644</ele>
        <time>2011-08-23T09:41:32Z</time>
      </trkpt>
      <trkpt lat="42.73503" lon="2.04266">
        <ele>1509.964</ele>
        <time>2011-08-23T09:41:39Z</time>
      </trkpt>
      <trkpt lat="42.73503" lon="2.04264">
        <ele>1511.307</ele>
        <time>2011-08-23T09:41:45Z</time>
      </trkpt>
      <trkpt lat="42.73505" lon="2.04262">
        <ele>1512.232</ele>
        <time>2011-08-23T09:41:50Z</time>
      </trkpt>
      <trkpt lat="42.73511" lon="2.04258">
        <ele>1513.595</ele>
        <time>2011-08-23T09:41:57Z</time>
      </trkpt>
      <trkpt lat="42.73515" lon="2.04255">
        <ele>1515.436</ele>
        <time>2011-08-23T09:42:07Z</time>
      </trkpt>
      <trkpt lat="42.73513" lon="2.04252">
        <ele>1517.123</ele>
        <time>2011-08-23T09:42:14Z</time>
      </trkpt>
      <trkpt lat="42.73516" lon="2.04251">
        <ele>1518.371</ele>
        <time>2011-08-23T09:42:20Z</time>
      </trkpt>
      <trkpt lat="42.73522" lon="2.04249">
        <ele>1518.955</ele>
        <time>2011-08-23T09:42:27Z</time>
      </trkpt>
      <trkpt lat="42.73526" lon="2.04245">
        <ele>1521.146</ele>
        <time>2011-08-23T09:42:36Z</time>
      </trkpt>
      <trkpt lat="42.73531" lon="2.04242">
        <ele>1523.443</ele>
        <time>2011-08-23T09:42:45Z</time>
      </trkpt>
      <trkpt lat="42.73535" lon="2.04236">
        <ele>1525.546</ele>
        <time>2011-08-23T09:42:55Z</time>
      </trkpt>
      <trkpt lat="42.73536" lon="2.04232">
        <ele>1526.936</ele>
        <time>2011-08-23T09:43:01Z</time>
      </trkpt>
      <trkpt lat="42.73537" lon="2.04229">
        <ele>1528.198</ele>
        <time>2011-08-23T09:43:06Z</time>
      </trkpt>
      <trkpt lat="42.73538" lon="2.04225">
        <ele>1529.525</ele>
        <time>2011-08-23T09:43:13Z</time>
      </trkpt>
      <trkpt lat="42.73539" lon="2.04221">
        <ele>1531.004</ele>
        <time>2011-08-23T09:43:20Z</time>
      </trkpt>
      <trkpt lat="42.7354" lon="2.04217">
        <ele>1532.715</ele>
        <time>2011-08-23T09:43:26Z</time>
      </trkpt>
      <trkpt lat="42.73543" lon="2.0421">
        <ele>1534.349</ele>
        <time>2011-08-23T09:43:35Z</time>
      </trkpt>
      <trkpt lat="42.73545" lon="2.04202">
        <ele>1536.269</ele>
        <time>2011-08-23T09:43:44Z</time>
      </trkpt>
      <trkpt lat="42.73546" lon="2.04196">
        <ele>1538.284</ele>
        <time>2011-08-23T09:43:53Z</time>
      </trkpt>
      <trkpt lat="42.73547" lon="2.0419">
        <ele>1539.959</ele>
        <time>2011-08-23T09:44:02Z</time>
      </trkpt>
      <trkpt lat="42.73548" lon="2.04185">
        <ele>1541.127</ele>
        <time>2011-08-23T09:44:09Z</time>
      </trkpt>
      <trkpt lat="42.73552" lon="2.04175">
        <ele>1543.54</ele>
        <time>2011-08-23T09:44:21Z</time>
      </trkpt>
      <trkpt lat="42.73554" lon="2.04168">
        <ele>1545.137</ele>
        <time>2011-08-23T09:44:29Z</time>
      </trkpt>
      <trkpt lat="42.73556" lon="2.04165">
        <ele>1546.039</ele>
        <time>2011-08-23T09:44:38Z</time>
      </trkpt>
      <trkpt lat="42.73558" lon="2.04159">
        <ele>1547.389</ele>
        <time>2011-08-23T09:44:46Z</time>
      </trkpt>
      <trkpt lat="42.73559" lon="2.04157">
        <ele>1547.666</ele>
        <time>2011-08-23T09:44:48Z</time>
      </trkpt>
      <trkpt lat="42.73564" lon="2.04151">
        <ele>1548.317</ele>
        <time>2011-08-23T09:44:55Z</time>
      </trkpt>
      <trkpt lat="42.73566" lon="2.04147">
        <ele>1549.173</ele>
        <time>2011-08-23T09:45:00Z</time>
      </trkpt>
      <trkpt lat="42.73567" lon="2.04141">
        <ele>1551.317</ele>
        <time>2011-08-23T09:45:09Z</time>
      </trkpt>
      <trkpt lat="42.73569" lon="2.04137">
        <ele>1552.773</ele>
        <time>2011-08-23T09:45:15Z</time>
      </trkpt>
      <trkpt lat="42.73571" lon="2.0413">
        <ele>1554.786</ele>
        <time>2011-08-23T09:45:24Z</time>
      </trkpt>
      <trkpt lat="42.7357" lon="2.04125">
        <ele>1557.001</ele>
        <time>2011-08-23T09:45:33Z</time>
      </trkpt>
      <trkpt lat="42.73573" lon="2.04122">
        <ele>1558.611</ele>
        <time>2011-08-23T09:45:41Z</time>
      </trkpt>
      <trkpt lat="42.73577" lon="2.04116">
        <ele>1559.537</ele>
        <time>2011-08-23T09:45:48Z</time>
      </trkpt>
      <trkpt lat="42.7358" lon="2.04109">
        <ele>1561.371</ele>
        <time>2011-08-23T09:45:57Z</time>
      </trkpt>
      <trkpt lat="42.73581" lon="2.04106">
        <ele>1563.063</ele>
        <time>2011-08-23T09:46:03Z</time>
      </trkpt>
      <trkpt lat="42.73583" lon="2.04102">
        <ele>1564.055</ele>
        <time>2011-08-23T09:46:10Z</time>
      </trkpt>
      <trkpt lat="42.73585" lon="2.04097">
        <ele>1565.595</ele>
        <time>2011-08-23T09:46:19Z</time>
      </trkpt>
      <trkpt lat="42.73588" lon="2.04091">
        <ele>1567.419</ele>
        <time>2011-08-23T09:46:28Z</time>
      </trkpt>
      <trkpt lat="42.73589" lon="2.04086">
        <ele>1568.587</ele>
        <time>2011-08-23T09:46:34Z</time>
      </trkpt>
      <trkpt lat="42.73589" lon="2.04082">
        <ele>1569.994</ele>
        <time>2011-08-23T09:46:40Z</time>
      </trkpt>
      <trkpt lat="42.73591" lon="2.04077">
        <ele>1571.458</ele>
        <time>2011-08-23T09:46:47Z</time>
      </trkpt>
      <trkpt lat="42.73593" lon="2.04074">
        <ele>1572.318</ele>
        <time>2011-08-23T09:46:51Z</time>
      </trkpt>
      <trkpt lat="42.73598" lon="2.04065">
        <ele>1573.576</ele>
        <time>2011-08-23T09:47:01Z</time>
      </trkpt>
      <trkpt lat="42.736" lon="2.04056">
        <ele>1575.231</ele>
        <time>2011-08-23T09:47:10Z</time>
      </trkpt>
      <trkpt lat="42.73602" lon="2.04044">
        <ele>1577.75</ele>
        <time>2011-08-23T09:47:22Z</time>
      </trkpt>
      <trkpt lat="42.73604" lon="2.04036">
        <ele>1579.48</ele>
        <time>2011-08-23T09:47:31Z</time>
      </trkpt>
      <trkpt lat="42.73605" lon="2.04028">
        <ele>1581.606</ele>
        <time>2011-08-23T09:47:40Z</time>
      </trkpt>
      <trkpt lat="42.73604" lon="2.04023">
        <ele>1583.163</ele>
        <time>2011-08-23T09:47:48Z</time>
      </trkpt>
      <trkpt lat="42.73608" lon="2.04018">
        <ele>1583.161</ele>
        <time>2011-08-23T09:47:57Z</time>
      </trkpt>
      <trkpt lat="42.7361" lon="2.04009">
        <ele>1582.845</ele>
        <time>2011-08-23T09:48:05Z</time>
      </trkpt>
      <trkpt lat="42.7361" lon="2.04002">
        <ele>1583.027</ele>
        <time>2011-08-23T09:48:12Z</time>
      </trkpt>
      <trkpt lat="42.73611" lon="2.04">
        <ele>1583.495</ele>
        <time>2011-08-23T09:48:16Z</time>
      </trkpt>
      <trkpt lat="42.73613" lon="2.03998">
        <ele>1584.322</ele>
        <time>2011-08-23T09:48:23Z</time>
      </trkpt>
      <trkpt lat="42.73613" lon="2.03995">
        <ele>1586.33</ele>
        <time>2011-08-23T09:48:42Z</time>
      </trkpt>
      <trkpt lat="42.73613" lon="2.0399">
        <ele>1588.042</ele>
        <time>2011-08-23T09:48:49Z</time>
      </trkpt>
      <trkpt lat="42.73612" lon="2.03982">
        <ele>1590.337</ele>
        <time>2011-08-23T09:48:58Z</time>
      </trkpt>
      <trkpt lat="42.73612" lon="2.03978">
        <ele>1591.878</ele>
        <time>2011-08-23T09:49:04Z</time>
      </trkpt>
      <trkpt lat="42.73613" lon="2.03974">
        <ele>1593.334</ele>
        <time>2011-08-23T09:49:11Z</time>
      </trkpt>
      <trkpt lat="42.73613" lon="2.03969">
        <ele>1595.192</ele>
        <time>2011-08-23T09:49:18Z</time>
      </trkpt>
      <trkpt lat="42.73611" lon="2.03962">
        <ele>1596.808</ele>
        <time>2011-08-23T09:49:26Z</time>
      </trkpt>
      <trkpt lat="42.73612" lon="2.03958">
        <ele>1597.97</ele>
        <time>2011-08-23T09:49:32Z</time>
      </trkpt>
      <trkpt lat="42.73611" lon="2.0395">
        <ele>1598.999</ele>
        <time>2011-08-23T09:49:40Z</time>
      </trkpt>
      <trkpt lat="42.7361" lon="2.03949">
        <ele>1599.234</ele>
        <time>2011-08-23T09:49:41Z</time>
      </trkpt>
      <trkpt lat="42.73607" lon="2.03943">
        <ele>1600.618</ele>
        <time>2011-08-23T09:49:50Z</time>
      </trkpt>
      <trkpt lat="42.73606" lon="2.03942">
        <ele>1600.584</ele>
        <time>2011-08-23T09:50:08Z</time>
      </trkpt>
      <trkpt lat="42.73603" lon="2.03944">
        <ele>1600.904</ele>
        <time>2011-08-23T09:50:16Z</time>
      </trkpt>
      <trkpt lat="42.73598" lon="2.03951">
        <ele>1601.524</ele>
        <time>2011-08-23T09:50:25Z</time>
      </trkpt>
      <trkpt lat="42.73596" lon="2.03955">
        <ele>1602.824</ele>
        <time>2011-08-23T09:50:32Z</time>
      </trkpt>
      <trkpt lat="42.73594" lon="2.03955">
        <ele>1603.087</ele>
        <time>2011-08-23T09:50:35Z</time>
      </trkpt>
      <trkpt lat="42.73592" lon="2.0395">
        <ele>1604.943</ele>
        <time>2011-08-23T09:50:43Z</time>
      </trkpt>
      <trkpt lat="42.73593" lon="2.03949">
        <ele>1605.224</ele>
        <time>2011-08-23T09:50:45Z</time>
      </trkpt>
      <trkpt lat="42.73593" lon="2.03939">
        <ele>1606.207</ele>
        <time>2011-08-23T09:50:54Z</time>
      </trkpt>
      <trkpt lat="42.73594" lon="2.03936">
        <ele>1606.642</ele>
        <time>2011-08-23T09:50:57Z</time>
      </trkpt>
      <trkpt lat="42.73597" lon="2.03926">
        <ele>1608.441</ele>
        <time>2011-08-23T09:51:08Z</time>
      </trkpt>
      <trkpt lat="42.73597" lon="2.0392">
        <ele>1610.124</ele>
        <time>2011-08-23T09:51:16Z</time>
      </trkpt>
      <trkpt lat="42.73597" lon="2.03912">
        <ele>1611.831</ele>
        <time>2011-08-23T09:51:24Z</time>
      </trkpt>
      <trkpt lat="42.73597" lon="2.03908">
        <ele>1613.167</ele>
        <time>2011-08-23T09:51:31Z</time>
      </trkpt>
      <trkpt lat="42.73596" lon="2.03903">
        <ele>1614.191</ele>
        <time>2011-08-23T09:51:37Z</time>
      </trkpt>
      <trkpt lat="42.73597" lon="2.03897">
        <ele>1615.498</ele>
        <time>2011-08-23T09:51:45Z</time>
      </trkpt>
      <trkpt lat="42.736" lon="2.03893">
        <ele>1616.417</ele>
        <time>2011-08-23T09:51:54Z</time>
      </trkpt>
      <trkpt lat="42.736" lon="2.03888">
        <ele>1618.035</ele>
        <time>2011-08-23T09:52:05Z</time>
      </trkpt>
      <trkpt lat="42.73599" lon="2.03884">
        <ele>1619.648</ele>
        <time>2011-08-23T09:52:12Z</time>
      </trkpt>
      <trkpt lat="42.73599" lon="2.03877">
        <ele>1620.905</ele>
        <time>2011-08-23T09:52:18Z</time>
      </trkpt>
      <trkpt lat="42.73602" lon="2.03867">
        <ele>1621.441</ele>
        <time>2011-08-23T09:52:27Z</time>
      </trkpt>
      <trkpt lat="42.73602" lon="2.03865">
        <ele>1621.294</ele>
        <time>2011-08-23T09:52:29Z</time>
      </trkpt>
      <trkpt lat="42.73605" lon="2.03863">
        <ele>1621.107</ele>
        <time>2011-08-23T09:52:33Z</time>
      </trkpt>
      <trkpt lat="42.73606" lon="2.03859">
        <ele>1622.573</ele>
        <time>2011-08-23T09:52:39Z</time>
      </trkpt>
      <trkpt lat="42.73605" lon="2.03853">
        <ele>1624.262</ele>
        <time>2011-08-23T09:52:48Z</time>
      </trkpt>
      <trkpt lat="42.73603" lon="2.03848">
        <ele>1626.14</ele>
        <time>2011-08-23T09:52:56Z</time>
      </trkpt>
      <trkpt lat="42.73606" lon="2.03842">
        <ele>1628.016</ele>
        <time>2011-08-23T09:53:05Z</time>
      </trkpt>
      <trkpt lat="42.73607" lon="2.03838">
        <ele>1630.109</ele>
        <time>2011-08-23T09:53:13Z</time>
      </trkpt>
      <trkpt lat="42.73606" lon="2.03834">
        <ele>1631.493</ele>
        <time>2011-08-23T09:53:18Z</time>
      </trkpt>
      <trkpt lat="42.73603" lon="2.03825">
        <ele>1633.927</ele>
        <time>2011-08-23T09:53:29Z</time>
      </trkpt>
      <trkpt lat="42.73598" lon="2.03818">
        <ele>1635.459</ele>
        <time>2011-08-23T09:53:38Z</time>
      </trkpt>
      <trkpt lat="42.73595" lon="2.03812">
        <ele>1636.93</ele>
        <time>2011-08-23T09:53:45Z</time>
      </trkpt>
      <trkpt lat="42.7359" lon="2.03807">
        <ele>1637.726</ele>
        <time>2011-08-23T09:53:52Z</time>
      </trkpt>
      <trkpt lat="42.73589" lon="2.03804">
        <ele>1638.649</ele>
        <time>2011-08-23T09:53:57Z</time>
      </trkpt>
      <trkpt lat="42.73591" lon="2.03798">
        <ele>1640.269</ele>
        <time>2011-08-23T09:54:05Z</time>
      </trkpt>
      <trkpt lat="42.73592" lon="2.03794">
        <ele>1641.742</ele>
        <time>2011-08-23T09:54:11Z</time>
      </trkpt>
      <trkpt lat="42.7359" lon="2.0379">
        <ele>1642.96</ele>
        <time>2011-08-23T09:54:17Z</time>
      </trkpt>
      <trkpt lat="42.73592" lon="2.03785">
        <ele>1644.375</ele>
        <time>2011-08-23T09:54:24Z</time>
      </trkpt>
      <trkpt lat="42.73593" lon="2.03777">
        <ele>1646.33</ele>
        <time>2011-08-23T09:54:33Z</time>
      </trkpt>
      <trkpt lat="42.73595" lon="2.03776">
        <ele>1647.082</ele>
        <time>2011-08-23T09:54:37Z</time>
      </trkpt>
      <trkpt lat="42.736" lon="2.03771">
        <ele>1648.228</ele>
        <time>2011-08-23T09:54:45Z</time>
      </trkpt>
      <trkpt lat="42.736" lon="2.03769">
        <ele>1648.163</ele>
        <time>2011-08-23T09:54:54Z</time>
      </trkpt>
      <trkpt lat="42.73599" lon="2.03763">
        <ele>1649.285</ele>
        <time>2011-08-23T09:55:01Z</time>
      </trkpt>
      <trkpt lat="42.73597" lon="2.03761">
        <ele>1649.943</ele>
        <time>2011-08-23T09:55:07Z</time>
      </trkpt>
      <trkpt lat="42.73598" lon="2.03756">
        <ele>1650.751</ele>
        <time>2011-08-23T09:55:14Z</time>
      </trkpt>
      <trkpt lat="42.73598" lon="2.03753">
        <ele>1651.708</ele>
        <time>2011-08-23T09:55:18Z</time>
      </trkpt>
      <trkpt lat="42.73597" lon="2.03749">
        <ele>1653.253</ele>
        <time>2011-08-23T09:55:24Z</time>
      </trkpt>
      <trkpt lat="42.73598" lon="2.03742">
        <ele>1654.755</ele>
        <time>2011-08-23T09:55:32Z</time>
      </trkpt>
      <trkpt lat="42.73599" lon="2.03738">
        <ele>1655.509</ele>
        <time>2011-08-23T09:55:37Z</time>
      </trkpt>
      <trkpt lat="42.73601" lon="2.03731">
        <ele>1657.535</ele>
        <time>2011-08-23T09:55:45Z</time>
      </trkpt>
      <trkpt lat="42.73602" lon="2.03726">
        <ele>1659.37</ele>
        <time>2011-08-23T09:55:53Z</time>
      </trkpt>
      <trkpt lat="42.73601" lon="2.03725">
        <ele>1659.7</ele>
        <time>2011-08-23T09:55:59Z</time>
      </trkpt>
      <trkpt lat="42.73592" lon="2.03728">
        <ele>1660.975</ele>
        <time>2011-08-23T09:56:08Z</time>
      </trkpt>
      <trkpt lat="42.73583" lon="2.03728">
        <ele>1661.389</ele>
        <time>2011-08-23T09:56:15Z</time>
      </trkpt>
      <trkpt lat="42.7358" lon="2.03729">
        <ele>1662.12</ele>
        <time>2011-08-23T09:56:21Z</time>
      </trkpt>
      <trkpt lat="42.73579" lon="2.03729">
        <ele>1662.175</ele>
        <time>2011-08-23T09:56:22Z</time>
      </trkpt>
      <trkpt lat="42.73573" lon="2.03729">
        <ele>1663.314</ele>
        <time>2011-08-23T09:56:31Z</time>
      </trkpt>
      <trkpt lat="42.7357" lon="2.03727">
        <ele>1664.015</ele>
        <time>2011-08-23T09:56:38Z</time>
      </trkpt>
      <trkpt lat="42.73566" lon="2.03722">
        <ele>1665.401</ele>
        <time>2011-08-23T09:56:47Z</time>
      </trkpt>
      <trkpt lat="42.73568" lon="2.03717">
        <ele>1666.333</ele>
        <time>2011-08-23T09:56:53Z</time>
      </trkpt>
      <trkpt lat="42.73571" lon="2.0371">
        <ele>1667.557</ele>
        <time>2011-08-23T09:57:02Z</time>
      </trkpt>
      <trkpt lat="42.73573" lon="2.03701">
        <ele>1669.015</ele>
        <time>2011-08-23T09:57:11Z</time>
      </trkpt>
      <trkpt lat="42.73576" lon="2.03696">
        <ele>1671.118</ele>
        <time>2011-08-23T09:57:19Z</time>
      </trkpt>
      <trkpt lat="42.7358" lon="2.0369">
        <ele>1672.044</ele>
        <time>2011-08-23T09:57:27Z</time>
      </trkpt>
      <trkpt lat="42.73585" lon="2.03682">
        <ele>1673.141</ele>
        <time>2011-08-23T09:57:35Z</time>
      </trkpt>
      <trkpt lat="42.7359" lon="2.03675">
        <ele>1674.53</ele>
        <time>2011-08-23T09:57:44Z</time>
      </trkpt>
      <trkpt lat="42.73594" lon="2.03667">
        <ele>1676.436</ele>
        <time>2011-08-23T09:57:54Z</time>
      </trkpt>
      <trkpt lat="42.73598" lon="2.03662">
        <ele>1676.9</ele>
        <time>2011-08-23T09:58:02Z</time>
      </trkpt>
      <trkpt lat="42.73603" lon="2.03656">
        <ele>1678.44</ele>
        <time>2011-08-23T09:58:10Z</time>
      </trkpt>
      <trkpt lat="42.73604" lon="2.03653">
        <ele>1679.43</ele>
        <time>2011-08-23T09:58:18Z</time>
      </trkpt>
      <trkpt lat="42.73604" lon="2.03651">
        <ele>1679.348</ele>
        <time>2011-08-23T09:58:30Z</time>
      </trkpt>
      <trkpt lat="42.73606" lon="2.03643">
        <ele>1680.265</ele>
        <time>2011-08-23T09:58:37Z</time>
      </trkpt>
      <trkpt lat="42.73611" lon="2.03635">
        <ele>1681.965</ele>
        <time>2011-08-23T09:58:46Z</time>
      </trkpt>
      <trkpt lat="42.73618" lon="2.0363">
        <ele>1683.562</ele>
        <time>2011-08-23T09:58:55Z</time>
      </trkpt>
      <trkpt lat="42.73623" lon="2.03625">
        <ele>1685.133</ele>
        <time>2011-08-23T09:59:04Z</time>
      </trkpt>
      <trkpt lat="42.73626" lon="2.03619">
        <ele>1687.122</ele>
        <time>2011-08-23T09:59:12Z</time>
      </trkpt>
      <trkpt lat="42.73628" lon="2.0361">
        <ele>1689.35</ele>
        <time>2011-08-23T09:59:22Z</time>
      </trkpt>
      <trkpt lat="42.73629" lon="2.03605">
        <ele>1690.992</ele>
        <time>2011-08-23T09:59:29Z</time>
      </trkpt>
      <trkpt lat="42.73629" lon="2.03602">
        <ele>1692.084</ele>
        <time>2011-08-23T09:59:36Z</time>
      </trkpt>
      <trkpt lat="42.73627" lon="2.03598">
        <ele>1693.012</ele>
        <time>2011-08-23T09:59:42Z</time>
      </trkpt>
      <trkpt lat="42.73629" lon="2.03597">
        <ele>1693.948</ele>
        <time>2011-08-23T09:59:49Z</time>
      </trkpt>
      <trkpt lat="42.73634" lon="2.03595">
        <ele>1694.218</ele>
        <time>2011-08-23T09:59:55Z</time>
      </trkpt>
      <trkpt lat="42.73638" lon="2.0359">
        <ele>1695.779</ele>
        <time>2011-08-23T10:00:03Z</time>
      </trkpt>
      <trkpt lat="42.73642" lon="2.03585">
        <ele>1696.63</ele>
        <time>2011-08-23T10:00:11Z</time>
      </trkpt>
      <trkpt lat="42.73647" lon="2.0358">
        <ele>1697.638</ele>
        <time>2011-08-23T10:00:19Z</time>
      </trkpt>
      <trkpt lat="42.7365" lon="2.03577">
        <ele>1698.545</ele>
        <time>2011-08-23T10:00:25Z</time>
      </trkpt>
      <trkpt lat="42.73653" lon="2.03572">
        <ele>1699.979</ele>
        <time>2011-08-23T10:00:33Z</time>
      </trkpt>
      <trkpt lat="42.73657" lon="2.03566">
        <ele>1701.924</ele>
        <time>2011-08-23T10:00:43Z</time>
      </trkpt>
      <trkpt lat="42.73659" lon="2.0356">
        <ele>1703.691</ele>
        <time>2011-08-23T10:00:51Z</time>
      </trkpt>
      <trkpt lat="42.73661" lon="2.03554">
        <ele>1704.941</ele>
        <time>2011-08-23T10:00:59Z</time>
      </trkpt>
      <trkpt lat="42.73662" lon="2.03552">
        <ele>1705.762</ele>
        <time>2011-08-23T10:01:04Z</time>
      </trkpt>
      <trkpt lat="42.73663" lon="2.03547">
        <ele>1706.532</ele>
        <time>2011-08-23T10:02:53Z</time>
      </trkpt>
      <trkpt lat="42.73665" lon="2.03543">
        <ele>1708.014</ele>
        <time>2011-08-23T10:03:05Z</time>
      </trkpt>
      <trkpt lat="42.73666" lon="2.03542">
        <ele>1708.321</ele>
        <time>2011-08-23T10:03:07Z</time>
      </trkpt>
      <trkpt lat="42.73668" lon="2.03533">
        <ele>1710.789</ele>
        <time>2011-08-23T10:03:17Z</time>
      </trkpt>
      <trkpt lat="42.7367" lon="2.03527">
        <ele>1712.985</ele>
        <time>2011-08-23T10:03:25Z</time>
      </trkpt>
      <trkpt lat="42.73672" lon="2.03526">
        <ele>1713.435</ele>
        <time>2011-08-23T10:03:27Z</time>
      </trkpt>
      <trkpt lat="42.73675" lon="2.0352">
        <ele>1714.922</ele>
        <time>2011-08-23T10:03:36Z</time>
      </trkpt>
      <trkpt lat="42.73679" lon="2.03515">
        <ele>1716.684</ele>
        <time>2011-08-23T10:03:44Z</time>
      </trkpt>
      <trkpt lat="42.73682" lon="2.03507">
        <ele>1717.926</ele>
        <time>2011-08-23T10:03:52Z</time>
      </trkpt>
      <trkpt lat="42.73684" lon="2.03505">
        <ele>1718.552</ele>
        <time>2011-08-23T10:03:56Z</time>
      </trkpt>
      <trkpt lat="42.73687" lon="2.03498">
        <ele>1720.376</ele>
        <time>2011-08-23T10:04:04Z</time>
      </trkpt>
      <trkpt lat="42.7369" lon="2.03491">
        <ele>1721.826</ele>
        <time>2011-08-23T10:04:12Z</time>
      </trkpt>
      <trkpt lat="42.73692" lon="2.03485">
        <ele>1723.323</ele>
        <time>2011-08-23T10:04:19Z</time>
      </trkpt>
      <trkpt lat="42.73694" lon="2.03481">
        <ele>1724.491</ele>
        <time>2011-08-23T10:04:26Z</time>
      </trkpt>
      <trkpt lat="42.73693" lon="2.03475">
        <ele>1725.756</ele>
        <time>2011-08-23T10:04:34Z</time>
      </trkpt>
      <trkpt lat="42.73694" lon="2.03468">
        <ele>1727.56</ele>
        <time>2011-08-23T10:04:42Z</time>
      </trkpt>
      <trkpt lat="42.73696" lon="2.03461">
        <ele>1729.295</ele>
        <time>2011-08-23T10:04:51Z</time>
      </trkpt>
      <trkpt lat="42.73698" lon="2.03455">
        <ele>1730.944</ele>
        <time>2011-08-23T10:04:59Z</time>
      </trkpt>
      <trkpt lat="42.73697" lon="2.0345">
        <ele>1733.102</ele>
        <time>2011-08-23T10:05:07Z</time>
      </trkpt>
      <trkpt lat="42.73698" lon="2.03445">
        <ele>1733.977</ele>
        <time>2011-08-23T10:05:14Z</time>
      </trkpt>
      <trkpt lat="42.73698" lon="2.03438">
        <ele>1736.185</ele>
        <time>2011-08-23T10:05:23Z</time>
      </trkpt>
      <trkpt lat="42.737" lon="2.03433">
        <ele>1737.529</ele>
        <time>2011-08-23T10:05:30Z</time>
      </trkpt>
      <trkpt lat="42.73702" lon="2.03427">
        <ele>1739.21</ele>
        <time>2011-08-23T10:05:40Z</time>
      </trkpt>
      <trkpt lat="42.73704" lon="2.03422">
        <ele>1740.246</ele>
        <time>2011-08-23T10:05:47Z</time>
      </trkpt>
      <trkpt lat="42.73706" lon="2.03417">
        <ele>1741.457</ele>
        <time>2011-08-23T10:05:54Z</time>
      </trkpt>
      <trkpt lat="42.73709" lon="2.03411">
        <ele>1743.109</ele>
        <time>2011-08-23T10:06:03Z</time>
      </trkpt>
      <trkpt lat="42.73713" lon="2.03406">
        <ele>1744.544</ele>
        <time>2011-08-23T10:06:11Z</time>
      </trkpt>
      <trkpt lat="42.73715" lon="2.03401">
        <ele>1746.259</ele>
        <time>2011-08-23T10:06:20Z</time>
      </trkpt>
      <trkpt lat="42.73718" lon="2.03397">
        <ele>1747.676</ele>
        <time>2011-08-23T10:06:27Z</time>
      </trkpt>
      <trkpt lat="42.73722" lon="2.03392">
        <ele>1748.849</ele>
        <time>2011-08-23T10:06:36Z</time>
      </trkpt>
      <trkpt lat="42.73725" lon="2.03388">
        <ele>1750.755</ele>
        <time>2011-08-23T10:06:45Z</time>
      </trkpt>
      <trkpt lat="42.73727" lon="2.03383">
        <ele>1752.131</ele>
        <time>2011-08-23T10:06:53Z</time>
      </trkpt>
      <trkpt lat="42.73728" lon="2.03379">
        <ele>1753.238</ele>
        <time>2011-08-23T10:06:58Z</time>
      </trkpt>
      <trkpt lat="42.73728" lon="2.03372">
        <ele>1755.254</ele>
        <time>2011-08-23T10:07:08Z</time>
      </trkpt>
      <trkpt lat="42.73727" lon="2.03366">
        <ele>1756.781</ele>
        <time>2011-08-23T10:07:16Z</time>
      </trkpt>
      <trkpt lat="42.73727" lon="2.0336">
        <ele>1758.097</ele>
        <time>2011-08-23T10:07:24Z</time>
      </trkpt>
      <trkpt lat="42.73726" lon="2.03355">
        <ele>1759.725</ele>
        <time>2011-08-23T10:07:32Z</time>
      </trkpt>
      <trkpt lat="42.73725" lon="2.03352">
        <ele>1761.02</ele>
        <time>2011-08-23T10:07:39Z</time>
      </trkpt>
      <trkpt lat="42.73724" lon="2.03343">
        <ele>1761.634</ele>
        <time>2011-08-23T10:08:24Z</time>
      </trkpt>
      <trkpt lat="42.73724" lon="2.03339">
        <ele>1762.361</ele>
        <time>2011-08-23T10:08:29Z</time>
      </trkpt>
      <trkpt lat="42.73724" lon="2.03333">
        <ele>1763.612</ele>
        <time>2011-08-23T10:08:36Z</time>
      </trkpt>
      <trkpt lat="42.73726" lon="2.0333">
        <ele>1764.809</ele>
        <time>2011-08-23T10:08:42Z</time>
      </trkpt>
      <trkpt lat="42.73731" lon="2.03326">
        <ele>1767.038</ele>
        <time>2011-08-23T10:08:52Z</time>
      </trkpt>
      <trkpt lat="42.73734" lon="2.03325">
        <ele>1768.588</ele>
        <time>2011-08-23T10:08:59Z</time>
      </trkpt>
      <trkpt lat="42.73736" lon="2.03326">
        <ele>1769.704</ele>
        <time>2011-08-23T10:09:03Z</time>
      </trkpt>
      <trkpt lat="42.7374" lon="2.03326">
        <ele>1771.099</ele>
        <time>2011-08-23T10:09:09Z</time>
      </trkpt>
      <trkpt lat="42.73743" lon="2.03326">
        <ele>1772.053</ele>
        <time>2011-08-23T10:09:14Z</time>
      </trkpt>
      <trkpt lat="42.73746" lon="2.03324">
        <ele>1773.265</ele>
        <time>2011-08-23T10:09:20Z</time>
      </trkpt>
      <trkpt lat="42.7375" lon="2.0332">
        <ele>1774.852</ele>
        <time>2011-08-23T10:09:28Z</time>
      </trkpt>
      <trkpt lat="42.73752" lon="2.03319">
        <ele>1776.555</ele>
        <time>2011-08-23T10:09:36Z</time>
      </trkpt>
      <trkpt lat="42.73754" lon="2.03314">
        <ele>1778.497</ele>
        <time>2011-08-23T10:09:48Z</time>
      </trkpt>
      <trkpt lat="42.73754" lon="2.0331">
        <ele>1779.666</ele>
        <time>2011-08-23T10:09:54Z</time>
      </trkpt>
      <trkpt lat="42.73756" lon="2.03308">
        <ele>1780.804</ele>
        <time>2011-08-23T10:09:59Z</time>
      </trkpt>
      <trkpt lat="42.73757" lon="2.03304">
        <ele>1782.556</ele>
        <time>2011-08-23T10:10:05Z</time>
      </trkpt>
      <trkpt lat="42.73757" lon="2.03301">
        <ele>1784.242</ele>
        <time>2011-08-23T10:10:11Z</time>
      </trkpt>
      <trkpt lat="42.73758" lon="2.03297">
        <ele>1785.383</ele>
        <time>2011-08-23T10:10:18Z</time>
      </trkpt>
      <trkpt lat="42.73759" lon="2.03291">
        <ele>1787.709</ele>
        <time>2011-08-23T10:10:27Z</time>
      </trkpt>
      <trkpt lat="42.73758" lon="2.03287">
        <ele>1788.781</ele>
        <time>2011-08-23T10:10:33Z</time>
      </trkpt>
      <trkpt lat="42.73758" lon="2.0328">
        <ele>1789.907</ele>
        <time>2011-08-23T10:10:42Z</time>
      </trkpt>
      <trkpt lat="42.73758" lon="2.03275">
        <ele>1791.145</ele>
        <time>2011-08-23T10:10:48Z</time>
      </trkpt>
      <trkpt lat="42.73755" lon="2.03267">
        <ele>1792.474</ele>
        <time>2011-08-23T10:10:57Z</time>
      </trkpt>
      <trkpt lat="42.73754" lon="2.03265">
        <ele>1792.525</ele>
        <time>2011-08-23T10:10:59Z</time>
      </trkpt>
      <trkpt lat="42.73751" lon="2.03253">
        <ele>1793.282</ele>
        <time>2011-08-23T10:11:09Z</time>
      </trkpt>
      <trkpt lat="42.73747" lon="2.03242">
        <ele>1794.371</ele>
        <time>2011-08-23T10:11:20Z</time>
      </trkpt>
      <trkpt lat="42.73742" lon="2.03233">
        <ele>1796.717</ele>
        <time>2011-08-23T10:11:30Z</time>
      </trkpt>
      <trkpt lat="42.73737" lon="2.03227">
        <ele>1797.813</ele>
        <time>2011-08-23T10:11:37Z</time>
      </trkpt>
      <trkpt lat="42.73734" lon="2.03223">
        <ele>1799.319</ele>
        <time>2011-08-23T10:11:43Z</time>
      </trkpt>
      <trkpt lat="42.7373" lon="2.03218">
        <ele>1800.641</ele>
        <time>2011-08-23T10:11:49Z</time>
      </trkpt>
      <trkpt lat="42.73725" lon="2.03213">
        <ele>1802.003</ele>
        <time>2011-08-23T10:11:58Z</time>
      </trkpt>
      <trkpt lat="42.73725" lon="2.03206">
        <ele>1804.191</ele>
        <time>2011-08-23T10:12:07Z</time>
      </trkpt>
      <trkpt lat="42.73724" lon="2.03201">
        <ele>1805.273</ele>
        <time>2011-08-23T10:12:15Z</time>
      </trkpt>
      <trkpt lat="42.73725" lon="2.03197">
        <ele>1805.933</ele>
        <time>2011-08-23T10:12:32Z</time>
      </trkpt>
      <trkpt lat="42.73725" lon="2.03192">
        <ele>1807.335</ele>
        <time>2011-08-23T10:12:41Z</time>
      </trkpt>
      <trkpt lat="42.73725" lon="2.03193">
        <ele>1807.485</ele>
        <time>2011-08-23T10:12:42Z</time>
      </trkpt>
      <trkpt lat="42.7373" lon="2.03189">
        <ele>1808.21</ele>
        <time>2011-08-23T10:12:49Z</time>
      </trkpt>
      <trkpt lat="42.73733" lon="2.03183">
        <ele>1809.779</ele>
        <time>2011-08-23T10:12:57Z</time>
      </trkpt>
      <trkpt lat="42.73731" lon="2.03176">
        <ele>1811.508</ele>
        <time>2011-08-23T10:13:04Z</time>
      </trkpt>
      <trkpt lat="42.73728" lon="2.03172">
        <ele>1812.283</ele>
        <time>2011-08-23T10:13:10Z</time>
      </trkpt>
      <trkpt lat="42.73724" lon="2.03163">
        <ele>1814.154</ele>
        <time>2011-08-23T10:13:21Z</time>
      </trkpt>
      <trkpt lat="42.73722" lon="2.03157">
        <ele>1815.328</ele>
        <time>2011-08-23T10:13:28Z</time>
      </trkpt>
      <trkpt lat="42.73716" lon="2.03152">
        <ele>1816.507</ele>
        <time>2011-08-23T10:13:37Z</time>
      </trkpt>
      <trkpt lat="42.73713" lon="2.03145">
        <ele>1818.08</ele>
        <time>2011-08-23T10:13:46Z</time>
      </trkpt>
      <trkpt lat="42.7371" lon="2.03138">
        <ele>1819.866</ele>
        <time>2011-08-23T10:13:56Z</time>
      </trkpt>
      <trkpt lat="42.73709" lon="2.03135">
        <ele>1820.549</ele>
        <time>2011-08-23T10:14:00Z</time>
      </trkpt>
      <trkpt lat="42.73703" lon="2.03132">
        <ele>1821.401</ele>
        <time>2011-08-23T10:14:08Z</time>
      </trkpt>
      <trkpt lat="42.73704" lon="2.03132">
        <ele>1821.539</ele>
        <time>2011-08-23T10:14:30Z</time>
      </trkpt>
      <trkpt lat="42.73699" lon="2.03124">
        <ele>1822.677</ele>
        <time>2011-08-23T10:14:40Z</time>
      </trkpt>
      <trkpt lat="42.73696" lon="2.03117">
        <ele>1825.165</ele>
        <time>2011-08-23T10:14:49Z</time>
      </trkpt>
      <trkpt lat="42.73692" lon="2.03112">
        <ele>1826.758</ele>
        <time>2011-08-23T10:14:57Z</time>
      </trkpt>
      <trkpt lat="42.7369" lon="2.03109">
        <ele>1828.189</ele>
        <time>2011-08-23T10:15:03Z</time>
      </trkpt>
      <trkpt lat="42.73686" lon="2.03107">
        <ele>1829.532</ele>
        <time>2011-08-23T10:15:10Z</time>
      </trkpt>
      <trkpt lat="42.73682" lon="2.03105">
        <ele>1829.823</ele>
        <time>2011-08-23T10:15:24Z</time>
      </trkpt>
      <trkpt lat="42.73677" lon="2.03101">
        <ele>1831.567</ele>
        <time>2011-08-23T10:15:33Z</time>
      </trkpt>
      <trkpt lat="42.73672" lon="2.03097">
        <ele>1833.266</ele>
        <time>2011-08-23T10:15:42Z</time>
      </trkpt>
      <trkpt lat="42.73667" lon="2.03091">
        <ele>1834.862</ele>
        <time>2011-08-23T10:15:51Z</time>
      </trkpt>
      <trkpt lat="42.73665" lon="2.03089">
        <ele>1835.71</ele>
        <time>2011-08-23T10:15:58Z</time>
      </trkpt>
      <trkpt lat="42.73664" lon="2.0309">
        <ele>1835.641</ele>
        <time>2011-08-23T10:16:00Z</time>
      </trkpt>
      <trkpt lat="42.73658" lon="2.03088">
        <ele>1836.022</ele>
        <time>2011-08-23T10:16:09Z</time>
      </trkpt>
      <trkpt lat="42.73653" lon="2.03084">
        <ele>1837.257</ele>
        <time>2011-08-23T10:16:16Z</time>
      </trkpt>
      <trkpt lat="42.73649" lon="2.03079">
        <ele>1838.004</ele>
        <time>2011-08-23T10:16:24Z</time>
      </trkpt>
      <trkpt lat="42.73649" lon="2.03078">
        <ele>1838.867</ele>
        <time>2011-08-23T10:16:31Z</time>
      </trkpt>
      <trkpt lat="42.73648" lon="2.03074">
        <ele>1839.463</ele>
        <time>2011-08-23T10:16:37Z</time>
      </trkpt>
      <trkpt lat="42.73647" lon="2.03068">
        <ele>1841.111</ele>
        <time>2011-08-23T10:16:45Z</time>
      </trkpt>
      <trkpt lat="42.73645" lon="2.03063">
        <ele>1842.539</ele>
        <time>2011-08-23T10:16:53Z</time>
      </trkpt>
      <trkpt lat="42.73647" lon="2.0306">
        <ele>1843.353</ele>
        <time>2011-08-23T10:16:58Z</time>
      </trkpt>
      <trkpt lat="42.7365" lon="2.03055">
        <ele>1844.857</ele>
        <time>2011-08-23T10:17:06Z</time>
      </trkpt>
      <trkpt lat="42.73652" lon="2.03054">
        <ele>1845.881</ele>
        <time>2011-08-23T10:17:10Z</time>
      </trkpt>
      <trkpt lat="42.73661" lon="2.03053">
        <ele>1847.062</ele>
        <time>2011-08-23T10:17:20Z</time>
      </trkpt>
      <trkpt lat="42.73668" lon="2.03053">
        <ele>1848.082</ele>
        <time>2011-08-23T10:17:28Z</time>
      </trkpt>
      <trkpt lat="42.73674" lon="2.03051">
        <ele>1848.491</ele>
        <time>2011-08-23T10:17:35Z</time>
      </trkpt>
      <trkpt lat="42.73679" lon="2.03047">
        <ele>1848.747</ele>
        <time>2011-08-23T10:17:42Z</time>
      </trkpt>
      <trkpt lat="42.73681" lon="2.03046">
        <ele>1849.256</ele>
        <time>2011-08-23T10:17:45Z</time>
      </trkpt>
      <trkpt lat="42.73685" lon="2.03042">
        <ele>1850.279</ele>
        <time>2011-08-23T10:17:52Z</time>
      </trkpt>
      <trkpt lat="42.73685" lon="2.03041">
        <ele>1850.536</ele>
        <time>2011-08-23T10:17:53Z</time>
      </trkpt>
      <trkpt lat="42.73686" lon="2.03036">
        <ele>1852.695</ele>
        <time>2011-08-23T10:18:01Z</time>
      </trkpt>
      <trkpt lat="42.73687" lon="2.03028">
        <ele>1855.276</ele>
        <time>2011-08-23T10:18:11Z</time>
      </trkpt>
      <trkpt lat="42.73689" lon="2.03025">
        <ele>1856.937</ele>
        <time>2011-08-23T10:18:17Z</time>
      </trkpt>
      <trkpt lat="42.7369" lon="2.03022">
        <ele>1858.076</ele>
        <time>2011-08-23T10:18:24Z</time>
      </trkpt>
      <trkpt lat="42.7369" lon="2.0302">
        <ele>1858.676</ele>
        <time>2011-08-23T10:18:33Z</time>
      </trkpt>
      <trkpt lat="42.73686" lon="2.03019">
        <ele>1859.538</ele>
        <time>2011-08-23T10:18:40Z</time>
      </trkpt>
      <trkpt lat="42.73683" lon="2.03015">
        <ele>1861.425</ele>
        <time>2011-08-23T10:18:48Z</time>
      </trkpt>
      <trkpt lat="42.73683" lon="2.03011">
        <ele>1862.887</ele>
        <time>2011-08-23T10:18:55Z</time>
      </trkpt>
      <trkpt lat="42.73682" lon="2.03006">
        <ele>1864.229</ele>
        <time>2011-08-23T10:19:01Z</time>
      </trkpt>
      <trkpt lat="42.7368" lon="2.03005">
        <ele>1864.529</ele>
        <time>2011-08-23T10:19:09Z</time>
      </trkpt>
      <trkpt lat="42.73678" lon="2.03001">
        <ele>1864.491</ele>
        <time>2011-08-23T10:19:29Z</time>
      </trkpt>
      <trkpt lat="42.73676" lon="2.02993">
        <ele>1865.207</ele>
        <time>2011-08-23T10:19:39Z</time>
      </trkpt>
      <trkpt lat="42.73678" lon="2.02988">
        <ele>1866.953</ele>
        <time>2011-08-23T10:19:45Z</time>
      </trkpt>
      <trkpt lat="42.73672" lon="2.02984">
        <ele>1868.065</ele>
        <time>2011-08-23T10:19:53Z</time>
      </trkpt>
      <trkpt lat="42.73671" lon="2.02984">
        <ele>1868.164</ele>
        <time>2011-08-23T10:19:54Z</time>
      </trkpt>
      <trkpt lat="42.73667" lon="2.02985">
        <ele>1867.84</ele>
        <time>2011-08-23T10:19:59Z</time>
      </trkpt>
      <trkpt lat="42.73659" lon="2.02978">
        <ele>1867.607</ele>
        <time>2011-08-23T10:20:10Z</time>
      </trkpt>
      <trkpt lat="42.73655" lon="2.02973">
        <ele>1868.821</ele>
        <time>2011-08-23T10:20:17Z</time>
      </trkpt>
      <trkpt lat="42.7365" lon="2.02966">
        <ele>1870.927</ele>
        <time>2011-08-23T10:20:27Z</time>
      </trkpt>
      <trkpt lat="42.73644" lon="2.02963">
        <ele>1872.243</ele>
        <time>2011-08-23T10:20:35Z</time>
      </trkpt>
      <trkpt lat="42.73641" lon="2.02957">
        <ele>1873.661</ele>
        <time>2011-08-23T10:20:43Z</time>
      </trkpt>
      <trkpt lat="42.7364" lon="2.02949">
        <ele>1875.132</ele>
        <time>2011-08-23T10:20:51Z</time>
      </trkpt>
      <trkpt lat="42.73639" lon="2.02941">
        <ele>1877.008</ele>
        <time>2011-08-23T10:20:59Z</time>
      </trkpt>
      <trkpt lat="42.73635" lon="2.02935">
        <ele>1878.26</ele>
        <time>2011-08-23T10:21:08Z</time>
      </trkpt>
      <trkpt lat="42.73633" lon="2.02934">
        <ele>1878.601</ele>
        <time>2011-08-23T10:21:11Z</time>
      </trkpt>
      <trkpt lat="42.73631" lon="2.02934">
        <ele>1879.062</ele>
        <time>2011-08-23T10:21:14Z</time>
      </trkpt>
      <trkpt lat="42.73626" lon="2.02931">
        <ele>1879.373</ele>
        <time>2011-08-23T10:21:20Z</time>
      </trkpt>
      <trkpt lat="42.73624" lon="2.02925">
        <ele>1880.534</ele>
        <time>2011-08-23T10:21:28Z</time>
      </trkpt>
      <trkpt lat="42.73625" lon="2.02918">
        <ele>1881.866</ele>
        <time>2011-08-23T10:21:36Z</time>
      </trkpt>
      <trkpt lat="42.73622" lon="2.02912">
        <ele>1883.038</ele>
        <time>2011-08-23T10:21:44Z</time>
      </trkpt>
      <trkpt lat="42.7362" lon="2.02905">
        <ele>1884.708</ele>
        <time>2011-08-23T10:21:53Z</time>
      </trkpt>
      <trkpt lat="42.73619" lon="2.02901">
        <ele>1885.733</ele>
        <time>2011-08-23T10:21:59Z</time>
      </trkpt>
      <trkpt lat="42.7362" lon="2.02898">
        <ele>1886.187</ele>
        <time>2011-08-23T10:22:04Z</time>
      </trkpt>
      <trkpt lat="42.73617" lon="2.02895">
        <ele>1886.757</ele>
        <time>2011-08-23T10:22:10Z</time>
      </trkpt>
      <trkpt lat="42.73616" lon="2.02892">
        <ele>1887.587</ele>
        <time>2011-08-23T10:22:17Z</time>
      </trkpt>
      <trkpt lat="42.73617" lon="2.02884">
        <ele>1888.704</ele>
        <time>2011-08-23T10:22:26Z</time>
      </trkpt>
      <trkpt lat="42.73615" lon="2.02878">
        <ele>1890.422</ele>
        <time>2011-08-23T10:22:35Z</time>
      </trkpt>
      <trkpt lat="42.73617" lon="2.02878">
        <ele>1890.662</ele>
        <time>2011-08-23T10:22:37Z</time>
      </trkpt>
      <trkpt lat="42.73618" lon="2.02872">
        <ele>1891.49</ele>
        <time>2011-08-23T10:22:43Z</time>
      </trkpt>
      <trkpt lat="42.73618" lon="2.02867">
        <ele>1892.436</ele>
        <time>2011-08-23T10:22:49Z</time>
      </trkpt>
      <trkpt lat="42.73619" lon="2.02863">
        <ele>1893.599</ele>
        <time>2011-08-23T10:22:55Z</time>
      </trkpt>
      <trkpt lat="42.73618" lon="2.02861">
        <ele>1894.005</ele>
        <time>2011-08-23T10:23:01Z</time>
      </trkpt>
      <trkpt lat="42.73617" lon="2.02861">
        <ele>1894.148</ele>
        <time>2011-08-23T10:23:03Z</time>
      </trkpt>
      <trkpt lat="42.73614" lon="2.02859">
        <ele>1894.241</ele>
        <time>2011-08-23T10:23:07Z</time>
      </trkpt>
      <trkpt lat="42.73608" lon="2.02858">
        <ele>1894.106</ele>
        <time>2011-08-23T10:23:12Z</time>
      </trkpt>
      <trkpt lat="42.73596" lon="2.02858">
        <ele>1893.482</ele>
        <time>2011-08-23T10:23:17Z</time>
      </trkpt>
      <trkpt lat="42.73594" lon="2.02857">
        <ele>1893.446</ele>
        <time>2011-08-23T10:23:19Z</time>
      </trkpt>
      <trkpt lat="42.73589" lon="2.02858">
        <ele>1893.886</ele>
        <time>2011-08-23T10:23:24Z</time>
      </trkpt>
      <trkpt lat="42.7358" lon="2.0286">
        <ele>1895.352</ele>
        <time>2011-08-23T10:23:33Z</time>
      </trkpt>
      <trkpt lat="42.73575" lon="2.02861">
        <ele>1895.724</ele>
        <time>2011-08-23T10:23:42Z</time>
      </trkpt>
      <trkpt lat="42.73574" lon="2.02861">
        <ele>1896.271</ele>
        <time>2011-08-23T10:23:44Z</time>
      </trkpt>
      <trkpt lat="42.73564" lon="2.0286">
        <ele>1898.206</ele>
        <time>2011-08-23T10:23:55Z</time>
      </trkpt>
      <trkpt lat="42.73562" lon="2.02854">
        <ele>1900.208</ele>
        <time>2011-08-23T10:24:03Z</time>
      </trkpt>
      <trkpt lat="42.73562" lon="2.02846">
        <ele>1902.179</ele>
        <time>2011-08-23T10:24:12Z</time>
      </trkpt>
      <trkpt lat="42.73564" lon="2.02843">
        <ele>1903.069</ele>
        <time>2011-08-23T10:24:16Z</time>
      </trkpt>
      <trkpt lat="42.7357" lon="2.02833">
        <ele>1904.825</ele>
        <time>2011-08-23T10:24:27Z</time>
      </trkpt>
      <trkpt lat="42.73574" lon="2.02827">
        <ele>1906.453</ele>
        <time>2011-08-23T10:24:38Z</time>
      </trkpt>
      <trkpt lat="42.73575" lon="2.02824">
        <ele>1907.562</ele>
        <time>2011-08-23T10:24:43Z</time>
      </trkpt>
      <trkpt lat="42.73577" lon="2.0282">
        <ele>1908.977</ele>
        <time>2011-08-23T10:24:50Z</time>
      </trkpt>
      <trkpt lat="42.73578" lon="2.02818">
        <ele>1909.815</ele>
        <time>2011-08-23T10:24:59Z</time>
      </trkpt>
      <trkpt lat="42.73579" lon="2.02815">
        <ele>1910.156</ele>
        <time>2011-08-23T10:25:03Z</time>
      </trkpt>
      <trkpt lat="42.73582" lon="2.02812">
        <ele>1911.144</ele>
        <time>2011-08-23T10:25:09Z</time>
      </trkpt>
      <trkpt lat="42.73584" lon="2.02811">
        <ele>1911.64</ele>
        <time>2011-08-23T10:25:12Z</time>
      </trkpt>
      <trkpt lat="42.73585" lon="2.0281">
        <ele>1911.69</ele>
        <time>2011-08-23T10:25:19Z</time>
      </trkpt>
      <trkpt lat="42.73589" lon="2.02808">
        <ele>1912.215</ele>
        <time>2011-08-23T10:26:32Z</time>
      </trkpt>
      <trkpt lat="42.73592" lon="2.02806">
        <ele>1912.621</ele>
        <time>2011-08-23T10:26:39Z</time>
      </trkpt>
      <trkpt lat="42.73595" lon="2.02802">
        <ele>1913.607</ele>
        <time>2011-08-23T10:26:46Z</time>
      </trkpt>
      <trkpt lat="42.73597" lon="2.02797">
        <ele>1914.955</ele>
        <time>2011-08-23T10:26:53Z</time>
      </trkpt>
      <trkpt lat="42.73601" lon="2.02791">
        <ele>1916.391</ele>
        <time>2011-08-23T10:27:01Z</time>
      </trkpt>
      <trkpt lat="42.73602" lon="2.02785">
        <ele>1917.988</ele>
        <time>2011-08-23T10:27:09Z</time>
      </trkpt>
      <trkpt lat="42.73604" lon="2.02779">
        <ele>1920.326</ele>
        <time>2011-08-23T10:27:18Z</time>
      </trkpt>
      <trkpt lat="42.73606" lon="2.02772">
        <ele>1922.513</ele>
        <time>2011-08-23T10:27:27Z</time>
      </trkpt>
      <trkpt lat="42.73609" lon="2.02765">
        <ele>1923.993</ele>
        <time>2011-08-23T10:27:37Z</time>
      </trkpt>
      <trkpt lat="42.7361" lon="2.02759">
        <ele>1925.674</ele>
        <time>2011-08-23T10:27:45Z</time>
      </trkpt>
      <trkpt lat="42.73612" lon="2.02754">
        <ele>1926.901</ele>
        <time>2011-08-23T10:27:52Z</time>
      </trkpt>
      <trkpt lat="42.73611" lon="2.02747">
        <ele>1928.251</ele>
        <time>2011-08-23T10:28:00Z</time>
      </trkpt>
      <trkpt lat="42.73607" lon="2.02742">
        <ele>1929.474</ele>
        <time>2011-08-23T10:28:08Z</time>
      </trkpt>
      <trkpt lat="42.73605" lon="2.02738">
        <ele>1930.665</ele>
        <time>2011-08-23T10:28:15Z</time>
      </trkpt>
      <trkpt lat="42.73603" lon="2.02734">
        <ele>1931.992</ele>
        <time>2011-08-23T10:28:21Z</time>
      </trkpt>
      <trkpt lat="42.73604" lon="2.02729">
        <ele>1933.513</ele>
        <time>2011-08-23T10:28:29Z</time>
      </trkpt>
      <trkpt lat="42.73605" lon="2.02725">
        <ele>1934.256</ele>
        <time>2011-08-23T10:28:33Z</time>
      </trkpt>
      <trkpt lat="42.73603" lon="2.02721">
        <ele>1935.225</ele>
        <time>2011-08-23T10:28:40Z</time>
      </trkpt>
      <trkpt lat="42.73604" lon="2.02715">
        <ele>1936.743</ele>
        <time>2011-08-23T10:28:47Z</time>
      </trkpt>
      <trkpt lat="42.73606" lon="2.02709">
        <ele>1938.098</ele>
        <time>2011-08-23T10:28:55Z</time>
      </trkpt>
      <trkpt lat="42.73605" lon="2.02704">
        <ele>1939.903</ele>
        <time>2011-08-23T10:29:02Z</time>
      </trkpt>
      <trkpt lat="42.73603" lon="2.02703">
        <ele>1940.949</ele>
        <time>2011-08-23T10:29:07Z</time>
      </trkpt>
      <trkpt lat="42.73605" lon="2.02702">
        <ele>1941.01</ele>
        <time>2011-08-23T10:29:19Z</time>
      </trkpt>
      <trkpt lat="42.73607" lon="2.02702">
        <ele>1940.875</ele>
        <time>2011-08-23T10:29:27Z</time>
      </trkpt>
      <trkpt lat="42.73611" lon="2.02703">
        <ele>1941.114</ele>
        <time>2011-08-23T10:30:01Z</time>
      </trkpt>
      <trkpt lat="42.73616" lon="2.02705">
        <ele>1941.306</ele>
        <time>2011-08-23T10:30:06Z</time>
      </trkpt>
      <trkpt lat="42.7362" lon="2.02698">
        <ele>1940.844</ele>
        <time>2011-08-23T10:30:13Z</time>
      </trkpt>
      <trkpt lat="42.73626" lon="2.02694">
        <ele>1942.447</ele>
        <time>2011-08-23T10:30:20Z</time>
      </trkpt>
      <trkpt lat="42.7363" lon="2.02693">
        <ele>1943.488</ele>
        <time>2011-08-23T10:30:25Z</time>
      </trkpt>
      <trkpt lat="42.73634" lon="2.02691">
        <ele>1945.001</ele>
        <time>2011-08-23T10:30:31Z</time>
      </trkpt>
      <trkpt lat="42.73637" lon="2.02688">
        <ele>1946.538</ele>
        <time>2011-08-23T10:30:37Z</time>
      </trkpt>
      <trkpt lat="42.7364" lon="2.02685">
        <ele>1948.074</ele>
        <time>2011-08-23T10:30:45Z</time>
      </trkpt>
      <trkpt lat="42.73645" lon="2.02682">
        <ele>1949.996</ele>
        <time>2011-08-23T10:30:53Z</time>
      </trkpt>
      <trkpt lat="42.73648" lon="2.02678">
        <ele>1951.497</ele>
        <time>2011-08-23T10:31:00Z</time>
      </trkpt>
      <trkpt lat="42.7365" lon="2.02673">
        <ele>1952.902</ele>
        <time>2011-08-23T10:31:07Z</time>
      </trkpt>
      <trkpt lat="42.73653" lon="2.02668">
        <ele>1954.481</ele>
        <time>2011-08-23T10:31:15Z</time>
      </trkpt>
      <trkpt lat="42.73655" lon="2.02661">
        <ele>1956.273</ele>
        <time>2011-08-23T10:31:24Z</time>
      </trkpt>
      <trkpt lat="42.73658" lon="2.02658">
        <ele>1957.464</ele>
        <time>2011-08-23T10:31:30Z</time>
      </trkpt>
      <trkpt lat="42.73659" lon="2.02655">
        <ele>1958.588</ele>
        <time>2011-08-23T10:31:36Z</time>
      </trkpt>
      <trkpt lat="42.73664" lon="2.02653">
        <ele>1960.557</ele>
        <time>2011-08-23T10:31:44Z</time>
      </trkpt>
      <trkpt lat="42.73667" lon="2.02654">
        <ele>1961.121</ele>
        <time>2011-08-23T10:31:51Z</time>
      </trkpt>
      <trkpt lat="42.7367" lon="2.02655">
        <ele>1961.43</ele>
        <time>2011-08-23T10:31:57Z</time>
      </trkpt>
      <trkpt lat="42.73671" lon="2.02656">
        <ele>1961.68</ele>
        <time>2011-08-23T10:32:01Z</time>
      </trkpt>
      <trkpt lat="42.73676" lon="2.02655">
        <ele>1961.471</ele>
        <time>2011-08-23T10:32:07Z</time>
      </trkpt>
      <trkpt lat="42.73681" lon="2.02654">
        <ele>1961.336</ele>
        <time>2011-08-23T10:32:12Z</time>
      </trkpt>
      <trkpt lat="42.73694" lon="2.02643">
        <ele>1959.195</ele>
        <time>2011-08-23T10:32:19Z</time>
      </trkpt>
      <trkpt lat="42.73697" lon="2.02641">
        <ele>1958.967</ele>
        <time>2011-08-23T10:32:20Z</time>
      </trkpt>
      <trkpt lat="42.73702" lon="2.02635">
        <ele>1958.269</ele>
        <time>2011-08-23T10:32:26Z</time>
      </trkpt>
      <trkpt lat="42.73704" lon="2.02632">
        <ele>1958.659</ele>
        <time>2011-08-23T10:32:29Z</time>
      </trkpt>
      <trkpt lat="42.73709" lon="2.02621">
        <ele>1960.761</ele>
        <time>2011-08-23T10:32:36Z</time>
      </trkpt>
      <trkpt lat="42.7371" lon="2.0262">
        <ele>1960.766</ele>
        <time>2011-08-23T10:32:37Z</time>
      </trkpt>
      <trkpt lat="42.73719" lon="2.02604">
        <ele>1962.778</ele>
        <time>2011-08-23T10:32:50Z</time>
      </trkpt>
      <trkpt lat="42.73727" lon="2.02594">
        <ele>1964.3</ele>
        <time>2011-08-23T10:32:59Z</time>
      </trkpt>
      <trkpt lat="42.73731" lon="2.02588">
        <ele>1965.08</ele>
        <time>2011-08-23T10:33:04Z</time>
      </trkpt>
      <trkpt lat="42.73741" lon="2.02578">
        <ele>1966.665</ele>
        <time>2011-08-23T10:33:14Z</time>
      </trkpt>
      <trkpt lat="42.73742" lon="2.02578">
        <ele>1966.791</ele>
        <time>2011-08-23T10:33:15Z</time>
      </trkpt>
      <trkpt lat="42.73748" lon="2.0257">
        <ele>1967.411</ele>
        <time>2011-08-23T10:33:22Z</time>
      </trkpt>
      <trkpt lat="42.73754" lon="2.02559">
        <ele>1968.767</ele>
        <time>2011-08-23T10:33:31Z</time>
      </trkpt>
      <trkpt lat="42.73757" lon="2.02546">
        <ele>1970.545</ele>
        <time>2011-08-23T10:33:40Z</time>
      </trkpt>
      <trkpt lat="42.7376" lon="2.02537">
        <ele>1972.144</ele>
        <time>2011-08-23T10:33:47Z</time>
      </trkpt>
      <trkpt lat="42.73761" lon="2.02536">
        <ele>1972.652</ele>
        <time>2011-08-23T10:33:51Z</time>
      </trkpt>
      <trkpt lat="42.73763" lon="2.02531">
        <ele>1973.241</ele>
        <time>2011-08-23T10:33:57Z</time>
      </trkpt>
      <trkpt lat="42.73765" lon="2.02529">
        <ele>1973.891</ele>
        <time>2011-08-23T10:34:04Z</time>
      </trkpt>
      <trkpt lat="42.73766" lon="2.02522">
        <ele>1974.624</ele>
        <time>2011-08-23T10:34:10Z</time>
      </trkpt>
      <trkpt lat="42.7377" lon="2.02512">
        <ele>1975.715</ele>
        <time>2011-08-23T10:34:19Z</time>
      </trkpt>
      <trkpt lat="42.73771" lon="2.02503">
        <ele>1977.344</ele>
        <time>2011-08-23T10:34:27Z</time>
      </trkpt>
      <trkpt lat="42.73771" lon="2.02497">
        <ele>1978.281</ele>
        <time>2011-08-23T10:34:33Z</time>
      </trkpt>
      <trkpt lat="42.73772" lon="2.02494">
        <ele>1978.48</ele>
        <time>2011-08-23T10:34:39Z</time>
      </trkpt>
      <trkpt lat="42.73775" lon="2.0249">
        <ele>1978.666</ele>
        <time>2011-08-23T10:34:44Z</time>
      </trkpt>
      <trkpt lat="42.73776" lon="2.02489">
        <ele>1978.749</ele>
        <time>2011-08-23T10:34:45Z</time>
      </trkpt>
      <trkpt lat="42.73782" lon="2.0248">
        <ele>1978.48</ele>
        <time>2011-08-23T10:34:52Z</time>
      </trkpt>
      <trkpt lat="42.73787" lon="2.02473">
        <ele>1977.996</ele>
        <time>2011-08-23T10:34:56Z</time>
      </trkpt>
      <trkpt lat="42.73795" lon="2.02462">
        <ele>1977.237</ele>
        <time>2011-08-23T10:35:03Z</time>
      </trkpt>
      <trkpt lat="42.73802" lon="2.02451">
        <ele>1976.986</ele>
        <time>2011-08-23T10:35:11Z</time>
      </trkpt>
      <trkpt lat="42.73805" lon="2.02446">
        <ele>1977.523</ele>
        <time>2011-08-23T10:36:12Z</time>
      </trkpt>
      <trkpt lat="42.73813" lon="2.02436">
        <ele>1977.707</ele>
        <time>2011-08-23T10:36:18Z</time>
      </trkpt>
      <trkpt lat="42.73827" lon="2.02419">
        <ele>1977.892</ele>
        <time>2011-08-23T10:36:27Z</time>
      </trkpt>
      <trkpt lat="42.73829" lon="2.02416">
        <ele>1978.2</ele>
        <time>2011-08-23T10:36:30Z</time>
      </trkpt>
      <trkpt lat="42.73832" lon="2.02412">
        <ele>1978.648</ele>
        <time>2011-08-23T10:36:35Z</time>
      </trkpt>
      <trkpt lat="42.7384" lon="2.02399">
        <ele>1978.126</ele>
        <time>2011-08-23T10:36:42Z</time>
      </trkpt>
      <trkpt lat="42.73844" lon="2.02381">
        <ele>1977.472</ele>
        <time>2011-08-23T10:36:47Z</time>
      </trkpt>
      <trkpt lat="42.73846" lon="2.02366">
        <ele>1977.269</ele>
        <time>2011-08-23T10:36:51Z</time>
      </trkpt>
      <trkpt lat="42.7385" lon="2.02345">
        <ele>1978.434</ele>
        <time>2011-08-23T10:36:59Z</time>
      </trkpt>
      <trkpt lat="42.73855" lon="2.02324">
        <ele>1979.032</ele>
        <time>2011-08-23T10:37:07Z</time>
      </trkpt>
      <trkpt lat="42.73859" lon="2.02302">
        <ele>1979.029</ele>
        <time>2011-08-23T10:37:13Z</time>
      </trkpt>
      <trkpt lat="42.73862" lon="2.02279">
        <ele>1979.5</ele>
        <time>2011-08-23T10:37:20Z</time>
      </trkpt>
      <trkpt lat="42.73869" lon="2.0225">
        <ele>1980.107</ele>
        <time>2011-08-23T10:37:29Z</time>
      </trkpt>
      <trkpt lat="42.73878" lon="2.02222">
        <ele>1980.539</ele>
        <time>2011-08-23T10:37:38Z</time>
      </trkpt>
      <trkpt lat="42.73882" lon="2.02207">
        <ele>1981.073</ele>
        <time>2011-08-23T10:37:44Z</time>
      </trkpt>
      <trkpt lat="42.73885" lon="2.02199">
        <ele>1981.406</ele>
        <time>2011-08-23T10:37:49Z</time>
      </trkpt>
      <trkpt lat="42.73887" lon="2.02192">
        <ele>1981.26</ele>
        <time>2011-08-23T10:37:53Z</time>
      </trkpt>
      <trkpt lat="42.73896" lon="2.02178">
        <ele>1981.16</ele>
        <time>2011-08-23T10:38:00Z</time>
      </trkpt>
      <trkpt lat="42.73901" lon="2.02174">
        <ele>1981.591</ele>
        <time>2011-08-23T10:38:04Z</time>
      </trkpt>
      <trkpt lat="42.73906" lon="2.02166">
        <ele>1982.063</ele>
        <time>2011-08-23T10:38:08Z</time>
      </trkpt>
      <trkpt lat="42.73917" lon="2.02146">
        <ele>1983.59</ele>
        <time>2011-08-23T10:38:18Z</time>
      </trkpt>
      <trkpt lat="42.73926" lon="2.02124">
        <ele>1984.225</ele>
        <time>2011-08-23T10:38:27Z</time>
      </trkpt>
      <trkpt lat="42.73929" lon="2.02098">
        <ele>1984.859</ele>
        <time>2011-08-23T10:38:36Z</time>
      </trkpt>
      <trkpt lat="42.73931" lon="2.02081">
        <ele>1986.16</ele>
        <time>2011-08-23T10:38:43Z</time>
      </trkpt>
      <trkpt lat="42.73934" lon="2.02059">
        <ele>1987.846</ele>
        <time>2011-08-23T10:38:52Z</time>
      </trkpt>
      <trkpt lat="42.73934" lon="2.0204">
        <ele>1988.898</ele>
        <time>2011-08-23T10:39:00Z</time>
      </trkpt>
      <trkpt lat="42.73936" lon="2.02021">
        <ele>1990.626</ele>
        <time>2011-08-23T10:39:08Z</time>
      </trkpt>
      <trkpt lat="42.73937" lon="2.02007">
        <ele>1991.942</ele>
        <time>2011-08-23T10:39:14Z</time>
      </trkpt>
      <trkpt lat="42.73941" lon="2.01988">
        <ele>1993.984</ele>
        <time>2011-08-23T10:39:23Z</time>
      </trkpt>
      <trkpt lat="42.73946" lon="2.01972">
        <ele>1994.575</ele>
        <time>2011-08-23T10:39:31Z</time>
      </trkpt>
      <trkpt lat="42.73949" lon="2.01954">
        <ele>1994.341</ele>
        <time>2011-08-23T10:39:37Z</time>
      </trkpt>
      <trkpt lat="42.73953" lon="2.01932">
        <ele>1994.654</ele>
        <time>2011-08-23T10:39:45Z</time>
      </trkpt>
      <trkpt lat="42.73955" lon="2.01915">
        <ele>1995.581</ele>
        <time>2011-08-23T10:39:52Z</time>
      </trkpt>
      <trkpt lat="42.73956" lon="2.01898">
        <ele>1996.487</ele>
        <time>2011-08-23T10:39:59Z</time>
      </trkpt>
      <trkpt lat="42.73957" lon="2.01887">
        <ele>1996.619</ele>
        <time>2011-08-23T10:40:04Z</time>
      </trkpt>
      <trkpt lat="42.73957" lon="2.01871">
        <ele>1997.314</ele>
        <time>2011-08-23T10:40:10Z</time>
      </trkpt>
      <trkpt lat="42.73947" lon="2.01862">
        <ele>1997.029</ele>
        <time>2011-08-23T10:40:16Z</time>
      </trkpt>
      <trkpt lat="42.73937" lon="2.01843">
        <ele>1995.687</ele>
        <time>2011-08-23T10:40:22Z</time>
      </trkpt>
      <trkpt lat="42.7393" lon="2.01828">
        <ele>1998.142</ele>
        <time>2011-08-23T10:40:29Z</time>
      </trkpt>
      <trkpt lat="42.7393" lon="2.01812">
        <ele>1998.028</ele>
        <time>2011-08-23T10:40:35Z</time>
      </trkpt>
      <trkpt lat="42.73929" lon="2.01797">
        <ele>1997.305</ele>
        <time>2011-08-23T10:40:38Z</time>
      </trkpt>
      <trkpt lat="42.73928" lon="2.01779">
        <ele>1996.268</ele>
        <time>2011-08-23T10:40:41Z</time>
      </trkpt>
      <trkpt lat="42.73923" lon="2.01753">
        <ele>1995.916</ele>
        <time>2011-08-23T10:40:47Z</time>
      </trkpt>
      <trkpt lat="42.73915" lon="2.01737">
        <ele>1997.03</ele>
        <time>2011-08-23T10:40:54Z</time>
      </trkpt>
      <trkpt lat="42.7391" lon="2.01718">
        <ele>1997.293</ele>
        <time>2011-08-23T10:41:01Z</time>
      </trkpt>
      <trkpt lat="42.73909" lon="2.01715">
        <ele>1997.404</ele>
        <time>2011-08-23T10:41:02Z</time>
      </trkpt>
      <trkpt lat="42.73907" lon="2.01697">
        <ele>1997.929</ele>
        <time>2011-08-23T10:41:09Z</time>
      </trkpt>
      <trkpt lat="42.73904" lon="2.01677">
        <ele>1997.692</ele>
        <time>2011-08-23T10:41:15Z</time>
      </trkpt>
      <trkpt lat="42.73904" lon="2.01658">
        <ele>1998.054</ele>
        <time>2011-08-23T10:41:21Z</time>
      </trkpt>
      <trkpt lat="42.73904" lon="2.01636">
        <ele>1997.947</ele>
        <time>2011-08-23T10:41:28Z</time>
      </trkpt>
      <trkpt lat="42.73901" lon="2.01615">
        <ele>1997.452</ele>
        <time>2011-08-23T10:41:34Z</time>
      </trkpt>
      <trkpt lat="42.73896" lon="2.01598">
        <ele>1997.906</ele>
        <time>2011-08-23T10:41:41Z</time>
      </trkpt>
      <trkpt lat="42.73893" lon="2.01581">
        <ele>1997.557</ele>
        <time>2011-08-23T10:41:46Z</time>
      </trkpt>
      <trkpt lat="42.73889" lon="2.01562">
        <ele>1997.055</ele>
        <time>2011-08-23T10:41:51Z</time>
      </trkpt>
      <trkpt lat="42.73881" lon="2.01531">
        <ele>1996.15</ele>
        <time>2011-08-23T10:41:57Z</time>
      </trkpt>
      <trkpt lat="42.7387" lon="2.01497">
        <ele>1994.775</ele>
        <time>2011-08-23T10:42:03Z</time>
      </trkpt>
      <trkpt lat="42.73862" lon="2.01473">
        <ele>1994.45</ele>
        <time>2011-08-23T10:42:07Z</time>
      </trkpt>
      <trkpt lat="42.73848" lon="2.01456">
        <ele>1992.927</ele>
        <time>2011-08-23T10:42:11Z</time>
      </trkpt>
      <trkpt lat="42.73834" lon="2.01435">
        <ele>1990.672</ele>
        <time>2011-08-23T10:42:16Z</time>
      </trkpt>
      <trkpt lat="42.7383" lon="2.01432">
        <ele>1990.358</ele>
        <time>2011-08-23T10:42:20Z</time>
      </trkpt>
      <trkpt lat="42.73827" lon="2.0143">
        <ele>1989.931</ele>
        <time>2011-08-23T10:42:23Z</time>
      </trkpt>
      <trkpt lat="42.73822" lon="2.01418">
        <ele>1990.01</ele>
        <time>2011-08-23T10:42:29Z</time>
      </trkpt>
      <trkpt lat="42.73819" lon="2.01412">
        <ele>1990.696</ele>
        <time>2011-08-23T10:42:32Z</time>
      </trkpt>
      <trkpt lat="42.73806" lon="2.0139">
        <ele>1991.081</ele>
        <time>2011-08-23T10:42:42Z</time>
      </trkpt>
      <trkpt lat="42.73796" lon="2.01379">
        <ele>1990.695</ele>
        <time>2011-08-23T10:42:47Z</time>
      </trkpt>
      <trkpt lat="42.73788" lon="2.01367">
        <ele>1991.309</ele>
        <time>2011-08-23T10:42:52Z</time>
      </trkpt>
      <trkpt lat="42.73783" lon="2.01346">
        <ele>1992.791</ele>
        <time>2011-08-23T10:42:59Z</time>
      </trkpt>
      <trkpt lat="42.73774" lon="2.01325">
        <ele>1993.546</ele>
        <time>2011-08-23T10:43:06Z</time>
      </trkpt>
      <trkpt lat="42.73764" lon="2.01302">
        <ele>1994.222</ele>
        <time>2011-08-23T10:43:14Z</time>
      </trkpt>
      <trkpt lat="42.73758" lon="2.01285">
        <ele>1995.021</ele>
        <time>2011-08-23T10:43:20Z</time>
      </trkpt>
      <trkpt lat="42.7375" lon="2.01265">
        <ele>1994.559</ele>
        <time>2011-08-23T10:43:26Z</time>
      </trkpt>
      <trkpt lat="42.73744" lon="2.0124">
        <ele>1994.868</ele>
        <time>2011-08-23T10:43:34Z</time>
      </trkpt>
      <trkpt lat="42.73737" lon="2.01216">
        <ele>1995.014</ele>
        <time>2011-08-23T10:43:42Z</time>
      </trkpt>
      <trkpt lat="42.73729" lon="2.01199">
        <ele>1994.989</ele>
        <time>2011-08-23T10:43:48Z</time>
      </trkpt>
      <trkpt lat="42.73725" lon="2.01181">
        <ele>1995.587</ele>
        <time>2011-08-23T10:43:54Z</time>
      </trkpt>
      <trkpt lat="42.73717" lon="2.01166">
        <ele>1995.84</ele>
        <time>2011-08-23T10:44:00Z</time>
      </trkpt>
      <trkpt lat="42.73705" lon="2.01155">
        <ele>1997.136</ele>
        <time>2011-08-23T10:44:07Z</time>
      </trkpt>
      <trkpt lat="42.73691" lon="2.01139">
        <ele>1999.357</ele>
        <time>2011-08-23T10:44:16Z</time>
      </trkpt>
      <trkpt lat="42.73674" lon="2.01116">
        <ele>2001.467</ele>
        <time>2011-08-23T10:44:28Z</time>
      </trkpt>
      <trkpt lat="42.73662" lon="2.01098">
        <ele>2002.333</ele>
        <time>2011-08-23T10:44:37Z</time>
      </trkpt>
      <trkpt lat="42.73652" lon="2.01086">
        <ele>2003.302</ele>
        <time>2011-08-23T10:44:44Z</time>
      </trkpt>
      <trkpt lat="42.73648" lon="2.0107">
        <ele>2004.201</ele>
        <time>2011-08-23T10:44:51Z</time>
      </trkpt>
      <trkpt lat="42.73642" lon="2.01053">
        <ele>2004.283</ele>
        <time>2011-08-23T10:44:58Z</time>
      </trkpt>
      <trkpt lat="42.73634" lon="2.01037">
        <ele>2004.335</ele>
        <time>2011-08-23T10:45:04Z</time>
      </trkpt>
      <trkpt lat="42.73618" lon="2.01021">
        <ele>2003.831</ele>
        <time>2011-08-23T10:45:11Z</time>
      </trkpt>
      <trkpt lat="42.73603" lon="2.00997">
        <ele>2003.082</ele>
        <time>2011-08-23T10:45:18Z</time>
      </trkpt>
      <trkpt lat="42.73594" lon="2.00982">
        <ele>2002.362</ele>
        <time>2011-08-23T10:45:21Z</time>
      </trkpt>
      <trkpt lat="42.73586" lon="2.00953">
        <ele>2000.69</ele>
        <time>2011-08-23T10:45:25Z</time>
      </trkpt>
      <trkpt lat="42.73574" lon="2.00913">
        <ele>1999.48</ele>
        <time>2011-08-23T10:45:31Z</time>
      </trkpt>
      <trkpt lat="42.73561" lon="2.00886">
        <ele>1999.292</ele>
        <time>2011-08-23T10:45:37Z</time>
      </trkpt>
      <trkpt lat="42.73541" lon="2.00852">
        <ele>1998.687</ele>
        <time>2011-08-23T10:45:46Z</time>
      </trkpt>
      <trkpt lat="42.73528" lon="2.00824">
        <ele>1998.345</ele>
        <time>2011-08-23T10:45:54Z</time>
      </trkpt>
      <trkpt lat="42.73513" lon="2.00803">
        <ele>1999.313</ele>
        <time>2011-08-23T10:46:02Z</time>
      </trkpt>
      <trkpt lat="42.73499" lon="2.00793">
        <ele>2000.634</ele>
        <time>2011-08-23T10:46:09Z</time>
      </trkpt>
      <trkpt lat="42.73488" lon="2.00784">
        <ele>2001.085</ele>
        <time>2011-08-23T10:46:15Z</time>
      </trkpt>
      <trkpt lat="42.73475" lon="2.0076">
        <ele>2000.195</ele>
        <time>2011-08-23T10:46:24Z</time>
      </trkpt>
      <trkpt lat="42.73465" lon="2.00732">
        <ele>1998.798</ele>
        <time>2011-08-23T10:46:29Z</time>
      </trkpt>
      <trkpt lat="42.73462" lon="2.00725">
        <ele>1998.234</ele>
        <time>2011-08-23T10:46:30Z</time>
      </trkpt>
      <trkpt lat="42.73456" lon="2.00712">
        <ele>1997.835</ele>
        <time>2011-08-23T10:46:32Z</time>
      </trkpt>
      <trkpt lat="42.73449" lon="2.00688">
        <ele>1996.296</ele>
        <time>2011-08-23T10:46:35Z</time>
      </trkpt>
      <trkpt lat="42.73437" lon="2.00649">
        <ele>1993.995</ele>
        <time>2011-08-23T10:46:39Z</time>
      </trkpt>
      <trkpt lat="42.7343" lon="2.00618">
        <ele>1992.486</ele>
        <time>2011-08-23T10:46:42Z</time>
      </trkpt>
      <trkpt lat="42.73424" lon="2.00571">
        <ele>1989.77</ele>
        <time>2011-08-23T10:46:46Z</time>
      </trkpt>
      <trkpt lat="42.73424" lon="2.00533">
        <ele>1987.536</ele>
        <time>2011-08-23T10:46:49Z</time>
      </trkpt>
      <trkpt lat="42.73431" lon="2.00486">
        <ele>1985.6</ele>
        <time>2011-08-23T10:46:53Z</time>
      </trkpt>
      <trkpt lat="42.73448" lon="2.00412">
        <ele>1983.795</ele>
        <time>2011-08-23T10:47:00Z</time>
      </trkpt>
      <trkpt lat="42.73458" lon="2.00376">
        <ele>1983.181</ele>
        <time>2011-08-23T10:47:04Z</time>
      </trkpt>
      <trkpt lat="42.73458" lon="2.00345">
        <ele>1982.595</ele>
        <time>2011-08-23T10:47:08Z</time>
      </trkpt>
      <trkpt lat="42.73453" lon="2.00331">
        <ele>1982.44</ele>
        <time>2011-08-23T10:47:10Z</time>
      </trkpt>
      <trkpt lat="42.73445" lon="2.00294">
        <ele>1981.154</ele>
        <time>2011-08-23T10:47:15Z</time>
      </trkpt>
      <trkpt lat="42.7344" lon="2.00281">
        <ele>1980.432</ele>
        <time>2011-08-23T10:47:17Z</time>
      </trkpt>
      <trkpt lat="42.73438" lon="2.00256">
        <ele>1978.238</ele>
        <time>2011-08-23T10:47:21Z</time>
      </trkpt>
      <trkpt lat="42.73448" lon="2.00224">
        <ele>1979.56</ele>
        <time>2011-08-23T10:47:29Z</time>
      </trkpt>
      <trkpt lat="42.73453" lon="2.00183">
        <ele>1982.797</ele>
        <time>2011-08-23T10:47:40Z</time>
      </trkpt>
      <trkpt lat="42.73463" lon="2.0016">
        <ele>1984.975</ele>
        <time>2011-08-23T10:47:48Z</time>
      </trkpt>
      <trkpt lat="42.73478" lon="2.00129">
        <ele>1987.981</ele>
        <time>2011-08-23T10:48:00Z</time>
      </trkpt>
      <trkpt lat="42.73492" lon="2.00102">
        <ele>1990.946</ele>
        <time>2011-08-23T10:48:12Z</time>
      </trkpt>
      <trkpt lat="42.73504" lon="2.00084">
        <ele>1992.852</ele>
        <time>2011-08-23T10:48:21Z</time>
      </trkpt>
      <trkpt lat="42.73517" lon="2.00067">
        <ele>1994.98</ele>
        <time>2011-08-23T10:48:30Z</time>
      </trkpt>
      <trkpt lat="42.73528" lon="2.00048">
        <ele>1996.617</ele>
        <time>2011-08-23T10:48:39Z</time>
      </trkpt>
      <trkpt lat="42.73533" lon="2.00034">
        <ele>1997.906</ele>
        <time>2011-08-23T10:48:45Z</time>
      </trkpt>
      <trkpt lat="42.73538" lon="2.00017">
        <ele>1999.532</ele>
        <time>2011-08-23T10:48:52Z</time>
      </trkpt>
      <trkpt lat="42.73539" lon="1.99992">
        <ele>2001.63</ele>
        <time>2011-08-23T10:49:02Z</time>
      </trkpt>
      <trkpt lat="42.73538" lon="1.99964">
        <ele>2003.603</ele>
        <time>2011-08-23T10:49:13Z</time>
      </trkpt>
      <trkpt lat="42.73533" lon="1.99947">
        <ele>2004.689</ele>
        <time>2011-08-23T10:49:20Z</time>
      </trkpt>
      <trkpt lat="42.73523" lon="1.99921">
        <ele>2007.118</ele>
        <time>2011-08-23T10:49:31Z</time>
      </trkpt>
      <trkpt lat="42.73514" lon="1.99901">
        <ele>2009.167</ele>
        <time>2011-08-23T10:49:40Z</time>
      </trkpt>
      <trkpt lat="42.73506" lon="1.99885">
        <ele>2010.782</ele>
        <time>2011-08-23T10:49:47Z</time>
      </trkpt>
      <trkpt lat="42.73498" lon="1.99867">
        <ele>2012.279</ele>
        <time>2011-08-23T10:49:55Z</time>
      </trkpt>
      <trkpt lat="42.7349" lon="1.99852">
        <ele>2013.288</ele>
        <time>2011-08-23T10:50:02Z</time>
      </trkpt>
      <trkpt lat="42.73483" lon="1.99834">
        <ele>2014.456</ele>
        <time>2011-08-23T10:50:10Z</time>
      </trkpt>
      <trkpt lat="42.73478" lon="1.99809">
        <ele>2016.183</ele>
        <time>2011-08-23T10:50:20Z</time>
      </trkpt>
      <trkpt lat="42.73478" lon="1.99783">
        <ele>2018.666</ele>
        <time>2011-08-23T10:50:30Z</time>
      </trkpt>
      <trkpt lat="42.7348" lon="1.99752">
        <ele>2021.412</ele>
        <time>2011-08-23T10:50:42Z</time>
      </trkpt>
      <trkpt lat="42.7348" lon="1.9972">
        <ele>2023.653</ele>
        <time>2011-08-23T10:50:54Z</time>
      </trkpt>
      <trkpt lat="42.73483" lon="1.99695">
        <ele>2025.58</ele>
        <time>2011-08-23T10:51:03Z</time>
      </trkpt>
      <trkpt lat="42.73486" lon="1.9967">
        <ele>2027.053</ele>
        <time>2011-08-23T10:51:12Z</time>
      </trkpt>
      <trkpt lat="42.73491" lon="1.99644">
        <ele>2029.143</ele>
        <time>2011-08-23T10:51:22Z</time>
      </trkpt>
      <trkpt lat="42.735" lon="1.99622">
        <ele>2031.279</ele>
        <time>2011-08-23T10:51:31Z</time>
      </trkpt>
      <trkpt lat="42.73509" lon="1.996">
        <ele>2032.796</ele>
        <time>2011-08-23T10:51:40Z</time>
      </trkpt>
      <trkpt lat="42.73511" lon="1.99578">
        <ele>2035.163</ele>
        <time>2011-08-23T10:51:48Z</time>
      </trkpt>
      <trkpt lat="42.73512" lon="1.9955">
        <ele>2037.331</ele>
        <time>2011-08-23T10:51:58Z</time>
      </trkpt>
      <trkpt lat="42.73508" lon="1.99519">
        <ele>2039.424</ele>
        <time>2011-08-23T10:52:10Z</time>
      </trkpt>
      <trkpt lat="42.73504" lon="1.99491">
        <ele>2042.255</ele>
        <time>2011-08-23T10:52:21Z</time>
      </trkpt>
      <trkpt lat="42.73499" lon="1.99465">
        <ele>2044.411</ele>
        <time>2011-08-23T10:52:31Z</time>
      </trkpt>
      <trkpt lat="42.73489" lon="1.99437">
        <ele>2046.615</ele>
        <time>2011-08-23T10:52:42Z</time>
      </trkpt>
      <trkpt lat="42.73479" lon="1.99421">
        <ele>2048.424</ele>
        <time>2011-08-23T10:52:50Z</time>
      </trkpt>
      <trkpt lat="42.73463" lon="1.99407">
        <ele>2050.071</ele>
        <time>2011-08-23T10:52:59Z</time>
      </trkpt>
      <trkpt lat="42.73445" lon="1.99393">
        <ele>2052.216</ele>
        <time>2011-08-23T10:53:09Z</time>
      </trkpt>
      <trkpt lat="42.73426" lon="1.99381">
        <ele>2055.062</ele>
        <time>2011-08-23T10:53:19Z</time>
      </trkpt>
      <trkpt lat="42.73409" lon="1.99365">
        <ele>2056.949</ele>
        <time>2011-08-23T10:53:29Z</time>
      </trkpt>
      <trkpt lat="42.73395" lon="1.99348">
        <ele>2058.404</ele>
        <time>2011-08-23T10:53:38Z</time>
      </trkpt>
      <trkpt lat="42.73382" lon="1.99328">
        <ele>2059.895</ele>
        <time>2011-08-23T10:53:48Z</time>
      </trkpt>
      <trkpt lat="42.73375" lon="1.99307">
        <ele>2061.661</ele>
        <time>2011-08-23T10:53:56Z</time>
      </trkpt>
      <trkpt lat="42.73368" lon="1.99281">
        <ele>2062.953</ele>
        <time>2011-08-23T10:54:07Z</time>
      </trkpt>
      <trkpt lat="42.73366" lon="1.99273">
        <ele>2063.469</ele>
        <time>2011-08-23T10:54:11Z</time>
      </trkpt>
      <trkpt lat="42.73357" lon="1.99267">
        <ele>2064.143</ele>
        <time>2011-08-23T10:54:18Z</time>
      </trkpt>
      <trkpt lat="42.73353" lon="1.9927">
        <ele>2064.459</ele>
        <time>2011-08-23T10:54:23Z</time>
      </trkpt>
      <trkpt lat="42.73355" lon="1.99272">
        <ele>2064.865</ele>
        <time>2011-08-23T10:54:38Z</time>
      </trkpt>
      <trkpt lat="42.73363" lon="1.99272">
        <ele>2064.511</ele>
        <time>2011-08-23T10:54:56Z</time>
      </trkpt>
      <trkpt lat="42.73364" lon="1.99272">
        <ele>2064.551</ele>
        <time>2011-08-23T10:55:00Z</time>
      </trkpt>
      <trkpt lat="42.73364" lon="1.99274">
        <ele>2064.437</ele>
        <time>2011-08-23T10:55:02Z</time>
      </trkpt>
      <trkpt lat="42.73366" lon="1.99273">
        <ele>2064.375</ele>
        <time>2011-08-23T10:55:08Z</time>
      </trkpt>
      <trkpt lat="42.73369" lon="1.99275">
        <ele>2064.279</ele>
        <time>2011-08-23T10:55:10Z</time>
      </trkpt>
      <trkpt lat="42.73372" lon="1.99294">
        <ele>2064.264</ele>
        <time>2011-08-23T10:55:15Z</time>
      </trkpt>
      <trkpt lat="42.73368" lon="1.99311">
        <ele>2063.279</ele>
        <time>2011-08-23T10:55:19Z</time>
      </trkpt>
      <trkpt lat="42.73365" lon="1.99321">
        <ele>2063.187</ele>
        <time>2011-08-23T10:55:23Z</time>
      </trkpt>
      <trkpt lat="42.73361" lon="1.99329">
        <ele>2062.204</ele>
        <time>2011-08-23T10:55:28Z</time>
      </trkpt>
      <trkpt lat="42.73359" lon="1.99329">
        <ele>2062.189</ele>
        <time>2011-08-23T10:58:38Z</time>
      </trkpt>
      <trkpt lat="42.7336" lon="1.9933">
        <ele>2063.597</ele>
        <time>2011-08-23T11:02:09Z</time>
      </trkpt>
      <trkpt lat="42.73362" lon="1.9933">
        <ele>2063.47</ele>
        <time>2011-08-23T11:02:12Z</time>
      </trkpt>
      <trkpt lat="42.73373" lon="1.99334">
        <ele>2063.16</ele>
        <time>2011-08-23T11:02:18Z</time>
      </trkpt>
      <trkpt lat="42.73382" lon="1.99342">
        <ele>2063.142</ele>
        <time>2011-08-23T11:02:22Z</time>
      </trkpt>
      <trkpt lat="42.73401" lon="1.99368">
        <ele>2061.848</ele>
        <time>2011-08-23T11:02:27Z</time>
      </trkpt>
      <trkpt lat="42.73406" lon="1.99374">
        <ele>2061.365</ele>
        <time>2011-08-23T11:02:28Z</time>
      </trkpt>
      <trkpt lat="42.73442" lon="1.99403">
        <ele>2058.903</ele>
        <time>2011-08-23T11:02:33Z</time>
      </trkpt>
      <trkpt lat="42.73451" lon="1.99409">
        <ele>2058.904</ele>
        <time>2011-08-23T11:02:34Z</time>
      </trkpt>
      <trkpt lat="42.73484" lon="1.99447">
        <ele>2056.438</ele>
        <time>2011-08-23T11:02:38Z</time>
      </trkpt>
      <trkpt lat="42.73493" lon="1.99475">
        <ele>2055.243</ele>
        <time>2011-08-23T11:02:40Z</time>
      </trkpt>
      <trkpt lat="42.73505" lon="1.99558">
        <ele>2049.339</ele>
        <time>2011-08-23T11:02:45Z</time>
      </trkpt>
      <trkpt lat="42.73503" lon="1.99607">
        <ele>2045.424</ele>
        <time>2011-08-23T11:02:48Z</time>
      </trkpt>
      <trkpt lat="42.73497" lon="1.99622">
        <ele>2044.092</ele>
        <time>2011-08-23T11:02:49Z</time>
      </trkpt>
      <trkpt lat="42.73475" lon="1.99704">
        <ele>2037.043</ele>
        <time>2011-08-23T11:02:54Z</time>
      </trkpt>
      <trkpt lat="42.73471" lon="1.99793">
        <ele>2031.226</ele>
        <time>2011-08-23T11:02:59Z</time>
      </trkpt>
      <trkpt lat="42.73471" lon="1.99809">
        <ele>2029.785</ele>
        <time>2011-08-23T11:03:00Z</time>
      </trkpt>
      <trkpt lat="42.73488" lon="1.9987">
        <ele>2022.834</ele>
        <time>2011-08-23T11:03:04Z</time>
      </trkpt>
      <trkpt lat="42.7352" lon="1.99943">
        <ele>2016.027</ele>
        <time>2011-08-23T11:03:09Z</time>
      </trkpt>
      <trkpt lat="42.73531" lon="2.00011">
        <ele>2010.53</ele>
        <time>2011-08-23T11:03:13Z</time>
      </trkpt>
      <trkpt lat="42.73526" lon="2.00045">
        <ele>2008.084</ele>
        <time>2011-08-23T11:03:15Z</time>
      </trkpt>
      <trkpt lat="42.73511" lon="2.00075">
        <ele>2006.135</ele>
        <time>2011-08-23T11:03:17Z</time>
      </trkpt>
      <trkpt lat="42.73484" lon="2.00116">
        <ele>2002.127</ele>
        <time>2011-08-23T11:03:20Z</time>
      </trkpt>
      <trkpt lat="42.73455" lon="2.0017">
        <ele>1997.378</ele>
        <time>2011-08-23T11:03:24Z</time>
      </trkpt>
      <trkpt lat="42.73443" lon="2.00213">
        <ele>1992.779</ele>
        <time>2011-08-23T11:03:27Z</time>
      </trkpt>
      <trkpt lat="42.73439" lon="2.00244">
        <ele>1990.714</ele>
        <time>2011-08-23T11:03:29Z</time>
      </trkpt>
      <trkpt lat="42.73421" lon="2.00275">
        <ele>1986.656</ele>
        <time>2011-08-23T11:03:32Z</time>
      </trkpt>
      <trkpt lat="42.73401" lon="2.00273">
        <ele>1983.367</ele>
        <time>2011-08-23T11:03:34Z</time>
      </trkpt>
      <trkpt lat="42.7337" lon="2.00275">
        <ele>1980.303</ele>
        <time>2011-08-23T11:03:37Z</time>
      </trkpt>
      <trkpt lat="42.7335" lon="2.00287">
        <ele>1978.759</ele>
        <time>2011-08-23T11:03:39Z</time>
      </trkpt>
      <trkpt lat="42.7333" lon="2.00303">
        <ele>1976.765</ele>
        <time>2011-08-23T11:03:41Z</time>
      </trkpt>
      <trkpt lat="42.73308" lon="2.00332">
        <ele>1972.988</ele>
        <time>2011-08-23T11:03:44Z</time>
      </trkpt>
      <trkpt lat="42.73298" lon="2.00329">
        <ele>1968.77</ele>
        <time>2011-08-23T11:03:47Z</time>
      </trkpt>
      <trkpt lat="42.73303" lon="2.00317">
        <ele>1966.671</ele>
        <time>2011-08-23T11:03:49Z</time>
      </trkpt>
      <trkpt lat="42.73308" lon="2.0031">
        <ele>1966.669</ele>
        <time>2011-08-23T11:03:50Z</time>
      </trkpt>
      <trkpt lat="42.73318" lon="2.00292">
        <ele>1965.431</ele>
        <time>2011-08-23T11:03:52Z</time>
      </trkpt>
      <trkpt lat="42.73343" lon="2.00238">
        <ele>1962.135</ele>
        <time>2011-08-23T11:03:57Z</time>
      </trkpt>
      <trkpt lat="42.73379" lon="2.00174">
        <ele>1957.264</ele>
        <time>2011-08-23T11:04:02Z</time>
      </trkpt>
      <trkpt lat="42.73391" lon="2.00145">
        <ele>1955.429</ele>
        <time>2011-08-23T11:04:04Z</time>
      </trkpt>
      <trkpt lat="42.73397" lon="2.00115">
        <ele>1952.708</ele>
        <time>2011-08-23T11:04:06Z</time>
      </trkpt>
      <trkpt lat="42.734" lon="2.00085">
        <ele>1948.581</ele>
        <time>2011-08-23T11:04:09Z</time>
      </trkpt>
      <trkpt lat="42.7339" lon="2.00092">
        <ele>1946.564</ele>
        <time>2011-08-23T11:04:11Z</time>
      </trkpt>
      <trkpt lat="42.73386" lon="2.00108">
        <ele>1945.597</ele>
        <time>2011-08-23T11:04:13Z</time>
      </trkpt>
      <trkpt lat="42.73377" lon="2.00136">
        <ele>1944.946</ele>
        <time>2011-08-23T11:04:16Z</time>
      </trkpt>
      <trkpt lat="42.73364" lon="2.00152">
        <ele>1943.93</ele>
        <time>2011-08-23T11:04:18Z</time>
      </trkpt>
      <trkpt lat="42.73341" lon="2.00176">
        <ele>1942.171</ele>
        <time>2011-08-23T11:04:21Z</time>
      </trkpt>
      <trkpt lat="42.73291" lon="2.00217">
        <ele>1936.885</ele>
        <time>2011-08-23T11:04:27Z</time>
      </trkpt>
      <trkpt lat="42.73252" lon="2.00253">
        <ele>1931.121</ele>
        <time>2011-08-23T11:04:32Z</time>
      </trkpt>
      <trkpt lat="42.73209" lon="2.00301">
        <ele>1926.547</ele>
        <time>2011-08-23T11:04:37Z</time>
      </trkpt>
      <trkpt lat="42.73194" lon="2.00324">
        <ele>1924.751</ele>
        <time>2011-08-23T11:04:39Z</time>
      </trkpt>
      <trkpt lat="42.73182" lon="2.00369">
        <ele>1921.098</ele>
        <time>2011-08-23T11:04:43Z</time>
      </trkpt>
      <trkpt lat="42.73177" lon="2.00377">
        <ele>1918.028</ele>
        <time>2011-08-23T11:04:45Z</time>
      </trkpt>
      <trkpt lat="42.73171" lon="2.00366">
        <ele>1916.014</ele>
        <time>2011-08-23T11:04:47Z</time>
      </trkpt>
      <trkpt lat="42.73173" lon="2.00348">
        <ele>1914.35</ele>
        <time>2011-08-23T11:04:49Z</time>
      </trkpt>
      <trkpt lat="42.73178" lon="2.00307">
        <ele>1911.958</ele>
        <time>2011-08-23T11:04:53Z</time>
      </trkpt>
      <trkpt lat="42.73194" lon="2.00256">
        <ele>1908.171</ele>
        <time>2011-08-23T11:04:57Z</time>
      </trkpt>
      <trkpt lat="42.73221" lon="2.00201">
        <ele>1904.358</ele>
        <time>2011-08-23T11:05:01Z</time>
      </trkpt>
      <trkpt lat="42.7323" lon="2.00149">
        <ele>1901.152</ele>
        <time>2011-08-23T11:05:04Z</time>
      </trkpt>
      <trkpt lat="42.73229" lon="2.00132">
        <ele>1900.182</ele>
        <time>2011-08-23T11:05:05Z</time>
      </trkpt>
      <trkpt lat="42.73223" lon="2.00055">
        <ele>1897.947</ele>
        <time>2011-08-23T11:05:10Z</time>
      </trkpt>
      <trkpt lat="42.7323" lon="1.99994">
        <ele>1895.828</ele>
        <time>2011-08-23T11:05:14Z</time>
      </trkpt>
      <trkpt lat="42.73223" lon="1.99966">
        <ele>1893.618</ele>
        <time>2011-08-23T11:05:16Z</time>
      </trkpt>
      <trkpt lat="42.73202" lon="1.99956">
        <ele>1891.706</ele>
        <time>2011-08-23T11:05:18Z</time>
      </trkpt>
      <trkpt lat="42.73186" lon="1.9997">
        <ele>1890.458</ele>
        <time>2011-08-23T11:05:20Z</time>
      </trkpt>
      <trkpt lat="42.73169" lon="2.00001">
        <ele>1888.6</ele>
        <time>2011-08-23T11:05:23Z</time>
      </trkpt>
      <trkpt lat="42.7316" lon="2.00009">
        <ele>1887.734</ele>
        <time>2011-08-23T11:05:24Z</time>
      </trkpt>
      <trkpt lat="42.73134" lon="2.0003">
        <ele>1884.673</ele>
        <time>2011-08-23T11:05:27Z</time>
      </trkpt>
      <trkpt lat="42.73121" lon="2.00063">
        <ele>1881.55</ele>
        <time>2011-08-23T11:05:30Z</time>
      </trkpt>
      <trkpt lat="42.73122" lon="2.00078">
        <ele>1881.542</ele>
        <time>2011-08-23T11:05:31Z</time>
      </trkpt>
      <trkpt lat="42.73133" lon="2.00137">
        <ele>1876.791</ele>
        <time>2011-08-23T11:05:35Z</time>
      </trkpt>
      <trkpt lat="42.73139" lon="2.00183">
        <ele>1873.68</ele>
        <time>2011-08-23T11:05:38Z</time>
      </trkpt>
      <trkpt lat="42.73127" lon="2.00213">
        <ele>1871.31</ele>
        <time>2011-08-23T11:05:40Z</time>
      </trkpt>
      <trkpt lat="42.73105" lon="2.00254">
        <ele>1867.175</ele>
        <time>2011-08-23T11:05:43Z</time>
      </trkpt>
      <trkpt lat="42.73095" lon="2.00279">
        <ele>1864.518</ele>
        <time>2011-08-23T11:05:45Z</time>
      </trkpt>
      <trkpt lat="42.73084" lon="2.00278">
        <ele>1859.819</ele>
        <time>2011-08-23T11:05:48Z</time>
      </trkpt>
      <trkpt lat="42.73091" lon="2.00259">
        <ele>1857.153</ele>
        <time>2011-08-23T11:05:51Z</time>
      </trkpt>
      <trkpt lat="42.73101" lon="2.00235">
        <ele>1855.999</ele>
        <time>2011-08-23T11:05:54Z</time>
      </trkpt>
      <trkpt lat="42.73109" lon="2.00202">
        <ele>1855.014</ele>
        <time>2011-08-23T11:05:57Z</time>
      </trkpt>
      <trkpt lat="42.73104" lon="2.00154">
        <ele>1851.698</ele>
        <time>2011-08-23T11:06:01Z</time>
      </trkpt>
      <trkpt lat="42.73098" lon="2.00148">
        <ele>1849.95</ele>
        <time>2011-08-23T11:06:03Z</time>
      </trkpt>
      <trkpt lat="42.73094" lon="2.00137">
        <ele>1847.337</ele>
        <time>2011-08-23T11:06:08Z</time>
      </trkpt>
      <trkpt lat="42.73096" lon="2.00139">
        <ele>1846.747</ele>
        <time>2011-08-23T11:06:11Z</time>
      </trkpt>
      <trkpt lat="42.73098" lon="2.00149">
        <ele>1847.044</ele>
        <time>2011-08-23T11:06:15Z</time>
      </trkpt>
      <trkpt lat="42.73099" lon="2.00152">
        <ele>1847.214</ele>
        <time>2011-08-23T11:06:16Z</time>
      </trkpt>
      <trkpt lat="42.73102" lon="2.00162">
        <ele>1848.028</ele>
        <time>2011-08-23T11:06:20Z</time>
      </trkpt>
      <trkpt lat="42.73104" lon="2.00166">
        <ele>1848.672</ele>
        <time>2011-08-23T11:06:26Z</time>
      </trkpt>
      <trkpt lat="42.73105" lon="2.00164">
        <ele>1848.621</ele>
        <time>2011-08-23T11:06:31Z</time>
      </trkpt>
      <trkpt lat="42.73099" lon="2.00153">
        <ele>1848.434</ele>
        <time>2011-08-23T11:06:36Z</time>
      </trkpt>
      <trkpt lat="42.73097" lon="2.00148">
        <ele>1848.167</ele>
        <time>2011-08-23T11:06:37Z</time>
      </trkpt>
      <trkpt lat="42.73081" lon="2.00113">
        <ele>1846.183</ele>
        <time>2011-08-23T11:06:42Z</time>
      </trkpt>
      <trkpt lat="42.73071" lon="2.00094">
        <ele>1844.706</ele>
        <time>2011-08-23T11:06:44Z</time>
      </trkpt>
      <trkpt lat="42.7306" lon="2.00055">
        <ele>1843.014</ele>
        <time>2011-08-23T11:06:47Z</time>
      </trkpt>
      <trkpt lat="42.73051" lon="2.00026">
        <ele>1841.345</ele>
        <time>2011-08-23T11:06:49Z</time>
      </trkpt>
      <trkpt lat="42.73046" lon="1.99981">
        <ele>1837.722</ele>
        <time>2011-08-23T11:06:52Z</time>
      </trkpt>
      <trkpt lat="42.73049" lon="1.99968">
        <ele>1836.309</ele>
        <time>2011-08-23T11:06:53Z</time>
      </trkpt>
      <trkpt lat="42.73049" lon="1.99935">
        <ele>1831.698</ele>
        <time>2011-08-23T11:06:57Z</time>
      </trkpt>
      <trkpt lat="42.73042" lon="1.99946">
        <ele>1830.56</ele>
        <time>2011-08-23T11:07:00Z</time>
      </trkpt>
      <trkpt lat="42.73028" lon="1.99983">
        <ele>1829.291</ele>
        <time>2011-08-23T11:07:05Z</time>
      </trkpt>
      <trkpt lat="42.73014" lon="2.00022">
        <ele>1826.424</ele>
        <time>2011-08-23T11:07:09Z</time>
      </trkpt>
      <trkpt lat="42.73018" lon="2.00042">
        <ele>1824.763</ele>
        <time>2011-08-23T11:07:11Z</time>
      </trkpt>
      <trkpt lat="42.73027" lon="2.00102">
        <ele>1821.866</ele>
        <time>2011-08-23T11:07:16Z</time>
      </trkpt>
      <trkpt lat="42.73028" lon="2.00116">
        <ele>1821.079</ele>
        <time>2011-08-23T11:07:17Z</time>
      </trkpt>
      <trkpt lat="42.73023" lon="2.00179">
        <ele>1817.365</ele>
        <time>2011-08-23T11:07:21Z</time>
      </trkpt>
      <trkpt lat="42.73019" lon="2.00231">
        <ele>1814.199</ele>
        <time>2011-08-23T11:07:24Z</time>
      </trkpt>
      <trkpt lat="42.73003" lon="2.00323">
        <ele>1807.073</ele>
        <time>2011-08-23T11:07:29Z</time>
      </trkpt>
      <trkpt lat="42.72971" lon="2.0041">
        <ele>1799.59</ele>
        <time>2011-08-23T11:07:34Z</time>
      </trkpt>
      <trkpt lat="42.72949" lon="2.00448">
        <ele>1794.701</ele>
        <time>2011-08-23T11:07:37Z</time>
      </trkpt>
      <trkpt lat="42.72935" lon="2.0045">
        <ele>1791.426</ele>
        <time>2011-08-23T11:07:40Z</time>
      </trkpt>
      <trkpt lat="42.72938" lon="2.00433">
        <ele>1788.994</ele>
        <time>2011-08-23T11:07:42Z</time>
      </trkpt>
      <trkpt lat="42.7295" lon="2.00421">
        <ele>1787.225</ele>
        <time>2011-08-23T11:07:44Z</time>
      </trkpt>
      <trkpt lat="42.7296" lon="2.00403">
        <ele>1786.226</ele>
        <time>2011-08-23T11:07:46Z</time>
      </trkpt>
      <trkpt lat="42.7297" lon="2.0038">
        <ele>1785.167</ele>
        <time>2011-08-23T11:07:48Z</time>
      </trkpt>
      <trkpt lat="42.72965" lon="2.00368">
        <ele>1782.753</ele>
        <time>2011-08-23T11:07:51Z</time>
      </trkpt>
      <trkpt lat="42.72959" lon="2.00382">
        <ele>1781.585</ele>
        <time>2011-08-23T11:07:53Z</time>
      </trkpt>
      <trkpt lat="42.72954" lon="2.00398">
        <ele>1780.954</ele>
        <time>2011-08-23T11:07:55Z</time>
      </trkpt>
      <trkpt lat="42.72947" lon="2.00414">
        <ele>1780.297</ele>
        <time>2011-08-23T11:07:57Z</time>
      </trkpt>
      <trkpt lat="42.72937" lon="2.00412">
        <ele>1779.273</ele>
        <time>2011-08-23T11:08:00Z</time>
      </trkpt>
      <trkpt lat="42.72942" lon="2.00399">
        <ele>1778.561</ele>
        <time>2011-08-23T11:08:02Z</time>
      </trkpt>
      <trkpt lat="42.72954" lon="2.00373">
        <ele>1777.747</ele>
        <time>2011-08-23T11:08:05Z</time>
      </trkpt>
      <trkpt lat="42.72959" lon="2.00349">
        <ele>1776.233</ele>
        <time>2011-08-23T11:08:07Z</time>
      </trkpt>
      <trkpt lat="42.72962" lon="2.00279">
        <ele>1771.702</ele>
        <time>2011-08-23T11:08:12Z</time>
      </trkpt>
      <trkpt lat="42.72955" lon="2.00223">
        <ele>1767.244</ele>
        <time>2011-08-23T11:08:16Z</time>
      </trkpt>
      <trkpt lat="42.72943" lon="2.00219">
        <ele>1763.869</ele>
        <time>2011-08-23T11:08:19Z</time>
      </trkpt>
      <trkpt lat="42.72941" lon="2.00237">
        <ele>1762.328</ele>
        <time>2011-08-23T11:08:21Z</time>
      </trkpt>
      <trkpt lat="42.72937" lon="2.00298">
        <ele>1759.47</ele>
        <time>2011-08-23T11:08:26Z</time>
      </trkpt>
      <trkpt lat="42.7293" lon="2.00326">
        <ele>1758.63</ele>
        <time>2011-08-23T11:08:28Z</time>
      </trkpt>
      <trkpt lat="42.72919" lon="2.00355">
        <ele>1756.854</ele>
        <time>2011-08-23T11:08:30Z</time>
      </trkpt>
      <trkpt lat="42.72891" lon="2.00408">
        <ele>1752.684</ele>
        <time>2011-08-23T11:08:34Z</time>
      </trkpt>
      <trkpt lat="42.7288" lon="2.00412">
        <ele>1748.609</ele>
        <time>2011-08-23T11:08:37Z</time>
      </trkpt>
      <trkpt lat="42.72883" lon="2.00397">
        <ele>1746.779</ele>
        <time>2011-08-23T11:08:39Z</time>
      </trkpt>
      <trkpt lat="42.72887" lon="2.0039">
        <ele>1746.207</ele>
        <time>2011-08-23T11:08:40Z</time>
      </trkpt>
      <trkpt lat="42.72904" lon="2.00341">
        <ele>1744.361</ele>
        <time>2011-08-23T11:08:45Z</time>
      </trkpt>
      <trkpt lat="42.72909" lon="2.00318">
        <ele>1743.263</ele>
        <time>2011-08-23T11:08:47Z</time>
      </trkpt>
      <trkpt lat="42.72897" lon="2.00307">
        <ele>1740.854</ele>
        <time>2011-08-23T11:08:50Z</time>
      </trkpt>
      <trkpt lat="42.72893" lon="2.00321">
        <ele>1739.336</ele>
        <time>2011-08-23T11:08:52Z</time>
      </trkpt>
      <trkpt lat="42.72892" lon="2.0033">
        <ele>1738.768</ele>
        <time>2011-08-23T11:08:53Z</time>
      </trkpt>
      <trkpt lat="42.7289" lon="2.0035">
        <ele>1738.305</ele>
        <time>2011-08-23T11:08:55Z</time>
      </trkpt>
      <trkpt lat="42.72882" lon="2.00362">
        <ele>1737.3</ele>
        <time>2011-08-23T11:08:58Z</time>
      </trkpt>
      <trkpt lat="42.72881" lon="2.00345">
        <ele>1736.303</ele>
        <time>2011-08-23T11:09:00Z</time>
      </trkpt>
      <trkpt lat="42.72882" lon="2.00315">
        <ele>1734.286</ele>
        <time>2011-08-23T11:09:03Z</time>
      </trkpt>
      <trkpt lat="42.72879" lon="2.00304">
        <ele>1733.81</ele>
        <time>2011-08-23T11:09:04Z</time>
      </trkpt>
      <trkpt lat="42.72869" lon="2.00268">
        <ele>1731.87</ele>
        <time>2011-08-23T11:09:07Z</time>
      </trkpt>
      <trkpt lat="42.72862" lon="2.0023">
        <ele>1727.847</ele>
        <time>2011-08-23T11:09:11Z</time>
      </trkpt>
      <trkpt lat="42.72856" lon="2.00231">
        <ele>1725.922</ele>
        <time>2011-08-23T11:09:14Z</time>
      </trkpt>
      <trkpt lat="42.72856" lon="2.00231">
        <ele>1725.681</ele>
        <time>2011-08-23T11:09:15Z</time>
      </trkpt>
      <trkpt lat="42.72856" lon="2.00229">
        <ele>1725.203</ele>
        <time>2011-08-23T11:09:27Z</time>
      </trkpt>
      <trkpt lat="42.72858" lon="2.00227">
        <ele>1725.175</ele>
        <time>2011-08-23T11:09:30Z</time>
      </trkpt>
      <trkpt lat="42.72857" lon="2.00221">
        <ele>1725.311</ele>
        <time>2011-08-23T11:09:35Z</time>
      </trkpt>
      <trkpt lat="42.7285" lon="2.00214">
        <ele>1724.128</ele>
        <time>2011-08-23T11:09:40Z</time>
      </trkpt>
      <trkpt lat="42.72841" lon="2.00212">
        <ele>1721.793</ele>
        <time>2011-08-23T11:09:43Z</time>
      </trkpt>
      <trkpt lat="42.72817" lon="2.00209">
        <ele>1719.576</ele>
        <time>2011-08-23T11:09:48Z</time>
      </trkpt>
      <trkpt lat="42.72808" lon="2.0022">
        <ele>1718.178</ele>
        <time>2011-08-23T11:09:52Z</time>
      </trkpt>
      <trkpt lat="42.72815" lon="2.00227">
        <ele>1717.424</ele>
        <time>2011-08-23T11:09:55Z</time>
      </trkpt>
      <trkpt lat="42.72819" lon="2.00234">
        <ele>1716.333</ele>
        <time>2011-08-23T11:09:59Z</time>
      </trkpt>
      <trkpt lat="42.72816" lon="2.00234">
        <ele>1715.695</ele>
        <time>2011-08-23T11:10:01Z</time>
      </trkpt>
      <trkpt lat="42.72812" lon="2.00241">
        <ele>1714.796</ele>
        <time>2011-08-23T11:10:05Z</time>
      </trkpt>
      <trkpt lat="42.72809" lon="2.00256">
        <ele>1713.657</ele>
        <time>2011-08-23T11:10:08Z</time>
      </trkpt>
      <trkpt lat="42.72806" lon="2.0027">
        <ele>1712.85</ele>
        <time>2011-08-23T11:10:10Z</time>
      </trkpt>
      <trkpt lat="42.72804" lon="2.00277">
        <ele>1712.052</ele>
        <time>2011-08-23T11:10:11Z</time>
      </trkpt>
      <trkpt lat="42.728" lon="2.00299">
        <ele>1708.936</ele>
        <time>2011-08-23T11:10:15Z</time>
      </trkpt>
      <trkpt lat="42.72798" lon="2.00324">
        <ele>1705.934</ele>
        <time>2011-08-23T11:10:21Z</time>
      </trkpt>
      <trkpt lat="42.72801" lon="2.00332">
        <ele>1704.298</ele>
        <time>2011-08-23T11:10:25Z</time>
      </trkpt>
      <trkpt lat="42.728" lon="2.00337">
        <ele>1702.164</ele>
        <time>2011-08-23T11:10:32Z</time>
      </trkpt>
      <trkpt lat="42.72796" lon="2.00339">
        <ele>1701.814</ele>
        <time>2011-08-23T11:10:35Z</time>
      </trkpt>
      <trkpt lat="42.72792" lon="2.00347">
        <ele>1700.497</ele>
        <time>2011-08-23T11:10:39Z</time>
      </trkpt>
      <trkpt lat="42.72791" lon="2.00355">
        <ele>1699.116</ele>
        <time>2011-08-23T11:10:42Z</time>
      </trkpt>
      <trkpt lat="42.7279" lon="2.00371">
        <ele>1696.579</ele>
        <time>2011-08-23T11:10:48Z</time>
      </trkpt>
      <trkpt lat="42.72793" lon="2.00389">
        <ele>1693.586</ele>
        <time>2011-08-23T11:10:53Z</time>
      </trkpt>
      <trkpt lat="42.72791" lon="2.00403">
        <ele>1691.786</ele>
        <time>2011-08-23T11:10:56Z</time>
      </trkpt>
      <trkpt lat="42.72794" lon="2.00438">
        <ele>1690.315</ele>
        <time>2011-08-23T11:11:01Z</time>
      </trkpt>
      <trkpt lat="42.72803" lon="2.00469">
        <ele>1688.356</ele>
        <time>2011-08-23T11:11:05Z</time>
      </trkpt>
      <trkpt lat="42.72813" lon="2.00488">
        <ele>1687.549</ele>
        <time>2011-08-23T11:11:08Z</time>
      </trkpt>
      <trkpt lat="42.7283" lon="2.00515">
        <ele>1685.766</ele>
        <time>2011-08-23T11:11:14Z</time>
      </trkpt>
      <trkpt lat="42.72831" lon="2.00534">
        <ele>1685.583</ele>
        <time>2011-08-23T11:11:19Z</time>
      </trkpt>
      <trkpt lat="42.72827" lon="2.00556">
        <ele>1685.393</ele>
        <time>2011-08-23T11:11:24Z</time>
      </trkpt>
      <trkpt lat="42.7282" lon="2.00575">
        <ele>1685.597</ele>
        <time>2011-08-23T11:11:29Z</time>
      </trkpt>
      <trkpt lat="42.72813" lon="2.00599">
        <ele>1685.841</ele>
        <time>2011-08-23T11:11:35Z</time>
      </trkpt>
      <trkpt lat="42.7281" lon="2.00625">
        <ele>1685.795</ele>
        <time>2011-08-23T11:11:41Z</time>
      </trkpt>
      <trkpt lat="42.72812" lon="2.00658">
        <ele>1685.749</ele>
        <time>2011-08-23T11:11:48Z</time>
      </trkpt>
      <trkpt lat="42.72823" lon="2.00692">
        <ele>1685.446</ele>
        <time>2011-08-23T11:11:55Z</time>
      </trkpt>
      <trkpt lat="42.72837" lon="2.00727">
        <ele>1685.359</ele>
        <time>2011-08-23T11:12:03Z</time>
      </trkpt>
      <trkpt lat="42.72847" lon="2.00762">
        <ele>1685.269</ele>
        <time>2011-08-23T11:12:10Z</time>
      </trkpt>
      <trkpt lat="42.72855" lon="2.00783">
        <ele>1684.794</ele>
        <time>2011-08-23T11:12:14Z</time>
      </trkpt>
      <trkpt lat="42.72858" lon="2.00816">
        <ele>1683.868</ele>
        <time>2011-08-23T11:12:19Z</time>
      </trkpt>
      <trkpt lat="42.72858" lon="2.00824">
        <ele>1683.732</ele>
        <time>2011-08-23T11:12:20Z</time>
      </trkpt>
      <trkpt lat="42.72863" lon="2.00864">
        <ele>1680.877</ele>
        <time>2011-08-23T11:12:25Z</time>
      </trkpt>
      <trkpt lat="42.72866" lon="2.00914">
        <ele>1678.968</ele>
        <time>2011-08-23T11:12:32Z</time>
      </trkpt>
      <trkpt lat="42.72865" lon="2.0096">
        <ele>1678.423</ele>
        <time>2011-08-23T11:12:40Z</time>
      </trkpt>
      <trkpt lat="42.72864" lon="2.00985">
        <ele>1678.046</ele>
        <time>2011-08-23T11:12:44Z</time>
      </trkpt>
      <trkpt lat="42.72866" lon="2.0101">
        <ele>1677.176</ele>
        <time>2011-08-23T11:12:48Z</time>
      </trkpt>
      <trkpt lat="42.72872" lon="2.01058">
        <ele>1675.849</ele>
        <time>2011-08-23T11:12:55Z</time>
      </trkpt>
      <trkpt lat="42.72872" lon="2.01106">
        <ele>1673.761</ele>
        <time>2011-08-23T11:13:01Z</time>
      </trkpt>
      <trkpt lat="42.72872" lon="2.01126">
        <ele>1673.256</ele>
        <time>2011-08-23T11:13:04Z</time>
      </trkpt>
      <trkpt lat="42.72869" lon="2.01173">
        <ele>1671.702</ele>
        <time>2011-08-23T11:13:12Z</time>
      </trkpt>
      <trkpt lat="42.72867" lon="2.01208">
        <ele>1670.87</ele>
        <time>2011-08-23T11:13:19Z</time>
      </trkpt>
      <trkpt lat="42.72865" lon="2.01235">
        <ele>1670.404</ele>
        <time>2011-08-23T11:13:26Z</time>
      </trkpt>
      <trkpt lat="42.72864" lon="2.01239">
        <ele>1670.246</ele>
        <time>2011-08-23T11:13:27Z</time>
      </trkpt>
      <trkpt lat="42.72865" lon="2.01241">
        <ele>1669.814</ele>
        <time>2011-08-23T11:13:34Z</time>
      </trkpt>
      <trkpt lat="42.72865" lon="2.0124">
        <ele>1669.61</ele>
        <time>2011-08-23T11:13:52Z</time>
      </trkpt>
      <trkpt lat="42.72865" lon="2.01252">
        <ele>1669.429</ele>
        <time>2011-08-23T11:13:57Z</time>
      </trkpt>
      <trkpt lat="42.72867" lon="2.01267">
        <ele>1669.177</ele>
        <time>2011-08-23T11:14:00Z</time>
      </trkpt>
      <trkpt lat="42.72872" lon="2.01283">
        <ele>1668.786</ele>
        <time>2011-08-23T11:14:03Z</time>
      </trkpt>
      <trkpt lat="42.72879" lon="2.01306">
        <ele>1667.97</ele>
        <time>2011-08-23T11:14:08Z</time>
      </trkpt>
      <trkpt lat="42.72879" lon="2.01311">
        <ele>1667.75</ele>
        <time>2011-08-23T11:14:09Z</time>
      </trkpt>
      <trkpt lat="42.72881" lon="2.01327">
        <ele>1667.06</ele>
        <time>2011-08-23T11:14:12Z</time>
      </trkpt>
      <trkpt lat="42.7288" lon="2.01361">
        <ele>1663.073</ele>
        <time>2011-08-23T11:14:18Z</time>
      </trkpt>
      <trkpt lat="42.72879" lon="2.01384">
        <ele>1660.3</ele>
        <time>2011-08-23T11:14:23Z</time>
      </trkpt>
      <trkpt lat="42.7288" lon="2.01397">
        <ele>1658.623</ele>
        <time>2011-08-23T11:14:26Z</time>
      </trkpt>
      <trkpt lat="42.72882" lon="2.01426">
        <ele>1654.796</ele>
        <time>2011-08-23T11:14:32Z</time>
      </trkpt>
      <trkpt lat="42.72878" lon="2.01448">
        <ele>1652.172</ele>
        <time>2011-08-23T11:14:36Z</time>
      </trkpt>
      <trkpt lat="42.72863" lon="2.01465">
        <ele>1647.529</ele>
        <time>2011-08-23T11:14:41Z</time>
      </trkpt>
      <trkpt lat="42.7286" lon="2.01469">
        <ele>1646.629</ele>
        <time>2011-08-23T11:14:42Z</time>
      </trkpt>
      <trkpt lat="42.72855" lon="2.01479">
        <ele>1644.762</ele>
        <time>2011-08-23T11:14:44Z</time>
      </trkpt>
      <trkpt lat="42.72843" lon="2.01498">
        <ele>1641.585</ele>
        <time>2011-08-23T11:14:48Z</time>
      </trkpt>
      <trkpt lat="42.72828" lon="2.01513">
        <ele>1637.092</ele>
        <time>2011-08-23T11:14:52Z</time>
      </trkpt>
      <trkpt lat="42.72815" lon="2.01542">
        <ele>1632.414</ele>
        <time>2011-08-23T11:14:57Z</time>
      </trkpt>
      <trkpt lat="42.72814" lon="2.01548">
        <ele>1631.725</ele>
        <time>2011-08-23T11:14:58Z</time>
      </trkpt>
      <trkpt lat="42.72802" lon="2.01584">
        <ele>1626.775</ele>
        <time>2011-08-23T11:15:04Z</time>
      </trkpt>
      <trkpt lat="42.72797" lon="2.01596">
        <ele>1625.032</ele>
        <time>2011-08-23T11:15:06Z</time>
      </trkpt>
      <trkpt lat="42.7279" lon="2.01609">
        <ele>1623.481</ele>
        <time>2011-08-23T11:15:08Z</time>
      </trkpt>
      <trkpt lat="42.72768" lon="2.01641">
        <ele>1620.651</ele>
        <time>2011-08-23T11:15:13Z</time>
      </trkpt>
      <trkpt lat="42.72734" lon="2.01686">
        <ele>1617.674</ele>
        <time>2011-08-23T11:15:21Z</time>
      </trkpt>
      <trkpt lat="42.72713" lon="2.01725">
        <ele>1615.769</ele>
        <time>2011-08-23T11:15:27Z</time>
      </trkpt>
      <trkpt lat="42.72698" lon="2.01749">
        <ele>1614.787</ele>
        <time>2011-08-23T11:15:31Z</time>
      </trkpt>
      <trkpt lat="42.72678" lon="2.01763">
        <ele>1614.138</ele>
        <time>2011-08-23T11:15:37Z</time>
      </trkpt>
      <trkpt lat="42.7267" lon="2.01768">
        <ele>1614.408</ele>
        <time>2011-08-23T11:15:40Z</time>
      </trkpt>
      <trkpt lat="42.72652" lon="2.01784">
        <ele>1615.399</ele>
        <time>2011-08-23T11:15:49Z</time>
      </trkpt>
      <trkpt lat="42.72635" lon="2.01792">
        <ele>1616.188</ele>
        <time>2011-08-23T11:15:56Z</time>
      </trkpt>
      <trkpt lat="42.72624" lon="2.01798">
        <ele>1616.909</ele>
        <time>2011-08-23T11:16:01Z</time>
      </trkpt>
      <trkpt lat="42.72608" lon="2.01813">
        <ele>1617.699</ele>
        <time>2011-08-23T11:16:08Z</time>
      </trkpt>
      <trkpt lat="42.72595" lon="2.01835">
        <ele>1619.041</ele>
        <time>2011-08-23T11:16:15Z</time>
      </trkpt>
      <trkpt lat="42.72585" lon="2.01859">
        <ele>1620.039</ele>
        <time>2011-08-23T11:16:22Z</time>
      </trkpt>
      <trkpt lat="42.72572" lon="2.01884">
        <ele>1620.68</ele>
        <time>2011-08-23T11:16:29Z</time>
      </trkpt>
      <trkpt lat="42.72566" lon="2.01913">
        <ele>1621.761</ele>
        <time>2011-08-23T11:16:37Z</time>
      </trkpt>
      <trkpt lat="42.72561" lon="2.01943">
        <ele>1622.875</ele>
        <time>2011-08-23T11:16:46Z</time>
      </trkpt>
      <trkpt lat="42.72549" lon="2.01982">
        <ele>1624.029</ele>
        <time>2011-08-23T11:16:58Z</time>
      </trkpt>
      <trkpt lat="42.72538" lon="2.0201">
        <ele>1624.888</ele>
        <time>2011-08-23T11:17:07Z</time>
      </trkpt>
      <trkpt lat="42.72531" lon="2.02031">
        <ele>1626.267</ele>
        <time>2011-08-23T11:17:15Z</time>
      </trkpt>
      <trkpt lat="42.72527" lon="2.02046">
        <ele>1626.903</ele>
        <time>2011-08-23T11:17:21Z</time>
      </trkpt>
      <trkpt lat="42.7252" lon="2.02064">
        <ele>1627.46</ele>
        <time>2011-08-23T11:17:29Z</time>
      </trkpt>
      <trkpt lat="42.72512" lon="2.02082">
        <ele>1628.578</ele>
        <time>2011-08-23T11:17:37Z</time>
      </trkpt>
      <trkpt lat="42.72502" lon="2.02095">
        <ele>1629.116</ele>
        <time>2011-08-23T11:17:44Z</time>
      </trkpt>
      <trkpt lat="42.72489" lon="2.02113">
        <ele>1629.152</ele>
        <time>2011-08-23T11:17:52Z</time>
      </trkpt>
      <trkpt lat="42.72476" lon="2.02136">
        <ele>1629.218</ele>
        <time>2011-08-23T11:18:00Z</time>
      </trkpt>
      <trkpt lat="42.72462" lon="2.0216">
        <ele>1629.318</ele>
        <time>2011-08-23T11:18:08Z</time>
      </trkpt>
      <trkpt lat="42.72448" lon="2.02177">
        <ele>1629.619</ele>
        <time>2011-08-23T11:18:14Z</time>
      </trkpt>
      <trkpt lat="42.72428" lon="2.02191">
        <ele>1628.927</ele>
        <time>2011-08-23T11:18:20Z</time>
      </trkpt>
      <trkpt lat="42.72404" lon="2.02201">
        <ele>1627.596</ele>
        <time>2011-08-23T11:18:25Z</time>
      </trkpt>
      <trkpt lat="42.72381" lon="2.02217">
        <ele>1628.195</ele>
        <time>2011-08-23T11:18:32Z</time>
      </trkpt>
      <trkpt lat="42.72365" lon="2.02228">
        <ele>1629.397</ele>
        <time>2011-08-23T11:18:39Z</time>
      </trkpt>
      <trkpt lat="42.72352" lon="2.02233">
        <ele>1630.258</ele>
        <time>2011-08-23T11:18:44Z</time>
      </trkpt>
      <trkpt lat="42.72337" lon="2.0224">
        <ele>1631.909</ele>
        <time>2011-08-23T11:18:51Z</time>
      </trkpt>
      <trkpt lat="42.7232" lon="2.02243">
        <ele>1633.317</ele>
        <time>2011-08-23T11:18:59Z</time>
      </trkpt>
      <trkpt lat="42.7231" lon="2.0224">
        <ele>1633.86</ele>
        <time>2011-08-23T11:19:05Z</time>
      </trkpt>
      <trkpt lat="42.7231" lon="2.0224">
        <ele>1633.845</ele>
        <time>2011-08-23T11:19:07Z</time>
      </trkpt>
      <trkpt lat="42.72309" lon="2.02241">
        <ele>1633.749</ele>
        <time>2011-08-23T11:19:13Z</time>
      </trkpt>
      <trkpt lat="42.72305" lon="2.02242">
        <ele>1633.448</ele>
        <time>2011-08-23T11:19:17Z</time>
      </trkpt>
      <trkpt lat="42.72295" lon="2.0224">
        <ele>1633.375</ele>
        <time>2011-08-23T11:19:22Z</time>
      </trkpt>
      <trkpt lat="42.72286" lon="2.02224">
        <ele>1633.676</ele>
        <time>2011-08-23T11:19:27Z</time>
      </trkpt>
      <trkpt lat="42.72284" lon="2.02203">
        <ele>1634.208</ele>
        <time>2011-08-23T11:19:32Z</time>
      </trkpt>
      <trkpt lat="42.7228" lon="2.02162">
        <ele>1634.458</ele>
        <time>2011-08-23T11:19:41Z</time>
      </trkpt>
      <trkpt lat="42.7228" lon="2.02118">
        <ele>1634.227</ele>
        <time>2011-08-23T11:19:49Z</time>
      </trkpt>
      <trkpt lat="42.72277" lon="2.02079">
        <ele>1634.396</ele>
        <time>2011-08-23T11:19:57Z</time>
      </trkpt>
      <trkpt lat="42.72277" lon="2.02034">
        <ele>1634.76</ele>
        <time>2011-08-23T11:20:06Z</time>
      </trkpt>
      <trkpt lat="42.72276" lon="2.02">
        <ele>1634.594</ele>
        <time>2011-08-23T11:20:13Z</time>
      </trkpt>
      <trkpt lat="42.72273" lon="2.01961">
        <ele>1634.4</ele>
        <time>2011-08-23T11:20:21Z</time>
      </trkpt>
      <trkpt lat="42.72268" lon="2.01917">
        <ele>1633.694</ele>
        <time>2011-08-23T11:20:29Z</time>
      </trkpt>
      <trkpt lat="42.72264" lon="2.01877">
        <ele>1634.416</ele>
        <time>2011-08-23T11:20:37Z</time>
      </trkpt>
      <trkpt lat="42.72258" lon="2.01846">
        <ele>1634.287</ele>
        <time>2011-08-23T11:20:43Z</time>
      </trkpt>
      <trkpt lat="42.72255" lon="2.01817">
        <ele>1634.227</ele>
        <time>2011-08-23T11:20:49Z</time>
      </trkpt>
      <trkpt lat="42.72251" lon="2.01786">
        <ele>1634.91</ele>
        <time>2011-08-23T11:20:56Z</time>
      </trkpt>
      <trkpt lat="42.72246" lon="2.01758">
        <ele>1635.948</ele>
        <time>2011-08-23T11:21:03Z</time>
      </trkpt>
      <trkpt lat="42.72242" lon="2.01736">
        <ele>1636.896</ele>
        <time>2011-08-23T11:21:09Z</time>
      </trkpt>
      <trkpt lat="42.72231" lon="2.01715">
        <ele>1637.289</ele>
        <time>2011-08-23T11:21:15Z</time>
      </trkpt>
      <trkpt lat="42.72214" lon="2.01691">
        <ele>1638.027</ele>
        <time>2011-08-23T11:21:22Z</time>
      </trkpt>
      <trkpt lat="42.722" lon="2.01673">
        <ele>1639.249</ele>
        <time>2011-08-23T11:21:29Z</time>
      </trkpt>
      <trkpt lat="42.72199" lon="2.01671">
        <ele>1639.336</ele>
        <time>2011-08-23T11:21:30Z</time>
      </trkpt>
      <trkpt lat="42.72195" lon="2.0167">
        <ele>1638.813</ele>
        <time>2011-08-23T11:21:35Z</time>
      </trkpt>
      <trkpt lat="42.72194" lon="2.01669">
        <ele>1639.054</ele>
        <time>2011-08-23T11:22:43Z</time>
      </trkpt>
      <trkpt lat="42.72184" lon="2.01671">
        <ele>1639.409</ele>
        <time>2011-08-23T11:22:50Z</time>
      </trkpt>
      <trkpt lat="42.72167" lon="2.01672">
        <ele>1640.822</ele>
        <time>2011-08-23T11:22:58Z</time>
      </trkpt>
      <trkpt lat="42.72145" lon="2.01678">
        <ele>1642.81</ele>
        <time>2011-08-23T11:23:08Z</time>
      </trkpt>
      <trkpt lat="42.72132" lon="2.01684">
        <ele>1643.897</ele>
        <time>2011-08-23T11:23:15Z</time>
      </trkpt>
      <trkpt lat="42.72114" lon="2.01693">
        <ele>1646.403</ele>
        <time>2011-08-23T11:23:24Z</time>
      </trkpt>
      <trkpt lat="42.72102" lon="2.01702">
        <ele>1647.479</ele>
        <time>2011-08-23T11:23:30Z</time>
      </trkpt>
      <trkpt lat="42.72085" lon="2.01715">
        <ele>1648.239</ele>
        <time>2011-08-23T11:23:38Z</time>
      </trkpt>
      <trkpt lat="42.72069" lon="2.01729">
        <ele>1648.557</ele>
        <time>2011-08-23T11:23:45Z</time>
      </trkpt>
      <trkpt lat="42.72046" lon="2.01751">
        <ele>1648.238</ele>
        <time>2011-08-23T11:23:53Z</time>
      </trkpt>
      <trkpt lat="42.72028" lon="2.01771">
        <ele>1648.991</ele>
        <time>2011-08-23T11:24:00Z</time>
      </trkpt>
      <trkpt lat="42.72006" lon="2.01794">
        <ele>1649.035</ele>
        <time>2011-08-23T11:24:08Z</time>
      </trkpt>
      <trkpt lat="42.71987" lon="2.01815">
        <ele>1649.459</ele>
        <time>2011-08-23T11:24:15Z</time>
      </trkpt>
      <trkpt lat="42.71967" lon="2.01835">
        <ele>1650.221</ele>
        <time>2011-08-23T11:24:23Z</time>
      </trkpt>
      <trkpt lat="42.71952" lon="2.01849">
        <ele>1651.08</ele>
        <time>2011-08-23T11:24:29Z</time>
      </trkpt>
      <trkpt lat="42.71934" lon="2.01867">
        <ele>1651.777</ele>
        <time>2011-08-23T11:24:36Z</time>
      </trkpt>
      <trkpt lat="42.71912" lon="2.01887">
        <ele>1652.917</ele>
        <time>2011-08-23T11:24:44Z</time>
      </trkpt>
      <trkpt lat="42.71896" lon="2.01899">
        <ele>1653.833</ele>
        <time>2011-08-23T11:24:51Z</time>
      </trkpt>
      <trkpt lat="42.71879" lon="2.01907">
        <ele>1654.477</ele>
        <time>2011-08-23T11:24:57Z</time>
      </trkpt>
      <trkpt lat="42.71854" lon="2.01913">
        <ele>1655.448</ele>
        <time>2011-08-23T11:25:05Z</time>
      </trkpt>
      <trkpt lat="42.71831" lon="2.01912">
        <ele>1655.169</ele>
        <time>2011-08-23T11:25:11Z</time>
      </trkpt>
      <trkpt lat="42.71807" lon="2.019">
        <ele>1654.969</ele>
        <time>2011-08-23T11:25:17Z</time>
      </trkpt>
      <trkpt lat="42.71786" lon="2.01884">
        <ele>1654.382</ele>
        <time>2011-08-23T11:25:22Z</time>
      </trkpt>
      <trkpt lat="42.7175" lon="2.01852">
        <ele>1653.077</ele>
        <time>2011-08-23T11:25:30Z</time>
      </trkpt>
      <trkpt lat="42.7173" lon="2.01836">
        <ele>1653.284</ele>
        <time>2011-08-23T11:25:36Z</time>
      </trkpt>
      <trkpt lat="42.71712" lon="2.01826">
        <ele>1655.464</ele>
        <time>2011-08-23T11:25:43Z</time>
      </trkpt>
      <trkpt lat="42.71694" lon="2.01826">
        <ele>1656.897</ele>
        <time>2011-08-23T11:25:50Z</time>
      </trkpt>
      <trkpt lat="42.71673" lon="2.01826">
        <ele>1657.79</ele>
        <time>2011-08-23T11:25:58Z</time>
      </trkpt>
      <trkpt lat="42.71655" lon="2.01825">
        <ele>1658.675</ele>
        <time>2011-08-23T11:26:05Z</time>
      </trkpt>
      <trkpt lat="42.71635" lon="2.0183">
        <ele>1658.762</ele>
        <time>2011-08-23T11:26:11Z</time>
      </trkpt>
      <trkpt lat="42.71604" lon="2.01841">
        <ele>1657.411</ele>
        <time>2011-08-23T11:26:18Z</time>
      </trkpt>
      <trkpt lat="42.7159" lon="2.01841">
        <ele>1657.535</ele>
        <time>2011-08-23T11:26:22Z</time>
      </trkpt>
      <trkpt lat="42.71578" lon="2.0184">
        <ele>1659.528</ele>
        <time>2011-08-23T11:26:28Z</time>
      </trkpt>
      <trkpt lat="42.71566" lon="2.01841">
        <ele>1660.584</ele>
        <time>2011-08-23T11:26:34Z</time>
      </trkpt>
      <trkpt lat="42.71548" lon="2.01843">
        <ele>1661.581</ele>
        <time>2011-08-23T11:26:41Z</time>
      </trkpt>
      <trkpt lat="42.71531" lon="2.01843">
        <ele>1663.431</ele>
        <time>2011-08-23T11:26:49Z</time>
      </trkpt>
      <trkpt lat="42.7152" lon="2.01842">
        <ele>1664.984</ele>
        <time>2011-08-23T11:26:55Z</time>
      </trkpt>
      <trkpt lat="42.71503" lon="2.01839">
        <ele>1666.258</ele>
        <time>2011-08-23T11:27:03Z</time>
      </trkpt>
      <trkpt lat="42.71491" lon="2.01839">
        <ele>1667.66</ele>
        <time>2011-08-23T11:27:09Z</time>
      </trkpt>
      <trkpt lat="42.71482" lon="2.01838">
        <ele>1668.4</ele>
        <time>2011-08-23T11:27:14Z</time>
      </trkpt>
      <trkpt lat="42.71466" lon="2.0184">
        <ele>1668.739</ele>
        <time>2011-08-23T11:27:20Z</time>
      </trkpt>
      <trkpt lat="42.7145" lon="2.01844">
        <ele>1668.783</ele>
        <time>2011-08-23T11:27:26Z</time>
      </trkpt>
      <trkpt lat="42.71434" lon="2.01848">
        <ele>1669.511</ele>
        <time>2011-08-23T11:27:32Z</time>
      </trkpt>
      <trkpt lat="42.71419" lon="2.01853">
        <ele>1670.1</ele>
        <time>2011-08-23T11:27:37Z</time>
      </trkpt>
      <trkpt lat="42.71402" lon="2.01868">
        <ele>1670.955</ele>
        <time>2011-08-23T11:27:44Z</time>
      </trkpt>
      <trkpt lat="42.71392" lon="2.0188">
        <ele>1671.566</ele>
        <time>2011-08-23T11:27:49Z</time>
      </trkpt>
      <trkpt lat="42.71378" lon="2.01893">
        <ele>1671.712</ele>
        <time>2011-08-23T11:27:55Z</time>
      </trkpt>
      <trkpt lat="42.71365" lon="2.01904">
        <ele>1671.902</ele>
        <time>2011-08-23T11:28:01Z</time>
      </trkpt>
      <trkpt lat="42.71353" lon="2.0191">
        <ele>1672.174</ele>
        <time>2011-08-23T11:28:06Z</time>
      </trkpt>
      <trkpt lat="42.71335" lon="2.01912">
        <ele>1672.553</ele>
        <time>2011-08-23T11:28:12Z</time>
      </trkpt>
      <trkpt lat="42.71316" lon="2.01903">
        <ele>1673.788</ele>
        <time>2011-08-23T11:28:19Z</time>
      </trkpt>
      <trkpt lat="42.71304" lon="2.01887">
        <ele>1674.825</ele>
        <time>2011-08-23T11:28:26Z</time>
      </trkpt>
      <trkpt lat="42.71304" lon="2.01874">
        <ele>1676.285</ele>
        <time>2011-08-23T11:28:31Z</time>
      </trkpt>
      <trkpt lat="42.71313" lon="2.01864">
        <ele>1677.938</ele>
        <time>2011-08-23T11:28:37Z</time>
      </trkpt>
      <trkpt lat="42.71327" lon="2.01857">
        <ele>1679.955</ele>
        <time>2011-08-23T11:28:45Z</time>
      </trkpt>
      <trkpt lat="42.71329" lon="2.01857">
        <ele>1680.226</ele>
        <time>2011-08-23T11:28:47Z</time>
      </trkpt>
      <trkpt lat="42.71346" lon="2.01855">
        <ele>1680.876</ele>
        <time>2011-08-23T11:28:56Z</time>
      </trkpt>
      <trkpt lat="42.71356" lon="2.01852">
        <ele>1680.894</ele>
        <time>2011-08-23T11:29:02Z</time>
      </trkpt>
      <trkpt lat="42.71354" lon="2.01852">
        <ele>1682.969</ele>
        <time>2011-08-23T11:29:09Z</time>
      </trkpt>
      <trkpt lat="42.71354" lon="2.01851">
        <ele>1680.914</ele>
        <time>2011-08-23T11:30:22Z</time>
      </trkpt>
      <trkpt lat="42.71368" lon="2.01843">
        <ele>1681.315</ele>
        <time>2011-08-23T11:30:27Z</time>
      </trkpt>
      <trkpt lat="42.71387" lon="2.0183">
        <ele>1681.219</ele>
        <time>2011-08-23T11:30:33Z</time>
      </trkpt>
      <trkpt lat="42.71404" lon="2.01818">
        <ele>1682.113</ele>
        <time>2011-08-23T11:30:39Z</time>
      </trkpt>
      <trkpt lat="42.71421" lon="2.01808">
        <ele>1684.238</ele>
        <time>2011-08-23T11:30:46Z</time>
      </trkpt>
      <trkpt lat="42.71438" lon="2.01802">
        <ele>1684.464</ele>
        <time>2011-08-23T11:30:52Z</time>
      </trkpt>
      <trkpt lat="42.71462" lon="2.01792">
        <ele>1684.456</ele>
        <time>2011-08-23T11:30:59Z</time>
      </trkpt>
      <trkpt lat="42.71481" lon="2.01787">
        <ele>1684.977</ele>
        <time>2011-08-23T11:31:04Z</time>
      </trkpt>
      <trkpt lat="42.71495" lon="2.01784">
        <ele>1685.169</ele>
        <time>2011-08-23T11:31:08Z</time>
      </trkpt>
      <trkpt lat="42.71511" lon="2.01779">
        <ele>1686.548</ele>
        <time>2011-08-23T11:31:13Z</time>
      </trkpt>
      <trkpt lat="42.71527" lon="2.01775">
        <ele>1688.262</ele>
        <time>2011-08-23T11:31:19Z</time>
      </trkpt>
      <trkpt lat="42.71551" lon="2.01768">
        <ele>1688.996</ele>
        <time>2011-08-23T11:31:27Z</time>
      </trkpt>
      <trkpt lat="42.7156" lon="2.01766">
        <ele>1688.773</ele>
        <time>2011-08-23T11:31:29Z</time>
      </trkpt>
      <trkpt lat="42.71586" lon="2.0175">
        <ele>1689.052</ele>
        <time>2011-08-23T11:31:36Z</time>
      </trkpt>
      <trkpt lat="42.71602" lon="2.01738">
        <ele>1689.535</ele>
        <time>2011-08-23T11:31:41Z</time>
      </trkpt>
      <trkpt lat="42.71626" lon="2.01729">
        <ele>1689.312</ele>
        <time>2011-08-23T11:31:47Z</time>
      </trkpt>
      <trkpt lat="42.71646" lon="2.01722">
        <ele>1689.85</ele>
        <time>2011-08-23T11:31:53Z</time>
      </trkpt>
      <trkpt lat="42.71668" lon="2.01712">
        <ele>1692.347</ele>
        <time>2011-08-23T11:32:02Z</time>
      </trkpt>
      <trkpt lat="42.71682" lon="2.01705">
        <ele>1693.204</ele>
        <time>2011-08-23T11:32:08Z</time>
      </trkpt>
      <trkpt lat="42.71698" lon="2.01702">
        <ele>1693.631</ele>
        <time>2011-08-23T11:32:14Z</time>
      </trkpt>
      <trkpt lat="42.71714" lon="2.01698">
        <ele>1694.135</ele>
        <time>2011-08-23T11:32:20Z</time>
      </trkpt>
      <trkpt lat="42.71727" lon="2.01695">
        <ele>1694.961</ele>
        <time>2011-08-23T11:32:25Z</time>
      </trkpt>
      <trkpt lat="42.71745" lon="2.01695">
        <ele>1695.992</ele>
        <time>2011-08-23T11:32:32Z</time>
      </trkpt>
      <trkpt lat="42.71765" lon="2.01697">
        <ele>1697.854</ele>
        <time>2011-08-23T11:32:40Z</time>
      </trkpt>
      <trkpt lat="42.71772" lon="2.01698">
        <ele>1698.648</ele>
        <time>2011-08-23T11:32:43Z</time>
      </trkpt>
      <trkpt lat="42.7179" lon="2.01696">
        <ele>1701.38</ele>
        <time>2011-08-23T11:32:52Z</time>
      </trkpt>
      <trkpt lat="42.71803" lon="2.01695">
        <ele>1703.104</ele>
        <time>2011-08-23T11:32:59Z</time>
      </trkpt>
      <trkpt lat="42.71818" lon="2.01691">
        <ele>1705.592</ele>
        <time>2011-08-23T11:33:07Z</time>
      </trkpt>
      <trkpt lat="42.71837" lon="2.01689">
        <ele>1707.807</ele>
        <time>2011-08-23T11:33:17Z</time>
      </trkpt>
      <trkpt lat="42.71855" lon="2.01687">
        <ele>1709.334</ele>
        <time>2011-08-23T11:33:26Z</time>
      </trkpt>
      <trkpt lat="42.7187" lon="2.01681">
        <ele>1710.863</ele>
        <time>2011-08-23T11:33:34Z</time>
      </trkpt>
      <trkpt lat="42.7189" lon="2.01667">
        <ele>1713.025</ele>
        <time>2011-08-23T11:33:45Z</time>
      </trkpt>
      <trkpt lat="42.71902" lon="2.01657">
        <ele>1713.668</ele>
        <time>2011-08-23T11:33:52Z</time>
      </trkpt>
      <trkpt lat="42.71917" lon="2.01642">
        <ele>1714.964</ele>
        <time>2011-08-23T11:34:00Z</time>
      </trkpt>
      <trkpt lat="42.71935" lon="2.0162">
        <ele>1716.138</ele>
        <time>2011-08-23T11:34:09Z</time>
      </trkpt>
      <trkpt lat="42.71949" lon="2.01601">
        <ele>1716.457</ele>
        <time>2011-08-23T11:34:16Z</time>
      </trkpt>
      <trkpt lat="42.7196" lon="2.01582">
        <ele>1716.564</ele>
        <time>2011-08-23T11:34:22Z</time>
      </trkpt>
      <trkpt lat="42.71976" lon="2.0156">
        <ele>1717.785</ele>
        <time>2011-08-23T11:34:30Z</time>
      </trkpt>
      <trkpt lat="42.71987" lon="2.01539">
        <ele>1718.599</ele>
        <time>2011-08-23T11:34:37Z</time>
      </trkpt>
      <trkpt lat="42.71996" lon="2.01515">
        <ele>1719.616</ele>
        <time>2011-08-23T11:34:45Z</time>
      </trkpt>
      <trkpt lat="42.72005" lon="2.01494">
        <ele>1721.5</ele>
        <time>2011-08-23T11:34:53Z</time>
      </trkpt>
      <trkpt lat="42.72017" lon="2.01466">
        <ele>1723.14</ele>
        <time>2011-08-23T11:35:03Z</time>
      </trkpt>
      <trkpt lat="42.72025" lon="2.01444">
        <ele>1723.958</ele>
        <time>2011-08-23T11:35:10Z</time>
      </trkpt>
      <trkpt lat="42.72031" lon="2.01422">
        <ele>1725.221</ele>
        <time>2011-08-23T11:35:17Z</time>
      </trkpt>
      <trkpt lat="42.72037" lon="2.01401">
        <ele>1726.59</ele>
        <time>2011-08-23T11:35:24Z</time>
      </trkpt>
      <trkpt lat="42.72039" lon="2.0138">
        <ele>1727.62</ele>
        <time>2011-08-23T11:35:31Z</time>
      </trkpt>
      <trkpt lat="42.72041" lon="2.01359">
        <ele>1728.919</ele>
        <time>2011-08-23T11:35:38Z</time>
      </trkpt>
      <trkpt lat="42.72047" lon="2.01339">
        <ele>1730.188</ele>
        <time>2011-08-23T11:35:45Z</time>
      </trkpt>
      <trkpt lat="42.72057" lon="2.01327">
        <ele>1730.817</ele>
        <time>2011-08-23T11:35:51Z</time>
      </trkpt>
      <trkpt lat="42.7207" lon="2.0131">
        <ele>1731.7</ele>
        <time>2011-08-23T11:35:59Z</time>
      </trkpt>
      <trkpt lat="42.72081" lon="2.01296">
        <ele>1732.686</ele>
        <time>2011-08-23T11:36:06Z</time>
      </trkpt>
      <trkpt lat="42.72091" lon="2.01284">
        <ele>1733.39</ele>
        <time>2011-08-23T11:36:13Z</time>
      </trkpt>
      <trkpt lat="42.72105" lon="2.01264">
        <ele>1733.067</ele>
        <time>2011-08-23T11:36:20Z</time>
      </trkpt>
      <trkpt lat="42.7212" lon="2.01237">
        <ele>1733.906</ele>
        <time>2011-08-23T11:36:28Z</time>
      </trkpt>
      <trkpt lat="42.72132" lon="2.01229">
        <ele>1734.65</ele>
        <time>2011-08-23T11:36:33Z</time>
      </trkpt>
      <trkpt lat="42.7215" lon="2.01228">
        <ele>1734.797</ele>
        <time>2011-08-23T11:36:39Z</time>
      </trkpt>
      <trkpt lat="42.72172" lon="2.0124">
        <ele>1735.205</ele>
        <time>2011-08-23T11:36:46Z</time>
      </trkpt>
      <trkpt lat="42.72194" lon="2.01248">
        <ele>1736.053</ele>
        <time>2011-08-23T11:36:54Z</time>
      </trkpt>
      <trkpt lat="42.72207" lon="2.01246">
        <ele>1736.007</ele>
        <time>2011-08-23T11:36:58Z</time>
      </trkpt>
      <trkpt lat="42.72225" lon="2.01245">
        <ele>1736.819</ele>
        <time>2011-08-23T11:37:04Z</time>
      </trkpt>
      <trkpt lat="42.72244" lon="2.01253">
        <ele>1737.772</ele>
        <time>2011-08-23T11:37:10Z</time>
      </trkpt>
      <trkpt lat="42.7226" lon="2.01268">
        <ele>1738.369</ele>
        <time>2011-08-23T11:37:16Z</time>
      </trkpt>
      <trkpt lat="42.72277" lon="2.01293">
        <ele>1740.159</ele>
        <time>2011-08-23T11:37:25Z</time>
      </trkpt>
      <trkpt lat="42.7229" lon="2.01312">
        <ele>1741.33</ele>
        <time>2011-08-23T11:37:32Z</time>
      </trkpt>
      <trkpt lat="42.723" lon="2.01325">
        <ele>1742.024</ele>
        <time>2011-08-23T11:37:38Z</time>
      </trkpt>
      <trkpt lat="42.72303" lon="2.01325">
        <ele>1742.348</ele>
        <time>2011-08-23T11:37:42Z</time>
      </trkpt>
      <trkpt lat="42.72305" lon="2.01325">
        <ele>1742.745</ele>
        <time>2011-08-23T11:37:51Z</time>
      </trkpt>
      <trkpt lat="42.7231" lon="2.01322">
        <ele>1742.903</ele>
        <time>2011-08-23T11:37:55Z</time>
      </trkpt>
      <trkpt lat="42.72312" lon="2.01307">
        <ele>1743.274</ele>
        <time>2011-08-23T11:38:00Z</time>
      </trkpt>
      <trkpt lat="42.72312" lon="2.01304">
        <ele>1743.386</ele>
        <time>2011-08-23T11:38:01Z</time>
      </trkpt>
      <trkpt lat="42.72306" lon="2.01283">
        <ele>1744.395</ele>
        <time>2011-08-23T11:38:08Z</time>
      </trkpt>
      <trkpt lat="42.723" lon="2.01267">
        <ele>1744.834</ele>
        <time>2011-08-23T11:38:14Z</time>
      </trkpt>
      <trkpt lat="42.72298" lon="2.01263">
        <ele>1745.002</ele>
        <time>2011-08-23T11:38:20Z</time>
      </trkpt>
      <trkpt lat="42.72297" lon="2.01256">
        <ele>1744.97</ele>
        <time>2011-08-23T11:38:30Z</time>
      </trkpt>
      <trkpt lat="42.72296" lon="2.01236">
        <ele>1744.919</ele>
        <time>2011-08-23T11:38:37Z</time>
      </trkpt>
      <trkpt lat="42.72294" lon="2.01209">
        <ele>1744.984</ele>
        <time>2011-08-23T11:38:46Z</time>
      </trkpt>
      <trkpt lat="42.72297" lon="2.01195">
        <ele>1744.974</ele>
        <time>2011-08-23T11:38:51Z</time>
      </trkpt>
      <trkpt lat="42.72298" lon="2.01186">
        <ele>1745.028</ele>
        <time>2011-08-23T11:38:56Z</time>
      </trkpt>
      <trkpt lat="42.72298" lon="2.01187">
        <ele>1744.853</ele>
        <time>2011-08-23T11:39:06Z</time>
      </trkpt>
      <trkpt lat="42.72295" lon="2.01199">
        <ele>1744.83</ele>
        <time>2011-08-23T11:39:12Z</time>
      </trkpt>
      <trkpt lat="42.72292" lon="2.01213">
        <ele>1745.032</ele>
        <time>2011-08-23T11:39:17Z</time>
      </trkpt>
      <trkpt lat="42.72291" lon="2.01214">
        <ele>1744.95</ele>
        <time>2011-08-23T11:41:06Z</time>
      </trkpt>
      <trkpt lat="42.72293" lon="2.01209">
        <ele>1745.015</ele>
        <time>2011-08-23T11:41:10Z</time>
      </trkpt>
      <trkpt lat="42.72298" lon="2.01183">
        <ele>1745.024</ele>
        <time>2011-08-23T11:41:17Z</time>
      </trkpt>
      <trkpt lat="42.72297" lon="2.01153">
        <ele>1744.784</ele>
        <time>2011-08-23T11:41:23Z</time>
      </trkpt>
      <trkpt lat="42.72297" lon="2.01148">
        <ele>1744.872</ele>
        <time>2011-08-23T11:41:24Z</time>
      </trkpt>
      <trkpt lat="42.72301" lon="2.01111">
        <ele>1744.264</ele>
        <time>2011-08-23T11:41:30Z</time>
      </trkpt>
      <trkpt lat="42.72303" lon="2.01096">
        <ele>1743.953</ele>
        <time>2011-08-23T11:41:32Z</time>
      </trkpt>
      <trkpt lat="42.72313" lon="2.01051">
        <ele>1743.219</ele>
        <time>2011-08-23T11:41:38Z</time>
      </trkpt>
      <trkpt lat="42.72317" lon="2.01032">
        <ele>1743.288</ele>
        <time>2011-08-23T11:41:42Z</time>
      </trkpt>
      <trkpt lat="42.72319" lon="2.01006">
        <ele>1744.52</ele>
        <time>2011-08-23T11:41:49Z</time>
      </trkpt>
      <trkpt lat="42.72317" lon="2.00988">
        <ele>1744.566</ele>
        <time>2011-08-23T11:41:55Z</time>
      </trkpt>
      <trkpt lat="42.72315" lon="2.00965">
        <ele>1744.334</ele>
        <time>2011-08-23T11:42:01Z</time>
      </trkpt>
      <trkpt lat="42.72315" lon="2.00945">
        <ele>1744.638</ele>
        <time>2011-08-23T11:42:07Z</time>
      </trkpt>
      <trkpt lat="42.72319" lon="2.00913">
        <ele>1745.346</ele>
        <time>2011-08-23T11:42:16Z</time>
      </trkpt>
      <trkpt lat="42.7233" lon="2.00891">
        <ele>1745.801</ele>
        <time>2011-08-23T11:42:24Z</time>
      </trkpt>
      <trkpt lat="42.72326" lon="2.0089">
        <ele>1745.669</ele>
        <time>2011-08-23T11:42:28Z</time>
      </trkpt>
      <trkpt lat="42.72325" lon="2.00893">
        <ele>1745.839</ele>
        <time>2011-08-23T11:42:29Z</time>
      </trkpt>
      <trkpt lat="42.72321" lon="2.00907">
        <ele>1745.827</ele>
        <time>2011-08-23T11:42:35Z</time>
      </trkpt>
      <trkpt lat="42.72317" lon="2.00924">
        <ele>1745.6</ele>
        <time>2011-08-23T11:42:40Z</time>
      </trkpt>
      <trkpt lat="42.72317" lon="2.00962">
        <ele>1744.961</ele>
        <time>2011-08-23T11:42:47Z</time>
      </trkpt>
      <trkpt lat="42.72319" lon="2.01002">
        <ele>1744.291</ele>
        <time>2011-08-23T11:42:54Z</time>
      </trkpt>
      <trkpt lat="42.72318" lon="2.01034">
        <ele>1743.762</ele>
        <time>2011-08-23T11:43:00Z</time>
      </trkpt>
      <trkpt lat="42.72311" lon="2.0107">
        <ele>1742.251</ele>
        <time>2011-08-23T11:43:05Z</time>
      </trkpt>
      <trkpt lat="42.72309" lon="2.01077">
        <ele>1741.966</ele>
        <time>2011-08-23T11:43:06Z</time>
      </trkpt>
      <trkpt lat="42.72304" lon="2.01093">
        <ele>1741.855</ele>
        <time>2011-08-23T11:43:09Z</time>
      </trkpt>
      <trkpt lat="42.72299" lon="2.01132">
        <ele>1743.404</ele>
        <time>2011-08-23T11:43:16Z</time>
      </trkpt>
      <trkpt lat="42.72299" lon="2.01165">
        <ele>1744.293</ele>
        <time>2011-08-23T11:43:23Z</time>
      </trkpt>
      <trkpt lat="42.72299" lon="2.01193">
        <ele>1744.522</ele>
        <time>2011-08-23T11:43:29Z</time>
      </trkpt>
      <trkpt lat="42.72294" lon="2.0122">
        <ele>1744.815</ele>
        <time>2011-08-23T11:43:35Z</time>
      </trkpt>
      <trkpt lat="42.72295" lon="2.0125">
        <ele>1744.716</ele>
        <time>2011-08-23T11:43:42Z</time>
      </trkpt>
      <trkpt lat="42.72295" lon="2.01258">
        <ele>1744.606</ele>
        <time>2011-08-23T11:43:45Z</time>
      </trkpt>
      <trkpt lat="42.72291" lon="2.01262">
        <ele>1744.955</ele>
        <time>2011-08-23T11:43:50Z</time>
      </trkpt>
      <trkpt lat="42.72298" lon="2.01271">
        <ele>1744.777</ele>
        <time>2011-08-23T11:43:55Z</time>
      </trkpt>
      <trkpt lat="42.72304" lon="2.01283">
        <ele>1744.432</ele>
        <time>2011-08-23T11:43:58Z</time>
      </trkpt>
      <trkpt lat="42.7231" lon="2.01306">
        <ele>1743.931</ele>
        <time>2011-08-23T11:44:02Z</time>
      </trkpt>
      <trkpt lat="42.72306" lon="2.01327">
        <ele>1743.227</ele>
        <time>2011-08-23T11:44:06Z</time>
      </trkpt>
      <trkpt lat="42.72302" lon="2.01327">
        <ele>1742.469</ele>
        <time>2011-08-23T11:44:09Z</time>
      </trkpt>
      <trkpt lat="42.723" lon="2.01327">
        <ele>1742.161</ele>
        <time>2011-08-23T11:44:15Z</time>
      </trkpt>
      <trkpt lat="42.72296" lon="2.01325">
        <ele>1742.052</ele>
        <time>2011-08-23T11:44:21Z</time>
      </trkpt>
      <trkpt lat="42.72292" lon="2.01318">
        <ele>1741.852</ele>
        <time>2011-08-23T11:44:23Z</time>
      </trkpt>
      <trkpt lat="42.72271" lon="2.01281">
        <ele>1740.318</ele>
        <time>2011-08-23T11:44:30Z</time>
      </trkpt>
      <trkpt lat="42.72254" lon="2.01259">
        <ele>1738.751</ele>
        <time>2011-08-23T11:44:34Z</time>
      </trkpt>
      <trkpt lat="42.72225" lon="2.01242">
        <ele>1737.436</ele>
        <time>2011-08-23T11:44:39Z</time>
      </trkpt>
      <trkpt lat="42.72218" lon="2.01242">
        <ele>1737.157</ele>
        <time>2011-08-23T11:44:40Z</time>
      </trkpt>
      <trkpt lat="42.72198" lon="2.01246">
        <ele>1736.519</ele>
        <time>2011-08-23T11:44:43Z</time>
      </trkpt>
      <trkpt lat="42.72169" lon="2.0124">
        <ele>1735.807</ele>
        <time>2011-08-23T11:44:48Z</time>
      </trkpt>
      <trkpt lat="42.72153" lon="2.0123">
        <ele>1735.419</ele>
        <time>2011-08-23T11:44:51Z</time>
      </trkpt>
      <trkpt lat="42.72126" lon="2.01231">
        <ele>1734.527</ele>
        <time>2011-08-23T11:44:56Z</time>
      </trkpt>
      <trkpt lat="42.72117" lon="2.01239">
        <ele>1734.578</ele>
        <time>2011-08-23T11:44:58Z</time>
      </trkpt>
      <trkpt lat="42.72102" lon="2.01265">
        <ele>1734.106</ele>
        <time>2011-08-23T11:45:02Z</time>
      </trkpt>
      <trkpt lat="42.72084" lon="2.01284">
        <ele>1733.355</ele>
        <time>2011-08-23T11:45:06Z</time>
      </trkpt>
      <trkpt lat="42.72075" lon="2.01289">
        <ele>1733.192</ele>
        <time>2011-08-23T11:45:08Z</time>
      </trkpt>
      <trkpt lat="42.7205" lon="2.01313">
        <ele>1733.503</ele>
        <time>2011-08-23T11:45:14Z</time>
      </trkpt>
      <trkpt lat="42.72027" lon="2.01345">
        <ele>1734.968</ele>
        <time>2011-08-23T11:45:22Z</time>
      </trkpt>
      <trkpt lat="42.72017" lon="2.01364">
        <ele>1735.498</ele>
        <time>2011-08-23T11:45:27Z</time>
      </trkpt>
      <trkpt lat="42.72" lon="2.01403">
        <ele>1736.153</ele>
        <time>2011-08-23T11:45:36Z</time>
      </trkpt>
      <trkpt lat="42.71985" lon="2.01438">
        <ele>1736.389</ele>
        <time>2011-08-23T11:45:44Z</time>
      </trkpt>
      <trkpt lat="42.7197" lon="2.01462">
        <ele>1736.775</ele>
        <time>2011-08-23T11:45:50Z</time>
      </trkpt>
      <trkpt lat="42.7195" lon="2.01484">
        <ele>1737.585</ele>
        <time>2011-08-23T11:45:57Z</time>
      </trkpt>
      <trkpt lat="42.71932" lon="2.01508">
        <ele>1738.194</ele>
        <time>2011-08-23T11:46:04Z</time>
      </trkpt>
      <trkpt lat="42.71914" lon="2.01527">
        <ele>1738.899</ele>
        <time>2011-08-23T11:46:11Z</time>
      </trkpt>
      <trkpt lat="42.71897" lon="2.01538">
        <ele>1739.017</ele>
        <time>2011-08-23T11:46:17Z</time>
      </trkpt>
      <trkpt lat="42.71877" lon="2.01551">
        <ele>1739.271</ele>
        <time>2011-08-23T11:46:23Z</time>
      </trkpt>
      <trkpt lat="42.71856" lon="2.01548">
        <ele>1739.051</ele>
        <time>2011-08-23T11:46:28Z</time>
      </trkpt>
      <trkpt lat="42.71827" lon="2.01531">
        <ele>1737.998</ele>
        <time>2011-08-23T11:46:35Z</time>
      </trkpt>
      <trkpt lat="42.71818" lon="2.01525">
        <ele>1737.549</ele>
        <time>2011-08-23T11:46:37Z</time>
      </trkpt>
      <trkpt lat="42.71801" lon="2.01506">
        <ele>1737.258</ele>
        <time>2011-08-23T11:46:42Z</time>
      </trkpt>
      <trkpt lat="42.71793" lon="2.01494">
        <ele>1739.253</ele>
        <time>2011-08-23T11:46:48Z</time>
      </trkpt>
      <trkpt lat="42.71796" lon="2.01497">
        <ele>1739.769</ele>
        <time>2011-08-23T11:47:00Z</time>
      </trkpt>
      <trkpt lat="42.71807" lon="2.01511">
        <ele>1738.989</ele>
        <time>2011-08-23T11:47:05Z</time>
      </trkpt>
      <trkpt lat="42.71801" lon="2.01517">
        <ele>1737.559</ele>
        <time>2011-08-23T11:47:08Z</time>
      </trkpt>
      <trkpt lat="42.71798" lon="2.01516">
        <ele>1737.101</ele>
        <time>2011-08-23T11:47:09Z</time>
      </trkpt>
      <trkpt lat="42.71786" lon="2.01512">
        <ele>1736.398</ele>
        <time>2011-08-23T11:47:12Z</time>
      </trkpt>
      <trkpt lat="42.71754" lon="2.01517">
        <ele>1735.616</ele>
        <time>2011-08-23T11:47:19Z</time>
      </trkpt>
      <trkpt lat="42.71727" lon="2.01524">
        <ele>1734.592</ele>
        <time>2011-08-23T11:47:25Z</time>
      </trkpt>
      <trkpt lat="42.71725" lon="2.01523">
        <ele>1734.061</ele>
        <time>2011-08-23T11:47:29Z</time>
      </trkpt>
      <trkpt lat="42.71732" lon="2.01517">
        <ele>1732.735</ele>
        <time>2011-08-23T11:49:07Z</time>
      </trkpt>
      <trkpt lat="42.71724" lon="2.01522">
        <ele>1732.64</ele>
        <time>2011-08-23T11:49:11Z</time>
      </trkpt>
      <trkpt lat="42.71695" lon="2.01529">
        <ele>1732.602</ele>
        <time>2011-08-23T11:49:17Z</time>
      </trkpt>
      <trkpt lat="42.71672" lon="2.01532">
        <ele>1731.808</ele>
        <time>2011-08-23T11:49:21Z</time>
      </trkpt>
      <trkpt lat="42.71639" lon="2.01552">
        <ele>1730.572</ele>
        <time>2011-08-23T11:49:27Z</time>
      </trkpt>
      <trkpt lat="42.71591" lon="2.01593">
        <ele>1728.751</ele>
        <time>2011-08-23T11:49:36Z</time>
      </trkpt>
      <trkpt lat="42.71556" lon="2.01619">
        <ele>1727.583</ele>
        <time>2011-08-23T11:49:42Z</time>
      </trkpt>
      <trkpt lat="42.71521" lon="2.01644">
        <ele>1726.061</ele>
        <time>2011-08-23T11:49:48Z</time>
      </trkpt>
      <trkpt lat="42.71482" lon="2.01662">
        <ele>1724.692</ele>
        <time>2011-08-23T11:49:54Z</time>
      </trkpt>
      <trkpt lat="42.71438" lon="2.01675">
        <ele>1723.437</ele>
        <time>2011-08-23T11:50:01Z</time>
      </trkpt>
      <trkpt lat="42.71405" lon="2.01685">
        <ele>1723.383</ele>
        <time>2011-08-23T11:50:07Z</time>
      </trkpt>
      <trkpt lat="42.71372" lon="2.01696">
        <ele>1723.799</ele>
        <time>2011-08-23T11:50:14Z</time>
      </trkpt>
      <trkpt lat="42.71343" lon="2.01697">
        <ele>1724.524</ele>
        <time>2011-08-23T11:50:21Z</time>
      </trkpt>
      <trkpt lat="42.71308" lon="2.01685">
        <ele>1725.203</ele>
        <time>2011-08-23T11:50:30Z</time>
      </trkpt>
      <trkpt lat="42.71276" lon="2.01668">
        <ele>1725.762</ele>
        <time>2011-08-23T11:50:38Z</time>
      </trkpt>
      <trkpt lat="42.71241" lon="2.01647">
        <ele>1725.975</ele>
        <time>2011-08-23T11:50:47Z</time>
      </trkpt>
      <trkpt lat="42.71211" lon="2.01633">
        <ele>1726.809</ele>
        <time>2011-08-23T11:50:55Z</time>
      </trkpt>
      <trkpt lat="42.7118" lon="2.01621">
        <ele>1727.525</ele>
        <time>2011-08-23T11:51:03Z</time>
      </trkpt>
      <trkpt lat="42.71156" lon="2.01609">
        <ele>1727.942</ele>
        <time>2011-08-23T11:51:10Z</time>
      </trkpt>
      <trkpt lat="42.71131" lon="2.016">
        <ele>1728.805</ele>
        <time>2011-08-23T11:51:17Z</time>
      </trkpt>
      <trkpt lat="42.71108" lon="2.01601">
        <ele>1728.77</ele>
        <time>2011-08-23T11:51:23Z</time>
      </trkpt>
      <trkpt lat="42.71092" lon="2.01607">
        <ele>1728.457</ele>
        <time>2011-08-23T11:51:27Z</time>
      </trkpt>
      <trkpt lat="42.71073" lon="2.01627">
        <ele>1727.554</ele>
        <time>2011-08-23T11:51:32Z</time>
      </trkpt>
      <trkpt lat="42.71054" lon="2.0165">
        <ele>1726.623</ele>
        <time>2011-08-23T11:51:37Z</time>
      </trkpt>
      <trkpt lat="42.71031" lon="2.01662">
        <ele>1725.821</ele>
        <time>2011-08-23T11:51:42Z</time>
      </trkpt>
      <trkpt lat="42.71005" lon="2.01662">
        <ele>1725.955</ele>
        <time>2011-08-23T11:51:48Z</time>
      </trkpt>
      <trkpt lat="42.70988" lon="2.01653">
        <ele>1726.242</ele>
        <time>2011-08-23T11:51:52Z</time>
      </trkpt>
      <trkpt lat="42.7096" lon="2.0162">
        <ele>1725.283</ele>
        <time>2011-08-23T11:51:59Z</time>
      </trkpt>
      <trkpt lat="42.70922" lon="2.01574">
        <ele>1724.057</ele>
        <time>2011-08-23T11:52:07Z</time>
      </trkpt>
      <trkpt lat="42.70912" lon="2.0156">
        <ele>1723.321</ele>
        <time>2011-08-23T11:52:09Z</time>
      </trkpt>
      <trkpt lat="42.70901" lon="2.01532">
        <ele>1721.698</ele>
        <time>2011-08-23T11:52:12Z</time>
      </trkpt>
      <trkpt lat="42.70887" lon="2.01458">
        <ele>1719.65</ele>
        <time>2011-08-23T11:52:19Z</time>
      </trkpt>
      <trkpt lat="42.70869" lon="2.01401">
        <ele>1718.315</ele>
        <time>2011-08-23T11:52:25Z</time>
      </trkpt>
      <trkpt lat="42.70849" lon="2.01368">
        <ele>1716.709</ele>
        <time>2011-08-23T11:52:29Z</time>
      </trkpt>
      <trkpt lat="42.70797" lon="2.01328">
        <ele>1713.711</ele>
        <time>2011-08-23T11:52:36Z</time>
      </trkpt>
      <trkpt lat="42.7079" lon="2.01323">
        <ele>1713.311</ele>
        <time>2011-08-23T11:52:37Z</time>
      </trkpt>
      <trkpt lat="42.70742" lon="2.01269">
        <ele>1709.793</ele>
        <time>2011-08-23T11:52:44Z</time>
      </trkpt>
      <trkpt lat="42.70728" lon="2.01252">
        <ele>1709.16</ele>
        <time>2011-08-23T11:52:46Z</time>
      </trkpt>
      <trkpt lat="42.70692" lon="2.01211">
        <ele>1706.372</ele>
        <time>2011-08-23T11:52:51Z</time>
      </trkpt>
      <trkpt lat="42.70663" lon="2.01199">
        <ele>1703.28</ele>
        <time>2011-08-23T11:52:55Z</time>
      </trkpt>
      <trkpt lat="42.70647" lon="2.01217">
        <ele>1700.644</ele>
        <time>2011-08-23T11:52:58Z</time>
      </trkpt>
      <trkpt lat="42.70625" lon="2.01234">
        <ele>1697.779</ele>
        <time>2011-08-23T11:53:03Z</time>
      </trkpt>
      <trkpt lat="42.70616" lon="2.01228">
        <ele>1697.071</ele>
        <time>2011-08-23T11:53:05Z</time>
      </trkpt>
      <trkpt lat="42.70612" lon="2.01223">
        <ele>1696.606</ele>
        <time>2011-08-23T11:53:06Z</time>
      </trkpt>
      <trkpt lat="42.70592" lon="2.01186">
        <ele>1693.99</ele>
        <time>2011-08-23T11:53:11Z</time>
      </trkpt>
      <trkpt lat="42.70564" lon="2.01144">
        <ele>1690.639</ele>
        <time>2011-08-23T11:53:16Z</time>
      </trkpt>
      <trkpt lat="42.70545" lon="2.01125">
        <ele>1688.863</ele>
        <time>2011-08-23T11:53:19Z</time>
      </trkpt>
      <trkpt lat="42.70521" lon="2.01116">
        <ele>1686.01</ele>
        <time>2011-08-23T11:53:23Z</time>
      </trkpt>
      <trkpt lat="42.70516" lon="2.01119">
        <ele>1685.316</ele>
        <time>2011-08-23T11:53:24Z</time>
      </trkpt>
      <trkpt lat="42.7051" lon="2.01129">
        <ele>1683.368</ele>
        <time>2011-08-23T11:53:28Z</time>
      </trkpt>
      <trkpt lat="42.70508" lon="2.01142">
        <ele>1682.077</ele>
        <time>2011-08-23T11:53:33Z</time>
      </trkpt>
      <trkpt lat="42.70506" lon="2.01152">
        <ele>1681.617</ele>
        <time>2011-08-23T11:53:35Z</time>
      </trkpt>
      <trkpt lat="42.70488" lon="2.01157">
        <ele>1680.42</ele>
        <time>2011-08-23T11:53:39Z</time>
      </trkpt>
      <trkpt lat="42.70471" lon="2.01143">
        <ele>1678.844</ele>
        <time>2011-08-23T11:53:42Z</time>
      </trkpt>
      <trkpt lat="42.70445" lon="2.01104">
        <ele>1675.971</ele>
        <time>2011-08-23T11:53:47Z</time>
      </trkpt>
      <trkpt lat="42.70431" lon="2.0106">
        <ele>1672.671</ele>
        <time>2011-08-23T11:53:52Z</time>
      </trkpt>
      <trkpt lat="42.70414" lon="2.01037">
        <ele>1670.29</ele>
        <time>2011-08-23T11:53:56Z</time>
      </trkpt>
      <trkpt lat="42.70409" lon="2.01032">
        <ele>1669.669</ele>
        <time>2011-08-23T11:53:57Z</time>
      </trkpt>
      <trkpt lat="42.70391" lon="2.00989">
        <ele>1666.911</ele>
        <time>2011-08-23T11:54:02Z</time>
      </trkpt>
      <trkpt lat="42.70381" lon="2.00933">
        <ele>1663.858</ele>
        <time>2011-08-23T11:54:07Z</time>
      </trkpt>
      <trkpt lat="42.70371" lon="2.00871">
        <ele>1660.49</ele>
        <time>2011-08-23T11:54:12Z</time>
      </trkpt>
      <trkpt lat="42.70354" lon="2.0083">
        <ele>1658.162</ele>
        <time>2011-08-23T11:54:16Z</time>
      </trkpt>
      <trkpt lat="42.70348" lon="2.00823">
        <ele>1657.387</ele>
        <time>2011-08-23T11:54:17Z</time>
      </trkpt>
      <trkpt lat="42.70318" lon="2.00779">
        <ele>1652.828</ele>
        <time>2011-08-23T11:54:23Z</time>
      </trkpt>
      <trkpt lat="42.70315" lon="2.00772">
        <ele>1652.114</ele>
        <time>2011-08-23T11:54:24Z</time>
      </trkpt>
      <trkpt lat="42.70309" lon="2.00761">
        <ele>1650.709</ele>
        <time>2011-08-23T11:54:27Z</time>
      </trkpt>
      <trkpt lat="42.70309" lon="2.00751">
        <ele>1649.004</ele>
        <time>2011-08-23T11:54:32Z</time>
      </trkpt>
      <trkpt lat="42.70307" lon="2.00747">
        <ele>1648.924</ele>
        <time>2011-08-23T11:54:33Z</time>
      </trkpt>
      <trkpt lat="42.70293" lon="2.00734">
        <ele>1648.134</ele>
        <time>2011-08-23T11:54:38Z</time>
      </trkpt>
      <trkpt lat="42.70292" lon="2.00733">
        <ele>1648.191</ele>
        <time>2011-08-23T11:54:42Z</time>
      </trkpt>
      <trkpt lat="42.70298" lon="2.00735">
        <ele>1648.247</ele>
        <time>2011-08-23T11:54:59Z</time>
      </trkpt>
      <trkpt lat="42.70303" lon="2.0072">
        <ele>1647.745</ele>
        <time>2011-08-23T11:55:05Z</time>
      </trkpt>
      <trkpt lat="42.70301" lon="2.007">
        <ele>1647.894</ele>
        <time>2011-08-23T11:55:09Z</time>
      </trkpt>
      <trkpt lat="42.70299" lon="2.00688">
        <ele>1647.766</ele>
        <time>2011-08-23T11:55:11Z</time>
      </trkpt>
      <trkpt lat="42.70299" lon="2.00651">
        <ele>1647.556</ele>
        <time>2011-08-23T11:55:17Z</time>
      </trkpt>
      <trkpt lat="42.70299" lon="2.00645">
        <ele>1647.546</ele>
        <time>2011-08-23T11:55:18Z</time>
      </trkpt>
      <trkpt lat="42.70287" lon="2.00585">
        <ele>1647.946</ele>
        <time>2011-08-23T11:55:28Z</time>
      </trkpt>
      <trkpt lat="42.70277" lon="2.00555">
        <ele>1648.861</ele>
        <time>2011-08-23T11:55:35Z</time>
      </trkpt>
      <trkpt lat="42.70269" lon="2.00531">
        <ele>1649.946</ele>
        <time>2011-08-23T11:55:41Z</time>
      </trkpt>
      <trkpt lat="42.70251" lon="2.00513">
        <ele>1650.295</ele>
        <time>2011-08-23T11:55:48Z</time>
      </trkpt>
      <trkpt lat="42.70248" lon="2.00512">
        <ele>1650.509</ele>
        <time>2011-08-23T11:55:49Z</time>
      </trkpt>
      <trkpt lat="42.70226" lon="2.00514">
        <ele>1650.757</ele>
        <time>2011-08-23T11:55:54Z</time>
      </trkpt>
      <trkpt lat="42.70222" lon="2.00518">
        <ele>1650.717</ele>
        <time>2011-08-23T11:55:55Z</time>
      </trkpt>
      <trkpt lat="42.70202" lon="2.00531">
        <ele>1650.763</ele>
        <time>2011-08-23T11:56:00Z</time>
      </trkpt>
      <trkpt lat="42.70185" lon="2.00542">
        <ele>1650.592</ele>
        <time>2011-08-23T11:56:04Z</time>
      </trkpt>
      <trkpt lat="42.70143" lon="2.00563">
        <ele>1649.414</ele>
        <time>2011-08-23T11:56:12Z</time>
      </trkpt>
      <trkpt lat="42.70097" lon="2.00583">
        <ele>1649.01</ele>
        <time>2011-08-23T11:56:21Z</time>
      </trkpt>
      <trkpt lat="42.70076" lon="2.006">
        <ele>1649.922</ele>
        <time>2011-08-23T11:56:27Z</time>
      </trkpt>
      <trkpt lat="42.70064" lon="2.0062">
        <ele>1651.209</ele>
        <time>2011-08-23T11:56:33Z</time>
      </trkpt>
      <trkpt lat="42.70054" lon="2.00654">
        <ele>1652.818</ele>
        <time>2011-08-23T11:56:42Z</time>
      </trkpt>
      <trkpt lat="42.70053" lon="2.00686">
        <ele>1653.38</ele>
        <time>2011-08-23T11:56:49Z</time>
      </trkpt>
      <trkpt lat="42.70054" lon="2.00696">
        <ele>1652.665</ele>
        <time>2011-08-23T11:56:53Z</time>
      </trkpt>
      <trkpt lat="42.70058" lon="2.007">
        <ele>1652.63</ele>
        <time>2011-08-23T11:57:12Z</time>
      </trkpt>
      <trkpt lat="42.70059" lon="2.00696">
        <ele>1652.355</ele>
        <time>2011-08-23T11:57:16Z</time>
      </trkpt>
      <trkpt lat="42.70055" lon="2.00687">
        <ele>1652.267</ele>
        <time>2011-08-23T11:57:19Z</time>
      </trkpt>
      <trkpt lat="42.70052" lon="2.0067">
        <ele>1652.823</ele>
        <time>2011-08-23T11:57:23Z</time>
      </trkpt>
      <trkpt lat="42.70059" lon="2.00641">
        <ele>1652.658</ele>
        <time>2011-08-23T11:57:28Z</time>
      </trkpt>
      <trkpt lat="42.70069" lon="2.00613">
        <ele>1651.859</ele>
        <time>2011-08-23T11:57:32Z</time>
      </trkpt>
      <trkpt lat="42.70099" lon="2.00584">
        <ele>1648.789</ele>
        <time>2011-08-23T11:57:37Z</time>
      </trkpt>
      <trkpt lat="42.70114" lon="2.00577">
        <ele>1648.068</ele>
        <time>2011-08-23T11:57:39Z</time>
      </trkpt>
      <trkpt lat="42.70154" lon="2.00559">
        <ele>1648.289</ele>
        <time>2011-08-23T11:57:45Z</time>
      </trkpt>
      <trkpt lat="42.70171" lon="2.00552">
        <ele>1648.464</ele>
        <time>2011-08-23T11:57:48Z</time>
      </trkpt>
      <trkpt lat="42.70191" lon="2.00541">
        <ele>1648.53</ele>
        <time>2011-08-23T11:57:52Z</time>
      </trkpt>
      <trkpt lat="42.70213" lon="2.00526">
        <ele>1649.302</ele>
        <time>2011-08-23T11:57:57Z</time>
      </trkpt>
      <trkpt lat="42.70227" lon="2.00518">
        <ele>1649.391</ele>
        <time>2011-08-23T11:58:00Z</time>
      </trkpt>
      <trkpt lat="42.70248" lon="2.00516">
        <ele>1649.804</ele>
        <time>2011-08-23T11:58:04Z</time>
      </trkpt>
      <trkpt lat="42.70265" lon="2.00529">
        <ele>1650.331</ele>
        <time>2011-08-23T11:58:08Z</time>
      </trkpt>
      <trkpt lat="42.70278" lon="2.00555">
        <ele>1649.864</ele>
        <time>2011-08-23T11:58:12Z</time>
      </trkpt>
      <trkpt lat="42.70294" lon="2.00613">
        <ele>1648.441</ele>
        <time>2011-08-23T11:58:19Z</time>
      </trkpt>
      <trkpt lat="42.70298" lon="2.00664">
        <ele>1647.192</ele>
        <time>2011-08-23T11:58:25Z</time>
      </trkpt>
      <trkpt lat="42.70299" lon="2.0071">
        <ele>1647.391</ele>
        <time>2011-08-23T11:58:32Z</time>
      </trkpt>
      <trkpt lat="42.70297" lon="2.00739">
        <ele>1647.218</ele>
        <time>2011-08-23T11:58:38Z</time>
      </trkpt>
      <trkpt lat="42.70295" lon="2.00741">
        <ele>1647.197</ele>
        <time>2011-08-23T11:58:42Z</time>
      </trkpt>
      <trkpt lat="42.7029" lon="2.00748">
        <ele>1647.175</ele>
        <time>2011-08-23T12:00:04Z</time>
      </trkpt>
      <trkpt lat="42.70296" lon="2.00738">
        <ele>1647.237</ele>
        <time>2011-08-23T12:00:09Z</time>
      </trkpt>
      <trkpt lat="42.70296" lon="2.00734">
        <ele>1647.133</ele>
        <time>2011-08-23T12:00:10Z</time>
      </trkpt>
      <trkpt lat="42.70293" lon="2.00712">
        <ele>1647.054</ele>
        <time>2011-08-23T12:00:14Z</time>
      </trkpt>
      <trkpt lat="42.70291" lon="2.00691">
        <ele>1647.351</ele>
        <time>2011-08-23T12:00:17Z</time>
      </trkpt>
      <trkpt lat="42.70292" lon="2.00668">
        <ele>1647.125</ele>
        <time>2011-08-23T12:00:20Z</time>
      </trkpt>
      <trkpt lat="42.70289" lon="2.00621">
        <ele>1647.05</ele>
        <time>2011-08-23T12:00:26Z</time>
      </trkpt>
      <trkpt lat="42.7028" lon="2.00583">
        <ele>1647.222</ele>
        <time>2011-08-23T12:00:32Z</time>
      </trkpt>
      <trkpt lat="42.70272" lon="2.00548">
        <ele>1648.649</ele>
        <time>2011-08-23T12:00:39Z</time>
      </trkpt>
      <trkpt lat="42.70261" lon="2.00524">
        <ele>1649.179</ele>
        <time>2011-08-23T12:00:45Z</time>
      </trkpt>
      <trkpt lat="42.70251" lon="2.00516">
        <ele>1649.606</ele>
        <time>2011-08-23T12:00:48Z</time>
      </trkpt>
      <trkpt lat="42.70228" lon="2.00514">
        <ele>1649.582</ele>
        <time>2011-08-23T12:00:53Z</time>
      </trkpt>
      <trkpt lat="42.70219" lon="2.00518">
        <ele>1649.006</ele>
        <time>2011-08-23T12:00:55Z</time>
      </trkpt>
      <trkpt lat="42.70185" lon="2.0054">
        <ele>1648.886</ele>
        <time>2011-08-23T12:01:03Z</time>
      </trkpt>
      <trkpt lat="42.70158" lon="2.00552">
        <ele>1648.944</ele>
        <time>2011-08-23T12:01:08Z</time>
      </trkpt>
      <trkpt lat="42.70104" lon="2.00575">
        <ele>1647.053</ele>
        <time>2011-08-23T12:01:17Z</time>
      </trkpt>
      <trkpt lat="42.70089" lon="2.00584">
        <ele>1647.44</ele>
        <time>2011-08-23T12:01:20Z</time>
      </trkpt>
      <trkpt lat="42.70076" lon="2.00596">
        <ele>1647.905</ele>
        <time>2011-08-23T12:01:23Z</time>
      </trkpt>
      <trkpt lat="42.70064" lon="2.00616">
        <ele>1649.17</ele>
        <time>2011-08-23T12:01:28Z</time>
      </trkpt>
      <trkpt lat="42.70055" lon="2.00645">
        <ele>1650.763</ele>
        <time>2011-08-23T12:01:35Z</time>
      </trkpt>
      <trkpt lat="42.70052" lon="2.00672">
        <ele>1651.531</ele>
        <time>2011-08-23T12:01:40Z</time>
      </trkpt>
      <trkpt lat="42.70052" lon="2.00678">
        <ele>1651.811</ele>
        <time>2011-08-23T12:01:41Z</time>
      </trkpt>
      <trkpt lat="42.70056" lon="2.00698">
        <ele>1652.263</ele>
        <time>2011-08-23T12:01:44Z</time>
      </trkpt>
      <trkpt lat="42.70071" lon="2.00739">
        <ele>1650.659</ele>
        <time>2011-08-23T12:01:49Z</time>
      </trkpt>
      <trkpt lat="42.70095" lon="2.0079">
        <ele>1646.984</ele>
        <time>2011-08-23T12:01:54Z</time>
      </trkpt>
      <trkpt lat="42.70105" lon="2.00831">
        <ele>1643.75</ele>
        <time>2011-08-23T12:01:57Z</time>
      </trkpt>
      <trkpt lat="42.70108" lon="2.00902">
        <ele>1639.428</ele>
        <time>2011-08-23T12:02:02Z</time>
      </trkpt>
      <trkpt lat="42.70114" lon="2.00949">
        <ele>1636.542</ele>
        <time>2011-08-23T12:02:06Z</time>
      </trkpt>
      <trkpt lat="42.70099" lon="2.00986">
        <ele>1633.054</ele>
        <time>2011-08-23T12:02:10Z</time>
      </trkpt>
      <trkpt lat="42.70064" lon="2.01005">
        <ele>1628.808</ele>
        <time>2011-08-23T12:02:15Z</time>
      </trkpt>
      <trkpt lat="42.70048" lon="2.01004">
        <ele>1627.203</ele>
        <time>2011-08-23T12:02:17Z</time>
      </trkpt>
      <trkpt lat="42.70006" lon="2.00999">
        <ele>1624.451</ele>
        <time>2011-08-23T12:02:22Z</time>
      </trkpt>
      <trkpt lat="42.69983" lon="2.0098">
        <ele>1621.803</ele>
        <time>2011-08-23T12:02:25Z</time>
      </trkpt>
      <trkpt lat="42.6998" lon="2.00969">
        <ele>1620.822</ele>
        <time>2011-08-23T12:02:26Z</time>
      </trkpt>
      <trkpt lat="42.69952" lon="2.00921">
        <ele>1619.685</ele>
        <time>2011-08-23T12:02:32Z</time>
      </trkpt>
      <trkpt lat="42.69927" lon="2.00912">
        <ele>1619.345</ele>
        <time>2011-08-23T12:02:36Z</time>
      </trkpt>
      <trkpt lat="42.69914" lon="2.00923">
        <ele>1619.279</ele>
        <time>2011-08-23T12:02:38Z</time>
      </trkpt>
      <trkpt lat="42.69909" lon="2.00931">
        <ele>1619.426</ele>
        <time>2011-08-23T12:02:39Z</time>
      </trkpt>
      <trkpt lat="42.69889" lon="2.00976">
        <ele>1618.939</ele>
        <time>2011-08-23T12:02:45Z</time>
      </trkpt>
      <trkpt lat="42.69888" lon="2.00996">
        <ele>1618.618</ele>
        <time>2011-08-23T12:02:47Z</time>
      </trkpt>
      <trkpt lat="42.69894" lon="2.01057">
        <ele>1617.701</ele>
        <time>2011-08-23T12:02:53Z</time>
      </trkpt>
      <trkpt lat="42.69896" lon="2.01068">
        <ele>1617.694</ele>
        <time>2011-08-23T12:02:54Z</time>
      </trkpt>
      <trkpt lat="42.69914" lon="2.01103">
        <ele>1616.022</ele>
        <time>2011-08-23T12:02:58Z</time>
      </trkpt>
      <trkpt lat="42.69942" lon="2.01102">
        <ele>1614.343</ele>
        <time>2011-08-23T12:03:01Z</time>
      </trkpt>
      <trkpt lat="42.69978" lon="2.011">
        <ele>1612.35</ele>
        <time>2011-08-23T12:03:05Z</time>
      </trkpt>
      <trkpt lat="42.69996" lon="2.01115">
        <ele>1611.158</ele>
        <time>2011-08-23T12:03:08Z</time>
      </trkpt>
      <trkpt lat="42.7001" lon="2.01145">
        <ele>1608.672</ele>
        <time>2011-08-23T12:03:11Z</time>
      </trkpt>
      <trkpt lat="42.7002" lon="2.01167">
        <ele>1606.644</ele>
        <time>2011-08-23T12:03:13Z</time>
      </trkpt>
      <trkpt lat="42.70024" lon="2.01213">
        <ele>1603.565</ele>
        <time>2011-08-23T12:03:17Z</time>
      </trkpt>
      <trkpt lat="42.70019" lon="2.01225">
        <ele>1602.828</ele>
        <time>2011-08-23T12:03:18Z</time>
      </trkpt>
      <trkpt lat="42.70008" lon="2.01259">
        <ele>1600.766</ele>
        <time>2011-08-23T12:03:21Z</time>
      </trkpt>
      <trkpt lat="42.69985" lon="2.01295">
        <ele>1598.538</ele>
        <time>2011-08-23T12:03:25Z</time>
      </trkpt>
      <trkpt lat="42.69976" lon="2.01325">
        <ele>1597.084</ele>
        <time>2011-08-23T12:03:28Z</time>
      </trkpt>
      <trkpt lat="42.69976" lon="2.01348">
        <ele>1596.141</ele>
        <time>2011-08-23T12:03:30Z</time>
      </trkpt>
      <trkpt lat="42.69965" lon="2.01395">
        <ele>1593.758</ele>
        <time>2011-08-23T12:03:35Z</time>
      </trkpt>
      <trkpt lat="42.69924" lon="2.01459">
        <ele>1590.613</ele>
        <time>2011-08-23T12:03:42Z</time>
      </trkpt>
      <trkpt lat="42.69914" lon="2.01502">
        <ele>1587.225</ele>
        <time>2011-08-23T12:03:46Z</time>
      </trkpt>
      <trkpt lat="42.69925" lon="2.01534">
        <ele>1584.887</ele>
        <time>2011-08-23T12:03:49Z</time>
      </trkpt>
      <trkpt lat="42.69932" lon="2.0158">
        <ele>1582.688</ele>
        <time>2011-08-23T12:03:53Z</time>
      </trkpt>
      <trkpt lat="42.69932" lon="2.0164">
        <ele>1582.279</ele>
        <time>2011-08-23T12:03:59Z</time>
      </trkpt>
      <trkpt lat="42.69931" lon="2.01693">
        <ele>1583.348</ele>
        <time>2011-08-23T12:04:06Z</time>
      </trkpt>
      <trkpt lat="42.69928" lon="2.01733">
        <ele>1583.201</ele>
        <time>2011-08-23T12:04:11Z</time>
      </trkpt>
      <trkpt lat="42.69932" lon="2.0177">
        <ele>1582.749</ele>
        <time>2011-08-23T12:04:15Z</time>
      </trkpt>
      <trkpt lat="42.69944" lon="2.01829">
        <ele>1582.881</ele>
        <time>2011-08-23T12:04:22Z</time>
      </trkpt>
      <trkpt lat="42.69949" lon="2.01861">
        <ele>1584.389</ele>
        <time>2011-08-23T12:04:28Z</time>
      </trkpt>
      <trkpt lat="42.69952" lon="2.01895">
        <ele>1586.169</ele>
        <time>2011-08-23T12:04:36Z</time>
      </trkpt>
      <trkpt lat="42.69947" lon="2.01921">
        <ele>1588.405</ele>
        <time>2011-08-23T12:04:44Z</time>
      </trkpt>
      <trkpt lat="42.6994" lon="2.01944">
        <ele>1590.925</ele>
        <time>2011-08-23T12:04:53Z</time>
      </trkpt>
      <trkpt lat="42.69932" lon="2.01973">
        <ele>1593.708</ele>
        <time>2011-08-23T12:05:04Z</time>
      </trkpt>
      <trkpt lat="42.6993" lon="2.01998">
        <ele>1596.217</ele>
        <time>2011-08-23T12:05:14Z</time>
      </trkpt>
      <trkpt lat="42.6993" lon="2.02022">
        <ele>1597.9</ele>
        <time>2011-08-23T12:05:23Z</time>
      </trkpt>
      <trkpt lat="42.69926" lon="2.02045">
        <ele>1599.073</ele>
        <time>2011-08-23T12:05:31Z</time>
      </trkpt>
      <trkpt lat="42.6992" lon="2.02062">
        <ele>1599.9</ele>
        <time>2011-08-23T12:05:38Z</time>
      </trkpt>
      <trkpt lat="42.69915" lon="2.02071">
        <ele>1600.44</ele>
        <time>2011-08-23T12:05:43Z</time>
      </trkpt>
      <trkpt lat="42.69908" lon="2.02088">
        <ele>1601.356</ele>
        <time>2011-08-23T12:05:50Z</time>
      </trkpt>
      <trkpt lat="42.69899" lon="2.0211">
        <ele>1602.355</ele>
        <time>2011-08-23T12:05:59Z</time>
      </trkpt>
      <trkpt lat="42.69893" lon="2.02134">
        <ele>1603.96</ele>
        <time>2011-08-23T12:06:08Z</time>
      </trkpt>
      <trkpt lat="42.69886" lon="2.0216">
        <ele>1605.711</ele>
        <time>2011-08-23T12:06:18Z</time>
      </trkpt>
      <trkpt lat="42.6988" lon="2.02181">
        <ele>1607.482</ele>
        <time>2011-08-23T12:06:26Z</time>
      </trkpt>
      <trkpt lat="42.69881" lon="2.02202">
        <ele>1608.235</ele>
        <time>2011-08-23T12:06:33Z</time>
      </trkpt>
      <trkpt lat="42.69888" lon="2.02229">
        <ele>1609.134</ele>
        <time>2011-08-23T12:06:42Z</time>
      </trkpt>
      <trkpt lat="42.69895" lon="2.02254">
        <ele>1610.169</ele>
        <time>2011-08-23T12:06:51Z</time>
      </trkpt>
      <trkpt lat="42.69898" lon="2.02278">
        <ele>1612.209</ele>
        <time>2011-08-23T12:07:00Z</time>
      </trkpt>
      <trkpt lat="42.699" lon="2.02309">
        <ele>1614.504</ele>
        <time>2011-08-23T12:07:11Z</time>
      </trkpt>
      <trkpt lat="42.69907" lon="2.02337">
        <ele>1616.513</ele>
        <time>2011-08-23T12:07:21Z</time>
      </trkpt>
      <trkpt lat="42.6992" lon="2.02365">
        <ele>1618.004</ele>
        <time>2011-08-23T12:07:32Z</time>
      </trkpt>
      <trkpt lat="42.69932" lon="2.02388">
        <ele>1619.952</ele>
        <time>2011-08-23T12:07:42Z</time>
      </trkpt>
      <trkpt lat="42.69947" lon="2.02415">
        <ele>1621.938</ele>
        <time>2011-08-23T12:07:53Z</time>
      </trkpt>
      <trkpt lat="42.69956" lon="2.02442">
        <ele>1623.216</ele>
        <time>2011-08-23T12:08:03Z</time>
      </trkpt>
      <trkpt lat="42.69967" lon="2.02478">
        <ele>1625.584</ele>
        <time>2011-08-23T12:08:16Z</time>
      </trkpt>
      <trkpt lat="42.69974" lon="2.02499">
        <ele>1626.637</ele>
        <time>2011-08-23T12:08:24Z</time>
      </trkpt>
      <trkpt lat="42.69983" lon="2.02522">
        <ele>1628.134</ele>
        <time>2011-08-23T12:08:33Z</time>
      </trkpt>
      <trkpt lat="42.69992" lon="2.0255">
        <ele>1630.551</ele>
        <time>2011-08-23T12:08:44Z</time>
      </trkpt>
      <trkpt lat="42.69999" lon="2.02573">
        <ele>1631.897</ele>
        <time>2011-08-23T12:08:53Z</time>
      </trkpt>
      <trkpt lat="42.70009" lon="2.02604">
        <ele>1634.295</ele>
        <time>2011-08-23T12:09:05Z</time>
      </trkpt>
      <trkpt lat="42.70015" lon="2.02625">
        <ele>1635.715</ele>
        <time>2011-08-23T12:09:13Z</time>
      </trkpt>
      <trkpt lat="42.70023" lon="2.02647">
        <ele>1637.265</ele>
        <time>2011-08-23T12:09:22Z</time>
      </trkpt>
      <trkpt lat="42.70032" lon="2.02668">
        <ele>1638.884</ele>
        <time>2011-08-23T12:09:31Z</time>
      </trkpt>
      <trkpt lat="42.70039" lon="2.02684">
        <ele>1639.942</ele>
        <time>2011-08-23T12:09:38Z</time>
      </trkpt>
      <trkpt lat="42.70047" lon="2.02709">
        <ele>1642.073</ele>
        <time>2011-08-23T12:09:48Z</time>
      </trkpt>
      <trkpt lat="42.70053" lon="2.02736">
        <ele>1644.297</ele>
        <time>2011-08-23T12:09:59Z</time>
      </trkpt>
      <trkpt lat="42.70058" lon="2.02758">
        <ele>1645.72</ele>
        <time>2011-08-23T12:10:08Z</time>
      </trkpt>
      <trkpt lat="42.70065" lon="2.02778">
        <ele>1646.989</ele>
        <time>2011-08-23T12:10:16Z</time>
      </trkpt>
      <trkpt lat="42.70073" lon="2.02803">
        <ele>1649.067</ele>
        <time>2011-08-23T12:10:26Z</time>
      </trkpt>
      <trkpt lat="42.70082" lon="2.02827">
        <ele>1650.328</ele>
        <time>2011-08-23T12:10:35Z</time>
      </trkpt>
      <trkpt lat="42.70092" lon="2.02852">
        <ele>1652.928</ele>
        <time>2011-08-23T12:10:45Z</time>
      </trkpt>
      <trkpt lat="42.70103" lon="2.02875">
        <ele>1654.574</ele>
        <time>2011-08-23T12:10:55Z</time>
      </trkpt>
      <trkpt lat="42.70111" lon="2.02896">
        <ele>1656.55</ele>
        <time>2011-08-23T12:11:04Z</time>
      </trkpt>
      <trkpt lat="42.70118" lon="2.02911">
        <ele>1658.12</ele>
        <time>2011-08-23T12:11:11Z</time>
      </trkpt>
      <trkpt lat="42.70129" lon="2.02932">
        <ele>1659.347</ele>
        <time>2011-08-23T12:11:20Z</time>
      </trkpt>
      <trkpt lat="42.70141" lon="2.02953">
        <ele>1661.115</ele>
        <time>2011-08-23T12:11:30Z</time>
      </trkpt>
      <trkpt lat="42.70152" lon="2.02969">
        <ele>1662.856</ele>
        <time>2011-08-23T12:11:39Z</time>
      </trkpt>
      <trkpt lat="42.70164" lon="2.02979">
        <ele>1664.059</ele>
        <time>2011-08-23T12:11:46Z</time>
      </trkpt>
      <trkpt lat="42.70182" lon="2.02983">
        <ele>1666.147</ele>
        <time>2011-08-23T12:11:56Z</time>
      </trkpt>
      <trkpt lat="42.70198" lon="2.02986">
        <ele>1667.512</ele>
        <time>2011-08-23T12:12:04Z</time>
      </trkpt>
      <trkpt lat="42.70211" lon="2.03001">
        <ele>1668.861</ele>
        <time>2011-08-23T12:12:12Z</time>
      </trkpt>
      <trkpt lat="42.70218" lon="2.0302">
        <ele>1670.372</ele>
        <time>2011-08-23T12:12:19Z</time>
      </trkpt>
      <trkpt lat="42.70224" lon="2.0304">
        <ele>1672.216</ele>
        <time>2011-08-23T12:12:27Z</time>
      </trkpt>
      <trkpt lat="42.70219" lon="2.03058">
        <ele>1673.555</ele>
        <time>2011-08-23T12:12:34Z</time>
      </trkpt>
      <trkpt lat="42.70208" lon="2.03069">
        <ele>1674.682</ele>
        <time>2011-08-23T12:12:40Z</time>
      </trkpt>
      <trkpt lat="42.7019" lon="2.03068">
        <ele>1675.535</ele>
        <time>2011-08-23T12:12:48Z</time>
      </trkpt>
      <trkpt lat="42.70169" lon="2.03064">
        <ele>1676.247</ele>
        <time>2011-08-23T12:12:57Z</time>
      </trkpt>
      <trkpt lat="42.70159" lon="2.0307">
        <ele>1676.367</ele>
        <time>2011-08-23T12:13:02Z</time>
      </trkpt>
      <trkpt lat="42.70153" lon="2.03084">
        <ele>1676.823</ele>
        <time>2011-08-23T12:13:07Z</time>
      </trkpt>
      <trkpt lat="42.70158" lon="2.03105">
        <ele>1677.607</ele>
        <time>2011-08-23T12:13:14Z</time>
      </trkpt>
      <trkpt lat="42.70172" lon="2.03118">
        <ele>1678.801</ele>
        <time>2011-08-23T12:13:21Z</time>
      </trkpt>
      <trkpt lat="42.70187" lon="2.03132">
        <ele>1680.455</ele>
        <time>2011-08-23T12:13:30Z</time>
      </trkpt>
      <trkpt lat="42.702" lon="2.0316">
        <ele>1682.043</ele>
        <time>2011-08-23T12:13:39Z</time>
      </trkpt>
      <trkpt lat="42.70203" lon="2.03183">
        <ele>1682.832</ele>
        <time>2011-08-23T12:13:46Z</time>
      </trkpt>
      <trkpt lat="42.70201" lon="2.03209">
        <ele>1683.593</ele>
        <time>2011-08-23T12:13:53Z</time>
      </trkpt>
      <trkpt lat="42.70195" lon="2.0324">
        <ele>1683.66</ele>
        <time>2011-08-23T12:14:01Z</time>
      </trkpt>
      <trkpt lat="42.70193" lon="2.03271">
        <ele>1683.667</ele>
        <time>2011-08-23T12:14:07Z</time>
      </trkpt>
      <trkpt lat="42.70193" lon="2.03309">
        <ele>1683.18</ele>
        <time>2011-08-23T12:14:13Z</time>
      </trkpt>
      <trkpt lat="42.70198" lon="2.03362">
        <ele>1683.121</ele>
        <time>2011-08-23T12:14:21Z</time>
      </trkpt>
      <trkpt lat="42.70207" lon="2.03415">
        <ele>1683.142</ele>
        <time>2011-08-23T12:14:28Z</time>
      </trkpt>
      <trkpt lat="42.70218" lon="2.03465">
        <ele>1682.787</ele>
        <time>2011-08-23T12:14:35Z</time>
      </trkpt>
      <trkpt lat="42.70223" lon="2.03483">
        <ele>1683.128</ele>
        <time>2011-08-23T12:14:38Z</time>
      </trkpt>
      <trkpt lat="42.70232" lon="2.03504">
        <ele>1683.596</ele>
        <time>2011-08-23T12:14:42Z</time>
      </trkpt>
      <trkpt lat="42.70242" lon="2.03544">
        <ele>1684.537</ele>
        <time>2011-08-23T12:14:50Z</time>
      </trkpt>
      <trkpt lat="42.70251" lon="2.0358">
        <ele>1685.512</ele>
        <time>2011-08-23T12:14:58Z</time>
      </trkpt>
      <trkpt lat="42.70261" lon="2.03612">
        <ele>1686.213</ele>
        <time>2011-08-23T12:15:05Z</time>
      </trkpt>
      <trkpt lat="42.70272" lon="2.03645">
        <ele>1687.19</ele>
        <time>2011-08-23T12:15:13Z</time>
      </trkpt>
      <trkpt lat="42.7028" lon="2.03672">
        <ele>1688.138</ele>
        <time>2011-08-23T12:15:20Z</time>
      </trkpt>
      <trkpt lat="42.70289" lon="2.03698">
        <ele>1689.118</ele>
        <time>2011-08-23T12:15:27Z</time>
      </trkpt>
      <trkpt lat="42.70298" lon="2.03735">
        <ele>1689.796</ele>
        <time>2011-08-23T12:15:35Z</time>
      </trkpt>
      <trkpt lat="42.70301" lon="2.03765">
        <ele>1690.488</ele>
        <time>2011-08-23T12:15:41Z</time>
      </trkpt>
      <trkpt lat="42.70305" lon="2.03801">
        <ele>1690.639</ele>
        <time>2011-08-23T12:15:48Z</time>
      </trkpt>
      <trkpt lat="42.70308" lon="2.0384">
        <ele>1690.435</ele>
        <time>2011-08-23T12:15:56Z</time>
      </trkpt>
      <trkpt lat="42.70311" lon="2.03862">
        <ele>1689.892</ele>
        <time>2011-08-23T12:16:02Z</time>
      </trkpt>
      <trkpt lat="42.70309" lon="2.03864">
        <ele>1690.023</ele>
        <time>2011-08-23T12:16:08Z</time>
      </trkpt>
      <trkpt lat="42.7031" lon="2.03862">
        <ele>1689.945</ele>
        <time>2011-08-23T12:17:42Z</time>
      </trkpt>
      <trkpt lat="42.70312" lon="2.03872">
        <ele>1689.971</ele>
        <time>2011-08-23T12:17:46Z</time>
      </trkpt>
      <trkpt lat="42.70313" lon="2.03881">
        <ele>1689.803</ele>
        <time>2011-08-23T12:17:48Z</time>
      </trkpt>
      <trkpt lat="42.70326" lon="2.03923">
        <ele>1690.086</ele>
        <time>2011-08-23T12:17:56Z</time>
      </trkpt>
      <trkpt lat="42.70338" lon="2.03945">
        <ele>1690.385</ele>
        <time>2011-08-23T12:18:01Z</time>
      </trkpt>
      <trkpt lat="42.70357" lon="2.03988">
        <ele>1691.113</ele>
        <time>2011-08-23T12:18:10Z</time>
      </trkpt>
      <trkpt lat="42.70373" lon="2.04036">
        <ele>1691.679</ele>
        <time>2011-08-23T12:18:20Z</time>
      </trkpt>
      <trkpt lat="42.70388" lon="2.04072">
        <ele>1692.555</ele>
        <time>2011-08-23T12:18:28Z</time>
      </trkpt>
      <trkpt lat="42.70403" lon="2.04108">
        <ele>1693.782</ele>
        <time>2011-08-23T12:18:37Z</time>
      </trkpt>
      <trkpt lat="42.70419" lon="2.04144">
        <ele>1695.372</ele>
        <time>2011-08-23T12:18:46Z</time>
      </trkpt>
      <trkpt lat="42.70424" lon="2.04173">
        <ele>1695.477</ele>
        <time>2011-08-23T12:18:52Z</time>
      </trkpt>
      <trkpt lat="42.70426" lon="2.04207">
        <ele>1694.91</ele>
        <time>2011-08-23T12:18:58Z</time>
      </trkpt>
      <trkpt lat="42.70424" lon="2.04249">
        <ele>1694.075</ele>
        <time>2011-08-23T12:19:04Z</time>
      </trkpt>
      <trkpt lat="42.70421" lon="2.04264">
        <ele>1693.545</ele>
        <time>2011-08-23T12:19:06Z</time>
      </trkpt>
      <trkpt lat="42.70404" lon="2.04288">
        <ele>1692.162</ele>
        <time>2011-08-23T12:19:10Z</time>
      </trkpt>
      <trkpt lat="42.70378" lon="2.04311">
        <ele>1691.396</ele>
        <time>2011-08-23T12:19:16Z</time>
      </trkpt>
      <trkpt lat="42.7036" lon="2.04321">
        <ele>1691.934</ele>
        <time>2011-08-23T12:19:21Z</time>
      </trkpt>
      <trkpt lat="42.70349" lon="2.04319">
        <ele>1692.733</ele>
        <time>2011-08-23T12:19:24Z</time>
      </trkpt>
      <trkpt lat="42.70329" lon="2.04297">
        <ele>1693.75</ele>
        <time>2011-08-23T12:19:31Z</time>
      </trkpt>
      <trkpt lat="42.70308" lon="2.0427">
        <ele>1695.582</ele>
        <time>2011-08-23T12:19:40Z</time>
      </trkpt>
      <trkpt lat="42.70284" lon="2.04242">
        <ele>1696.929</ele>
        <time>2011-08-23T12:19:50Z</time>
      </trkpt>
      <trkpt lat="42.70268" lon="2.04223">
        <ele>1698.118</ele>
        <time>2011-08-23T12:19:57Z</time>
      </trkpt>
      <trkpt lat="42.70251" lon="2.04209">
        <ele>1699.637</ele>
        <time>2011-08-23T12:20:04Z</time>
      </trkpt>
      <trkpt lat="42.70225" lon="2.04195">
        <ele>1700.608</ele>
        <time>2011-08-23T12:20:13Z</time>
      </trkpt>
      <trkpt lat="42.70195" lon="2.04176">
        <ele>1701.55</ele>
        <time>2011-08-23T12:20:23Z</time>
      </trkpt>
      <trkpt lat="42.70177" lon="2.04153">
        <ele>1702.076</ele>
        <time>2011-08-23T12:20:30Z</time>
      </trkpt>
      <trkpt lat="42.70155" lon="2.04121">
        <ele>1702.403</ele>
        <time>2011-08-23T12:20:38Z</time>
      </trkpt>
      <trkpt lat="42.70132" lon="2.04096">
        <ele>1703.736</ele>
        <time>2011-08-23T12:20:46Z</time>
      </trkpt>
      <trkpt lat="42.70106" lon="2.04067">
        <ele>1704.505</ele>
        <time>2011-08-23T12:20:55Z</time>
      </trkpt>
      <trkpt lat="42.70082" lon="2.04038">
        <ele>1705.663</ele>
        <time>2011-08-23T12:21:03Z</time>
      </trkpt>
      <trkpt lat="42.70051" lon="2.04005">
        <ele>1706.597</ele>
        <time>2011-08-23T12:21:13Z</time>
      </trkpt>
      <trkpt lat="42.70018" lon="2.03973">
        <ele>1707.098</ele>
        <time>2011-08-23T12:21:23Z</time>
      </trkpt>
      <trkpt lat="42.70007" lon="2.03965">
        <ele>1707.003</ele>
        <time>2011-08-23T12:21:26Z</time>
      </trkpt>
      <trkpt lat="42.69976" lon="2.03946">
        <ele>1707.194</ele>
        <time>2011-08-23T12:21:34Z</time>
      </trkpt>
      <trkpt lat="42.69954" lon="2.03935">
        <ele>1707.435</ele>
        <time>2011-08-23T12:21:39Z</time>
      </trkpt>
      <trkpt lat="42.69939" lon="2.03919">
        <ele>1707.227</ele>
        <time>2011-08-23T12:21:43Z</time>
      </trkpt>
      <trkpt lat="42.69911" lon="2.03882">
        <ele>1707.42</ele>
        <time>2011-08-23T12:21:51Z</time>
      </trkpt>
      <trkpt lat="42.69877" lon="2.03867">
        <ele>1707.784</ele>
        <time>2011-08-23T12:21:59Z</time>
      </trkpt>
      <trkpt lat="42.6986" lon="2.03863">
        <ele>1708.049</ele>
        <time>2011-08-23T12:22:03Z</time>
      </trkpt>
      <trkpt lat="42.6983" lon="2.03867">
        <ele>1708.61</ele>
        <time>2011-08-23T12:22:10Z</time>
      </trkpt>
      <trkpt lat="42.69825" lon="2.03868">
        <ele>1708.776</ele>
        <time>2011-08-23T12:22:11Z</time>
      </trkpt>
      <trkpt lat="42.69785" lon="2.03871">
        <ele>1709.075</ele>
        <time>2011-08-23T12:22:20Z</time>
      </trkpt>
      <trkpt lat="42.69752" lon="2.03879">
        <ele>1709.249</ele>
        <time>2011-08-23T12:22:28Z</time>
      </trkpt>
      <trkpt lat="42.69724" lon="2.03889">
        <ele>1709.15</ele>
        <time>2011-08-23T12:22:34Z</time>
      </trkpt>
      <trkpt lat="42.69703" lon="2.03894">
        <ele>1708.742</ele>
        <time>2011-08-23T12:22:38Z</time>
      </trkpt>
      <trkpt lat="42.69681" lon="2.03891">
        <ele>1708.713</ele>
        <time>2011-08-23T12:22:42Z</time>
      </trkpt>
      <trkpt lat="42.69662" lon="2.03881">
        <ele>1708.938</ele>
        <time>2011-08-23T12:22:46Z</time>
      </trkpt>
      <trkpt lat="42.69647" lon="2.03874">
        <ele>1709.175</ele>
        <time>2011-08-23T12:22:49Z</time>
      </trkpt>
      <trkpt lat="42.69628" lon="2.03865">
        <ele>1709.267</ele>
        <time>2011-08-23T12:22:53Z</time>
      </trkpt>
      <trkpt lat="42.69584" lon="2.03862">
        <ele>1709.012</ele>
        <time>2011-08-23T12:23:01Z</time>
      </trkpt>
      <trkpt lat="42.69539" lon="2.03869">
        <ele>1708.656</ele>
        <time>2011-08-23T12:23:08Z</time>
      </trkpt>
      <trkpt lat="42.69505" lon="2.03878">
        <ele>1708.351</ele>
        <time>2011-08-23T12:23:13Z</time>
      </trkpt>
      <trkpt lat="42.69486" lon="2.03881">
        <ele>1708.78</ele>
        <time>2011-08-23T12:23:16Z</time>
      </trkpt>
      <trkpt lat="42.69447" lon="2.03881">
        <ele>1708.532</ele>
        <time>2011-08-23T12:23:22Z</time>
      </trkpt>
      <trkpt lat="42.69429" lon="2.03879">
        <ele>1708.551</ele>
        <time>2011-08-23T12:23:25Z</time>
      </trkpt>
      <trkpt lat="42.69404" lon="2.03885">
        <ele>1708.485</ele>
        <time>2011-08-23T12:23:30Z</time>
      </trkpt>
      <trkpt lat="42.69384" lon="2.03894">
        <ele>1708.325</ele>
        <time>2011-08-23T12:23:35Z</time>
      </trkpt>
      <trkpt lat="42.6936" lon="2.03905">
        <ele>1707.37</ele>
        <time>2011-08-23T12:23:40Z</time>
      </trkpt>
      <trkpt lat="42.69356" lon="2.03923">
        <ele>1706.493</ele>
        <time>2011-08-23T12:23:43Z</time>
      </trkpt>
      <trkpt lat="42.69351" lon="2.03937">
        <ele>1706.346</ele>
        <time>2011-08-23T12:23:45Z</time>
      </trkpt>
      <trkpt lat="42.69334" lon="2.0397">
        <ele>1705.128</ele>
        <time>2011-08-23T12:23:49Z</time>
      </trkpt>
      <trkpt lat="42.69326" lon="2.03996">
        <ele>1703.732</ele>
        <time>2011-08-23T12:23:52Z</time>
      </trkpt>
      <trkpt lat="42.69309" lon="2.04027">
        <ele>1702.773</ele>
        <time>2011-08-23T12:23:56Z</time>
      </trkpt>
      <trkpt lat="42.69283" lon="2.04054">
        <ele>1701.601</ele>
        <time>2011-08-23T12:24:00Z</time>
      </trkpt>
      <trkpt lat="42.69255" lon="2.0411">
        <ele>1698.913</ele>
        <time>2011-08-23T12:24:06Z</time>
      </trkpt>
      <trkpt lat="42.69244" lon="2.04137">
        <ele>1698.663</ele>
        <time>2011-08-23T12:24:09Z</time>
      </trkpt>
      <trkpt lat="42.69222" lon="2.04158">
        <ele>1697.905</ele>
        <time>2011-08-23T12:24:13Z</time>
      </trkpt>
      <trkpt lat="42.69215" lon="2.04161">
        <ele>1697.766</ele>
        <time>2011-08-23T12:24:14Z</time>
      </trkpt>
      <trkpt lat="42.69179" lon="2.04164">
        <ele>1697.314</ele>
        <time>2011-08-23T12:24:19Z</time>
      </trkpt>
      <trkpt lat="42.69159" lon="2.04166">
        <ele>1697.179</ele>
        <time>2011-08-23T12:24:22Z</time>
      </trkpt>
      <trkpt lat="42.69126" lon="2.04172">
        <ele>1696.479</ele>
        <time>2011-08-23T12:24:27Z</time>
      </trkpt>
      <trkpt lat="42.69106" lon="2.04169">
        <ele>1695.666</ele>
        <time>2011-08-23T12:24:30Z</time>
      </trkpt>
      <trkpt lat="42.69069" lon="2.04146">
        <ele>1693.768</ele>
        <time>2011-08-23T12:24:36Z</time>
      </trkpt>
      <trkpt lat="42.6905" lon="2.04138">
        <ele>1693.045</ele>
        <time>2011-08-23T12:24:39Z</time>
      </trkpt>
      <trkpt lat="42.69038" lon="2.04136">
        <ele>1692.692</ele>
        <time>2011-08-23T12:24:41Z</time>
      </trkpt>
      <trkpt lat="42.69013" lon="2.04148">
        <ele>1691.522</ele>
        <time>2011-08-23T12:24:45Z</time>
      </trkpt>
      <trkpt lat="42.69004" lon="2.04163">
        <ele>1691.225</ele>
        <time>2011-08-23T12:24:47Z</time>
      </trkpt>
      <trkpt lat="42.68992" lon="2.04199">
        <ele>1690.438</ele>
        <time>2011-08-23T12:24:52Z</time>
      </trkpt>
      <trkpt lat="42.68985" lon="2.04238">
        <ele>1689.211</ele>
        <time>2011-08-23T12:24:57Z</time>
      </trkpt>
      <trkpt lat="42.6899" lon="2.04273">
        <ele>1688.34</ele>
        <time>2011-08-23T12:25:01Z</time>
      </trkpt>
      <trkpt lat="42.69007" lon="2.04283">
        <ele>1688.02</ele>
        <time>2011-08-23T12:25:04Z</time>
      </trkpt>
      <trkpt lat="42.69032" lon="2.0429">
        <ele>1688.14</ele>
        <time>2011-08-23T12:25:09Z</time>
      </trkpt>
      <trkpt lat="42.69052" lon="2.04305">
        <ele>1688.81</ele>
        <time>2011-08-23T12:25:14Z</time>
      </trkpt>
      <trkpt lat="42.69053" lon="2.0431">
        <ele>1688.917</ele>
        <time>2011-08-23T12:25:15Z</time>
      </trkpt>
      <trkpt lat="42.69065" lon="2.04329">
        <ele>1690.081</ele>
        <time>2011-08-23T12:25:21Z</time>
      </trkpt>
      <trkpt lat="42.6908" lon="2.04333">
        <ele>1690.973</ele>
        <time>2011-08-23T12:25:26Z</time>
      </trkpt>
      <trkpt lat="42.69096" lon="2.04341">
        <ele>1692.407</ele>
        <time>2011-08-23T12:25:32Z</time>
      </trkpt>
      <trkpt lat="42.69111" lon="2.04349">
        <ele>1693.878</ele>
        <time>2011-08-23T12:25:38Z</time>
      </trkpt>
      <trkpt lat="42.69131" lon="2.04365">
        <ele>1694.679</ele>
        <time>2011-08-23T12:25:46Z</time>
      </trkpt>
      <trkpt lat="42.69151" lon="2.04391">
        <ele>1695.934</ele>
        <time>2011-08-23T12:25:56Z</time>
      </trkpt>
      <trkpt lat="42.69165" lon="2.0441">
        <ele>1697.506</ele>
        <time>2011-08-23T12:26:04Z</time>
      </trkpt>
      <trkpt lat="42.69178" lon="2.0443">
        <ele>1698.902</ele>
        <time>2011-08-23T12:26:12Z</time>
      </trkpt>
      <trkpt lat="42.69188" lon="2.0445">
        <ele>1700.533</ele>
        <time>2011-08-23T12:26:21Z</time>
      </trkpt>
      <trkpt lat="42.69198" lon="2.04468">
        <ele>1702.374</ele>
        <time>2011-08-23T12:26:29Z</time>
      </trkpt>
      <trkpt lat="42.69209" lon="2.04486">
        <ele>1703.675</ele>
        <time>2011-08-23T12:26:37Z</time>
      </trkpt>
      <trkpt lat="42.69216" lon="2.04504">
        <ele>1704.609</ele>
        <time>2011-08-23T12:26:44Z</time>
      </trkpt>
      <trkpt lat="42.69226" lon="2.04527">
        <ele>1705.622</ele>
        <time>2011-08-23T12:26:53Z</time>
      </trkpt>
      <trkpt lat="42.6924" lon="2.04549">
        <ele>1706.674</ele>
        <time>2011-08-23T12:27:02Z</time>
      </trkpt>
      <trkpt lat="42.69254" lon="2.04565">
        <ele>1707.518</ele>
        <time>2011-08-23T12:27:10Z</time>
      </trkpt>
      <trkpt lat="42.69269" lon="2.04588">
        <ele>1709.141</ele>
        <time>2011-08-23T12:27:19Z</time>
      </trkpt>
      <trkpt lat="42.69284" lon="2.04619">
        <ele>1710.449</ele>
        <time>2011-08-23T12:27:30Z</time>
      </trkpt>
      <trkpt lat="42.69295" lon="2.04638">
        <ele>1711.24</ele>
        <time>2011-08-23T12:27:38Z</time>
      </trkpt>
      <trkpt lat="42.6931" lon="2.04658">
        <ele>1712.806</ele>
        <time>2011-08-23T12:27:48Z</time>
      </trkpt>
      <trkpt lat="42.69327" lon="2.04665">
        <ele>1714.839</ele>
        <time>2011-08-23T12:27:56Z</time>
      </trkpt>
      <trkpt lat="42.6934" lon="2.04681">
        <ele>1717.62</ele>
        <time>2011-08-23T12:28:04Z</time>
      </trkpt>
      <trkpt lat="42.69354" lon="2.04693">
        <ele>1719.586</ele>
        <time>2011-08-23T12:28:12Z</time>
      </trkpt>
      <trkpt lat="42.69367" lon="2.0471">
        <ele>1722.108</ele>
        <time>2011-08-23T12:28:21Z</time>
      </trkpt>
      <trkpt lat="42.69377" lon="2.04726">
        <ele>1723.96</ele>
        <time>2011-08-23T12:28:29Z</time>
      </trkpt>
      <trkpt lat="42.69388" lon="2.04747">
        <ele>1725.561</ele>
        <time>2011-08-23T12:28:39Z</time>
      </trkpt>
      <trkpt lat="42.69394" lon="2.04763">
        <ele>1727.372</ele>
        <time>2011-08-23T12:28:46Z</time>
      </trkpt>
      <trkpt lat="42.69401" lon="2.04787">
        <ele>1729.376</ele>
        <time>2011-08-23T12:28:56Z</time>
      </trkpt>
      <trkpt lat="42.69409" lon="2.04812">
        <ele>1731.566</ele>
        <time>2011-08-23T12:29:07Z</time>
      </trkpt>
      <trkpt lat="42.69416" lon="2.04828">
        <ele>1733.561</ele>
        <time>2011-08-23T12:29:15Z</time>
      </trkpt>
      <trkpt lat="42.69427" lon="2.0484">
        <ele>1734.812</ele>
        <time>2011-08-23T12:29:22Z</time>
      </trkpt>
      <trkpt lat="42.6944" lon="2.04848">
        <ele>1736.234</ele>
        <time>2011-08-23T12:29:29Z</time>
      </trkpt>
      <trkpt lat="42.69452" lon="2.04852">
        <ele>1737.811</ele>
        <time>2011-08-23T12:29:36Z</time>
      </trkpt>
      <trkpt lat="42.69465" lon="2.04858">
        <ele>1739.28</ele>
        <time>2011-08-23T12:29:43Z</time>
      </trkpt>
      <trkpt lat="42.69474" lon="2.0486">
        <ele>1740.626</ele>
        <time>2011-08-23T12:29:49Z</time>
      </trkpt>
      <trkpt lat="42.69488" lon="2.04864">
        <ele>1741.562</ele>
        <time>2011-08-23T12:29:57Z</time>
      </trkpt>
      <trkpt lat="42.69502" lon="2.04872">
        <ele>1743.354</ele>
        <time>2011-08-23T12:30:06Z</time>
      </trkpt>
      <trkpt lat="42.69514" lon="2.04879">
        <ele>1744.933</ele>
        <time>2011-08-23T12:30:13Z</time>
      </trkpt>
      <trkpt lat="42.69531" lon="2.04886">
        <ele>1746.624</ele>
        <time>2011-08-23T12:30:21Z</time>
      </trkpt>
      <trkpt lat="42.69541" lon="2.04887">
        <ele>1747.368</ele>
        <time>2011-08-23T12:30:27Z</time>
      </trkpt>
      <trkpt lat="42.69555" lon="2.0489">
        <ele>1748.553</ele>
        <time>2011-08-23T12:30:34Z</time>
      </trkpt>
      <trkpt lat="42.69567" lon="2.04902">
        <ele>1749.127</ele>
        <time>2011-08-23T12:30:41Z</time>
      </trkpt>
      <trkpt lat="42.69575" lon="2.04933">
        <ele>1749.774</ele>
        <time>2011-08-23T12:30:51Z</time>
      </trkpt>
      <trkpt lat="42.69584" lon="2.04959">
        <ele>1749.785</ele>
        <time>2011-08-23T12:30:58Z</time>
      </trkpt>
      <trkpt lat="42.69601" lon="2.04992">
        <ele>1749.723</ele>
        <time>2011-08-23T12:31:06Z</time>
      </trkpt>
      <trkpt lat="42.6962" lon="2.05024">
        <ele>1749.483</ele>
        <time>2011-08-23T12:31:13Z</time>
      </trkpt>
      <trkpt lat="42.69629" lon="2.05037">
        <ele>1749.308</ele>
        <time>2011-08-23T12:31:16Z</time>
      </trkpt>
      <trkpt lat="42.69646" lon="2.05065">
        <ele>1748.957</ele>
        <time>2011-08-23T12:31:22Z</time>
      </trkpt>
      <trkpt lat="42.69651" lon="2.05074">
        <ele>1748.834</ele>
        <time>2011-08-23T12:31:24Z</time>
      </trkpt>
      <trkpt lat="42.69661" lon="2.05093">
        <ele>1748.669</ele>
        <time>2011-08-23T12:31:28Z</time>
      </trkpt>
      <trkpt lat="42.69665" lon="2.05104">
        <ele>1748.73</ele>
        <time>2011-08-23T12:31:30Z</time>
      </trkpt>
      <trkpt lat="42.69669" lon="2.05146">
        <ele>1748.385</ele>
        <time>2011-08-23T12:31:37Z</time>
      </trkpt>
      <trkpt lat="42.69665" lon="2.05193">
        <ele>1747.452</ele>
        <time>2011-08-23T12:31:44Z</time>
      </trkpt>
      <trkpt lat="42.69662" lon="2.05222">
        <ele>1746.83</ele>
        <time>2011-08-23T12:31:48Z</time>
      </trkpt>
      <trkpt lat="42.69663" lon="2.05251">
        <ele>1746.353</ele>
        <time>2011-08-23T12:31:52Z</time>
      </trkpt>
      <trkpt lat="42.69667" lon="2.05299">
        <ele>1745.896</ele>
        <time>2011-08-23T12:31:59Z</time>
      </trkpt>
      <trkpt lat="42.69668" lon="2.05328">
        <ele>1745.749</ele>
        <time>2011-08-23T12:32:03Z</time>
      </trkpt>
      <trkpt lat="42.69658" lon="2.05371">
        <ele>1745.054</ele>
        <time>2011-08-23T12:32:09Z</time>
      </trkpt>
      <trkpt lat="42.6964" lon="2.05421">
        <ele>1744.382</ele>
        <time>2011-08-23T12:32:16Z</time>
      </trkpt>
      <trkpt lat="42.6962" lon="2.05487">
        <ele>1743.743</ele>
        <time>2011-08-23T12:32:25Z</time>
      </trkpt>
      <trkpt lat="42.69607" lon="2.05531">
        <ele>1743.075</ele>
        <time>2011-08-23T12:32:31Z</time>
      </trkpt>
      <trkpt lat="42.69594" lon="2.05576">
        <ele>1742.249</ele>
        <time>2011-08-23T12:32:37Z</time>
      </trkpt>
      <trkpt lat="42.69587" lon="2.05597">
        <ele>1742.264</ele>
        <time>2011-08-23T12:32:40Z</time>
      </trkpt>
      <trkpt lat="42.69571" lon="2.05627">
        <ele>1742.508</ele>
        <time>2011-08-23T12:32:45Z</time>
      </trkpt>
      <trkpt lat="42.6956" lon="2.05637">
        <ele>1742.95</ele>
        <time>2011-08-23T12:32:48Z</time>
      </trkpt>
      <trkpt lat="42.69534" lon="2.05654">
        <ele>1743.856</ele>
        <time>2011-08-23T12:32:55Z</time>
      </trkpt>
      <trkpt lat="42.69516" lon="2.05666">
        <ele>1744.853</ele>
        <time>2011-08-23T12:33:01Z</time>
      </trkpt>
      <trkpt lat="42.69497" lon="2.0568">
        <ele>1746.406</ele>
        <time>2011-08-23T12:33:08Z</time>
      </trkpt>
      <trkpt lat="42.69478" lon="2.05695">
        <ele>1747.182</ele>
        <time>2011-08-23T12:33:15Z</time>
      </trkpt>
      <trkpt lat="42.69456" lon="2.05714">
        <ele>1748.676</ele>
        <time>2011-08-23T12:33:23Z</time>
      </trkpt>
      <trkpt lat="42.69438" lon="2.05734">
        <ele>1750.195</ele>
        <time>2011-08-23T12:33:31Z</time>
      </trkpt>
      <trkpt lat="42.69426" lon="2.05751">
        <ele>1751.137</ele>
        <time>2011-08-23T12:33:37Z</time>
      </trkpt>
      <trkpt lat="42.69413" lon="2.05771">
        <ele>1751.623</ele>
        <time>2011-08-23T12:33:44Z</time>
      </trkpt>
      <trkpt lat="42.69401" lon="2.05799">
        <ele>1752.731</ele>
        <time>2011-08-23T12:33:51Z</time>
      </trkpt>
      <trkpt lat="42.69396" lon="2.05817">
        <ele>1753.641</ele>
        <time>2011-08-23T12:33:56Z</time>
      </trkpt>
      <trkpt lat="42.6939" lon="2.0584">
        <ele>1754.126</ele>
        <time>2011-08-23T12:34:02Z</time>
      </trkpt>
      <trkpt lat="42.69389" lon="2.05861">
        <ele>1754.898</ele>
        <time>2011-08-23T12:34:08Z</time>
      </trkpt>
      <trkpt lat="42.69387" lon="2.0588">
        <ele>1755.672</ele>
        <time>2011-08-23T12:34:13Z</time>
      </trkpt>
      <trkpt lat="42.69382" lon="2.05908">
        <ele>1756.766</ele>
        <time>2011-08-23T12:34:20Z</time>
      </trkpt>
      <trkpt lat="42.69382" lon="2.05926">
        <ele>1757.486</ele>
        <time>2011-08-23T12:34:25Z</time>
      </trkpt>
      <trkpt lat="42.69375" lon="2.05957">
        <ele>1759.112</ele>
        <time>2011-08-23T12:34:33Z</time>
      </trkpt>
      <trkpt lat="42.69364" lon="2.0598">
        <ele>1760.032</ele>
        <time>2011-08-23T12:34:40Z</time>
      </trkpt>
      <trkpt lat="42.69356" lon="2.0599">
        <ele>1760.164</ele>
        <time>2011-08-23T12:34:44Z</time>
      </trkpt>
      <trkpt lat="42.69336" lon="2.06006">
        <ele>1760.815</ele>
        <time>2011-08-23T12:34:51Z</time>
      </trkpt>
      <trkpt lat="42.69318" lon="2.06017">
        <ele>1761.048</ele>
        <time>2011-08-23T12:34:56Z</time>
      </trkpt>
      <trkpt lat="42.69293" lon="2.06024">
        <ele>1761.51</ele>
        <time>2011-08-23T12:35:03Z</time>
      </trkpt>
      <trkpt lat="42.69266" lon="2.06025">
        <ele>1761.963</ele>
        <time>2011-08-23T12:35:10Z</time>
      </trkpt>
      <trkpt lat="42.69231" lon="2.06019">
        <ele>1762.588</ele>
        <time>2011-08-23T12:35:19Z</time>
      </trkpt>
      <trkpt lat="42.69204" lon="2.06012">
        <ele>1763.113</ele>
        <time>2011-08-23T12:35:26Z</time>
      </trkpt>
      <trkpt lat="42.69175" lon="2.06008">
        <ele>1763.668</ele>
        <time>2011-08-23T12:35:34Z</time>
      </trkpt>
      <trkpt lat="42.69151" lon="2.06002">
        <ele>1764.051</ele>
        <time>2011-08-23T12:35:40Z</time>
      </trkpt>
      <trkpt lat="42.69138" lon="2.05999">
        <ele>1764.017</ele>
        <time>2011-08-23T12:35:43Z</time>
      </trkpt>
      <trkpt lat="42.69114" lon="2.05993">
        <ele>1764.087</ele>
        <time>2011-08-23T12:35:48Z</time>
      </trkpt>
      <trkpt lat="42.69104" lon="2.05991">
        <ele>1763.993</ele>
        <time>2011-08-23T12:35:50Z</time>
      </trkpt>
      <trkpt lat="42.69085" lon="2.05995">
        <ele>1763.465</ele>
        <time>2011-08-23T12:35:54Z</time>
      </trkpt>
      <trkpt lat="42.69064" lon="2.06022">
        <ele>1763.186</ele>
        <time>2011-08-23T12:36:00Z</time>
      </trkpt>
      <trkpt lat="42.69062" lon="2.06027">
        <ele>1763.385</ele>
        <time>2011-08-23T12:36:01Z</time>
      </trkpt>
      <trkpt lat="42.69043" lon="2.06064">
        <ele>1763.439</ele>
        <time>2011-08-23T12:36:08Z</time>
      </trkpt>
      <trkpt lat="42.69038" lon="2.06099">
        <ele>1763.278</ele>
        <time>2011-08-23T12:36:13Z</time>
      </trkpt>
      <trkpt lat="42.69039" lon="2.06112">
        <ele>1763.497</ele>
        <time>2011-08-23T12:36:15Z</time>
      </trkpt>
      <trkpt lat="42.69042" lon="2.06158">
        <ele>1764.916</ele>
        <time>2011-08-23T12:36:23Z</time>
      </trkpt>
      <trkpt lat="42.69039" lon="2.0619">
        <ele>1765.655</ele>
        <time>2011-08-23T12:36:29Z</time>
      </trkpt>
      <trkpt lat="42.69032" lon="2.06212">
        <ele>1766.157</ele>
        <time>2011-08-23T12:36:33Z</time>
      </trkpt>
      <trkpt lat="42.69019" lon="2.06255">
        <ele>1767.571</ele>
        <time>2011-08-23T12:36:41Z</time>
      </trkpt>
      <trkpt lat="42.69012" lon="2.0628">
        <ele>1768.104</ele>
        <time>2011-08-23T12:36:46Z</time>
      </trkpt>
      <trkpt lat="42.69" lon="2.06303">
        <ele>1768.79</ele>
        <time>2011-08-23T12:36:51Z</time>
      </trkpt>
      <trkpt lat="42.68988" lon="2.06325">
        <ele>1769.431</ele>
        <time>2011-08-23T12:36:56Z</time>
      </trkpt>
      <trkpt lat="42.68977" lon="2.06344">
        <ele>1769.993</ele>
        <time>2011-08-23T12:37:01Z</time>
      </trkpt>
      <trkpt lat="42.68967" lon="2.06373">
        <ele>1770.851</ele>
        <time>2011-08-23T12:37:07Z</time>
      </trkpt>
      <trkpt lat="42.68959" lon="2.06401">
        <ele>1771.769</ele>
        <time>2011-08-23T12:37:13Z</time>
      </trkpt>
      <trkpt lat="42.68947" lon="2.06439">
        <ele>1773.398</ele>
        <time>2011-08-23T12:37:21Z</time>
      </trkpt>
      <trkpt lat="42.68938" lon="2.06469">
        <ele>1774.075</ele>
        <time>2011-08-23T12:37:28Z</time>
      </trkpt>
      <trkpt lat="42.6893" lon="2.06496">
        <ele>1774.886</ele>
        <time>2011-08-23T12:37:34Z</time>
      </trkpt>
      <trkpt lat="42.68918" lon="2.0653">
        <ele>1775.734</ele>
        <time>2011-08-23T12:37:41Z</time>
      </trkpt>
      <trkpt lat="42.68911" lon="2.06557">
        <ele>1776.555</ele>
        <time>2011-08-23T12:37:47Z</time>
      </trkpt>
      <trkpt lat="42.68904" lon="2.06583">
        <ele>1777.391</ele>
        <time>2011-08-23T12:37:53Z</time>
      </trkpt>
      <trkpt lat="42.68895" lon="2.06608">
        <ele>1777.65</ele>
        <time>2011-08-23T12:37:58Z</time>
      </trkpt>
      <trkpt lat="42.68883" lon="2.06635">
        <ele>1778.882</ele>
        <time>2011-08-23T12:38:04Z</time>
      </trkpt>
      <trkpt lat="42.68862" lon="2.06669">
        <ele>1780.329</ele>
        <time>2011-08-23T12:38:13Z</time>
      </trkpt>
      <trkpt lat="42.68849" lon="2.06688">
        <ele>1781.451</ele>
        <time>2011-08-23T12:38:19Z</time>
      </trkpt>
      <trkpt lat="42.68837" lon="2.06709">
        <ele>1782.231</ele>
        <time>2011-08-23T12:38:25Z</time>
      </trkpt>
      <trkpt lat="42.6882" lon="2.0674">
        <ele>1783.067</ele>
        <time>2011-08-23T12:38:33Z</time>
      </trkpt>
      <trkpt lat="42.68807" lon="2.06766">
        <ele>1784.178</ele>
        <time>2011-08-23T12:38:40Z</time>
      </trkpt>
      <trkpt lat="42.68797" lon="2.06785">
        <ele>1784.767</ele>
        <time>2011-08-23T12:38:45Z</time>
      </trkpt>
      <trkpt lat="42.68783" lon="2.06812">
        <ele>1785.167</ele>
        <time>2011-08-23T12:38:52Z</time>
      </trkpt>
      <trkpt lat="42.68765" lon="2.06852">
        <ele>1786.597</ele>
        <time>2011-08-23T12:39:02Z</time>
      </trkpt>
      <trkpt lat="42.68755" lon="2.06878">
        <ele>1787.789</ele>
        <time>2011-08-23T12:39:09Z</time>
      </trkpt>
      <trkpt lat="42.68742" lon="2.06909">
        <ele>1788.591</ele>
        <time>2011-08-23T12:39:16Z</time>
      </trkpt>
      <trkpt lat="42.68738" lon="2.06934">
        <ele>1788.762</ele>
        <time>2011-08-23T12:39:21Z</time>
      </trkpt>
      <trkpt lat="42.68734" lon="2.06967">
        <ele>1788.886</ele>
        <time>2011-08-23T12:39:27Z</time>
      </trkpt>
      <trkpt lat="42.68731" lon="2.06989">
        <ele>1788.903</ele>
        <time>2011-08-23T12:39:31Z</time>
      </trkpt>
      <trkpt lat="42.68733" lon="2.07027">
        <ele>1788.903</ele>
        <time>2011-08-23T12:39:38Z</time>
      </trkpt>
      <trkpt lat="42.68737" lon="2.07073">
        <ele>1788.09</ele>
        <time>2011-08-23T12:39:45Z</time>
      </trkpt>
      <trkpt lat="42.68742" lon="2.07134">
        <ele>1787.173</ele>
        <time>2011-08-23T12:39:53Z</time>
      </trkpt>
      <trkpt lat="42.68743" lon="2.07151">
        <ele>1786.68</ele>
        <time>2011-08-23T12:39:55Z</time>
      </trkpt>
      <trkpt lat="42.68736" lon="2.0721">
        <ele>1785.396</ele>
        <time>2011-08-23T12:40:02Z</time>
      </trkpt>
      <trkpt lat="42.68731" lon="2.07234">
        <ele>1784.366</ele>
        <time>2011-08-23T12:40:05Z</time>
      </trkpt>
      <trkpt lat="42.68734" lon="2.07284">
        <ele>1783.22</ele>
        <time>2011-08-23T12:40:11Z</time>
      </trkpt>
      <trkpt lat="42.68748" lon="2.07348">
        <ele>1781.975</ele>
        <time>2011-08-23T12:40:19Z</time>
      </trkpt>
      <trkpt lat="42.68783" lon="2.07402">
        <ele>1781.359</ele>
        <time>2011-08-23T12:40:27Z</time>
      </trkpt>
      <trkpt lat="42.68787" lon="2.07408">
        <ele>1781.304</ele>
        <time>2011-08-23T12:40:28Z</time>
      </trkpt>
      <trkpt lat="42.68795" lon="2.07438">
        <ele>1780.752</ele>
        <time>2011-08-23T12:40:32Z</time>
      </trkpt>
      <trkpt lat="42.68794" lon="2.07455">
        <ele>1779.929</ele>
        <time>2011-08-23T12:40:34Z</time>
      </trkpt>
      <trkpt lat="42.68786" lon="2.07495">
        <ele>1778.796</ele>
        <time>2011-08-23T12:40:39Z</time>
      </trkpt>
      <trkpt lat="42.68772" lon="2.07523">
        <ele>1778.347</ele>
        <time>2011-08-23T12:40:43Z</time>
      </trkpt>
      <trkpt lat="42.68737" lon="2.07555">
        <ele>1776.682</ele>
        <time>2011-08-23T12:40:50Z</time>
      </trkpt>
      <trkpt lat="42.6871" lon="2.07575">
        <ele>1776.032</ele>
        <time>2011-08-23T12:40:55Z</time>
      </trkpt>
      <trkpt lat="42.68668" lon="2.07603">
        <ele>1775.198</ele>
        <time>2011-08-23T12:41:02Z</time>
      </trkpt>
      <trkpt lat="42.68627" lon="2.07628">
        <ele>1773.614</ele>
        <time>2011-08-23T12:41:09Z</time>
      </trkpt>
      <trkpt lat="42.68588" lon="2.07645">
        <ele>1772.589</ele>
        <time>2011-08-23T12:41:15Z</time>
      </trkpt>
      <trkpt lat="42.68556" lon="2.07664">
        <ele>1772.381</ele>
        <time>2011-08-23T12:41:21Z</time>
      </trkpt>
      <trkpt lat="42.68533" lon="2.07679">
        <ele>1771.804</ele>
        <time>2011-08-23T12:41:27Z</time>
      </trkpt>
      <trkpt lat="42.68512" lon="2.07682">
        <ele>1771.098</ele>
        <time>2011-08-23T12:41:32Z</time>
      </trkpt>
      <trkpt lat="42.68498" lon="2.07685">
        <ele>1770.578</ele>
        <time>2011-08-23T12:41:36Z</time>
      </trkpt>
      <trkpt lat="42.68495" lon="2.07688">
        <ele>1770.23</ele>
        <time>2011-08-23T12:41:39Z</time>
      </trkpt>
      <trkpt lat="42.68497" lon="2.07688">
        <ele>1770.164</ele>
        <time>2011-08-23T12:42:04Z</time>
      </trkpt>
      <trkpt lat="42.68485" lon="2.07691">
        <ele>1770.165</ele>
        <time>2011-08-23T12:42:10Z</time>
      </trkpt>
      <trkpt lat="42.68481" lon="2.07693">
        <ele>1770.136</ele>
        <time>2011-08-23T12:42:11Z</time>
      </trkpt>
      <trkpt lat="42.68448" lon="2.07708">
        <ele>1770.199</ele>
        <time>2011-08-23T12:42:19Z</time>
      </trkpt>
      <trkpt lat="42.68417" lon="2.07716">
        <ele>1769.495</ele>
        <time>2011-08-23T12:42:25Z</time>
      </trkpt>
      <trkpt lat="42.68381" lon="2.07715">
        <ele>1768.929</ele>
        <time>2011-08-23T12:42:31Z</time>
      </trkpt>
      <trkpt lat="42.68358" lon="2.07704">
        <ele>1768.949</ele>
        <time>2011-08-23T12:42:35Z</time>
      </trkpt>
      <trkpt lat="42.68312" lon="2.07654">
        <ele>1768.197</ele>
        <time>2011-08-23T12:42:45Z</time>
      </trkpt>
      <trkpt lat="42.68305" lon="2.07644">
        <ele>1768.213</ele>
        <time>2011-08-23T12:42:47Z</time>
      </trkpt>
      <trkpt lat="42.68286" lon="2.07605">
        <ele>1768.891</ele>
        <time>2011-08-23T12:42:55Z</time>
      </trkpt>
      <trkpt lat="42.68274" lon="2.07566">
        <ele>1769.876</ele>
        <time>2011-08-23T12:43:03Z</time>
      </trkpt>
      <trkpt lat="42.68262" lon="2.07523">
        <ele>1771.582</ele>
        <time>2011-08-23T12:43:12Z</time>
      </trkpt>
      <trkpt lat="42.68249" lon="2.07491">
        <ele>1772.684</ele>
        <time>2011-08-23T12:43:20Z</time>
      </trkpt>
      <trkpt lat="42.68241" lon="2.07463">
        <ele>1773.276</ele>
        <time>2011-08-23T12:43:27Z</time>
      </trkpt>
      <trkpt lat="42.68237" lon="2.07429">
        <ele>1775.079</ele>
        <time>2011-08-23T12:43:35Z</time>
      </trkpt>
      <trkpt lat="42.6824" lon="2.07397">
        <ele>1776.591</ele>
        <time>2011-08-23T12:43:43Z</time>
      </trkpt>
      <trkpt lat="42.68246" lon="2.07367">
        <ele>1778.444</ele>
        <time>2011-08-23T12:43:51Z</time>
      </trkpt>
      <trkpt lat="42.68236" lon="2.07356">
        <ele>1779.05</ele>
        <time>2011-08-23T12:43:56Z</time>
      </trkpt>
      <trkpt lat="42.68233" lon="2.07357">
        <ele>1779.222</ele>
        <time>2011-08-23T12:43:57Z</time>
      </trkpt>
      <trkpt lat="42.68207" lon="2.07364">
        <ele>1779.981</ele>
        <time>2011-08-23T12:44:06Z</time>
      </trkpt>
      <trkpt lat="42.68188" lon="2.07354">
        <ele>1780.593</ele>
        <time>2011-08-23T12:44:12Z</time>
      </trkpt>
      <trkpt lat="42.68165" lon="2.07337">
        <ele>1781.299</ele>
        <time>2011-08-23T12:44:20Z</time>
      </trkpt>
      <trkpt lat="42.68131" lon="2.07331">
        <ele>1781.411</ele>
        <time>2011-08-23T12:44:28Z</time>
      </trkpt>
      <trkpt lat="42.68122" lon="2.07331">
        <ele>1781.145</ele>
        <time>2011-08-23T12:44:30Z</time>
      </trkpt>
      <trkpt lat="42.68113" lon="2.07335">
        <ele>1781.094</ele>
        <time>2011-08-23T12:44:32Z</time>
      </trkpt>
      <trkpt lat="42.68099" lon="2.07341">
        <ele>1780.983</ele>
        <time>2011-08-23T12:44:35Z</time>
      </trkpt>
      <trkpt lat="42.68071" lon="2.07362">
        <ele>1779.98</ele>
        <time>2011-08-23T12:44:41Z</time>
      </trkpt>
      <trkpt lat="42.68061" lon="2.07369">
        <ele>1779.703</ele>
        <time>2011-08-23T12:44:43Z</time>
      </trkpt>
      <trkpt lat="42.68035" lon="2.07376">
        <ele>1778.687</ele>
        <time>2011-08-23T12:44:48Z</time>
      </trkpt>
      <trkpt lat="42.68016" lon="2.07366">
        <ele>1778.482</ele>
        <time>2011-08-23T12:44:52Z</time>
      </trkpt>
      <trkpt lat="42.67997" lon="2.07345">
        <ele>1778.557</ele>
        <time>2011-08-23T12:44:57Z</time>
      </trkpt>
      <trkpt lat="42.67979" lon="2.07334">
        <ele>1778.564</ele>
        <time>2011-08-23T12:45:01Z</time>
      </trkpt>
      <trkpt lat="42.6796" lon="2.07337">
        <ele>1778.611</ele>
        <time>2011-08-23T12:45:05Z</time>
      </trkpt>
      <trkpt lat="42.67943" lon="2.07347">
        <ele>1778.787</ele>
        <time>2011-08-23T12:45:09Z</time>
      </trkpt>
      <trkpt lat="42.67935" lon="2.07354">
        <ele>1778.807</ele>
        <time>2011-08-23T12:45:11Z</time>
      </trkpt>
      <trkpt lat="42.67909" lon="2.07359">
        <ele>1777.412</ele>
        <time>2011-08-23T12:45:16Z</time>
      </trkpt>
      <trkpt lat="42.67889" lon="2.07358">
        <ele>1776.895</ele>
        <time>2011-08-23T12:45:20Z</time>
      </trkpt>
      <trkpt lat="42.67873" lon="2.07371">
        <ele>1776.741</ele>
        <time>2011-08-23T12:45:24Z</time>
      </trkpt>
      <trkpt lat="42.67863" lon="2.07393">
        <ele>1776.911</ele>
        <time>2011-08-23T12:45:28Z</time>
      </trkpt>
      <trkpt lat="42.67853" lon="2.07433">
        <ele>1777.747</ele>
        <time>2011-08-23T12:45:36Z</time>
      </trkpt>
      <trkpt lat="42.67852" lon="2.07438">
        <ele>1777.876</ele>
        <time>2011-08-23T12:45:37Z</time>
      </trkpt>
      <trkpt lat="42.67844" lon="2.07463">
        <ele>1778.392</ele>
        <time>2011-08-23T12:45:42Z</time>
      </trkpt>
      <trkpt lat="42.67841" lon="2.07474">
        <ele>1778.324</ele>
        <time>2011-08-23T12:45:44Z</time>
      </trkpt>
      <trkpt lat="42.67831" lon="2.07512">
        <ele>1778.166</ele>
        <time>2011-08-23T12:45:51Z</time>
      </trkpt>
      <trkpt lat="42.67821" lon="2.07535">
        <ele>1778.502</ele>
        <time>2011-08-23T12:45:57Z</time>
      </trkpt>
      <trkpt lat="42.6781" lon="2.07551">
        <ele>1778.489</ele>
        <time>2011-08-23T12:46:02Z</time>
      </trkpt>
      <trkpt lat="42.678" lon="2.07574">
        <ele>1779.038</ele>
        <time>2011-08-23T12:46:08Z</time>
      </trkpt>
      <trkpt lat="42.67789" lon="2.07604">
        <ele>1780.005</ele>
        <time>2011-08-23T12:46:15Z</time>
      </trkpt>
      <trkpt lat="42.67772" lon="2.07631">
        <ele>1780.071</ele>
        <time>2011-08-23T12:46:22Z</time>
      </trkpt>
      <trkpt lat="42.67751" lon="2.0765">
        <ele>1780.833</ele>
        <time>2011-08-23T12:46:29Z</time>
      </trkpt>
      <trkpt lat="42.67726" lon="2.07658">
        <ele>1781.832</ele>
        <time>2011-08-23T12:46:36Z</time>
      </trkpt>
      <trkpt lat="42.67709" lon="2.07669">
        <ele>1782.424</ele>
        <time>2011-08-23T12:46:41Z</time>
      </trkpt>
      <trkpt lat="42.67689" lon="2.07691">
        <ele>1782.495</ele>
        <time>2011-08-23T12:46:48Z</time>
      </trkpt>
      <trkpt lat="42.67676" lon="2.07702">
        <ele>1782.431</ele>
        <time>2011-08-23T12:46:52Z</time>
      </trkpt>
      <trkpt lat="42.67673" lon="2.07706">
        <ele>1782.448</ele>
        <time>2011-08-23T12:46:53Z</time>
      </trkpt>
      <trkpt lat="42.67663" lon="2.07726">
        <ele>1782.273</ele>
        <time>2011-08-23T12:46:57Z</time>
      </trkpt>
      <trkpt lat="42.6764" lon="2.07784">
        <ele>1782.173</ele>
        <time>2011-08-23T12:47:08Z</time>
      </trkpt>
      <trkpt lat="42.67631" lon="2.07809">
        <ele>1781.297</ele>
        <time>2011-08-23T12:47:14Z</time>
      </trkpt>
      <trkpt lat="42.67623" lon="2.0782">
        <ele>1781.251</ele>
        <time>2011-08-23T12:47:17Z</time>
      </trkpt>
      <trkpt lat="42.67608" lon="2.07823">
        <ele>1780.537</ele>
        <time>2011-08-23T12:47:21Z</time>
      </trkpt>
      <trkpt lat="42.67585" lon="2.07816">
        <ele>1780.436</ele>
        <time>2011-08-23T12:47:27Z</time>
      </trkpt>
      <trkpt lat="42.67565" lon="2.07824">
        <ele>1779.87</ele>
        <time>2011-08-23T12:47:32Z</time>
      </trkpt>
      <trkpt lat="42.67556" lon="2.07839">
        <ele>1779.445</ele>
        <time>2011-08-23T12:47:35Z</time>
      </trkpt>
      <trkpt lat="42.67541" lon="2.07867">
        <ele>1779.529</ele>
        <time>2011-08-23T12:47:40Z</time>
      </trkpt>
      <trkpt lat="42.67526" lon="2.07895">
        <ele>1779.311</ele>
        <time>2011-08-23T12:47:45Z</time>
      </trkpt>
      <trkpt lat="42.67509" lon="2.07935">
        <ele>1779.046</ele>
        <time>2011-08-23T12:47:52Z</time>
      </trkpt>
      <trkpt lat="42.67498" lon="2.07967">
        <ele>1778.365</ele>
        <time>2011-08-23T12:47:58Z</time>
      </trkpt>
      <trkpt lat="42.67463" lon="2.08022">
        <ele>1777.529</ele>
        <time>2011-08-23T12:48:09Z</time>
      </trkpt>
      <trkpt lat="42.67454" lon="2.08043">
        <ele>1776.738</ele>
        <time>2011-08-23T12:48:13Z</time>
      </trkpt>
      <trkpt lat="42.67451" lon="2.08054">
        <ele>1776.486</ele>
        <time>2011-08-23T12:48:15Z</time>
      </trkpt>
      <trkpt lat="42.67441" lon="2.0808">
        <ele>1775.757</ele>
        <time>2011-08-23T12:48:21Z</time>
      </trkpt>
      <trkpt lat="42.67439" lon="2.08078">
        <ele>1775.756</ele>
        <time>2011-08-23T12:48:24Z</time>
      </trkpt>
      <trkpt lat="42.67436" lon="2.0807">
        <ele>1776.385</ele>
        <time>2011-08-23T12:48:29Z</time>
      </trkpt>
      <trkpt lat="42.67435" lon="2.08067">
        <ele>1776.771</ele>
        <time>2011-08-23T12:48:31Z</time>
      </trkpt>
      <trkpt lat="42.67434" lon="2.08062">
        <ele>1777.506</ele>
        <time>2011-08-23T12:48:34Z</time>
      </trkpt>
      <trkpt lat="42.67436" lon="2.08053">
        <ele>1779.709</ele>
        <time>2011-08-23T12:48:41Z</time>
      </trkpt>
      <trkpt lat="42.67432" lon="2.08052">
        <ele>1781.691</ele>
        <time>2011-08-23T12:48:55Z</time>
      </trkpt>
      <trkpt lat="42.67432" lon="2.08047">
        <ele>1782.758</ele>
        <time>2011-08-23T12:49:00Z</time>
      </trkpt>
      <trkpt lat="42.67431" lon="2.08045">
        <ele>1782.999</ele>
        <time>2011-08-23T12:49:01Z</time>
      </trkpt>
      <trkpt lat="42.67431" lon="2.08039">
        <ele>1783.683</ele>
        <time>2011-08-23T12:49:04Z</time>
      </trkpt>
      <trkpt lat="42.67433" lon="2.08033">
        <ele>1784.878</ele>
        <time>2011-08-23T12:49:09Z</time>
      </trkpt>
      <trkpt lat="42.67431" lon="2.08025">
        <ele>1786.719</ele>
        <time>2011-08-23T12:49:16Z</time>
      </trkpt>
      <trkpt lat="42.67431" lon="2.08024">
        <ele>1787.032</ele>
        <time>2011-08-23T12:49:17Z</time>
      </trkpt>
      <trkpt lat="42.67429" lon="2.08018">
        <ele>1788.274</ele>
        <time>2011-08-23T12:49:23Z</time>
      </trkpt>
      <trkpt lat="42.67423" lon="2.08014">
        <ele>1789.66</ele>
        <time>2011-08-23T12:49:29Z</time>
      </trkpt>
      <trkpt lat="42.67423" lon="2.08008">
        <ele>1791.005</ele>
        <time>2011-08-23T12:49:35Z</time>
      </trkpt>
      <trkpt lat="42.6742" lon="2.08005">
        <ele>1791.937</ele>
        <time>2011-08-23T12:49:39Z</time>
      </trkpt>
      <trkpt lat="42.67418" lon="2.07999">
        <ele>1793.429</ele>
        <time>2011-08-23T12:49:46Z</time>
      </trkpt>
      <trkpt lat="42.67418" lon="2.07995">
        <ele>1795.132</ele>
        <time>2011-08-23T12:49:52Z</time>
      </trkpt>
      <trkpt lat="42.67417" lon="2.07992">
        <ele>1795.965</ele>
        <time>2011-08-23T12:49:56Z</time>
      </trkpt>
      <trkpt lat="42.67418" lon="2.07991">
        <ele>1796.18</ele>
        <time>2011-08-23T12:49:57Z</time>
      </trkpt>
      <trkpt lat="42.6742" lon="2.07983">
        <ele>1797.883</ele>
        <time>2011-08-23T12:50:05Z</time>
      </trkpt>
      <trkpt lat="42.67419" lon="2.07979">
        <ele>1799.094</ele>
        <time>2011-08-23T12:50:11Z</time>
      </trkpt>
      <trkpt lat="42.67421" lon="2.07976">
        <ele>1800.176</ele>
        <time>2011-08-23T12:50:15Z</time>
      </trkpt>
      <trkpt lat="42.6742" lon="2.07973">
        <ele>1800.891</ele>
        <time>2011-08-23T12:50:19Z</time>
      </trkpt>
      <trkpt lat="42.67417" lon="2.07972">
        <ele>1802.465</ele>
        <time>2011-08-23T12:50:26Z</time>
      </trkpt>
      <trkpt lat="42.67416" lon="2.07969">
        <ele>1803.594</ele>
        <time>2011-08-23T12:50:31Z</time>
      </trkpt>
      <trkpt lat="42.6741" lon="2.07965">
        <ele>1804.618</ele>
        <time>2011-08-23T12:50:38Z</time>
      </trkpt>
      <trkpt lat="42.67405" lon="2.0796">
        <ele>1805.615</ele>
        <time>2011-08-23T12:50:44Z</time>
      </trkpt>
      <trkpt lat="42.674" lon="2.07956">
        <ele>1806.648</ele>
        <time>2011-08-23T12:50:49Z</time>
      </trkpt>
      <trkpt lat="42.67395" lon="2.07955">
        <ele>1808.33</ele>
        <time>2011-08-23T12:50:56Z</time>
      </trkpt>
      <trkpt lat="42.67395" lon="2.07952">
        <ele>1809.403</ele>
        <time>2011-08-23T12:51:02Z</time>
      </trkpt>
      <trkpt lat="42.67391" lon="2.07952">
        <ele>1810.656</ele>
        <time>2011-08-23T12:51:07Z</time>
      </trkpt>
      <trkpt lat="42.67386" lon="2.07952">
        <ele>1811.768</ele>
        <time>2011-08-23T12:51:12Z</time>
      </trkpt>
      <trkpt lat="42.67384" lon="2.0795">
        <ele>1812.636</ele>
        <time>2011-08-23T12:51:17Z</time>
      </trkpt>
      <trkpt lat="42.67383" lon="2.07947">
        <ele>1814.507</ele>
        <time>2011-08-23T12:51:25Z</time>
      </trkpt>
      <trkpt lat="42.67383" lon="2.07941">
        <ele>1815.882</ele>
        <time>2011-08-23T12:51:32Z</time>
      </trkpt>
      <trkpt lat="42.67385" lon="2.07937">
        <ele>1817.019</ele>
        <time>2011-08-23T12:51:37Z</time>
      </trkpt>
      <trkpt lat="42.67388" lon="2.07931">
        <ele>1818.375</ele>
        <time>2011-08-23T12:51:44Z</time>
      </trkpt>
      <trkpt lat="42.67386" lon="2.07927">
        <ele>1819.784</ele>
        <time>2011-08-23T12:51:51Z</time>
      </trkpt>
      <trkpt lat="42.67385" lon="2.07922">
        <ele>1821.113</ele>
        <time>2011-08-23T12:51:57Z</time>
      </trkpt>
      <trkpt lat="42.67385" lon="2.07916">
        <ele>1822.264</ele>
        <time>2011-08-23T12:52:03Z</time>
      </trkpt>
      <trkpt lat="42.67388" lon="2.07911">
        <ele>1823.098</ele>
        <time>2011-08-23T12:52:08Z</time>
      </trkpt>
      <trkpt lat="42.67389" lon="2.07904">
        <ele>1824.088</ele>
        <time>2011-08-23T12:52:14Z</time>
      </trkpt>
      <trkpt lat="42.67387" lon="2.07899">
        <ele>1825.2</ele>
        <time>2011-08-23T12:52:19Z</time>
      </trkpt>
      <trkpt lat="42.67387" lon="2.07894">
        <ele>1826.296</ele>
        <time>2011-08-23T12:52:24Z</time>
      </trkpt>
      <trkpt lat="42.67385" lon="2.07891">
        <ele>1827.129</ele>
        <time>2011-08-23T12:52:28Z</time>
      </trkpt>
      <trkpt lat="42.67384" lon="2.07888">
        <ele>1827.411</ele>
        <time>2011-08-23T12:52:30Z</time>
      </trkpt>
      <trkpt lat="42.67384" lon="2.07882">
        <ele>1827.942</ele>
        <time>2011-08-23T12:52:36Z</time>
      </trkpt>
      <trkpt lat="42.67384" lon="2.07875">
        <ele>1829</ele>
        <time>2011-08-23T12:52:42Z</time>
      </trkpt>
      <trkpt lat="42.67379" lon="2.07866">
        <ele>1829.897</ele>
        <time>2011-08-23T12:52:49Z</time>
      </trkpt>
      <trkpt lat="42.6738" lon="2.07858">
        <ele>1830.585</ele>
        <time>2011-08-23T12:52:55Z</time>
      </trkpt>
      <trkpt lat="42.67379" lon="2.07855">
        <ele>1831.5</ele>
        <time>2011-08-23T12:52:59Z</time>
      </trkpt>
      <trkpt lat="42.67378" lon="2.0785">
        <ele>1832.517</ele>
        <time>2011-08-23T12:53:05Z</time>
      </trkpt>
      <trkpt lat="42.67378" lon="2.07849">
        <ele>1832.681</ele>
        <time>2011-08-23T12:53:06Z</time>
      </trkpt>
      <trkpt lat="42.67377" lon="2.07846">
        <ele>1833.289</ele>
        <time>2011-08-23T12:53:09Z</time>
      </trkpt>
      <trkpt lat="42.67376" lon="2.07843">
        <ele>1834.029</ele>
        <time>2011-08-23T12:53:13Z</time>
      </trkpt>
      <trkpt lat="42.67376" lon="2.07835">
        <ele>1835.532</ele>
        <time>2011-08-23T12:53:20Z</time>
      </trkpt>
      <trkpt lat="42.67378" lon="2.07829">
        <ele>1836.657</ele>
        <time>2011-08-23T12:53:26Z</time>
      </trkpt>
      <trkpt lat="42.67379" lon="2.07822">
        <ele>1837.227</ele>
        <time>2011-08-23T12:53:31Z</time>
      </trkpt>
      <trkpt lat="42.67381" lon="2.07815">
        <ele>1838.225</ele>
        <time>2011-08-23T12:53:38Z</time>
      </trkpt>
      <trkpt lat="42.67381" lon="2.07814">
        <ele>1838.812</ele>
        <time>2011-08-23T12:53:40Z</time>
      </trkpt>
      <trkpt lat="42.67383" lon="2.07809">
        <ele>1839.45</ele>
        <time>2011-08-23T12:53:44Z</time>
      </trkpt>
      <trkpt lat="42.67384" lon="2.07807">
        <ele>1839.814</ele>
        <time>2011-08-23T12:53:46Z</time>
      </trkpt>
      <trkpt lat="42.67384" lon="2.07801">
        <ele>1841.127</ele>
        <time>2011-08-23T12:53:51Z</time>
      </trkpt>
      <trkpt lat="42.6738" lon="2.07798">
        <ele>1841.889</ele>
        <time>2011-08-23T12:53:56Z</time>
      </trkpt>
      <trkpt lat="42.67382" lon="2.07791">
        <ele>1843.086</ele>
        <time>2011-08-23T12:54:02Z</time>
      </trkpt>
      <trkpt lat="42.6738" lon="2.07784">
        <ele>1844.651</ele>
        <time>2011-08-23T12:54:08Z</time>
      </trkpt>
      <trkpt lat="42.67379" lon="2.07777">
        <ele>1845.898</ele>
        <time>2011-08-23T12:54:14Z</time>
      </trkpt>
      <trkpt lat="42.67377" lon="2.07773">
        <ele>1847.149</ele>
        <time>2011-08-23T12:54:20Z</time>
      </trkpt>
      <trkpt lat="42.67376" lon="2.07767">
        <ele>1848.268</ele>
        <time>2011-08-23T12:54:25Z</time>
      </trkpt>
      <trkpt lat="42.67376" lon="2.07763">
        <ele>1849.307</ele>
        <time>2011-08-23T12:54:30Z</time>
      </trkpt>
      <trkpt lat="42.67375" lon="2.07758">
        <ele>1850.735</ele>
        <time>2011-08-23T12:54:35Z</time>
      </trkpt>
      <trkpt lat="42.67374" lon="2.07751">
        <ele>1851.581</ele>
        <time>2011-08-23T12:54:40Z</time>
      </trkpt>
      <trkpt lat="42.67372" lon="2.07748">
        <ele>1852.498</ele>
        <time>2011-08-23T12:54:44Z</time>
      </trkpt>
      <trkpt lat="42.67363" lon="2.07743">
        <ele>1854.293</ele>
        <time>2011-08-23T12:54:53Z</time>
      </trkpt>
      <trkpt lat="42.67354" lon="2.07741">
        <ele>1856.05</ele>
        <time>2011-08-23T12:55:01Z</time>
      </trkpt>
      <trkpt lat="42.67349" lon="2.07735">
        <ele>1857.193</ele>
        <time>2011-08-23T12:55:07Z</time>
      </trkpt>
      <trkpt lat="42.67342" lon="2.0773">
        <ele>1858.513</ele>
        <time>2011-08-23T12:55:15Z</time>
      </trkpt>
      <trkpt lat="42.67339" lon="2.07725">
        <ele>1859.676</ele>
        <time>2011-08-23T12:55:22Z</time>
      </trkpt>
      <trkpt lat="42.67336" lon="2.0772">
        <ele>1860.82</ele>
        <time>2011-08-23T12:55:27Z</time>
      </trkpt>
      <trkpt lat="42.67333" lon="2.07713">
        <ele>1862.218</ele>
        <time>2011-08-23T12:55:34Z</time>
      </trkpt>
      <trkpt lat="42.6733" lon="2.0771">
        <ele>1863.145</ele>
        <time>2011-08-23T12:55:39Z</time>
      </trkpt>
      <trkpt lat="42.6733" lon="2.07709">
        <ele>1863.496</ele>
        <time>2011-08-23T12:55:41Z</time>
      </trkpt>
      <trkpt lat="42.67333" lon="2.07698">
        <ele>1865.334</ele>
        <time>2011-08-23T12:55:50Z</time>
      </trkpt>
      <trkpt lat="42.67334" lon="2.07697">
        <ele>1865.464</ele>
        <time>2011-08-23T12:55:51Z</time>
      </trkpt>
      <trkpt lat="42.67335" lon="2.07692">
        <ele>1865.844</ele>
        <time>2011-08-23T12:55:55Z</time>
      </trkpt>
      <trkpt lat="42.67335" lon="2.07685">
        <ele>1865.793</ele>
        <time>2011-08-23T12:56:00Z</time>
      </trkpt>
      <trkpt lat="42.67336" lon="2.07677">
        <ele>1867.119</ele>
        <time>2011-08-23T12:56:08Z</time>
      </trkpt>
      <trkpt lat="42.67338" lon="2.07674">
        <ele>1867.625</ele>
        <time>2011-08-23T12:56:12Z</time>
      </trkpt>
      <trkpt lat="42.6734" lon="2.07667">
        <ele>1868.103</ele>
        <time>2011-08-23T12:56:19Z</time>
      </trkpt>
      <trkpt lat="42.67341" lon="2.07661">
        <ele>1869.145</ele>
        <time>2011-08-23T12:56:25Z</time>
      </trkpt>
      <trkpt lat="42.6734" lon="2.07655">
        <ele>1869.264</ele>
        <time>2011-08-23T12:56:31Z</time>
      </trkpt>
      <trkpt lat="42.67339" lon="2.0765">
        <ele>1869.946</ele>
        <time>2011-08-23T12:56:37Z</time>
      </trkpt>
      <trkpt lat="42.6734" lon="2.07644">
        <ele>1870.388</ele>
        <time>2011-08-23T12:56:43Z</time>
      </trkpt>
      <trkpt lat="42.67338" lon="2.07644">
        <ele>1870.721</ele>
        <time>2011-08-23T12:56:49Z</time>
      </trkpt>
      <trkpt lat="42.67337" lon="2.07642">
        <ele>1870.439</ele>
        <time>2011-08-23T12:56:54Z</time>
      </trkpt>
      <trkpt lat="42.67337" lon="2.07637">
        <ele>1870.733</ele>
        <time>2011-08-23T12:56:58Z</time>
      </trkpt>
      <trkpt lat="42.67335" lon="2.07632">
        <ele>1871.832</ele>
        <time>2011-08-23T12:57:04Z</time>
      </trkpt>
      <trkpt lat="42.67328" lon="2.07631">
        <ele>1872.951</ele>
        <time>2011-08-23T12:57:13Z</time>
      </trkpt>
      <trkpt lat="42.67329" lon="2.07629">
        <ele>1873.054</ele>
        <time>2011-08-23T12:57:20Z</time>
      </trkpt>
      <trkpt lat="42.67332" lon="2.07626">
        <ele>1873.281</ele>
        <time>2011-08-23T12:57:31Z</time>
      </trkpt>
      <trkpt lat="42.67329" lon="2.07627">
        <ele>1873.931</ele>
        <time>2011-08-23T12:57:36Z</time>
      </trkpt>
      <trkpt lat="42.67327" lon="2.07623">
        <ele>1875.16</ele>
        <time>2011-08-23T12:57:42Z</time>
      </trkpt>
      <trkpt lat="42.67323" lon="2.07619">
        <ele>1876.476</ele>
        <time>2011-08-23T12:57:48Z</time>
      </trkpt>
      <trkpt lat="42.67323" lon="2.07617">
        <ele>1876.836</ele>
        <time>2011-08-23T12:57:50Z</time>
      </trkpt>
      <trkpt lat="42.67322" lon="2.07612">
        <ele>1877.684</ele>
        <time>2011-08-23T12:57:54Z</time>
      </trkpt>
      <trkpt lat="42.67321" lon="2.07607">
        <ele>1878.156</ele>
        <time>2011-08-23T12:57:58Z</time>
      </trkpt>
      <trkpt lat="42.67319" lon="2.07604">
        <ele>1878.753</ele>
        <time>2011-08-23T12:58:01Z</time>
      </trkpt>
      <trkpt lat="42.67317" lon="2.07599">
        <ele>1879.789</ele>
        <time>2011-08-23T12:58:07Z</time>
      </trkpt>
      <trkpt lat="42.67315" lon="2.0759">
        <ele>1881.066</ele>
        <time>2011-08-23T12:58:15Z</time>
      </trkpt>
      <trkpt lat="42.67315" lon="2.07581">
        <ele>1882.076</ele>
        <time>2011-08-23T12:58:21Z</time>
      </trkpt>
      <trkpt lat="42.67317" lon="2.07572">
        <ele>1883.025</ele>
        <time>2011-08-23T12:58:28Z</time>
      </trkpt>
      <trkpt lat="42.67316" lon="2.07565">
        <ele>1883.375</ele>
        <time>2011-08-23T12:58:34Z</time>
      </trkpt>
      <trkpt lat="42.67316" lon="2.07559">
        <ele>1884.221</ele>
        <time>2011-08-23T12:58:39Z</time>
      </trkpt>
      <trkpt lat="42.67314" lon="2.07551">
        <ele>1885.619</ele>
        <time>2011-08-23T12:58:46Z</time>
      </trkpt>
      <trkpt lat="42.67315" lon="2.07542">
        <ele>1887.493</ele>
        <time>2011-08-23T12:58:54Z</time>
      </trkpt>
      <trkpt lat="42.67314" lon="2.07527">
        <ele>1889.6</ele>
        <time>2011-08-23T12:59:05Z</time>
      </trkpt>
      <trkpt lat="42.67314" lon="2.07518">
        <ele>1890.773</ele>
        <time>2011-08-23T12:59:13Z</time>
      </trkpt>
      <trkpt lat="42.67315" lon="2.07507">
        <ele>1891.214</ele>
        <time>2011-08-23T12:59:20Z</time>
      </trkpt>
      <trkpt lat="42.67316" lon="2.07495">
        <ele>1891.519</ele>
        <time>2011-08-23T12:59:26Z</time>
      </trkpt>
      <trkpt lat="42.67314" lon="2.07485">
        <ele>1892.071</ele>
        <time>2011-08-23T12:59:32Z</time>
      </trkpt>
      <trkpt lat="42.67314" lon="2.07484">
        <ele>1892.274</ele>
        <time>2011-08-23T12:59:33Z</time>
      </trkpt>
      <trkpt lat="42.67315" lon="2.07477">
        <ele>1893.234</ele>
        <time>2011-08-23T12:59:38Z</time>
      </trkpt>
      <trkpt lat="42.67314" lon="2.07465">
        <ele>1894.41</ele>
        <time>2011-08-23T12:59:46Z</time>
      </trkpt>
      <trkpt lat="42.67314" lon="2.07457">
        <ele>1895.443</ele>
        <time>2011-08-23T12:59:52Z</time>
      </trkpt>
      <trkpt lat="42.67314" lon="2.07456">
        <ele>1895.596</ele>
        <time>2011-08-23T12:59:53Z</time>
      </trkpt>
      <trkpt lat="42.67314" lon="2.07447">
        <ele>1897.011</ele>
        <time>2011-08-23T13:00:01Z</time>
      </trkpt>
      <trkpt lat="42.67312" lon="2.07439">
        <ele>1897.723</ele>
        <time>2011-08-23T13:00:07Z</time>
      </trkpt>
      <trkpt lat="42.67311" lon="2.0743">
        <ele>1899.006</ele>
        <time>2011-08-23T13:00:15Z</time>
      </trkpt>
      <trkpt lat="42.67311" lon="2.07424">
        <ele>1899.831</ele>
        <time>2011-08-23T13:00:21Z</time>
      </trkpt>
      <trkpt lat="42.67312" lon="2.07422">
        <ele>1900.058</ele>
        <time>2011-08-23T13:00:22Z</time>
      </trkpt>
      <trkpt lat="42.67314" lon="2.07417">
        <ele>1900.814</ele>
        <time>2011-08-23T13:00:26Z</time>
      </trkpt>
      <trkpt lat="42.67315" lon="2.07412">
        <ele>1901.648</ele>
        <time>2011-08-23T13:00:30Z</time>
      </trkpt>
      <trkpt lat="42.67314" lon="2.07404">
        <ele>1903.744</ele>
        <time>2011-08-23T13:00:38Z</time>
      </trkpt>
      <trkpt lat="42.67316" lon="2.074">
        <ele>1904.502</ele>
        <time>2011-08-23T13:00:43Z</time>
      </trkpt>
      <trkpt lat="42.67316" lon="2.07398">
        <ele>1904.812</ele>
        <time>2011-08-23T13:00:45Z</time>
      </trkpt>
      <trkpt lat="42.67317" lon="2.07395">
        <ele>1905.388</ele>
        <time>2011-08-23T13:00:48Z</time>
      </trkpt>
      <trkpt lat="42.67322" lon="2.07383">
        <ele>1906.517</ele>
        <time>2011-08-23T13:00:57Z</time>
      </trkpt>
      <trkpt lat="42.67322" lon="2.0738">
        <ele>1906.718</ele>
        <time>2011-08-23T13:00:59Z</time>
      </trkpt>
      <trkpt lat="42.67325" lon="2.0737">
        <ele>1907.342</ele>
        <time>2011-08-23T13:01:07Z</time>
      </trkpt>
      <trkpt lat="42.67325" lon="2.07363">
        <ele>1908.287</ele>
        <time>2011-08-23T13:01:12Z</time>
      </trkpt>
      <trkpt lat="42.67328" lon="2.07353">
        <ele>1908.978</ele>
        <time>2011-08-23T13:01:20Z</time>
      </trkpt>
      <trkpt lat="42.67329" lon="2.0735">
        <ele>1909.252</ele>
        <time>2011-08-23T13:01:23Z</time>
      </trkpt>
      <trkpt lat="42.6733" lon="2.07348">
        <ele>1909.21</ele>
        <time>2011-08-23T13:01:26Z</time>
      </trkpt>
      <trkpt lat="42.67333" lon="2.07345">
        <ele>1909.273</ele>
        <time>2011-08-23T13:01:31Z</time>
      </trkpt>
      <trkpt lat="42.67334" lon="2.07344">
        <ele>1909.489</ele>
        <time>2011-08-23T13:01:32Z</time>
      </trkpt>
      <trkpt lat="42.67335" lon="2.07341">
        <ele>1910.338</ele>
        <time>2011-08-23T13:01:36Z</time>
      </trkpt>
      <trkpt lat="42.67339" lon="2.07338">
        <ele>1911.912</ele>
        <time>2011-08-23T13:01:43Z</time>
      </trkpt>
      <trkpt lat="42.67345" lon="2.07334">
        <ele>1912.72</ele>
        <time>2011-08-23T13:01:52Z</time>
      </trkpt>
      <trkpt lat="42.67347" lon="2.0733">
        <ele>1913.129</ele>
        <time>2011-08-23T13:01:56Z</time>
      </trkpt>
      <trkpt lat="42.67352" lon="2.07325">
        <ele>1914.816</ele>
        <time>2011-08-23T13:02:03Z</time>
      </trkpt>
      <trkpt lat="42.67353" lon="2.07323">
        <ele>1915.425</ele>
        <time>2011-08-23T13:02:06Z</time>
      </trkpt>
      <trkpt lat="42.67352" lon="2.0732">
        <ele>1916.065</ele>
        <time>2011-08-23T13:02:09Z</time>
      </trkpt>
      <trkpt lat="42.6735" lon="2.07311">
        <ele>1917.638</ele>
        <time>2011-08-23T13:02:17Z</time>
      </trkpt>
      <trkpt lat="42.6735" lon="2.07311">
        <ele>1917.912</ele>
        <time>2011-08-23T13:02:18Z</time>
      </trkpt>
      <trkpt lat="42.67347" lon="2.07306">
        <ele>1918.819</ele>
        <time>2011-08-23T13:02:23Z</time>
      </trkpt>
      <trkpt lat="42.67346" lon="2.07297">
        <ele>1920.357</ele>
        <time>2011-08-23T13:02:32Z</time>
      </trkpt>
      <trkpt lat="42.67347" lon="2.07296">
        <ele>1920.625</ele>
        <time>2011-08-23T13:02:33Z</time>
      </trkpt>
      <trkpt lat="42.67349" lon="2.07286">
        <ele>1921.931</ele>
        <time>2011-08-23T13:02:41Z</time>
      </trkpt>
      <trkpt lat="42.67349" lon="2.07285">
        <ele>1922.119</ele>
        <time>2011-08-23T13:02:42Z</time>
      </trkpt>
      <trkpt lat="42.67349" lon="2.07275">
        <ele>1922.931</ele>
        <time>2011-08-23T13:02:49Z</time>
      </trkpt>
      <trkpt lat="42.67349" lon="2.0727">
        <ele>1923.131</ele>
        <time>2011-08-23T13:02:52Z</time>
      </trkpt>
      <trkpt lat="42.6735" lon="2.07261">
        <ele>1923.606</ele>
        <time>2011-08-23T13:02:59Z</time>
      </trkpt>
      <trkpt lat="42.67351" lon="2.07259">
        <ele>1923.608</ele>
        <time>2011-08-23T13:03:01Z</time>
      </trkpt>
      <trkpt lat="42.67352" lon="2.07253">
        <ele>1924.596</ele>
        <time>2011-08-23T13:03:07Z</time>
      </trkpt>
      <trkpt lat="42.67352" lon="2.07247">
        <ele>1925.027</ele>
        <time>2011-08-23T13:03:11Z</time>
      </trkpt>
      <trkpt lat="42.67354" lon="2.07242">
        <ele>1925.597</ele>
        <time>2011-08-23T13:03:15Z</time>
      </trkpt>
      <trkpt lat="42.67356" lon="2.07231">
        <ele>1926.452</ele>
        <time>2011-08-23T13:03:23Z</time>
      </trkpt>
      <trkpt lat="42.6736" lon="2.07223">
        <ele>1927.766</ele>
        <time>2011-08-23T13:03:30Z</time>
      </trkpt>
      <trkpt lat="42.67361" lon="2.07217">
        <ele>1928.493</ele>
        <time>2011-08-23T13:03:37Z</time>
      </trkpt>
      <trkpt lat="42.67362" lon="2.07208">
        <ele>1928.952</ele>
        <time>2011-08-23T13:03:44Z</time>
      </trkpt>
      <trkpt lat="42.67363" lon="2.07196">
        <ele>1929.425</ele>
        <time>2011-08-23T13:03:51Z</time>
      </trkpt>
      <trkpt lat="42.67365" lon="2.07184">
        <ele>1929.447</ele>
        <time>2011-08-23T13:03:57Z</time>
      </trkpt>
      <trkpt lat="42.67369" lon="2.07169">
        <ele>1930.281</ele>
        <time>2011-08-23T13:04:06Z</time>
      </trkpt>
      <trkpt lat="42.67372" lon="2.07159">
        <ele>1930.507</ele>
        <time>2011-08-23T13:04:13Z</time>
      </trkpt>
      <trkpt lat="42.67375" lon="2.07148">
        <ele>1930.23</ele>
        <time>2011-08-23T13:04:19Z</time>
      </trkpt>
      <trkpt lat="42.6738" lon="2.07132">
        <ele>1930.23</ele>
        <time>2011-08-23T13:04:25Z</time>
      </trkpt>
      <trkpt lat="42.67383" lon="2.07119">
        <ele>1930.56</ele>
        <time>2011-08-23T13:04:31Z</time>
      </trkpt>
      <trkpt lat="42.67386" lon="2.07104">
        <ele>1930.718</ele>
        <time>2011-08-23T13:04:37Z</time>
      </trkpt>
      <trkpt lat="42.67388" lon="2.07095">
        <ele>1930.619</ele>
        <time>2011-08-23T13:04:43Z</time>
      </trkpt>
      <trkpt lat="42.67389" lon="2.07087">
        <ele>1930.486</ele>
        <time>2011-08-23T13:04:48Z</time>
      </trkpt>
      <trkpt lat="42.67388" lon="2.07085">
        <ele>1930.622</ele>
        <time>2011-08-23T13:04:49Z</time>
      </trkpt>
      <trkpt lat="42.67383" lon="2.07081">
        <ele>1931.197</ele>
        <time>2011-08-23T13:04:53Z</time>
      </trkpt>
      <trkpt lat="42.67381" lon="2.07068">
        <ele>1932.298</ele>
        <time>2011-08-23T13:05:00Z</time>
      </trkpt>
      <trkpt lat="42.67382" lon="2.07059">
        <ele>1933.145</ele>
        <time>2011-08-23T13:05:06Z</time>
      </trkpt>
      <trkpt lat="42.67384" lon="2.0705">
        <ele>1933.456</ele>
        <time>2011-08-23T13:05:12Z</time>
      </trkpt>
      <trkpt lat="42.67384" lon="2.07048">
        <ele>1934.116</ele>
        <time>2011-08-23T13:05:21Z</time>
      </trkpt>
      <trkpt lat="42.6738" lon="2.0704">
        <ele>1934.527</ele>
        <time>2011-08-23T13:05:29Z</time>
      </trkpt>
      <trkpt lat="42.67377" lon="2.07037">
        <ele>1934.885</ele>
        <time>2011-08-23T13:05:34Z</time>
      </trkpt>
      <trkpt lat="42.67374" lon="2.07031">
        <ele>1935.399</ele>
        <time>2011-08-23T13:05:41Z</time>
      </trkpt>
      <trkpt lat="42.67372" lon="2.07028">
        <ele>1935.993</ele>
        <time>2011-08-23T13:05:46Z</time>
      </trkpt>
      <trkpt lat="42.67369" lon="2.07019">
        <ele>1937.158</ele>
        <time>2011-08-23T13:05:54Z</time>
      </trkpt>
      <trkpt lat="42.67368" lon="2.07019">
        <ele>1937.322</ele>
        <time>2011-08-23T13:05:55Z</time>
      </trkpt>
      <trkpt lat="42.6736" lon="2.07011">
        <ele>1938.285</ele>
        <time>2011-08-23T13:06:04Z</time>
      </trkpt>
      <trkpt lat="42.67354" lon="2.07006">
        <ele>1938.986</ele>
        <time>2011-08-23T13:06:11Z</time>
      </trkpt>
      <trkpt lat="42.67353" lon="2.07004">
        <ele>1939.14</ele>
        <time>2011-08-23T13:06:13Z</time>
      </trkpt>
      <trkpt lat="42.67346" lon="2.07">
        <ele>1939.418</ele>
        <time>2011-08-23T13:06:18Z</time>
      </trkpt>
      <trkpt lat="42.67342" lon="2.06995">
        <ele>1939.688</ele>
        <time>2011-08-23T13:06:22Z</time>
      </trkpt>
      <trkpt lat="42.67337" lon="2.06986">
        <ele>1940.365</ele>
        <time>2011-08-23T13:06:30Z</time>
      </trkpt>
      <trkpt lat="42.67335" lon="2.0698">
        <ele>1940.677</ele>
        <time>2011-08-23T13:06:35Z</time>
      </trkpt>
      <trkpt lat="42.67331" lon="2.06976">
        <ele>1941.364</ele>
        <time>2011-08-23T13:06:40Z</time>
      </trkpt>
      <trkpt lat="42.6733" lon="2.06975">
        <ele>1941.515</ele>
        <time>2011-08-23T13:06:42Z</time>
      </trkpt>
      <trkpt lat="42.67322" lon="2.06969">
        <ele>1942.133</ele>
        <time>2011-08-23T13:06:50Z</time>
      </trkpt>
      <trkpt lat="42.6732" lon="2.06964">
        <ele>1942.159</ele>
        <time>2011-08-23T13:06:56Z</time>
      </trkpt>
      <trkpt lat="42.67315" lon="2.06963">
        <ele>1942.413</ele>
        <time>2011-08-23T13:07:17Z</time>
      </trkpt>
      <trkpt lat="42.67316" lon="2.06971">
        <ele>1942.09</ele>
        <time>2011-08-23T13:07:23Z</time>
      </trkpt>
      <trkpt lat="42.67323" lon="2.06978">
        <ele>1941.679</ele>
        <time>2011-08-23T13:07:29Z</time>
      </trkpt>
      <trkpt lat="42.6733" lon="2.06986">
        <ele>1941.556</ele>
        <time>2011-08-23T13:07:33Z</time>
      </trkpt>
      <trkpt lat="42.6734" lon="2.07">
        <ele>1940.429</ele>
        <time>2011-08-23T13:07:38Z</time>
      </trkpt>
      <trkpt lat="42.67348" lon="2.07008">
        <ele>1939.593</ele>
        <time>2011-08-23T13:07:44Z</time>
      </trkpt>
      <trkpt lat="42.67349" lon="2.07008">
        <ele>1939.441</ele>
        <time>2011-08-23T13:07:45Z</time>
      </trkpt>
      <trkpt lat="42.67359" lon="2.07021">
        <ele>1937.903</ele>
        <time>2011-08-23T13:07:53Z</time>
      </trkpt>
      <trkpt lat="42.67362" lon="2.07024">
        <ele>1937.362</ele>
        <time>2011-08-23T13:07:55Z</time>
      </trkpt>
      <trkpt lat="42.67367" lon="2.07027">
        <ele>1936.415</ele>
        <time>2011-08-23T13:08:01Z</time>
      </trkpt>
      <trkpt lat="42.67369" lon="2.07026">
        <ele>1936.705</ele>
        <time>2011-08-23T13:08:06Z</time>
      </trkpt>
      <trkpt lat="42.67381" lon="2.07023">
        <ele>1937.14</ele>
        <time>2011-08-23T13:08:13Z</time>
      </trkpt>
      <trkpt lat="42.67389" lon="2.07023">
        <ele>1937.828</ele>
        <time>2011-08-23T13:08:20Z</time>
      </trkpt>
      <trkpt lat="42.67391" lon="2.07022">
        <ele>1938.437</ele>
        <time>2011-08-23T13:08:28Z</time>
      </trkpt>
      <trkpt lat="42.67392" lon="2.07022">
        <ele>1938.587</ele>
        <time>2011-08-23T13:08:34Z</time>
      </trkpt>
      <trkpt lat="42.67387" lon="2.07024">
        <ele>1938.121</ele>
        <time>2011-08-23T13:08:39Z</time>
      </trkpt>
      <trkpt lat="42.67382" lon="2.07025">
        <ele>1937.581</ele>
        <time>2011-08-23T13:08:45Z</time>
      </trkpt>
      <trkpt lat="42.67376" lon="2.07031">
        <ele>1937.051</ele>
        <time>2011-08-23T13:08:52Z</time>
      </trkpt>
      <trkpt lat="42.67372" lon="2.07042">
        <ele>1935.944</ele>
        <time>2011-08-23T13:08:59Z</time>
      </trkpt>
      <trkpt lat="42.67372" lon="2.07044">
        <ele>1936.08</ele>
        <time>2011-08-23T13:09:06Z</time>
      </trkpt>
      <trkpt lat="42.67369" lon="2.07034">
        <ele>1937.802</ele>
        <time>2011-08-23T13:11:37Z</time>
      </trkpt>
      <trkpt lat="42.67367" lon="2.07038">
        <ele>1936.928</ele>
        <time>2011-08-23T13:11:45Z</time>
      </trkpt>
      <trkpt lat="42.67364" lon="2.07051">
        <ele>1937.77</ele>
        <time>2011-08-23T13:12:19Z</time>
      </trkpt>
      <trkpt lat="42.6736" lon="2.07053">
        <ele>1938.606</ele>
        <time>2011-08-23T13:12:23Z</time>
      </trkpt>
      <trkpt lat="42.67356" lon="2.0706">
        <ele>1940.16</ele>
        <time>2011-08-23T13:12:32Z</time>
      </trkpt>
      <trkpt lat="42.67352" lon="2.07063">
        <ele>1941.158</ele>
        <time>2011-08-23T13:12:37Z</time>
      </trkpt>
      <trkpt lat="42.67344" lon="2.07074">
        <ele>1941.757</ele>
        <time>2011-08-23T13:12:46Z</time>
      </trkpt>
      <trkpt lat="42.67338" lon="2.07076">
        <ele>1942.033</ele>
        <time>2011-08-23T13:12:52Z</time>
      </trkpt>
      <trkpt lat="42.67335" lon="2.07079">
        <ele>1942.518</ele>
        <time>2011-08-23T13:12:58Z</time>
      </trkpt>
      <trkpt lat="42.67334" lon="2.07081">
        <ele>1943.002</ele>
        <time>2011-08-23T13:13:04Z</time>
      </trkpt>
      <trkpt lat="42.67333" lon="2.07081">
        <ele>1943.099</ele>
        <time>2011-08-23T13:13:05Z</time>
      </trkpt>
      <trkpt lat="42.67329" lon="2.07081">
        <ele>1943.78</ele>
        <time>2011-08-23T13:13:10Z</time>
      </trkpt>
      <trkpt lat="42.67324" lon="2.07088">
        <ele>1944.885</ele>
        <time>2011-08-23T13:13:18Z</time>
      </trkpt>
      <trkpt lat="42.67315" lon="2.0709">
        <ele>1945.854</ele>
        <time>2011-08-23T13:13:25Z</time>
      </trkpt>
      <trkpt lat="42.67311" lon="2.07091">
        <ele>1946.528</ele>
        <time>2011-08-23T13:13:30Z</time>
      </trkpt>
      <trkpt lat="42.67306" lon="2.07095">
        <ele>1947.23</ele>
        <time>2011-08-23T13:13:37Z</time>
      </trkpt>
      <trkpt lat="42.67303" lon="2.07095">
        <ele>1947.644</ele>
        <time>2011-08-23T13:13:39Z</time>
      </trkpt>
      <trkpt lat="42.67299" lon="2.07098">
        <ele>1948.014</ele>
        <time>2011-08-23T13:13:43Z</time>
      </trkpt>
      <trkpt lat="42.67292" lon="2.07102">
        <ele>1949.646</ele>
        <time>2011-08-23T13:13:51Z</time>
      </trkpt>
      <trkpt lat="42.6729" lon="2.07104">
        <ele>1949.942</ele>
        <time>2011-08-23T13:13:53Z</time>
      </trkpt>
      <trkpt lat="42.67286" lon="2.07109">
        <ele>1950.512</ele>
        <time>2011-08-23T13:13:57Z</time>
      </trkpt>
      <trkpt lat="42.67279" lon="2.07115">
        <ele>1950.31</ele>
        <time>2011-08-23T13:14:04Z</time>
      </trkpt>
      <trkpt lat="42.67273" lon="2.07122">
        <ele>1949.807</ele>
        <time>2011-08-23T13:14:10Z</time>
      </trkpt>
      <trkpt lat="42.67271" lon="2.07126">
        <ele>1950.802</ele>
        <time>2011-08-23T13:14:16Z</time>
      </trkpt>
      <trkpt lat="42.6727" lon="2.07127">
        <ele>1951.167</ele>
        <time>2011-08-23T13:14:18Z</time>
      </trkpt>
      <trkpt lat="42.67264" lon="2.07133">
        <ele>1951.749</ele>
        <time>2011-08-23T13:14:27Z</time>
      </trkpt>
      <trkpt lat="42.67263" lon="2.07134">
        <ele>1951.743</ele>
        <time>2011-08-23T13:14:28Z</time>
      </trkpt>
      <trkpt lat="42.67256" lon="2.07146">
        <ele>1951.675</ele>
        <time>2011-08-23T13:14:34Z</time>
      </trkpt>
      <trkpt lat="42.67251" lon="2.07163">
        <ele>1951.438</ele>
        <time>2011-08-23T13:14:40Z</time>
      </trkpt>
      <trkpt lat="42.67248" lon="2.0717">
        <ele>1951.3</ele>
        <time>2011-08-23T13:14:45Z</time>
      </trkpt>
      <trkpt lat="42.67245" lon="2.07173">
        <ele>1950.907</ele>
        <time>2011-08-23T13:14:50Z</time>
      </trkpt>
      <trkpt lat="42.67243" lon="2.07178">
        <ele>1950.867</ele>
        <time>2011-08-23T13:14:56Z</time>
      </trkpt>
      <trkpt lat="42.67243" lon="2.07189">
        <ele>1950.526</ele>
        <time>2011-08-23T13:15:02Z</time>
      </trkpt>
      <trkpt lat="42.67241" lon="2.072">
        <ele>1950.282</ele>
        <time>2011-08-23T13:15:08Z</time>
      </trkpt>
      <trkpt lat="42.6724" lon="2.07201">
        <ele>1950.07</ele>
        <time>2011-08-23T13:15:10Z</time>
      </trkpt>
      <trkpt lat="42.67238" lon="2.07203">
        <ele>1950.177</ele>
        <time>2011-08-23T13:15:13Z</time>
      </trkpt>
      <trkpt lat="42.67238" lon="2.07212">
        <ele>1950.112</ele>
        <time>2011-08-23T13:15:20Z</time>
      </trkpt>
      <trkpt lat="42.67234" lon="2.07225">
        <ele>1950.453</ele>
        <time>2011-08-23T13:15:26Z</time>
      </trkpt>
      <trkpt lat="42.67234" lon="2.07228">
        <ele>1950.501</ele>
        <time>2011-08-23T13:15:28Z</time>
      </trkpt>
      <trkpt lat="42.67231" lon="2.07241">
        <ele>1951.014</ele>
        <time>2011-08-23T13:15:34Z</time>
      </trkpt>
      <trkpt lat="42.67229" lon="2.07245">
        <ele>1951.2</ele>
        <time>2011-08-23T13:15:36Z</time>
      </trkpt>
      <trkpt lat="42.67225" lon="2.07259">
        <ele>1952.079</ele>
        <time>2011-08-23T13:15:43Z</time>
      </trkpt>
      <trkpt lat="42.67222" lon="2.07267">
        <ele>1952.468</ele>
        <time>2011-08-23T13:15:47Z</time>
      </trkpt>
      <trkpt lat="42.67219" lon="2.07273">
        <ele>1952.598</ele>
        <time>2011-08-23T13:15:50Z</time>
      </trkpt>
      <trkpt lat="42.67215" lon="2.07285">
        <ele>1953.556</ele>
        <time>2011-08-23T13:15:56Z</time>
      </trkpt>
      <trkpt lat="42.6721" lon="2.07295">
        <ele>1954.107</ele>
        <time>2011-08-23T13:16:01Z</time>
      </trkpt>
      <trkpt lat="42.67206" lon="2.07297">
        <ele>1954.505</ele>
        <time>2011-08-23T13:16:05Z</time>
      </trkpt>
      <trkpt lat="42.67204" lon="2.07299">
        <ele>1954.856</ele>
        <time>2011-08-23T13:16:08Z</time>
      </trkpt>
      <trkpt lat="42.67204" lon="2.07301">
        <ele>1955.071</ele>
        <time>2011-08-23T13:16:10Z</time>
      </trkpt>
      <trkpt lat="42.67202" lon="2.07308">
        <ele>1955.668</ele>
        <time>2011-08-23T13:16:17Z</time>
      </trkpt>
      <trkpt lat="42.67198" lon="2.07316">
        <ele>1955.664</ele>
        <time>2011-08-23T13:16:24Z</time>
      </trkpt>
      <trkpt lat="42.67194" lon="2.0732">
        <ele>1956.009</ele>
        <time>2011-08-23T13:16:30Z</time>
      </trkpt>
      <trkpt lat="42.6719" lon="2.07325">
        <ele>1956.333</ele>
        <time>2011-08-23T13:16:35Z</time>
      </trkpt>
      <trkpt lat="42.67189" lon="2.07327">
        <ele>1956.281</ele>
        <time>2011-08-23T13:16:36Z</time>
      </trkpt>
      <trkpt lat="42.67185" lon="2.07339">
        <ele>1956.205</ele>
        <time>2011-08-23T13:16:41Z</time>
      </trkpt>
      <trkpt lat="42.67181" lon="2.07355">
        <ele>1955.504</ele>
        <time>2011-08-23T13:16:46Z</time>
      </trkpt>
      <trkpt lat="42.67176" lon="2.07368">
        <ele>1955.627</ele>
        <time>2011-08-23T13:16:52Z</time>
      </trkpt>
      <trkpt lat="42.67173" lon="2.07382">
        <ele>1955.316</ele>
        <time>2011-08-23T13:16:56Z</time>
      </trkpt>
      <trkpt lat="42.67168" lon="2.07389">
        <ele>1955.642</ele>
        <time>2011-08-23T13:17:01Z</time>
      </trkpt>
      <trkpt lat="42.67167" lon="2.07391">
        <ele>1955.849</ele>
        <time>2011-08-23T13:17:02Z</time>
      </trkpt>
      <trkpt lat="42.67166" lon="2.07404">
        <ele>1955.427</ele>
        <time>2011-08-23T13:17:07Z</time>
      </trkpt>
      <trkpt lat="42.67165" lon="2.07406">
        <ele>1955.029</ele>
        <time>2011-08-23T13:17:08Z</time>
      </trkpt>
      <trkpt lat="42.67154" lon="2.07424">
        <ele>1953.683</ele>
        <time>2011-08-23T13:17:16Z</time>
      </trkpt>
      <trkpt lat="42.67149" lon="2.07437">
        <ele>1953.413</ele>
        <time>2011-08-23T13:17:22Z</time>
      </trkpt>
      <trkpt lat="42.67146" lon="2.07444">
        <ele>1953.551</ele>
        <time>2011-08-23T13:17:26Z</time>
      </trkpt>
      <trkpt lat="42.67144" lon="2.07455">
        <ele>1953.395</ele>
        <time>2011-08-23T13:17:30Z</time>
      </trkpt>
      <trkpt lat="42.67143" lon="2.0746">
        <ele>1953.219</ele>
        <time>2011-08-23T13:17:32Z</time>
      </trkpt>
      <trkpt lat="42.67141" lon="2.07469">
        <ele>1952.808</ele>
        <time>2011-08-23T13:17:39Z</time>
      </trkpt>
      <trkpt lat="42.67137" lon="2.07471">
        <ele>1953.06</ele>
        <time>2011-08-23T13:17:49Z</time>
      </trkpt>
      <trkpt lat="42.67135" lon="2.07478">
        <ele>1952.402</ele>
        <time>2011-08-23T13:17:55Z</time>
      </trkpt>
      <trkpt lat="42.6713" lon="2.07488">
        <ele>1951.215</ele>
        <time>2011-08-23T13:18:01Z</time>
      </trkpt>
      <trkpt lat="42.67126" lon="2.0749">
        <ele>1950.94</ele>
        <time>2011-08-23T13:18:03Z</time>
      </trkpt>
      <trkpt lat="42.67116" lon="2.07505">
        <ele>1950.258</ele>
        <time>2011-08-23T13:18:10Z</time>
      </trkpt>
      <trkpt lat="42.67115" lon="2.07508">
        <ele>1949.818</ele>
        <time>2011-08-23T13:18:16Z</time>
      </trkpt>
      <trkpt lat="42.67114" lon="2.07508">
        <ele>1949.826</ele>
        <time>2011-08-23T13:18:19Z</time>
      </trkpt>
      <trkpt lat="42.67109" lon="2.07516">
        <ele>1949.442</ele>
        <time>2011-08-23T13:18:25Z</time>
      </trkpt>
      <trkpt lat="42.67109" lon="2.07517">
        <ele>1949.331</ele>
        <time>2011-08-23T13:18:26Z</time>
      </trkpt>
      <trkpt lat="42.67106" lon="2.07529">
        <ele>1947.853</ele>
        <time>2011-08-23T13:18:31Z</time>
      </trkpt>
      <trkpt lat="42.67102" lon="2.07537">
        <ele>1947.136</ele>
        <time>2011-08-23T13:18:34Z</time>
      </trkpt>
      <trkpt lat="42.67095" lon="2.07553">
        <ele>1946.687</ele>
        <time>2011-08-23T13:18:39Z</time>
      </trkpt>
      <trkpt lat="42.67089" lon="2.07563">
        <ele>1946.448</ele>
        <time>2011-08-23T13:18:45Z</time>
      </trkpt>
      <trkpt lat="42.67086" lon="2.07566">
        <ele>1946.523</ele>
        <time>2011-08-23T13:18:51Z</time>
      </trkpt>
      <trkpt lat="42.67084" lon="2.07571">
        <ele>1946.875</ele>
        <time>2011-08-23T13:18:57Z</time>
      </trkpt>
      <trkpt lat="42.67083" lon="2.07574">
        <ele>1947.053</ele>
        <time>2011-08-23T13:19:03Z</time>
      </trkpt>
      <trkpt lat="42.67077" lon="2.07579">
        <ele>1947.547</ele>
        <time>2011-08-23T13:19:08Z</time>
      </trkpt>
      <trkpt lat="42.67072" lon="2.07582">
        <ele>1948.027</ele>
        <time>2011-08-23T13:19:14Z</time>
      </trkpt>
      <trkpt lat="42.67069" lon="2.07585">
        <ele>1947.517</ele>
        <time>2011-08-23T13:19:19Z</time>
      </trkpt>
      <trkpt lat="42.67066" lon="2.07589">
        <ele>1948.103</ele>
        <time>2011-08-23T13:19:24Z</time>
      </trkpt>
      <trkpt lat="42.67063" lon="2.07597">
        <ele>1948.96</ele>
        <time>2011-08-23T13:19:31Z</time>
      </trkpt>
      <trkpt lat="42.67063" lon="2.07597">
        <ele>1949.645</ele>
        <time>2011-08-23T13:19:36Z</time>
      </trkpt>
      <trkpt lat="42.67059" lon="2.0761">
        <ele>1950.073</ele>
        <time>2011-08-23T13:19:43Z</time>
      </trkpt>
      <trkpt lat="42.67054" lon="2.07627">
        <ele>1950.404</ele>
        <time>2011-08-23T13:19:50Z</time>
      </trkpt>
      <trkpt lat="42.67052" lon="2.07639">
        <ele>1950.83</ele>
        <time>2011-08-23T13:19:55Z</time>
      </trkpt>
      <trkpt lat="42.67048" lon="2.0765">
        <ele>1950.912</ele>
        <time>2011-08-23T13:20:00Z</time>
      </trkpt>
      <trkpt lat="42.67045" lon="2.07661">
        <ele>1950.999</ele>
        <time>2011-08-23T13:20:05Z</time>
      </trkpt>
      <trkpt lat="42.67044" lon="2.07663">
        <ele>1950.937</ele>
        <time>2011-08-23T13:20:06Z</time>
      </trkpt>
      <trkpt lat="42.67044" lon="2.0767">
        <ele>1951.535</ele>
        <time>2011-08-23T13:20:11Z</time>
      </trkpt>
      <trkpt lat="42.67044" lon="2.07673">
        <ele>1951.041</ele>
        <time>2011-08-23T13:20:17Z</time>
      </trkpt>
      <trkpt lat="42.67043" lon="2.07677">
        <ele>1950.997</ele>
        <time>2011-08-23T13:20:23Z</time>
      </trkpt>
      <trkpt lat="42.67044" lon="2.07687">
        <ele>1950.701</ele>
        <time>2011-08-23T13:20:28Z</time>
      </trkpt>
      <trkpt lat="42.67044" lon="2.07693">
        <ele>1950.393</ele>
        <time>2011-08-23T13:20:32Z</time>
      </trkpt>
      <trkpt lat="42.67043" lon="2.07701">
        <ele>1949.968</ele>
        <time>2011-08-23T13:20:36Z</time>
      </trkpt>
      <trkpt lat="42.67041" lon="2.07709">
        <ele>1950.061</ele>
        <time>2011-08-23T13:20:39Z</time>
      </trkpt>
      <trkpt lat="42.67039" lon="2.0772">
        <ele>1950.451</ele>
        <time>2011-08-23T13:20:44Z</time>
      </trkpt>
      <trkpt lat="42.67034" lon="2.07732">
        <ele>1951.583</ele>
        <time>2011-08-23T13:20:50Z</time>
      </trkpt>
      <trkpt lat="42.67027" lon="2.07741">
        <ele>1953.009</ele>
        <time>2011-08-23T13:20:56Z</time>
      </trkpt>
      <trkpt lat="42.67025" lon="2.07749">
        <ele>1953.251</ele>
        <time>2011-08-23T13:21:00Z</time>
      </trkpt>
      <trkpt lat="42.67024" lon="2.07754">
        <ele>1953.133</ele>
        <time>2011-08-23T13:21:03Z</time>
      </trkpt>
      <trkpt lat="42.67016" lon="2.0776">
        <ele>1952.635</ele>
        <time>2011-08-23T13:21:08Z</time>
      </trkpt>
      <trkpt lat="42.67001" lon="2.07769">
        <ele>1950.959</ele>
        <time>2011-08-23T13:21:13Z</time>
      </trkpt>
      <trkpt lat="42.66985" lon="2.07777">
        <ele>1948.276</ele>
        <time>2011-08-23T13:21:19Z</time>
      </trkpt>
      <trkpt lat="42.66978" lon="2.07787">
        <ele>1946.54</ele>
        <time>2011-08-23T13:21:23Z</time>
      </trkpt>
      <trkpt lat="42.66974" lon="2.07793">
        <ele>1945.373</ele>
        <time>2011-08-23T13:21:27Z</time>
      </trkpt>
      <trkpt lat="42.6696" lon="2.0781">
        <ele>1944.12</ele>
        <time>2011-08-23T13:21:33Z</time>
      </trkpt>
      <trkpt lat="42.66958" lon="2.07812">
        <ele>1943.661</ele>
        <time>2011-08-23T13:21:34Z</time>
      </trkpt>
      <trkpt lat="42.6695" lon="2.07823">
        <ele>1940.966</ele>
        <time>2011-08-23T13:21:40Z</time>
      </trkpt>
      <trkpt lat="42.66941" lon="2.07843">
        <ele>1938.06</ele>
        <time>2011-08-23T13:21:45Z</time>
      </trkpt>
      <trkpt lat="42.66931" lon="2.07858">
        <ele>1936.36</ele>
        <time>2011-08-23T13:21:49Z</time>
      </trkpt>
      <trkpt lat="42.66921" lon="2.07871">
        <ele>1933.627</ele>
        <time>2011-08-23T13:21:53Z</time>
      </trkpt>
      <trkpt lat="42.66916" lon="2.07879">
        <ele>1932.36</ele>
        <time>2011-08-23T13:21:56Z</time>
      </trkpt>
      <trkpt lat="42.66912" lon="2.07881">
        <ele>1931.71</ele>
        <time>2011-08-23T13:21:58Z</time>
      </trkpt>
      <trkpt lat="42.6691" lon="2.07886">
        <ele>1931.437</ele>
        <time>2011-08-23T13:22:00Z</time>
      </trkpt>
      <trkpt lat="42.66903" lon="2.07894">
        <ele>1929.717</ele>
        <time>2011-08-23T13:22:05Z</time>
      </trkpt>
      <trkpt lat="42.66902" lon="2.079">
        <ele>1929.1</ele>
        <time>2011-08-23T13:22:07Z</time>
      </trkpt>
      <trkpt lat="42.66896" lon="2.0792">
        <ele>1927.227</ele>
        <time>2011-08-23T13:22:12Z</time>
      </trkpt>
      <trkpt lat="42.66886" lon="2.07934">
        <ele>1925.101</ele>
        <time>2011-08-23T13:22:16Z</time>
      </trkpt>
      <trkpt lat="42.66872" lon="2.07942">
        <ele>1924.056</ele>
        <time>2011-08-23T13:22:20Z</time>
      </trkpt>
      <trkpt lat="42.66856" lon="2.07943">
        <ele>1923.068</ele>
        <time>2011-08-23T13:22:25Z</time>
      </trkpt>
      <trkpt lat="42.66845" lon="2.07947">
        <ele>1921.944</ele>
        <time>2011-08-23T13:22:30Z</time>
      </trkpt>
      <trkpt lat="42.66844" lon="2.07948">
        <ele>1921.383</ele>
        <time>2011-08-23T13:22:33Z</time>
      </trkpt>
      <trkpt lat="42.66842" lon="2.07949">
        <ele>1921.094</ele>
        <time>2011-08-23T13:22:35Z</time>
      </trkpt>
      <trkpt lat="42.66833" lon="2.07959">
        <ele>1919.605</ele>
        <time>2011-08-23T13:22:40Z</time>
      </trkpt>
      <trkpt lat="42.66824" lon="2.07959">
        <ele>1918.843</ele>
        <time>2011-08-23T13:22:43Z</time>
      </trkpt>
      <trkpt lat="42.66809" lon="2.07967">
        <ele>1917.872</ele>
        <time>2011-08-23T13:22:49Z</time>
      </trkpt>
      <trkpt lat="42.66795" lon="2.07978">
        <ele>1916.588</ele>
        <time>2011-08-23T13:22:54Z</time>
      </trkpt>
      <trkpt lat="42.66789" lon="2.07983">
        <ele>1915.913</ele>
        <time>2011-08-23T13:22:56Z</time>
      </trkpt>
      <trkpt lat="42.66773" lon="2.07996">
        <ele>1913.31</ele>
        <time>2011-08-23T13:23:03Z</time>
      </trkpt>
      <trkpt lat="42.66768" lon="2.08001">
        <ele>1912.812</ele>
        <time>2011-08-23T13:23:05Z</time>
      </trkpt>
      <trkpt lat="42.66752" lon="2.08002">
        <ele>1912.036</ele>
        <time>2011-08-23T13:23:09Z</time>
      </trkpt>
      <trkpt lat="42.66736" lon="2.0801">
        <ele>1911.33</ele>
        <time>2011-08-23T13:23:14Z</time>
      </trkpt>
      <trkpt lat="42.66732" lon="2.08017">
        <ele>1910.752</ele>
        <time>2011-08-23T13:23:17Z</time>
      </trkpt>
      <trkpt lat="42.66725" lon="2.08033">
        <ele>1910.53</ele>
        <time>2011-08-23T13:23:22Z</time>
      </trkpt>
      <trkpt lat="42.66721" lon="2.08034">
        <ele>1910.553</ele>
        <time>2011-08-23T13:23:24Z</time>
      </trkpt>
      <trkpt lat="42.66718" lon="2.08037">
        <ele>1910.579</ele>
        <time>2011-08-23T13:23:27Z</time>
      </trkpt>
      <trkpt lat="42.66716" lon="2.0804">
        <ele>1910.667</ele>
        <time>2011-08-23T13:23:30Z</time>
      </trkpt>
      <trkpt lat="42.66715" lon="2.08041">
        <ele>1911.067</ele>
        <time>2011-08-23T13:23:32Z</time>
      </trkpt>
      <trkpt lat="42.66712" lon="2.08052">
        <ele>1911.305</ele>
        <time>2011-08-23T13:23:39Z</time>
      </trkpt>
      <trkpt lat="42.66707" lon="2.08063">
        <ele>1910.796</ele>
        <time>2011-08-23T13:23:47Z</time>
      </trkpt>
      <trkpt lat="42.66699" lon="2.08076">
        <ele>1910.548</ele>
        <time>2011-08-23T13:23:53Z</time>
      </trkpt>
      <trkpt lat="42.66692" lon="2.08087">
        <ele>1910.604</ele>
        <time>2011-08-23T13:23:59Z</time>
      </trkpt>
      <trkpt lat="42.66691" lon="2.08088">
        <ele>1910.804</ele>
        <time>2011-08-23T13:24:00Z</time>
      </trkpt>
      <trkpt lat="42.66685" lon="2.0809">
        <ele>1910.573</ele>
        <time>2011-08-23T13:24:06Z</time>
      </trkpt>
      <trkpt lat="42.66684" lon="2.08089">
        <ele>1911.845</ele>
        <time>2011-08-23T13:24:10Z</time>
      </trkpt>
      <trkpt lat="42.66683" lon="2.08088">
        <ele>1911.639</ele>
        <time>2011-08-23T13:24:16Z</time>
      </trkpt>
      <trkpt lat="42.66678" lon="2.0809">
        <ele>1911.882</ele>
        <time>2011-08-23T13:24:26Z</time>
      </trkpt>
      <trkpt lat="42.66677" lon="2.0809">
        <ele>1912.049</ele>
        <time>2011-08-23T13:24:31Z</time>
      </trkpt>
      <trkpt lat="42.66672" lon="2.08093">
        <ele>1912.139</ele>
        <time>2011-08-23T13:24:36Z</time>
      </trkpt>
      <trkpt lat="42.66665" lon="2.08099">
        <ele>1912.349</ele>
        <time>2011-08-23T13:24:41Z</time>
      </trkpt>
      <trkpt lat="42.66661" lon="2.08106">
        <ele>1912.762</ele>
        <time>2011-08-23T13:24:45Z</time>
      </trkpt>
      <trkpt lat="42.66648" lon="2.08116">
        <ele>1912.828</ele>
        <time>2011-08-23T13:24:52Z</time>
      </trkpt>
      <trkpt lat="42.66643" lon="2.08123">
        <ele>1913.177</ele>
        <time>2011-08-23T13:24:56Z</time>
      </trkpt>
      <trkpt lat="42.66642" lon="2.08136">
        <ele>1912.714</ele>
        <time>2011-08-23T13:25:01Z</time>
      </trkpt>
      <trkpt lat="42.66639" lon="2.08143">
        <ele>1912.312</ele>
        <time>2011-08-23T13:25:05Z</time>
      </trkpt>
      <trkpt lat="42.66635" lon="2.08143">
        <ele>1912.482</ele>
        <time>2011-08-23T13:25:08Z</time>
      </trkpt>
      <trkpt lat="42.66627" lon="2.08147">
        <ele>1913.044</ele>
        <time>2011-08-23T13:25:12Z</time>
      </trkpt>
      <trkpt lat="42.66616" lon="2.08162">
        <ele>1912.644</ele>
        <time>2011-08-23T13:25:18Z</time>
      </trkpt>
      <trkpt lat="42.66613" lon="2.08172">
        <ele>1912.643</ele>
        <time>2011-08-23T13:25:21Z</time>
      </trkpt>
      <trkpt lat="42.66612" lon="2.08178">
        <ele>1912.643</ele>
        <time>2011-08-23T13:25:23Z</time>
      </trkpt>
      <trkpt lat="42.66603" lon="2.08197">
        <ele>1912.231</ele>
        <time>2011-08-23T13:25:30Z</time>
      </trkpt>
      <trkpt lat="42.66605" lon="2.08213">
        <ele>1911.662</ele>
        <time>2011-08-23T13:25:36Z</time>
      </trkpt>
      <trkpt lat="42.66606" lon="2.08215">
        <ele>1911.599</ele>
        <time>2011-08-23T13:25:37Z</time>
      </trkpt>
      <trkpt lat="42.66615" lon="2.08243">
        <ele>1909.747</ele>
        <time>2011-08-23T13:25:45Z</time>
      </trkpt>
      <trkpt lat="42.66617" lon="2.0825">
        <ele>1909.723</ele>
        <time>2011-08-23T13:25:47Z</time>
      </trkpt>
      <trkpt lat="42.66625" lon="2.0826">
        <ele>1909.38</ele>
        <time>2011-08-23T13:25:52Z</time>
      </trkpt>
      <trkpt lat="42.66633" lon="2.08278">
        <ele>1908.226</ele>
        <time>2011-08-23T13:25:57Z</time>
      </trkpt>
      <trkpt lat="42.6664" lon="2.08299">
        <ele>1906.87</ele>
        <time>2011-08-23T13:26:02Z</time>
      </trkpt>
      <trkpt lat="42.66643" lon="2.08307">
        <ele>1906.284</ele>
        <time>2011-08-23T13:26:04Z</time>
      </trkpt>
      <trkpt lat="42.66644" lon="2.08313">
        <ele>1905.441</ele>
        <time>2011-08-23T13:26:09Z</time>
      </trkpt>
      <trkpt lat="42.66647" lon="2.08321">
        <ele>1905.209</ele>
        <time>2011-08-23T13:26:31Z</time>
      </trkpt>
      <trkpt lat="42.66647" lon="2.08324">
        <ele>1905.053</ele>
        <time>2011-08-23T13:26:32Z</time>
      </trkpt>
      <trkpt lat="42.66642" lon="2.08338">
        <ele>1904.483</ele>
        <time>2011-08-23T13:26:37Z</time>
      </trkpt>
      <trkpt lat="42.66635" lon="2.08352">
        <ele>1903.771</ele>
        <time>2011-08-23T13:26:41Z</time>
      </trkpt>
      <trkpt lat="42.66625" lon="2.08372">
        <ele>1902.452</ele>
        <time>2011-08-23T13:26:46Z</time>
      </trkpt>
      <trkpt lat="42.66611" lon="2.08396">
        <ele>1900.962</ele>
        <time>2011-08-23T13:26:52Z</time>
      </trkpt>
      <trkpt lat="42.66601" lon="2.0841">
        <ele>1899.673</ele>
        <time>2011-08-23T13:26:56Z</time>
      </trkpt>
      <trkpt lat="42.66585" lon="2.08416">
        <ele>1897.922</ele>
        <time>2011-08-23T13:27:00Z</time>
      </trkpt>
      <trkpt lat="42.66565" lon="2.08428">
        <ele>1895.005</ele>
        <time>2011-08-23T13:27:06Z</time>
      </trkpt>
      <trkpt lat="42.66557" lon="2.08427">
        <ele>1893.813</ele>
        <time>2011-08-23T13:27:09Z</time>
      </trkpt>
      <trkpt lat="42.66552" lon="2.08429">
        <ele>1892.801</ele>
        <time>2011-08-23T13:27:11Z</time>
      </trkpt>
      <trkpt lat="42.66544" lon="2.0843">
        <ele>1891.113</ele>
        <time>2011-08-23T13:27:14Z</time>
      </trkpt>
      <trkpt lat="42.66538" lon="2.08435">
        <ele>1889.254</ele>
        <time>2011-08-23T13:27:17Z</time>
      </trkpt>
      <trkpt lat="42.66532" lon="2.0843">
        <ele>1886.876</ele>
        <time>2011-08-23T13:27:21Z</time>
      </trkpt>
      <trkpt lat="42.66526" lon="2.08422">
        <ele>1884.763</ele>
        <time>2011-08-23T13:27:24Z</time>
      </trkpt>
      <trkpt lat="42.66515" lon="2.0841">
        <ele>1882.688</ele>
        <time>2011-08-23T13:27:28Z</time>
      </trkpt>
      <trkpt lat="42.6651" lon="2.08405">
        <ele>1881.511</ele>
        <time>2011-08-23T13:27:30Z</time>
      </trkpt>
      <trkpt lat="42.66498" lon="2.08405">
        <ele>1879.112</ele>
        <time>2011-08-23T13:27:35Z</time>
      </trkpt>
      <trkpt lat="42.66487" lon="2.0841">
        <ele>1877.275</ele>
        <time>2011-08-23T13:27:39Z</time>
      </trkpt>
      <trkpt lat="42.66476" lon="2.08411">
        <ele>1873.279</ele>
        <time>2011-08-23T13:27:45Z</time>
      </trkpt>
      <trkpt lat="42.66475" lon="2.0841">
        <ele>1871.761</ele>
        <time>2011-08-23T13:27:51Z</time>
      </trkpt>
      <trkpt lat="42.66472" lon="2.08411">
        <ele>1871.134</ele>
        <time>2011-08-23T13:27:56Z</time>
      </trkpt>
      <trkpt lat="42.66469" lon="2.08411">
        <ele>1870.163</ele>
        <time>2011-08-23T13:28:00Z</time>
      </trkpt>
      <trkpt lat="42.66465" lon="2.0841">
        <ele>1868.655</ele>
        <time>2011-08-23T13:28:04Z</time>
      </trkpt>
      <trkpt lat="42.66458" lon="2.08409">
        <ele>1866.181</ele>
        <time>2011-08-23T13:28:11Z</time>
      </trkpt>
      <trkpt lat="42.66456" lon="2.08409">
        <ele>1865.657</ele>
        <time>2011-08-23T13:28:12Z</time>
      </trkpt>
      <trkpt lat="42.66453" lon="2.08418">
        <ele>1863.908</ele>
        <time>2011-08-23T13:28:17Z</time>
      </trkpt>
      <trkpt lat="42.66454" lon="2.08422">
        <ele>1863.619</ele>
        <time>2011-08-23T13:28:20Z</time>
      </trkpt>
      <trkpt lat="42.66443" lon="2.08439">
        <ele>1862.79</ele>
        <time>2011-08-23T13:28:27Z</time>
      </trkpt>
      <trkpt lat="42.66429" lon="2.08459">
        <ele>1861.966</ele>
        <time>2011-08-23T13:28:32Z</time>
      </trkpt>
      <trkpt lat="42.66418" lon="2.08483">
        <ele>1860.893</ele>
        <time>2011-08-23T13:28:37Z</time>
      </trkpt>
      <trkpt lat="42.6641" lon="2.085">
        <ele>1859.999</ele>
        <time>2011-08-23T13:28:40Z</time>
      </trkpt>
      <trkpt lat="42.66403" lon="2.08526">
        <ele>1857.858</ele>
        <time>2011-08-23T13:28:45Z</time>
      </trkpt>
      <trkpt lat="42.66404" lon="2.08531">
        <ele>1856.652</ele>
        <time>2011-08-23T13:28:50Z</time>
      </trkpt>
      <trkpt lat="42.66405" lon="2.08539">
        <ele>1856.413</ele>
        <time>2011-08-23T13:28:56Z</time>
      </trkpt>
      <trkpt lat="42.66401" lon="2.08557">
        <ele>1855.359</ele>
        <time>2011-08-23T13:29:01Z</time>
      </trkpt>
      <trkpt lat="42.66391" lon="2.08575">
        <ele>1854.574</ele>
        <time>2011-08-23T13:29:05Z</time>
      </trkpt>
      <trkpt lat="42.66387" lon="2.08586">
        <ele>1853.875</ele>
        <time>2011-08-23T13:29:07Z</time>
      </trkpt>
      <trkpt lat="42.66379" lon="2.08618">
        <ele>1852.857</ele>
        <time>2011-08-23T13:29:12Z</time>
      </trkpt>
      <trkpt lat="42.66356" lon="2.08646">
        <ele>1850.917</ele>
        <time>2011-08-23T13:29:17Z</time>
      </trkpt>
      <trkpt lat="42.6633" lon="2.08685">
        <ele>1847.699</ele>
        <time>2011-08-23T13:29:23Z</time>
      </trkpt>
      <trkpt lat="42.66316" lon="2.08724">
        <ele>1843.791</ele>
        <time>2011-08-23T13:29:29Z</time>
      </trkpt>
      <trkpt lat="42.66314" lon="2.08732">
        <ele>1843.341</ele>
        <time>2011-08-23T13:29:30Z</time>
      </trkpt>
      <trkpt lat="42.66311" lon="2.08766">
        <ele>1842.936</ele>
        <time>2011-08-23T13:29:35Z</time>
      </trkpt>
      <trkpt lat="42.66312" lon="2.0879">
        <ele>1842.384</ele>
        <time>2011-08-23T13:29:40Z</time>
      </trkpt>
      <trkpt lat="42.66312" lon="2.08792">
        <ele>1841.442</ele>
        <time>2011-08-23T13:29:43Z</time>
      </trkpt>
      <trkpt lat="42.66313" lon="2.088">
        <ele>1841.067</ele>
        <time>2011-08-23T13:30:32Z</time>
      </trkpt>
      <trkpt lat="42.66309" lon="2.08827">
        <ele>1839.379</ele>
        <time>2011-08-23T13:30:37Z</time>
      </trkpt>
      <trkpt lat="42.66311" lon="2.08879">
        <ele>1835.908</ele>
        <time>2011-08-23T13:30:43Z</time>
      </trkpt>
      <trkpt lat="42.66313" lon="2.08949">
        <ele>1830.095</ele>
        <time>2011-08-23T13:30:50Z</time>
      </trkpt>
      <trkpt lat="42.66313" lon="2.08958">
        <ele>1830.086</ele>
        <time>2011-08-23T13:30:51Z</time>
      </trkpt>
      <trkpt lat="42.66313" lon="2.08968">
        <ele>1829.215</ele>
        <time>2011-08-23T13:30:52Z</time>
      </trkpt>
      <trkpt lat="42.66311" lon="2.08985">
        <ele>1827.575</ele>
        <time>2011-08-23T13:30:54Z</time>
      </trkpt>
      <trkpt lat="42.66302" lon="2.09009">
        <ele>1826.107</ele>
        <time>2011-08-23T13:30:57Z</time>
      </trkpt>
      <trkpt lat="42.66295" lon="2.09045">
        <ele>1823.398</ele>
        <time>2011-08-23T13:31:01Z</time>
      </trkpt>
      <trkpt lat="42.66298" lon="2.0908">
        <ele>1820.084</ele>
        <time>2011-08-23T13:31:05Z</time>
      </trkpt>
      <trkpt lat="42.66308" lon="2.09131">
        <ele>1816.783</ele>
        <time>2011-08-23T13:31:11Z</time>
      </trkpt>
      <trkpt lat="42.6631" lon="2.0914">
        <ele>1816.495</ele>
        <time>2011-08-23T13:31:12Z</time>
      </trkpt>
      <trkpt lat="42.66315" lon="2.09167">
        <ele>1815.219</ele>
        <time>2011-08-23T13:31:15Z</time>
      </trkpt>
      <trkpt lat="42.66327" lon="2.09207">
        <ele>1813.598</ele>
        <time>2011-08-23T13:31:20Z</time>
      </trkpt>
      <trkpt lat="42.6633" lon="2.09214">
        <ele>1813.449</ele>
        <time>2011-08-23T13:31:21Z</time>
      </trkpt>
      <trkpt lat="42.66331" lon="2.09239">
        <ele>1812.255</ele>
        <time>2011-08-23T13:31:25Z</time>
      </trkpt>
      <trkpt lat="42.6633" lon="2.09249">
        <ele>1810.645</ele>
        <time>2011-08-23T13:31:28Z</time>
      </trkpt>
      <trkpt lat="42.66329" lon="2.09251">
        <ele>1810.442</ele>
        <time>2011-08-23T13:31:29Z</time>
      </trkpt>
      <trkpt lat="42.66326" lon="2.09269">
        <ele>1810.635</ele>
        <time>2011-08-23T13:31:37Z</time>
      </trkpt>
      <trkpt lat="42.66323" lon="2.09285">
        <ele>1810.498</ele>
        <time>2011-08-23T13:31:42Z</time>
      </trkpt>
      <trkpt lat="42.66326" lon="2.09298">
        <ele>1811.083</ele>
        <time>2011-08-23T13:31:47Z</time>
      </trkpt>
      <trkpt lat="42.66322" lon="2.09309">
        <ele>1811.489</ele>
        <time>2011-08-23T13:31:51Z</time>
      </trkpt>
      <trkpt lat="42.6632" lon="2.09313">
        <ele>1811.452</ele>
        <time>2011-08-23T13:31:52Z</time>
      </trkpt>
      <trkpt lat="42.66306" lon="2.09336">
        <ele>1808.677</ele>
        <time>2011-08-23T13:31:57Z</time>
      </trkpt>
      <trkpt lat="42.66288" lon="2.09356">
        <ele>1806.319</ele>
        <time>2011-08-23T13:32:03Z</time>
      </trkpt>
      <trkpt lat="42.66279" lon="2.0937">
        <ele>1805.96</ele>
        <time>2011-08-23T13:32:08Z</time>
      </trkpt>
      <trkpt lat="42.66267" lon="2.09385">
        <ele>1805.005</ele>
        <time>2011-08-23T13:32:13Z</time>
      </trkpt>
      <trkpt lat="42.66261" lon="2.094">
        <ele>1804.178</ele>
        <time>2011-08-23T13:32:17Z</time>
      </trkpt>
      <trkpt lat="42.66261" lon="2.09414">
        <ele>1804.194</ele>
        <time>2011-08-23T13:32:23Z</time>
      </trkpt>
      <trkpt lat="42.66261" lon="2.09416">
        <ele>1804.395</ele>
        <time>2011-08-23T13:32:24Z</time>
      </trkpt>
      <trkpt lat="42.66257" lon="2.09428">
        <ele>1803.877</ele>
        <time>2011-08-23T13:32:29Z</time>
      </trkpt>
      <trkpt lat="42.6625" lon="2.09438">
        <ele>1803.429</ele>
        <time>2011-08-23T13:32:32Z</time>
      </trkpt>
      <trkpt lat="42.66227" lon="2.09468">
        <ele>1801.142</ele>
        <time>2011-08-23T13:32:39Z</time>
      </trkpt>
      <trkpt lat="42.6622" lon="2.09487">
        <ele>1799.457</ele>
        <time>2011-08-23T13:32:43Z</time>
      </trkpt>
      <trkpt lat="42.6622" lon="2.09506">
        <ele>1798.685</ele>
        <time>2011-08-23T13:32:48Z</time>
      </trkpt>
      <trkpt lat="42.66221" lon="2.09521">
        <ele>1797.786</ele>
        <time>2011-08-23T13:32:53Z</time>
      </trkpt>
      <trkpt lat="42.66218" lon="2.09534">
        <ele>1797.413</ele>
        <time>2011-08-23T13:32:57Z</time>
      </trkpt>
      <trkpt lat="42.66206" lon="2.09558">
        <ele>1795.162</ele>
        <time>2011-08-23T13:33:03Z</time>
      </trkpt>
      <trkpt lat="42.66205" lon="2.09562">
        <ele>1794.857</ele>
        <time>2011-08-23T13:33:04Z</time>
      </trkpt>
      <trkpt lat="42.66208" lon="2.09589">
        <ele>1792.877</ele>
        <time>2011-08-23T13:33:09Z</time>
      </trkpt>
      <trkpt lat="42.66201" lon="2.09612">
        <ele>1790.16</ele>
        <time>2011-08-23T13:33:14Z</time>
      </trkpt>
      <trkpt lat="42.66199" lon="2.0963">
        <ele>1788.703</ele>
        <time>2011-08-23T13:33:18Z</time>
      </trkpt>
      <trkpt lat="42.66199" lon="2.09647">
        <ele>1787.446</ele>
        <time>2011-08-23T13:33:23Z</time>
      </trkpt>
      <trkpt lat="42.66199" lon="2.09651">
        <ele>1787.193</ele>
        <time>2011-08-23T13:33:24Z</time>
      </trkpt>
      <trkpt lat="42.66198" lon="2.09662">
        <ele>1785.998</ele>
        <time>2011-08-23T13:33:28Z</time>
      </trkpt>
      <trkpt lat="42.66198" lon="2.09673">
        <ele>1785.064</ele>
        <time>2011-08-23T13:33:32Z</time>
      </trkpt>
      <trkpt lat="42.66196" lon="2.09694">
        <ele>1783.655</ele>
        <time>2011-08-23T13:33:38Z</time>
      </trkpt>
      <trkpt lat="42.66199" lon="2.0971">
        <ele>1782.914</ele>
        <time>2011-08-23T13:33:43Z</time>
      </trkpt>
      <trkpt lat="42.66194" lon="2.09727">
        <ele>1780.819</ele>
        <time>2011-08-23T13:33:49Z</time>
      </trkpt>
      <trkpt lat="42.6619" lon="2.09739">
        <ele>1778.397</ele>
        <time>2011-08-23T13:33:53Z</time>
      </trkpt>
      <trkpt lat="42.66186" lon="2.09749">
        <ele>1776.555</ele>
        <time>2011-08-23T13:33:57Z</time>
      </trkpt>
      <trkpt lat="42.66184" lon="2.0975">
        <ele>1776.068</ele>
        <time>2011-08-23T13:33:58Z</time>
      </trkpt>
      <trkpt lat="42.6618" lon="2.09754">
        <ele>1774.823</ele>
        <time>2011-08-23T13:34:00Z</time>
      </trkpt>
      <trkpt lat="42.66163" lon="2.09757">
        <ele>1769.537</ele>
        <time>2011-08-23T13:34:06Z</time>
      </trkpt>
      <trkpt lat="42.66158" lon="2.09761">
        <ele>1767.785</ele>
        <time>2011-08-23T13:34:08Z</time>
      </trkpt>
      <trkpt lat="42.66147" lon="2.09773">
        <ele>1764.001</ele>
        <time>2011-08-23T13:34:13Z</time>
      </trkpt>
      <trkpt lat="42.66141" lon="2.09781">
        <ele>1761.508</ele>
        <time>2011-08-23T13:34:17Z</time>
      </trkpt>
      <trkpt lat="42.66133" lon="2.09785">
        <ele>1759.768</ele>
        <time>2011-08-23T13:34:21Z</time>
      </trkpt>
      <trkpt lat="42.66122" lon="2.09791">
        <ele>1757.887</ele>
        <time>2011-08-23T13:34:26Z</time>
      </trkpt>
      <trkpt lat="42.66114" lon="2.09794">
        <ele>1756.867</ele>
        <time>2011-08-23T13:34:30Z</time>
      </trkpt>
      <trkpt lat="42.66104" lon="2.09792">
        <ele>1755.589</ele>
        <time>2011-08-23T13:34:35Z</time>
      </trkpt>
      <trkpt lat="42.66089" lon="2.09793">
        <ele>1754.11</ele>
        <time>2011-08-23T13:34:39Z</time>
      </trkpt>
      <trkpt lat="42.66084" lon="2.09794">
        <ele>1753.19</ele>
        <time>2011-08-23T13:34:41Z</time>
      </trkpt>
      <trkpt lat="42.66063" lon="2.09789">
        <ele>1750.854</ele>
        <time>2011-08-23T13:34:48Z</time>
      </trkpt>
      <trkpt lat="42.66053" lon="2.09785">
        <ele>1748.46</ele>
        <time>2011-08-23T13:34:53Z</time>
      </trkpt>
      <trkpt lat="42.6603" lon="2.09781">
        <ele>1745.8</ele>
        <time>2011-08-23T13:34:59Z</time>
      </trkpt>
      <trkpt lat="42.66018" lon="2.09782">
        <ele>1743.684</ele>
        <time>2011-08-23T13:35:03Z</time>
      </trkpt>
      <trkpt lat="42.66004" lon="2.09782">
        <ele>1742.139</ele>
        <time>2011-08-23T13:35:08Z</time>
      </trkpt>
      <trkpt lat="42.65989" lon="2.09782">
        <ele>1740.446</ele>
        <time>2011-08-23T13:35:13Z</time>
      </trkpt>
      <trkpt lat="42.65976" lon="2.0978">
        <ele>1738.73</ele>
        <time>2011-08-23T13:35:19Z</time>
      </trkpt>
      <trkpt lat="42.65966" lon="2.09783">
        <ele>1737.761</ele>
        <time>2011-08-23T13:35:25Z</time>
      </trkpt>
      <trkpt lat="42.65962" lon="2.09782">
        <ele>1737.229</ele>
        <time>2011-08-23T13:35:31Z</time>
      </trkpt>
      <trkpt lat="42.65962" lon="2.09783">
        <ele>1735.372</ele>
        <time>2011-08-23T13:37:38Z</time>
      </trkpt>
      <trkpt lat="42.65961" lon="2.09783">
        <ele>1735.217</ele>
        <time>2011-08-23T13:37:39Z</time>
      </trkpt>
      <trkpt lat="42.65955" lon="2.09784">
        <ele>1735.029</ele>
        <time>2011-08-23T13:37:43Z</time>
      </trkpt>
      <trkpt lat="42.65945" lon="2.09789">
        <ele>1734.357</ele>
        <time>2011-08-23T13:37:50Z</time>
      </trkpt>
      <trkpt lat="42.65937" lon="2.09793">
        <ele>1734.363</ele>
        <time>2011-08-23T13:37:55Z</time>
      </trkpt>
      <trkpt lat="42.6593" lon="2.09794">
        <ele>1734.209</ele>
        <time>2011-08-23T13:38:00Z</time>
      </trkpt>
      <trkpt lat="42.65917" lon="2.09795">
        <ele>1734.042</ele>
        <time>2011-08-23T13:38:07Z</time>
      </trkpt>
      <trkpt lat="42.65903" lon="2.09795">
        <ele>1733.693</ele>
        <time>2011-08-23T13:38:15Z</time>
      </trkpt>
      <trkpt lat="42.65891" lon="2.09796">
        <ele>1733.507</ele>
        <time>2011-08-23T13:38:21Z</time>
      </trkpt>
      <trkpt lat="42.65876" lon="2.09794">
        <ele>1733.127</ele>
        <time>2011-08-23T13:38:28Z</time>
      </trkpt>
      <trkpt lat="42.65863" lon="2.09795">
        <ele>1733.19</ele>
        <time>2011-08-23T13:38:36Z</time>
      </trkpt>
      <trkpt lat="42.6585" lon="2.09797">
        <ele>1733.395</ele>
        <time>2011-08-23T13:38:43Z</time>
      </trkpt>
      <trkpt lat="42.65835" lon="2.09797">
        <ele>1733.626</ele>
        <time>2011-08-23T13:38:50Z</time>
      </trkpt>
      <trkpt lat="42.65817" lon="2.09795">
        <ele>1734.36</ele>
        <time>2011-08-23T13:38:58Z</time>
      </trkpt>
      <trkpt lat="42.658" lon="2.09795">
        <ele>1734.721</ele>
        <time>2011-08-23T13:39:06Z</time>
      </trkpt>
      <trkpt lat="42.65778" lon="2.09793">
        <ele>1735.026</ele>
        <time>2011-08-23T13:39:16Z</time>
      </trkpt>
      <trkpt lat="42.6576" lon="2.09789">
        <ele>1734.873</ele>
        <time>2011-08-23T13:39:24Z</time>
      </trkpt>
      <trkpt lat="42.65747" lon="2.09787">
        <ele>1734.449</ele>
        <time>2011-08-23T13:39:30Z</time>
      </trkpt>
      <trkpt lat="42.65734" lon="2.09792">
        <ele>1734.144</ele>
        <time>2011-08-23T13:39:36Z</time>
      </trkpt>
      <trkpt lat="42.6572" lon="2.09798">
        <ele>1734.722</ele>
        <time>2011-08-23T13:39:43Z</time>
      </trkpt>
      <trkpt lat="42.65703" lon="2.09804">
        <ele>1735.105</ele>
        <time>2011-08-23T13:39:51Z</time>
      </trkpt>
      <trkpt lat="42.65686" lon="2.09807">
        <ele>1735.952</ele>
        <time>2011-08-23T13:39:58Z</time>
      </trkpt>
      <trkpt lat="42.65668" lon="2.09812">
        <ele>1736.353</ele>
        <time>2011-08-23T13:40:06Z</time>
      </trkpt>
      <trkpt lat="42.6565" lon="2.09813">
        <ele>1736.486</ele>
        <time>2011-08-23T13:40:13Z</time>
      </trkpt>
      <trkpt lat="42.65634" lon="2.09812">
        <ele>1736.216</ele>
        <time>2011-08-23T13:40:19Z</time>
      </trkpt>
      <trkpt lat="42.65617" lon="2.09806">
        <ele>1735.392</ele>
        <time>2011-08-23T13:40:25Z</time>
      </trkpt>
      <trkpt lat="42.65597" lon="2.09805">
        <ele>1734.607</ele>
        <time>2011-08-23T13:40:32Z</time>
      </trkpt>
      <trkpt lat="42.65577" lon="2.09806">
        <ele>1734.654</ele>
        <time>2011-08-23T13:40:40Z</time>
      </trkpt>
      <trkpt lat="42.65563" lon="2.09806">
        <ele>1734.828</ele>
        <time>2011-08-23T13:40:46Z</time>
      </trkpt>
      <trkpt lat="42.6555" lon="2.09806">
        <ele>1734.976</ele>
        <time>2011-08-23T13:40:51Z</time>
      </trkpt>
      <trkpt lat="42.65531" lon="2.09803">
        <ele>1734.711</ele>
        <time>2011-08-23T13:40:56Z</time>
      </trkpt>
      <trkpt lat="42.65509" lon="2.09799">
        <ele>1734.111</ele>
        <time>2011-08-23T13:41:02Z</time>
      </trkpt>
      <trkpt lat="42.65485" lon="2.09788">
        <ele>1732.14</ele>
        <time>2011-08-23T13:41:09Z</time>
      </trkpt>
      <trkpt lat="42.65467" lon="2.09781">
        <ele>1730.855</ele>
        <time>2011-08-23T13:41:14Z</time>
      </trkpt>
      <trkpt lat="42.65449" lon="2.09776">
        <ele>1729.548</ele>
        <time>2011-08-23T13:41:20Z</time>
      </trkpt>
      <trkpt lat="42.65441" lon="2.09776">
        <ele>1729.406</ele>
        <time>2011-08-23T13:41:22Z</time>
      </trkpt>
      <trkpt lat="42.65419" lon="2.09782">
        <ele>1727.918</ele>
        <time>2011-08-23T13:41:28Z</time>
      </trkpt>
      <trkpt lat="42.65403" lon="2.09793">
        <ele>1727.445</ele>
        <time>2011-08-23T13:41:33Z</time>
      </trkpt>
      <trkpt lat="42.65401" lon="2.09804">
        <ele>1727.486</ele>
        <time>2011-08-23T13:41:36Z</time>
      </trkpt>
      <trkpt lat="42.65384" lon="2.09814">
        <ele>1726.142</ele>
        <time>2011-08-23T13:41:41Z</time>
      </trkpt>
      <trkpt lat="42.65366" lon="2.09821">
        <ele>1723.083</ele>
        <time>2011-08-23T13:41:45Z</time>
      </trkpt>
      <trkpt lat="42.6536" lon="2.09827">
        <ele>1722.195</ele>
        <time>2011-08-23T13:41:47Z</time>
      </trkpt>
      <trkpt lat="42.65348" lon="2.09835">
        <ele>1718.377</ele>
        <time>2011-08-23T13:41:51Z</time>
      </trkpt>
      <trkpt lat="42.65337" lon="2.09845">
        <ele>1715.044</ele>
        <time>2011-08-23T13:41:55Z</time>
      </trkpt>
      <trkpt lat="42.65321" lon="2.0986">
        <ele>1711.314</ele>
        <time>2011-08-23T13:41:59Z</time>
      </trkpt>
      <trkpt lat="42.65313" lon="2.09876">
        <ele>1706.651</ele>
        <time>2011-08-23T13:42:03Z</time>
      </trkpt>
      <trkpt lat="42.65312" lon="2.09879">
        <ele>1705.716</ele>
        <time>2011-08-23T13:42:04Z</time>
      </trkpt>
      <trkpt lat="42.65298" lon="2.09902">
        <ele>1701.732</ele>
        <time>2011-08-23T13:42:10Z</time>
      </trkpt>
      <trkpt lat="42.65286" lon="2.09914">
        <ele>1699.485</ele>
        <time>2011-08-23T13:42:13Z</time>
      </trkpt>
      <trkpt lat="42.65278" lon="2.09929">
        <ele>1695.925</ele>
        <time>2011-08-23T13:42:17Z</time>
      </trkpt>
      <trkpt lat="42.65271" lon="2.09943">
        <ele>1694.942</ele>
        <time>2011-08-23T13:42:21Z</time>
      </trkpt>
      <trkpt lat="42.65255" lon="2.09977">
        <ele>1692.598</ele>
        <time>2011-08-23T13:42:28Z</time>
      </trkpt>
      <trkpt lat="42.65242" lon="2.09992">
        <ele>1691.616</ele>
        <time>2011-08-23T13:42:34Z</time>
      </trkpt>
      <trkpt lat="42.65227" lon="2.10004">
        <ele>1689.841</ele>
        <time>2011-08-23T13:42:41Z</time>
      </trkpt>
      <trkpt lat="42.65213" lon="2.10015">
        <ele>1688.918</ele>
        <time>2011-08-23T13:42:47Z</time>
      </trkpt>
      <trkpt lat="42.65204" lon="2.10021">
        <ele>1688.642</ele>
        <time>2011-08-23T13:42:50Z</time>
      </trkpt>
      <trkpt lat="42.65194" lon="2.10024">
        <ele>1688.089</ele>
        <time>2011-08-23T13:42:52Z</time>
      </trkpt>
      <trkpt lat="42.65175" lon="2.10034">
        <ele>1685.633</ele>
        <time>2011-08-23T13:42:56Z</time>
      </trkpt>
      <trkpt lat="42.65155" lon="2.1005">
        <ele>1682.606</ele>
        <time>2011-08-23T13:43:01Z</time>
      </trkpt>
      <trkpt lat="42.65134" lon="2.10069">
        <ele>1680.562</ele>
        <time>2011-08-23T13:43:08Z</time>
      </trkpt>
      <trkpt lat="42.65124" lon="2.10082">
        <ele>1680.26</ele>
        <time>2011-08-23T13:43:13Z</time>
      </trkpt>
      <trkpt lat="42.65122" lon="2.10088">
        <ele>1680.148</ele>
        <time>2011-08-23T13:43:15Z</time>
      </trkpt>
      <trkpt lat="42.65109" lon="2.10091">
        <ele>1679.316</ele>
        <time>2011-08-23T13:43:20Z</time>
      </trkpt>
      <trkpt lat="42.65099" lon="2.10091">
        <ele>1678.66</ele>
        <time>2011-08-23T13:43:22Z</time>
      </trkpt>
      <trkpt lat="42.65074" lon="2.10094">
        <ele>1675.841</ele>
        <time>2011-08-23T13:43:27Z</time>
      </trkpt>
      <trkpt lat="42.65059" lon="2.10092">
        <ele>1674.264</ele>
        <time>2011-08-23T13:43:30Z</time>
      </trkpt>
      <trkpt lat="42.65048" lon="2.1009">
        <ele>1672.443</ele>
        <time>2011-08-23T13:43:32Z</time>
      </trkpt>
      <trkpt lat="42.65031" lon="2.10078">
        <ele>1668.7</ele>
        <time>2011-08-23T13:43:36Z</time>
      </trkpt>
      <trkpt lat="42.65006" lon="2.10071">
        <ele>1663.327</ele>
        <time>2011-08-23T13:43:41Z</time>
      </trkpt>
      <trkpt lat="42.64977" lon="2.10075">
        <ele>1659.456</ele>
        <time>2011-08-23T13:43:46Z</time>
      </trkpt>
      <trkpt lat="42.64962" lon="2.10064">
        <ele>1656.702</ele>
        <time>2011-08-23T13:43:49Z</time>
      </trkpt>
      <trkpt lat="42.64957" lon="2.10057">
        <ele>1655.537</ele>
        <time>2011-08-23T13:43:50Z</time>
      </trkpt>
      <trkpt lat="42.6495" lon="2.1004">
        <ele>1652.871</ele>
        <time>2011-08-23T13:43:52Z</time>
      </trkpt>
      <trkpt lat="42.64944" lon="2.10022">
        <ele>1651.569</ele>
        <time>2011-08-23T13:43:54Z</time>
      </trkpt>
      <trkpt lat="42.64952" lon="2.09993">
        <ele>1647.523</ele>
        <time>2011-08-23T13:43:57Z</time>
      </trkpt>
      <trkpt lat="42.64957" lon="2.09984">
        <ele>1646.485</ele>
        <time>2011-08-23T13:43:58Z</time>
      </trkpt>
      <trkpt lat="42.64999" lon="2.09908">
        <ele>1643.475</ele>
        <time>2011-08-23T13:44:07Z</time>
      </trkpt>
      <trkpt lat="42.65019" lon="2.09865">
        <ele>1643.57</ele>
        <time>2011-08-23T13:44:13Z</time>
      </trkpt>
      <trkpt lat="42.65035" lon="2.0983">
        <ele>1642.718</ele>
        <time>2011-08-23T13:44:19Z</time>
      </trkpt>
      <trkpt lat="42.65058" lon="2.09804">
        <ele>1642.428</ele>
        <time>2011-08-23T13:44:25Z</time>
      </trkpt>
      <trkpt lat="42.65063" lon="2.09799">
        <ele>1642.245</ele>
        <time>2011-08-23T13:44:26Z</time>
      </trkpt>
      <trkpt lat="42.65084" lon="2.09765">
        <ele>1640.407</ele>
        <time>2011-08-23T13:44:31Z</time>
      </trkpt>
      <trkpt lat="42.65107" lon="2.09714">
        <ele>1637.731</ele>
        <time>2011-08-23T13:44:36Z</time>
      </trkpt>
      <trkpt lat="42.65123" lon="2.09658">
        <ele>1635.099</ele>
        <time>2011-08-23T13:44:41Z</time>
      </trkpt>
      <trkpt lat="42.65128" lon="2.09637">
        <ele>1633.85</ele>
        <time>2011-08-23T13:44:43Z</time>
      </trkpt>
      <trkpt lat="42.65135" lon="2.0959">
        <ele>1629.294</ele>
        <time>2011-08-23T13:44:48Z</time>
      </trkpt>
      <trkpt lat="42.65146" lon="2.09567">
        <ele>1625.881</ele>
        <time>2011-08-23T13:44:51Z</time>
      </trkpt>
      <trkpt lat="42.65152" lon="2.09538">
        <ele>1624.109</ele>
        <time>2011-08-23T13:44:54Z</time>
      </trkpt>
      <trkpt lat="42.6517" lon="2.09497">
        <ele>1620.642</ele>
        <time>2011-08-23T13:44:58Z</time>
      </trkpt>
      <trkpt lat="42.65181" lon="2.09462">
        <ele>1616.979</ele>
        <time>2011-08-23T13:45:02Z</time>
      </trkpt>
      <trkpt lat="42.65174" lon="2.09444">
        <ele>1614.932</ele>
        <time>2011-08-23T13:45:04Z</time>
      </trkpt>
      <trkpt lat="42.65169" lon="2.0943">
        <ele>1611.931</ele>
        <time>2011-08-23T13:45:06Z</time>
      </trkpt>
      <trkpt lat="42.65171" lon="2.09412">
        <ele>1608.253</ele>
        <time>2011-08-23T13:45:10Z</time>
      </trkpt>
      <trkpt lat="42.6517" lon="2.09411">
        <ele>1607.738</ele>
        <time>2011-08-23T13:45:13Z</time>
      </trkpt>
      <trkpt lat="42.65172" lon="2.09412">
        <ele>1607.23</ele>
        <time>2011-08-23T13:45:26Z</time>
      </trkpt>
    </trkseg>
  </trk>
</gpx>